GFSGBSN_sfc_wetblb_024.txt.gz
Wetbulb
57.83 57.43 57.11 56.95 57.39 57.36 57.11 58.17 58.02 57.40 56.24 55.45 55.29 54.86 55.07 55.42 56.66 57.35 56.76 55.51 55.15 54.99 54.57 55.56 55.56 55.59 54.40 52.94 51.88 57.52 62.50 62.82 61.02 57.13 54.03 52.77 51.40 48.20 43.99 44.25 43.08 41.91 42.17 43.65 44.46 45.29 42.52
57.30 56.86 57.18 57.37 57.23 56.75 57.23 57.95 57.65 56.96 55.62 54.98 54.65 55.29 55.94 56.46 56.64 56.89 56.38 55.02 54.53 54.38 55.29 55.23 55.24 55.73 52.69 48.26 56.86 56.01 58.19 58.67 56.21 55.12 54.48 54.32 52.06 50.60 46.93 44.73 42.69 43.81 43.66 42.97 43.49 43.85 44.68
57.18 57.11 57.26 56.97 56.79 56.60 57.12 57.08 57.00 56.82 55.67 56.00 56.38 56.15 56.03 56.20 56.30 56.10 56.06 54.83 54.40 54.64 55.27 55.03 54.99 55.93 53.88 53.09 57.34 56.35 55.35 54.41 55.24 55.91 52.74 53.18 52.21 48.85 47.92 45.58 46.19 44.59 41.43 42.82 42.31 43.24 42.69
57.16 57.11 56.91 56.53 56.17 55.91 56.42 56.50 56.88 57.06 56.78 56.42 56.44 55.81 55.47 55.39 55.39 55.33 55.27 54.01 53.64 54.84 54.62 55.29 56.54 54.38 50.49 58.83 56.71 53.42 52.40 52.65 53.96 55.30 54.87 53.92 53.02 50.48 47.53 46.97 46.37 43.31 42.02 38.33 42.81 44.08 44.63
56.97 56.98 56.78 56.52 55.61 55.72 56.20 56.38 56.42 56.72 56.42 55.81 55.71 55.59 55.13 54.60 54.52 54.44 54.54 53.97 54.14 54.66 55.19 56.41 53.34 53.25 48.25 59.22 52.66 53.88 53.25 52.19 53.95 54.64 53.39 53.94 51.86 47.80 46.67 41.10 38.55 40.31 35.16 38.25 40.86 44.95 43.84
57.09 57.00 56.74 56.26 55.34 56.01 56.58 56.54 56.26 55.79 55.39 55.37 55.43 55.11 54.86 54.62 54.15 53.99 54.16 54.72 55.39 54.97 55.09 56.30 56.35 50.30 54.65 52.61 52.46 52.28 52.21 53.02 52.42 52.43 51.10 49.24 46.01 42.95 41.52 39.28 33.80 36.46 37.36 35.76 39.08 41.25 41.78
57.18 57.01 56.67 55.75 55.22 56.30 56.93 56.77 56.00 55.01 54.90 55.33 55.28 55.02 54.85 54.60 54.35 54.09 52.12 50.48 48.53 48.74 52.23 47.23 49.53 52.01 52.29 53.34 51.95 50.44 52.39 51.48 51.62 49.48 43.89 47.03 42.35 38.57 40.79 41.84 43.12 42.84 40.18 38.78 38.43 43.05 42.04
56.64 56.54 56.06 55.29 55.31 56.30 56.68 56.44 55.25 54.76 54.92 55.09 54.73 54.92 54.50 54.72 54.38 54.11 50.75 52.05 51.27 52.84 44.29 53.03 54.09 53.28 55.08 50.31 47.94 49.42 52.13 48.43 48.50 43.82 46.22 43.04 39.65 44.13 45.60 45.81 44.55 43.00 40.95 39.15 42.01 45.24 41.30
56.10 55.66 55.39 54.64 55.26 56.09 56.14 55.63 55.03 54.50 54.72 54.44 54.37 54.41 54.50 54.15 53.83 51.48 50.34 54.36 58.39 57.78 47.81 48.91 52.28 50.82 50.94 52.38 48.08 47.55 50.86 49.45 46.42 44.13 43.91 40.64 43.12 46.68 46.40 43.89 43.35 42.22 40.17 39.61 40.17 41.83 40.94
55.43 54.66 54.32 53.73 55.00 55.42 55.04 54.72 54.68 54.50 54.44 54.21 54.07 54.28 53.62 53.47 50.55 52.67 50.66 54.90 57.10 55.48 38.13 43.78 47.35 49.35 51.54 51.79 47.73 51.14 51.50 49.38 47.08 43.46 44.38 43.05 46.19 45.62 44.38 43.13 42.70 39.73 44.69 43.45 41.60 38.22 33.64
54.68 54.37 53.29 53.22 54.26 54.23 53.97 53.91 54.09 54.17 54.13 54.21 53.83 53.93 53.22 53.68 51.45 54.75 56.86 60.59 59.05 53.99 25.43 44.46 47.49 52.66 50.62 49.02 48.59 48.34 51.26 50.34 44.69 44.52 44.25 41.50 43.78 43.88 42.92 43.14 44.60 42.37 45.07 42.86 41.91 37.42 36.37
54.37 54.29 52.92 53.35 53.52 53.88 53.52 53.50 53.26 53.46 53.56 53.97 53.93 53.99 53.08 52.29 51.30 55.41 60.09 59.68 52.41 39.45 27.65 43.69 47.89 46.43 45.58 48.04 47.60 47.93 48.30 50.58 49.50 45.64 44.81 43.98 46.83 44.95 43.52 46.25 45.61 45.86 43.93 43.05 41.47 38.27 30.02
53.82 53.56 53.06 53.37 53.51 53.72 53.64 53.10 52.57 53.03 53.31 53.37 53.54 53.81 52.47 57.92 55.88 59.92 59.33 50.04 37.81 31.08 45.54 41.86 43.26 45.87 44.86 44.56 45.98 45.64 45.18 43.88 41.65 37.50 37.73 43.32 43.84 45.77 47.09 43.58 45.69 43.27 39.04 29.90 29.17 28.43 28.64
53.64 52.98 53.06 53.39 53.74 53.51 53.13 50.95 51.19 50.98 53.05 53.91 53.02 52.83 53.43 58.79 60.90 59.30 53.83 44.02 34.31 42.74 42.34 45.56 45.53 45.54 43.02 45.10 44.76 45.60 43.64 40.77 44.16 44.12 39.15 37.05 34.78 42.94 46.52 42.99 40.15 41.18 39.01 28.83 27.56 25.35 28.21
53.66 52.98 53.21 53.25 53.37 53.22 51.42 50.62 50.91 50.38 52.77 53.42 53.13 53.25 57.53 59.23 60.35 57.13 48.42 36.99 38.81 42.60 45.04 44.40 45.14 41.91 41.93 44.76 44.31 43.96 41.31 40.76 42.02 42.77 39.38 37.41 37.79 44.41 44.93 45.07 44.14 41.22 35.39 40.60 33.04 29.89 26.64
53.35 53.13 53.17 52.51 52.92 51.97 49.93 50.37 50.46 52.17 53.03 53.82 53.27 53.00 51.84 59.26 58.81 52.36 45.63 40.32 44.92 47.34 48.04 45.90 40.79 43.44 39.33 41.92 41.79 41.99 41.64 44.73 43.26 45.13 44.70 41.82 36.07 43.11 44.45 46.23 45.74 41.39 42.73 34.25 31.56 24.99 25.01
52.90 52.90 52.98 52.42 52.28 49.81 49.92 50.22 50.27 52.09 52.99 52.84 53.47 45.61 51.69 60.20 53.80 46.60 39.54 43.44 47.02 48.95 49.90 46.34 43.91 42.13 43.25 41.47 42.63 41.54 41.84 44.37 45.89 45.25 43.74 42.32 39.48 38.25 43.54 39.87 38.22 39.54 37.83 37.98 36.15 30.70 25.30
52.24 52.27 52.21 52.25 50.95 49.65 49.86 50.20 50.54 51.92 52.68 53.01 50.65 41.97 55.59 53.58 40.69 42.63 41.63 47.77 46.82 47.18 49.71 48.14 47.46 46.31 43.77 43.56 43.03 42.45 42.01 43.71 47.33 46.51 40.50 42.00 37.75 30.19 37.90 42.46 43.60 41.11 39.54 37.88 27.27 29.33 27.63
51.81 51.77 51.84 51.10 49.37 49.85 49.86 49.78 51.53 51.95 52.43 52.14 47.41 49.36 56.62 51.12 34.31 34.51 45.08 47.53 48.18 46.54 46.54 46.64 46.08 47.43 47.18 43.86 40.64 43.86 43.70 47.20 46.58 44.82 41.97 41.42 35.67 28.23 34.04 39.26 42.04 38.69 40.64 40.71 36.61 30.52 28.84
51.51 51.32 51.38 49.34 49.42 49.65 49.73 50.11 51.54 51.77 52.54 53.67 49.74 41.69 47.48 49.34 46.26 43.21 44.50 44.13 44.89 48.65 47.78 48.32 46.96 47.65 45.59 43.44 45.28 42.32 42.84 46.67 46.18 44.19 44.49 44.78 38.63 33.61 29.47 33.88 36.69 33.61 36.75 38.64 36.00 26.79 28.29
51.23 51.02 50.35 48.74 49.40 49.54 49.76 51.00 51.30 51.54 51.76 52.36 50.26 44.82 44.91 37.89 40.71 44.72 46.05 45.86 44.37 43.67 47.63 48.01 45.42 45.83 44.16 38.95 41.92 40.95 43.74 44.48 45.95 44.49 43.99 41.62 34.36 36.62 36.92 37.88 37.53 35.93 35.27 35.28 34.21 34.15 29.32
51.07 50.67 48.71 49.24 49.22 49.55 50.24 51.01 50.87 51.23 51.59 51.79 50.55 48.66 46.43 41.65 44.07 44.27 43.48 44.56 44.59 45.73 45.93 44.56 43.26 45.59 45.22 41.12 42.29 40.63 43.17 41.79 40.85 41.90 41.08 41.98 32.27 32.52 30.76 37.87 36.80 32.89 35.36 36.08 36.41 36.46 36.01
51.04 50.48 49.24 49.62 49.28 50.13 51.68 50.70 50.56 51.04 51.63 52.73 53.71 53.28 47.96 43.09 40.76 41.23 42.35 45.06 46.00 47.02 47.00 48.25 46.02 42.74 40.12 43.62 44.22 44.01 44.22 44.90 44.44 41.63 40.23 38.13 31.77 28.09 25.90 33.19 31.75 26.45 33.91 37.00 36.71 37.32 36.77
50.89 50.05 49.45 49.86 49.32 52.05 51.23 50.34 50.20 50.73 52.46 57.35 55.96 52.80 44.69 37.84 42.30 42.75 47.43 47.17 46.15 46.13 44.73 47.15 46.54 42.23 46.19 48.28 44.01 42.60 41.42 42.81 44.07 43.43 43.69 34.73 31.92 27.63 22.31 23.59 16.00 34.24 40.16 40.32 37.88 38.42 39.43
49.83 49.30 50.48 50.84 51.31 51.06 50.38 49.96 49.86 50.26 51.29 55.03 55.39 52.57 44.02 34.48 44.51 45.54 45.93 46.17 46.48 46.51 45.42 46.14 47.67 47.25 47.75 44.36 33.69 31.61 30.40 32.59 35.60 41.69 42.37 40.54 30.31 26.08 20.20 23.95 28.05 34.89 39.26 37.64 35.45 34.69 41.00
49.04 49.48 51.43 51.22 50.71 50.46 50.22 49.80 49.90 50.25 51.30 53.57 53.23 54.51 46.45 39.78 40.14 49.29 45.05 46.09 41.87 41.07 41.72 44.92 49.13 49.81 45.58 33.99 29.40 26.26 25.44 28.82 31.45 36.03 40.03 39.12 32.92 26.20 27.70 16.54 15.33 29.98 40.00 42.80 40.70 29.38 42.05
48.72 50.66 51.17 51.02 50.69 50.39 50.76 50.04 49.97 50.37 51.31 54.19 52.63 54.80 51.33 43.16 47.14 48.60 43.80 44.20 46.19 42.97 40.55 42.97 43.84 42.83 43.01 28.81 31.31 24.44 29.28 36.02 30.02 28.71 26.30 29.06 26.02 24.32 16.43 16.13 26.11 35.52 41.62 42.44 28.48 30.07 41.42
50.16 50.68 50.70 50.83 50.86 50.32 50.33 49.93 50.04 50.64 50.82 53.27 52.18 54.34 51.60 44.06 47.54 50.92 50.27 47.12 46.85 43.95 38.16 42.98 40.30 38.97 36.64 29.89 26.84 32.66 24.77 30.81 30.64 34.81 31.58 29.06 27.07 23.90 23.46 17.21 21.45 40.18 40.52 33.49 36.63 40.89 42.11
49.99 50.16 50.39 50.69 51.20 50.19 50.10 50.03 49.87 50.13 50.58 53.25 50.01 54.90 54.84 49.37 48.52 50.96 51.34 51.57 50.96 49.83 46.44 43.64 40.61 41.75 40.15 35.17 34.20 35.36 26.57 33.63 29.25 28.04 37.76 30.37 32.08 30.00 31.91 30.98 37.93 41.10 40.35 41.30 43.14 41.71 40.69

GFSGBSN_sfc_wetblb_027.txt.gz
Wetbulb
59.05 58.57 57.85 57.53 57.31 57.47 57.54 57.44 57.61 57.43 57.13 56.89 55.35 54.90 54.90 55.10 55.16 55.20 56.22 56.27 55.49 54.84 54.37 54.47 55.88 54.80 52.99 50.97 50.09 55.13 63.07 62.80 56.92 53.69 50.61 50.22 49.62 47.69 44.18 43.07 42.88 40.37 40.99 42.78 43.63 43.76 41.65
58.72 57.90 57.47 57.04 57.21 57.11 57.25 57.20 57.56 57.11 56.65 56.39 54.81 54.48 54.53 54.94 55.83 56.55 56.37 55.86 54.68 54.03 54.17 55.16 55.25 54.99 50.88 44.26 54.10 55.75 57.51 56.04 55.60 53.55 52.58 51.93 50.82 50.53 45.94 44.11 40.93 43.10 41.49 41.56 42.93 43.14 43.31
58.72 57.71 56.99 56.63 57.00 56.96 56.79 56.44 56.79 56.79 56.59 56.45 55.69 55.74 56.02 56.26 56.33 56.20 55.82 55.44 53.82 53.69 54.55 55.26 54.47 54.95 52.52 49.25 54.60 54.72 56.51 55.10 54.12 53.95 52.20 53.62 53.23 48.93 46.96 42.33 44.50 42.95 40.21 41.29 41.04 41.32 41.83
58.09 57.42 57.00 56.64 56.71 56.13 55.77 55.97 56.43 56.77 56.79 56.65 56.57 55.92 55.64 55.32 55.32 55.10 55.14 54.85 53.48 53.89 54.73 54.81 55.76 53.52 48.25 56.25 55.79 55.75 51.21 51.75 53.68 55.11 53.39 52.80 51.49 48.74 45.74 45.11 44.03 40.89 40.16 36.59 40.71 42.19 42.54
57.46 57.13 57.17 56.88 56.47 55.85 55.36 55.72 56.19 56.47 56.81 56.26 55.76 55.54 55.06 54.72 54.37 54.31 54.43 53.78 53.16 54.22 54.61 55.97 52.17 51.45 46.15 56.70 52.86 53.39 51.71 50.74 52.38 52.91 51.93 52.92 50.85 45.71 44.99 39.84 36.92 38.27 33.69 36.41 39.51 42.62 41.80
57.46 57.08 56.93 56.68 56.33 55.71 55.55 56.13 56.17 55.95 55.76 55.36 55.26 55.24 54.75 54.51 54.14 53.84 53.85 54.39 54.86 54.39 54.43 55.97 55.15 48.09 51.60 49.49 51.77 50.59 51.01 51.82 51.18 51.32 49.40 48.44 45.26 41.88 39.86 37.69 32.10 34.66 35.51 33.62 37.01 40.06 40.35
57.36 57.16 56.91 56.62 56.34 55.62 56.09 56.70 56.27 55.30 54.99 55.10 55.20 55.06 54.65 54.33 54.02 53.68 51.59 49.93 48.42 48.04 51.35 46.04 47.39 49.12 51.62 51.81 50.58 48.90 50.94 50.94 50.99 48.55 43.32 45.67 41.15 37.03 38.26 39.91 40.92 39.66 37.38 36.06 36.79 40.84 40.27
56.67 56.87 56.82 56.74 56.31 55.39 56.23 56.90 55.65 54.69 54.79 54.95 54.79 54.72 54.40 54.57 54.18 53.98 50.46 50.23 49.74 53.46 43.98 51.88 52.75 52.35 53.78 53.00 46.36 48.02 50.97 47.23 46.58 42.12 44.71 42.13 38.55 42.26 44.67 44.89 42.92 41.37 38.56 37.09 39.95 43.05 40.73
56.12 56.23 56.43 56.44 55.81 55.31 56.35 56.60 55.12 54.53 54.53 54.36 54.19 54.41 54.24 54.02 53.86 51.21 49.76 52.33 56.75 54.13 46.47 48.55 49.96 48.94 50.24 51.04 46.70 46.38 49.59 47.82 44.69 42.62 42.11 39.27 41.36 45.79 44.48 42.51 42.36 40.77 38.40 37.86 38.48 40.12 40.29
55.64 55.34 55.56 55.67 54.91 55.05 55.63 55.45 54.98 54.55 54.20 54.04 53.83 53.73 53.55 53.18 49.51 50.03 48.13 53.00 56.60 53.04 37.83 42.25 46.02 48.66 50.07 50.15 45.90 49.48 50.03 47.88 45.37 42.25 42.56 41.52 45.51 44.40 42.75 41.50 41.72 38.13 42.94 41.71 40.02 36.79 32.13
55.24 54.95 54.55 54.55 53.73 53.81 54.20 54.08 54.20 54.18 54.02 54.14 53.69 53.59 53.34 53.11 50.31 53.14 54.92 59.54 57.79 51.69 25.96 42.68 45.82 50.69 49.09 47.22 46.33 46.12 49.90 48.74 42.75 43.12 42.62 40.24 41.99 42.31 41.62 41.20 42.81 40.47 43.23 41.03 39.99 35.47 34.30
54.87 54.71 54.28 53.81 52.95 53.46 53.67 53.51 53.31 53.41 53.45 53.77 53.48 53.60 53.18 52.01 50.22 54.01 58.18 55.84 51.19 38.03 26.78 40.99 46.21 44.21 44.60 46.12 45.63 46.25 47.07 50.01 47.55 43.89 43.54 42.54 44.68 43.29 42.09 44.40 43.67 44.23 42.62 41.13 39.37 36.31 29.15
54.33 54.16 53.83 53.11 52.95 53.36 53.67 53.41 52.32 52.86 53.08 53.42 53.26 53.40 52.52 55.75 55.28 58.54 56.93 48.19 35.61 30.91 43.29 39.78 41.62 43.68 42.83 42.63 43.69 43.58 43.71 42.27 40.16 36.38 36.67 41.57 42.12 44.02 45.16 41.81 43.61 41.94 37.48 29.00 28.49 27.41 27.66
53.90 53.49 53.47 52.87 53.24 53.55 53.18 52.59 50.66 50.06 52.87 53.39 52.68 52.55 52.09 53.96 59.29 57.20 50.56 41.29 32.16 40.95 40.13 43.67 43.54 42.46 41.24 43.25 43.01 43.51 41.86 39.30 42.30 41.19 37.19 35.37 33.60 41.11 44.64 41.33 38.97 39.13 37.38 28.65 27.95 24.87 27.56
53.75 53.32 52.75 52.89 53.18 53.34 52.73 50.49 50.40 50.06 52.92 52.71 52.45 50.78 55.04 57.39 58.46 53.78 45.50 33.66 36.70 40.30 43.09 42.68 43.29 39.97 39.96 42.70 43.11 42.01 39.27 39.10 40.21 41.36 37.99 35.91 35.99 42.82 42.94 43.16 42.98 39.58 33.97 38.65 31.22 28.70 26.49
53.51 53.22 52.52 52.77 52.72 52.69 50.58 49.94 50.31 51.75 52.93 52.57 52.89 51.88 50.92 57.56 55.66 51.57 43.08 39.38 43.46 46.25 45.55 44.44 39.35 41.52 37.94 40.18 40.45 40.13 39.83 42.71 41.38 42.60 43.04 40.97 34.95 41.17 42.93 44.23 43.16 39.92 42.05 33.08 30.15 23.88 24.54
52.93 52.64 52.75 52.30 52.22 50.55 49.88 49.77 49.90 52.31 53.11 53.17 51.20 43.28 49.08 57.72 50.17 44.55 36.45 40.90 47.03 47.15 47.97 43.78 41.79 40.69 41.39 39.79 40.64 39.58 40.02 42.74 44.39 43.87 42.91 41.04 37.63 36.44 41.46 38.49 36.74 38.50 36.23 35.46 34.33 29.29 24.19
52.00 52.14 52.02 52.07 51.41 50.17 49.86 49.86 50.03 52.36 52.57 52.64 47.95 40.14 53.57 49.21 39.67 40.11 40.39 46.00 46.63 45.39 48.18 46.97 46.06 44.11 41.86 42.01 41.26 40.65 40.33 41.99 45.55 44.84 38.67 40.53 36.05 29.81 36.06 40.98 42.18 39.26 37.36 35.57 25.50 27.92 26.56
51.71 51.94 51.61 51.53 49.94 49.81 49.45 49.69 51.12 52.16 52.62 51.57 45.76 49.05 55.23 47.43 32.92 33.65 41.84 46.38 46.23 44.75 45.09 44.94 44.31 45.68 45.32 42.45 39.10 41.89 42.11 45.38 44.39 43.23 40.38 40.04 34.39 28.07 32.97 37.76 39.84 36.97 38.52 37.34 33.99 29.81 27.93
51.47 51.44 51.16 49.70 49.60 49.71 49.06 49.63 51.74 51.93 52.41 52.66 47.08 40.65 45.59 47.79 42.44 40.41 41.39 42.56 42.90 47.15 46.20 46.38 45.11 46.22 43.64 42.24 43.58 40.53 41.28 44.92 43.76 42.31 44.29 43.13 36.90 32.19 28.70 32.14 35.36 32.03 35.04 36.77 34.20 26.28 27.60
51.19 50.93 49.62 49.41 49.56 49.44 49.37 50.49 51.65 51.73 51.80 52.30 48.19 42.23 43.52 37.80 41.11 43.80 43.99 43.87 42.57 41.89 45.95 46.22 43.91 44.22 42.31 38.07 39.91 39.42 42.14 42.59 43.21 43.75 41.91 39.70 33.03 34.75 34.64 35.69 35.35 33.97 34.11 34.60 33.17 32.61 28.96
50.90 49.92 48.80 49.08 49.41 49.28 49.69 51.21 51.20 51.32 51.59 50.28 48.06 45.22 44.16 39.39 42.27 42.96 41.84 43.24 43.16 43.94 44.25 42.69 42.35 43.66 43.03 40.21 41.13 39.78 41.77 39.97 38.09 40.80 39.75 39.89 31.11 31.31 30.53 35.76 34.88 31.53 34.11 33.42 33.39 33.96 34.29
50.55 48.50 49.03 48.92 49.45 49.92 51.20 50.54 50.77 50.99 51.80 49.06 49.66 50.47 45.76 40.35 39.62 39.49 40.77 44.16 44.68 45.43 45.40 45.96 44.82 41.62 38.43 41.79 43.25 43.02 42.88 43.35 42.66 40.22 38.65 35.60 30.64 27.09 23.98 30.90 29.42 24.21 31.43 35.04 35.58 36.22 35.40
50.20 48.87 49.28 49.36 49.70 51.42 50.46 50.09 50.31 50.92 51.73 54.79 53.03 49.12 43.32 36.06 37.60 40.00 45.14 45.40 44.79 44.75 43.57 45.27 44.91 41.65 44.62 45.18 42.35 41.56 40.29 41.51 43.06 42.01 41.54 33.21 29.65 24.43 20.93 22.92 16.23 32.13 37.09 38.10 35.95 36.52 37.51
48.68 49.50 49.61 49.71 51.04 50.29 49.78 49.76 50.03 50.58 51.76 56.38 53.70 49.08 42.48 33.57 41.98 43.70 44.84 44.57 45.00 45.15 43.87 44.73 46.00 45.65 45.96 40.02 32.83 31.86 29.57 31.47 34.53 40.05 39.39 38.44 29.31 24.94 19.74 21.79 27.27 32.77 37.30 35.95 34.65 33.62 38.90
49.18 50.51 50.94 50.70 50.27 49.85 49.37 49.47 49.52 50.51 52.09 54.71 52.77 50.35 45.79 41.28 41.43 47.26 44.31 44.37 40.52 39.56 40.68 43.43 47.75 47.55 42.72 31.60 28.68 24.74 24.22 28.66 30.12 34.63 39.05 35.59 30.66 25.69 24.98 15.62 14.80 29.50 37.83 40.74 38.88 28.72 40.18
49.67 50.66 50.81 50.78 50.53 50.00 49.60 49.55 49.84 50.37 52.76 53.05 52.45 52.23 48.80 42.70 45.68 46.73 42.82 42.88 43.99 41.14 39.24 41.84 42.99 40.99 40.60 27.66 23.46 24.34 27.82 33.01 28.93 27.58 26.78 28.55 24.14 21.94 16.10 15.43 25.35 33.77 39.78 40.65 28.20 28.64 40.07
49.98 50.15 49.97 49.91 50.69 49.97 49.55 49.46 49.71 49.98 51.70 52.78 51.69 52.73 49.69 43.66 46.68 49.04 48.95 45.70 44.67 42.47 37.79 41.76 39.80 38.09 32.35 29.02 25.97 27.26 22.69 30.16 30.03 33.07 31.43 29.54 28.18 26.92 25.75 18.84 22.83 38.21 38.23 33.11 36.35 37.79 41.18
49.79 49.98 49.91 49.90 49.63 49.69 49.47 49.67 49.85 50.18 51.54 51.95 51.05 53.76 52.74 48.17 47.39 49.76 50.07 49.96 49.33 47.22 44.57 41.53 41.58 39.89 39.06 32.14 29.42 30.96 25.68 32.86 27.71 26.19 35.34 28.98 31.43 29.18 30.80 30.46 36.97 38.86 38.74 40.08 41.03 40.99 40.70

GFSGBSN_sfc_wetblb_030.txt.gz
Wetbulb
59.69 59.19 58.86 58.32 58.06 57.69 57.21 57.39 57.44 56.97 57.08 57.01 56.99 56.83 55.61 55.17 54.97 54.93 54.63 54.99 56.25 55.23 54.39 54.17 54.22 54.53 51.27 49.23 48.73 57.54 63.12 62.26 54.40 51.57 49.56 48.84 46.86 45.83 42.74 42.85 42.63 41.06 41.45 42.22 42.27 43.08 43.29
59.38 58.99 58.48 58.17 57.71 57.65 56.99 57.30 57.16 56.68 56.92 56.73 56.43 55.99 54.65 54.32 54.44 54.83 54.97 55.51 55.63 54.15 53.75 53.56 54.58 54.30 49.36 43.11 51.90 57.94 57.63 54.38 52.67 50.95 50.09 49.65 49.49 49.62 45.70 43.64 41.31 42.34 40.69 40.28 41.82 41.39 42.58
59.74 59.00 58.34 57.67 57.17 56.90 56.97 56.81 56.72 56.36 56.50 56.57 56.41 55.97 55.33 55.87 55.32 55.72 56.01 55.69 54.82 53.45 53.43 54.07 54.24 53.47 51.11 48.70 53.27 53.58 55.88 52.83 53.33 52.88 51.22 51.22 50.75 47.49 45.96 42.42 43.90 41.71 39.35 40.88 41.61 40.45 41.13
59.08 58.88 58.37 57.22 56.37 56.32 56.25 56.15 55.98 56.14 56.46 56.55 56.55 56.19 55.49 55.43 55.45 55.47 55.21 54.76 54.21 52.99 53.49 54.68 54.74 52.61 47.69 54.52 54.22 55.15 51.68 50.38 53.63 54.15 52.74 51.99 52.72 49.53 45.12 43.97 43.10 40.16 38.94 35.01 39.20 40.67 40.59
58.51 58.42 58.05 57.16 56.38 56.19 55.97 55.71 55.39 56.00 56.52 56.45 56.17 55.69 55.06 54.83 54.50 54.40 54.34 54.28 52.87 52.27 54.17 55.57 51.44 50.22 46.19 55.08 51.85 52.97 51.42 49.49 51.17 52.45 51.74 52.09 50.01 45.06 43.35 39.13 36.50 37.15 33.07 34.91 37.60 40.69 40.35
58.63 57.99 57.59 56.96 56.52 56.25 55.95 55.65 55.11 55.69 55.91 55.83 55.47 55.14 54.90 54.56 54.16 53.86 53.69 54.05 54.03 53.85 53.33 55.20 54.67 47.17 49.17 46.93 52.34 49.93 50.65 50.68 50.01 49.90 48.46 47.35 43.78 40.98 39.69 37.23 32.41 33.24 34.29 32.04 34.65 38.31 38.48
58.63 57.96 57.43 56.94 56.75 56.48 56.45 56.01 55.19 55.67 55.41 55.39 55.30 55.26 54.86 54.34 54.12 53.61 52.61 48.98 46.75 45.65 49.79 46.33 46.02 46.14 49.87 53.23 50.77 47.60 49.21 49.62 49.32 47.56 42.31 44.82 40.74 36.75 38.91 39.34 39.26 38.28 36.13 34.79 34.76 39.39 38.66
57.83 57.39 57.21 56.92 56.65 56.61 56.49 55.90 55.41 55.33 55.06 54.88 54.86 54.78 54.53 54.41 54.21 53.80 49.07 46.72 47.63 50.21 45.17 50.41 50.47 51.02 52.43 51.83 46.43 46.42 49.85 45.90 45.52 41.38 43.09 41.34 37.74 41.04 43.49 42.49 40.86 39.30 36.70 35.41 38.04 41.17 39.10
57.11 56.63 56.74 56.78 56.75 56.41 56.19 55.51 55.59 55.24 54.59 54.37 54.31 54.45 54.39 54.03 53.77 50.87 48.13 50.68 55.85 53.37 45.24 47.53 50.44 48.88 47.84 50.90 46.06 44.76 48.02 46.80 43.82 42.29 40.77 38.93 39.69 44.26 43.23 41.72 41.01 39.21 37.10 36.08 36.78 37.99 38.86
56.60 55.84 55.82 56.39 56.34 56.16 55.40 55.20 55.61 54.90 54.37 54.01 53.94 53.84 53.45 53.27 49.17 48.66 47.14 51.94 56.44 51.61 37.03 41.27 45.27 48.17 48.91 49.18 45.01 48.48 49.22 46.97 44.16 40.42 41.01 40.81 43.90 42.72 41.19 40.36 40.10 36.34 40.99 39.60 38.08 35.00 31.66
56.04 55.27 55.10 55.31 55.37 54.57 53.70 54.10 54.78 54.43 54.07 54.09 53.56 53.58 53.17 52.98 49.33 49.65 51.83 58.46 56.32 48.90 25.99 42.03 44.55 49.67 48.46 45.77 45.32 45.65 49.22 47.17 41.37 41.50 40.85 38.97 40.28 41.04 40.29 39.35 41.20 38.82 42.24 39.97 38.01 35.06 33.39
55.69 55.10 54.92 54.72 54.35 53.72 53.10 53.53 53.74 53.48 53.54 53.77 53.50 53.50 53.05 51.01 48.70 52.50 56.59 53.34 49.12 37.29 26.80 40.11 44.97 43.24 43.69 44.53 43.89 44.57 46.83 49.04 45.97 42.97 42.75 40.94 43.23 41.83 40.45 42.91 42.15 42.92 41.31 39.58 37.80 34.86 28.48
54.92 54.76 54.55 54.17 53.62 53.16 52.96 53.54 53.33 53.04 53.12 53.30 53.11 53.41 52.22 53.23 53.48 57.40 54.25 46.65 35.32 29.78 41.97 38.49 40.08 42.49 41.82 40.81 42.27 42.96 42.38 40.97 38.44 36.11 35.61 40.48 40.65 42.78 43.49 40.55 41.91 40.82 36.51 28.07 27.82 26.36 27.11
52.08 54.33 54.11 53.70 53.27 52.54 52.94 53.40 52.94 50.82 52.05 52.88 52.64 52.42 52.04 53.03 55.54 55.98 48.24 40.27 30.17 38.76 38.59 41.57 41.17 40.98 39.82 41.72 41.32 41.87 40.55 38.32 41.03 39.09 35.99 34.24 32.59 39.63 43.11 39.99 38.16 36.87 36.43 29.22 27.29 24.79 27.38
49.85 54.03 53.64 53.13 52.65 52.52 52.97 53.18 51.21 50.33 51.20 52.60 52.19 49.63 51.74 56.52 53.26 51.68 43.39 31.27 33.62 38.72 41.49 41.02 41.05 38.28 37.94 40.96 41.36 40.17 37.60 37.80 38.83 39.71 36.72 34.55 34.65 40.99 41.46 41.84 41.39 37.67 32.74 37.01 30.53 28.37 25.99
50.68 53.83 53.17 52.57 52.18 52.49 52.78 51.97 50.44 50.08 51.94 52.45 51.01 49.98 51.51 56.18 54.75 49.56 39.38 35.82 41.08 45.59 43.55 42.27 36.65 39.41 36.16 38.41 38.66 38.17 37.93 40.80 39.69 41.22 41.76 39.64 34.10 39.33 41.08 42.62 41.89 38.25 40.69 31.86 29.21 23.52 23.82
53.90 53.19 52.73 51.99 51.87 52.14 51.94 50.52 50.18 50.27 52.56 52.74 47.82 44.45 48.91 54.74 48.44 42.85 34.07 37.14 45.29 47.76 46.13 42.23 40.20 38.80 39.34 38.27 39.04 37.85 38.42 41.08 42.74 42.42 42.00 39.36 36.55 35.45 39.49 36.96 35.76 37.30 34.59 33.31 33.05 27.92 23.01
52.72 52.29 51.91 51.81 51.99 51.86 50.76 49.98 50.06 50.27 52.39 51.44 44.10 39.67 53.35 47.64 39.67 38.46 39.16 44.19 46.32 43.79 46.23 45.35 44.38 41.99 40.10 40.22 39.45 38.77 38.87 40.70 43.31 43.45 37.71 38.92 35.10 30.20 34.76 39.10 40.35 37.76 35.66 33.73 25.07 26.84 25.78
52.16 51.75 51.46 51.64 51.78 50.54 50.21 49.77 50.01 50.99 52.59 50.45 47.00 48.64 53.68 45.68 33.39 33.05 40.09 44.23 45.01 43.19 43.89 43.47 42.93 43.98 43.81 40.89 37.73 40.02 40.52 43.57 42.84 41.37 38.99 39.39 33.73 28.40 31.83 35.42 37.64 35.26 36.80 35.13 31.82 29.06 27.57
51.52 51.29 51.36 51.57 50.75 49.92 49.64 49.36 50.12 50.88 52.50 50.09 46.75 41.51 45.38 44.80 40.52 39.36 39.44 41.44 41.40 45.10 44.56 44.93 43.75 44.43 42.16 40.58 41.85 39.30 40.00 43.20 42.27 41.09 44.01 41.98 35.15 31.90 28.45 30.47 33.46 31.72 34.94 34.92 33.02 25.21 26.70
51.23 51.14 50.84 50.05 49.58 49.53 49.40 49.55 51.55 51.52 52.12 51.18 45.55 41.69 43.88 38.29 40.99 38.55 41.28 42.49 41.03 40.44 44.50 44.95 42.38 42.72 41.10 37.27 38.30 37.82 40.81 40.95 41.26 43.16 40.87 38.27 32.44 33.10 32.89 33.82 33.50 32.09 32.67 34.22 32.58 31.56 28.77
51.10 50.33 49.23 49.24 49.22 49.13 49.60 49.81 51.20 51.47 51.75 49.41 47.23 42.55 40.57 38.36 43.45 41.81 40.03 41.51 41.62 42.17 42.68 41.13 41.19 41.94 41.46 39.15 39.97 38.59 40.62 38.98 36.77 39.63 37.84 38.16 30.74 30.28 31.16 33.97 33.00 31.14 32.72 32.48 32.25 31.74 32.33
50.47 49.12 48.79 48.72 48.89 49.21 49.73 50.95 50.84 51.14 51.21 47.84 48.90 48.49 43.57 38.30 38.88 38.87 39.68 42.63 43.13 44.46 43.73 44.15 43.34 40.76 38.28 40.61 42.02 41.72 41.78 41.44 40.58 38.90 36.52 33.73 30.14 27.76 24.77 28.88 27.72 24.14 30.86 32.65 32.50 33.82 33.30
49.07 48.63 48.70 48.98 49.14 50.62 50.80 50.51 50.33 50.98 51.55 51.64 50.99 48.12 42.02 33.28 35.88 40.68 43.24 43.80 43.13 43.17 42.55 43.49 43.21 40.24 42.19 43.41 41.77 40.98 39.92 40.92 41.91 40.70 39.30 31.53 28.73 23.47 20.17 22.27 16.03 30.96 35.16 35.07 34.47 35.31 35.67
48.38 48.70 48.94 49.27 50.97 50.28 49.95 50.04 50.19 50.55 51.17 53.27 51.72 47.58 41.68 31.72 36.99 40.23 43.13 43.26 43.61 43.71 42.46 43.28 44.59 43.79 44.09 38.70 33.47 32.85 29.63 32.20 33.62 38.14 35.59 35.49 28.37 23.53 18.99 20.57 26.85 31.52 34.80 34.69 33.55 32.86 37.73
48.62 48.85 49.38 50.19 49.58 49.25 49.25 49.42 50.01 50.69 51.55 54.09 51.55 48.09 45.83 39.21 39.54 44.58 42.78 42.68 39.46 38.31 39.28 41.71 46.00 44.75 40.53 30.17 28.61 25.18 25.59 30.26 29.26 33.36 37.36 33.59 30.14 25.70 20.48 16.10 14.81 29.29 34.70 38.58 37.60 29.02 37.63
48.98 50.03 50.39 50.14 49.57 49.25 49.39 49.31 50.00 51.02 52.25 53.72 51.66 50.42 47.33 42.24 44.69 44.57 41.64 41.93 42.26 39.93 38.25 41.01 42.24 39.47 39.08 26.75 22.57 23.54 25.85 31.11 27.62 26.66 26.54 27.51 24.20 21.12 16.69 15.11 24.46 32.64 37.65 38.84 28.00 29.76 37.72
49.80 49.98 49.97 49.95 49.32 49.34 49.32 49.27 50.08 51.62 51.87 55.58 52.71 51.36 48.14 43.35 45.41 47.73 47.88 43.84 42.93 41.27 37.13 40.95 39.26 37.83 31.80 29.28 26.38 25.84 22.50 29.20 29.61 31.97 31.41 29.46 28.77 27.87 23.96 15.83 21.86 36.56 38.24 32.95 36.24 35.56 39.10
49.57 49.62 49.72 50.21 48.41 48.03 48.21 49.31 50.02 51.19 51.78 53.70 52.82 52.47 51.06 47.34 46.47 48.75 48.88 48.78 47.59 45.71 43.19 40.51 41.28 39.32 38.59 31.57 25.83 28.50 28.12 31.32 27.47 25.76 33.67 28.96 30.98 27.54 29.37 29.59 36.16 37.22 37.82 38.63 38.81 38.63 39.11

GFSGBSN_sfc_wetblb_033.txt.gz
Wetbulb
60.34 60.19 59.62 59.25 58.85 58.42 57.98 57.89 57.44 56.95 56.95 56.75 56.84 57.08 56.85 55.93 55.36 55.32 54.40 54.37 54.98 55.67 54.95 53.84 53.56 54.41 52.68 50.76 50.42 59.04 62.77 62.42 56.93 52.71 51.69 50.13 48.72 48.47 46.88 47.16 45.91 44.72 44.13 44.15 44.63 46.62 49.52
59.97 59.50 59.18 58.75 58.56 58.54 58.14 57.72 57.10 56.81 56.73 56.36 56.40 56.42 56.37 55.32 54.62 54.42 54.29 54.21 54.48 54.92 53.70 53.27 53.84 53.98 50.67 45.03 54.11 60.08 57.21 55.06 53.86 52.35 51.12 51.24 50.14 50.58 48.73 46.04 45.42 45.43 43.92 43.92 44.57 45.10 45.46
60.30 59.57 58.89 58.28 58.12 58.04 57.77 56.91 56.56 56.69 56.31 56.04 56.26 56.08 56.08 56.24 55.79 55.09 54.78 55.03 55.24 54.89 53.20 53.22 54.25 53.44 51.69 49.90 55.08 57.89 56.43 55.26 54.03 53.40 51.12 51.96 52.87 50.77 49.63 45.66 46.55 44.42 43.13 44.24 44.59 45.42 44.67
60.13 59.55 59.04 58.01 57.48 57.06 56.59 56.35 56.21 56.33 56.01 56.11 56.53 56.26 55.66 55.78 55.54 55.64 55.50 54.95 54.73 53.69 52.76 53.55 54.54 53.11 48.88 55.82 56.66 54.91 54.43 54.00 54.74 54.75 53.96 54.75 53.75 51.34 49.42 47.52 45.75 43.48 43.51 40.72 44.00 44.99 44.62
58.42 59.20 59.00 58.23 57.24 56.75 56.07 55.98 55.92 56.07 55.83 55.90 56.14 55.86 55.30 54.76 54.48 54.45 54.39 54.23 54.22 52.61 52.76 55.15 52.44 51.59 48.10 56.37 53.20 54.89 54.02 51.65 52.95 53.97 54.44 53.22 53.61 48.85 46.77 43.83 42.46 42.27 38.88 40.40 42.07 45.20 44.94
55.49 59.15 58.72 58.25 57.28 56.65 56.17 55.90 55.54 55.38 55.11 55.32 55.70 55.44 54.97 54.45 54.47 53.85 53.58 53.92 53.67 53.07 53.32 54.32 54.28 48.65 50.65 49.56 53.42 51.96 53.48 53.59 53.47 51.89 50.86 50.03 47.55 44.91 43.65 43.02 37.65 39.26 39.62 40.43 41.07 43.84 44.18
56.06 56.21 58.44 58.08 57.39 57.00 56.80 56.41 55.78 54.95 54.71 55.46 55.48 55.19 54.93 54.47 54.31 53.50 52.94 51.53 47.98 47.26 50.80 47.50 48.00 48.03 49.78 53.94 53.07 50.63 52.57 53.58 53.40 50.80 46.51 47.12 44.93 42.18 43.65 43.66 42.15 41.55 40.82 40.38 41.80 43.77 44.47
55.25 54.48 58.39 58.00 57.35 57.21 56.95 56.62 55.64 54.77 54.97 55.46 54.97 54.75 54.69 54.51 54.15 53.45 50.74 47.35 48.93 52.59 47.73 50.76 50.70 50.67 52.57 53.36 48.98 49.19 53.64 50.72 49.56 45.51 46.74 45.36 42.14 44.58 45.63 44.40 43.16 42.25 41.24 40.76 42.72 43.03 44.04
53.72 54.02 57.48 57.78 57.34 56.99 56.74 56.50 55.54 54.59 54.89 54.75 54.20 54.44 54.38 54.04 53.65 52.54 49.39 50.73 55.89 56.15 49.27 48.49 50.65 50.09 49.81 51.83 48.21 48.25 51.91 50.23 47.31 44.95 43.90 43.05 43.84 45.80 45.32 43.80 43.84 42.55 41.88 41.25 41.40 42.59 43.28
53.46 52.27 55.46 57.17 57.03 56.68 56.20 55.95 55.56 54.67 54.81 54.20 53.87 53.84 53.52 53.05 50.29 50.01 48.71 53.47 53.79 55.56 40.71 42.81 46.56 48.79 50.03 50.60 48.16 50.56 52.32 50.59 47.01 43.79 43.89 44.54 46.15 44.38 43.71 43.04 43.86 41.06 44.31 42.76 41.48 40.80 38.64
52.37 52.61 51.44 56.39 56.19 55.58 55.13 55.01 54.83 54.89 54.77 54.14 53.57 53.70 53.32 53.29 48.98 48.62 52.12 58.22 54.83 51.36 29.46 43.98 46.00 51.56 49.77 47.38 47.69 48.57 51.94 49.71 45.00 44.11 44.88 43.04 44.13 43.53 43.05 42.90 44.72 42.76 44.98 43.26 41.43 40.61 40.56
52.27 50.56 51.82 54.22 55.24 54.73 54.46 53.98 53.64 53.83 53.98 53.71 53.54 53.48 53.16 52.10 50.33 52.78 57.02 55.63 52.17 39.70 30.33 41.84 45.90 45.01 45.67 46.85 46.48 48.06 49.86 50.40 48.43 45.63 45.74 44.22 47.08 45.87 44.97 45.10 44.89 45.47 44.46 42.93 41.75 40.49 35.74
51.41 50.87 50.84 50.33 54.75 54.40 54.06 53.40 52.91 53.28 53.35 52.99 53.12 53.36 52.81 52.73 51.07 58.78 56.02 49.78 38.35 33.41 43.26 40.14 41.52 44.63 44.07 43.49 44.38 45.73 44.45 43.96 42.87 40.26 39.86 43.35 43.58 45.91 46.91 44.64 45.58 44.90 42.18 35.69 34.65 35.17 33.77
51.06 50.80 49.97 49.57 54.48 53.94 53.49 52.99 52.52 52.88 52.35 52.72 52.54 52.54 52.17 52.88 55.04 56.05 50.36 42.69 34.00 39.12 40.06 43.29 42.30 43.15 42.01 43.67 43.75 43.97 43.25 41.68 43.87 42.82 39.82 38.48 37.18 43.40 45.61 44.57 43.01 41.37 42.09 36.70 29.22 30.93 34.41
50.59 49.98 49.54 50.09 54.07 53.63 53.03 52.50 52.59 52.54 50.43 52.16 52.16 50.71 50.40 54.50 54.49 52.99 44.99 35.19 35.83 38.67 43.08 41.60 42.60 40.52 41.34 43.62 43.26 42.58 41.32 41.22 42.37 43.90 40.41 38.95 38.29 44.58 44.59 45.64 45.40 41.03 38.10 41.23 34.52 31.55 32.45
49.85 49.37 49.29 50.48 53.38 53.05 52.31 52.29 52.63 51.26 50.03 52.19 49.73 48.57 50.38 57.41 55.79 49.50 41.68 36.79 40.81 45.51 44.88 43.10 38.65 41.54 38.85 41.36 41.23 41.30 41.58 43.69 42.67 44.41 45.79 42.48 37.63 42.36 44.03 45.52 44.82 43.50 43.16 37.16 36.08 28.85 27.37
49.18 48.35 48.71 50.22 50.83 52.11 51.89 52.16 51.84 50.60 50.61 52.60 49.90 47.28 51.87 56.51 51.04 44.70 37.44 38.31 44.65 48.89 46.92 43.15 41.20 40.64 41.20 40.76 41.48 40.76 40.93 43.73 45.23 44.29 45.62 42.99 41.41 39.70 42.79 41.22 40.87 41.22 38.93 36.97 37.31 33.81 29.49
48.64 48.47 49.61 48.78 50.64 51.73 51.86 51.76 50.68 50.03 51.69 51.59 45.43 41.17 54.63 49.68 41.76 40.35 39.45 42.50 46.62 46.10 47.61 46.90 45.58 43.89 42.13 42.42 41.69 41.15 41.25 43.51 45.59 46.61 42.86 42.55 39.57 36.47 39.29 42.53 44.07 42.59 40.12 38.86 33.84 30.83 31.23
48.02 48.32 49.14 49.99 52.05 51.38 51.65 50.60 50.02 50.44 52.35 49.82 44.55 49.32 54.91 47.75 36.68 36.26 42.00 45.52 46.80 44.79 45.61 45.96 45.20 45.90 46.02 42.95 40.20 42.36 42.86 45.57 45.51 44.51 42.75 42.82 38.38 34.32 36.41 39.65 42.07 40.60 40.05 37.49 35.62 35.03 31.63
47.46 47.89 48.36 49.90 51.49 51.55 50.76 49.81 49.68 51.17 52.65 51.48 48.17 43.15 47.30 44.55 42.59 40.97 41.91 42.71 43.49 46.49 46.13 46.02 45.06 46.17 44.63 43.02 43.34 41.24 42.08 44.95 44.98 44.17 43.71 43.98 38.01 37.37 34.71 36.32 38.15 36.90 38.15 37.56 37.82 33.29 32.42
47.74 48.66 48.91 51.09 51.14 50.73 49.81 49.67 49.68 50.62 52.24 51.35 46.34 43.79 46.45 39.74 40.47 40.72 42.91 43.84 42.76 42.54 46.38 46.40 44.85 44.74 43.35 40.00 40.90 40.25 42.91 42.81 43.47 44.08 43.31 42.39 37.42 37.15 36.27 36.63 36.91 36.47 36.87 36.95 36.16 36.32 35.16
48.50 48.80 49.88 50.53 50.32 49.91 49.51 49.40 49.51 50.57 51.99 50.77 45.36 42.77 41.63 40.78 43.49 41.87 41.57 42.55 42.61 43.87 44.87 44.04 43.40 44.61 45.14 41.60 42.58 40.47 42.60 41.49 39.98 42.76 41.67 40.30 36.04 35.87 34.63 35.70 35.13 34.88 36.38 36.55 36.85 36.06 36.34
49.34 49.45 50.30 49.82 49.41 49.39 49.15 49.15 50.33 51.47 51.97 49.23 50.05 47.80 44.57 38.20 40.76 39.20 40.17 42.67 43.51 45.57 45.29 45.23 45.10 43.33 41.59 43.97 44.82 43.65 43.60 43.43 43.02 41.96 38.85 37.43 35.36 33.26 30.32 31.15 31.46 30.35 35.34 36.61 36.27 37.19 38.88
49.90 49.95 49.41 49.27 49.09 48.93 48.99 49.55 50.63 51.76 51.37 51.89 50.97 47.31 41.35 34.95 39.08 39.45 42.78 45.18 43.87 45.23 43.88 44.86 45.36 43.33 44.39 46.18 44.56 44.48 42.66 42.53 42.60 40.07 40.42 34.62 32.16 29.16 29.90 27.34 25.71 36.32 39.05 38.55 37.71 38.97 38.74
49.44 49.31 48.98 48.84 48.65 48.57 49.98 50.19 50.36 51.27 51.92 53.78 52.27 48.28 41.59 33.57 38.06 40.89 43.64 43.65 44.20 44.71 44.09 44.59 45.24 44.98 45.63 42.22 38.45 36.38 34.65 35.67 36.41 37.98 36.96 37.39 32.90 27.43 29.96 27.44 30.98 35.54 35.33 36.52 36.25 37.61 40.39
48.71 48.87 48.99 48.48 49.35 49.81 49.60 49.85 50.14 50.78 51.89 53.99 52.30 49.79 45.50 38.65 38.44 44.21 43.62 43.89 41.35 40.78 42.01 43.54 46.23 45.74 42.19 35.15 34.19 31.78 31.90 34.98 33.11 36.16 38.73 35.49 34.21 34.35 26.74 27.47 25.34 34.10 37.37 41.75 41.37 34.59 40.93
48.27 48.60 48.80 49.75 49.35 49.21 49.29 49.78 50.00 51.04 51.57 53.88 52.36 50.69 48.96 43.61 46.86 45.83 43.33 43.04 43.62 41.95 40.49 42.23 43.27 43.11 42.75 33.81 32.37 32.66 32.85 33.83 31.49 29.63 31.40 33.45 31.40 30.97 23.10 29.36 30.94 36.31 38.87 42.12 33.58 36.08 39.90
49.04 49.50 49.19 49.03 49.14 49.20 49.29 49.64 49.85 50.56 51.65 54.46 51.75 52.59 49.80 44.66 47.23 49.24 48.95 44.13 44.06 43.97 40.82 43.03 42.21 41.42 37.00 35.08 35.07 32.62 32.76 33.63 33.47 34.49 33.68 33.46 31.56 30.15 25.64 26.64 28.17 38.74 41.01 37.70 41.79 41.11 41.88
49.18 49.13 48.63 47.90 48.12 48.63 49.13 49.89 49.98 50.79 51.45 53.28 51.85 53.65 51.25 48.38 47.55 50.01 50.24 50.47 50.56 48.04 44.60 42.77 44.29 41.86 41.84 36.62 33.15 31.87 32.38 32.32 31.26 32.16 36.06 32.81 36.22 33.93 33.62 34.94 40.16 40.38 42.42 42.91 42.11 41.92 43.28

GFSGBSN_sfc_wetblb_036.txt.gz
Wetbulb
61.24 61.21 60.55 60.01 59.64 59.29 59.14 58.75 57.89 57.25 57.09 56.94 56.94 56.88 57.03 57.18 56.23 55.57 54.60 54.82 54.54 55.18 55.87 54.52 53.79 54.38 55.34 53.46 53.10 62.31 62.62 62.06 59.43 56.43 56.13 54.10 51.63 50.60 47.52 49.60 50.54 48.94 49.10 47.73 48.55 52.03 54.95
57.71 60.41 59.96 59.67 59.43 59.33 59.34 58.55 58.07 57.17 56.81 56.72 56.46 56.26 56.62 56.68 56.28 55.01 54.43 54.64 54.58 55.03 55.12 53.50 53.54 54.41 54.03 48.84 56.49 61.86 61.62 59.39 57.32 55.88 55.74 55.44 51.96 52.90 51.42 50.24 49.56 49.57 47.33 46.21 47.22 50.47 53.29
57.94 57.25 59.76 59.15 58.91 58.72 58.84 58.01 57.60 56.97 56.81 56.60 56.18 55.94 56.30 56.62 56.70 55.46 55.07 55.17 54.96 55.55 53.94 53.10 54.31 54.98 53.41 53.14 58.02 61.81 59.42 57.95 58.61 56.95 55.05 56.44 55.61 52.84 53.19 50.25 48.45 47.90 45.68 47.17 48.58 50.97 50.12
57.04 57.12 58.87 58.90 58.22 57.70 57.59 57.37 57.17 56.77 56.56 56.36 56.24 55.94 55.83 55.77 55.83 55.57 55.39 55.21 55.13 54.47 52.97 53.35 54.42 54.23 52.11 58.22 60.09 58.51 59.21 58.15 58.56 58.54 57.23 56.95 56.82 53.71 52.17 50.49 48.05 45.96 46.97 43.46 47.66 50.02 48.07
56.42 56.39 56.40 59.13 58.17 57.51 57.09 56.87 56.60 56.63 56.48 56.10 55.80 55.77 55.57 55.05 54.95 54.81 54.85 54.70 54.46 53.06 52.84 54.68 54.02 54.21 51.18 59.11 55.19 57.52 58.64 54.99 56.57 57.11 57.26 56.28 55.65 52.48 50.71 47.15 44.46 46.04 41.93 43.19 44.33 48.05 48.74
56.16 56.05 56.02 57.69 58.41 57.61 57.07 56.68 56.10 56.02 55.81 55.63 55.45 55.57 55.37 54.96 54.52 54.22 54.14 54.29 53.62 53.58 54.24 55.05 56.55 53.03 55.81 51.90 55.59 56.72 56.82 55.91 55.19 55.06 53.21 52.39 52.22 48.72 48.25 46.04 40.36 42.50 41.61 43.73 43.44 46.57 48.16
55.34 56.08 56.08 56.20 58.73 58.15 57.70 57.03 56.06 55.41 55.23 55.23 55.33 55.75 55.21 54.82 54.50 53.86 54.11 55.65 53.27 52.66 53.74 52.30 50.95 52.06 52.17 55.97 56.83 54.32 54.72 55.66 54.83 53.43 48.80 50.88 47.62 44.57 46.41 47.10 46.57 45.56 45.09 44.37 45.96 47.71 47.48
54.47 55.06 55.91 55.65 56.69 58.38 58.01 57.32 55.98 55.25 55.09 55.09 55.13 55.21 54.92 54.78 54.58 53.82 55.82 52.81 53.66 56.76 50.24 54.03 53.45 53.27 54.89 55.71 51.45 52.59 55.26 51.69 50.77 47.51 49.95 48.92 45.85 47.85 48.75 47.64 46.64 46.04 45.15 45.10 46.01 46.75 48.09
53.52 53.94 55.02 55.18 55.62 58.36 57.89 57.41 55.94 55.21 54.86 54.68 54.94 54.60 54.64 54.14 53.69 53.24 54.48 54.11 60.08 58.79 53.00 51.08 53.49 52.29 52.35 54.52 50.79 51.11 53.31 52.61 49.36 47.98 48.30 46.35 47.16 49.19 48.49 47.35 46.44 46.43 45.44 45.22 44.84 46.54 48.64
52.65 53.12 53.97 54.48 53.58 56.59 57.38 57.00 56.12 55.47 54.70 54.27 54.42 54.11 53.80 53.44 51.90 55.39 52.74 56.91 58.42 58.54 47.33 45.72 48.86 51.49 51.80 53.74 49.31 53.17 54.55 52.49 50.33 46.32 48.36 47.86 49.01 47.95 47.91 46.43 47.46 44.55 47.65 46.94 45.78 45.42 42.33
52.25 52.56 53.29 53.31 53.23 54.52 56.12 55.85 55.73 55.39 54.76 54.33 53.97 53.85 53.22 53.86 55.25 52.79 55.92 58.37 60.45 57.79 33.96 46.89 48.78 54.66 53.24 50.64 50.66 51.04 55.36 52.95 47.94 47.98 47.99 46.09 47.40 47.30 46.52 46.40 47.61 46.19 48.24 47.17 46.50 46.00 45.12
51.39 51.88 52.34 52.65 52.15 52.93 55.33 55.04 54.66 54.48 54.15 54.15 53.64 53.77 53.32 53.48 56.16 57.57 61.59 62.96 59.36 45.85 34.16 44.49 49.15 48.34 48.71 49.47 49.15 51.69 52.13 53.85 52.61 49.09 49.78 48.30 50.70 49.78 48.62 48.87 49.19 50.05 48.67 48.17 47.76 46.54 39.67
50.64 51.26 51.89 51.95 52.14 51.05 54.95 54.72 54.25 53.72 53.42 53.62 53.40 53.47 53.96 56.59 52.97 63.19 61.77 58.05 45.02 38.31 45.88 43.38 45.02 47.94 47.46 46.49 47.30 48.97 48.78 48.15 46.56 44.03 44.68 47.23 47.41 49.82 50.47 47.97 49.61 49.16 46.17 40.43 37.79 38.47 37.11
50.10 50.63 50.91 51.65 51.09 51.38 53.34 54.46 53.64 53.03 52.93 53.16 52.66 52.62 54.07 56.58 59.25 60.68 59.08 50.95 38.00 42.22 43.74 46.68 46.54 47.30 44.63 46.95 46.74 47.50 47.58 45.73 47.97 47.86 45.71 42.65 40.64 46.80 48.92 48.32 46.32 46.24 45.21 39.76 30.85 34.31 39.02
49.72 50.03 50.54 51.10 50.81 51.02 51.63 53.97 52.97 52.58 52.56 52.39 52.40 53.60 53.83 56.98 58.33 58.66 53.15 43.08 41.49 44.42 47.36 45.43 46.03 43.82 44.35 46.43 46.10 46.99 46.85 46.67 47.74 48.94 44.00 43.04 41.98 47.91 47.94 49.47 48.90 45.11 43.31 46.57 40.30 37.33 37.92
48.66 49.48 49.91 50.57 50.14 50.94 50.06 53.51 52.63 52.46 51.27 52.35 53.90 51.97 53.62 58.93 59.53 55.25 49.91 42.99 45.84 49.09 48.01 47.23 42.14 45.08 42.57 44.96 44.23 45.63 45.85 47.57 46.65 48.42 50.55 47.14 41.49 45.85 46.83 49.12 48.84 47.75 48.26 41.16 42.67 32.43 30.94
48.47 49.05 49.45 49.92 49.91 50.25 49.57 52.88 52.39 51.72 51.28 52.55 53.98 49.56 57.85 61.90 59.91 52.80 44.88 45.30 47.25 52.17 50.61 46.43 44.87 44.52 45.43 44.72 45.40 44.40 45.41 46.94 48.25 48.10 50.54 49.25 45.98 43.73 46.32 45.21 44.94 44.97 44.38 43.20 43.51 40.90 34.51
47.72 48.13 48.67 49.27 49.35 49.60 49.82 52.40 51.89 51.35 51.47 51.85 53.04 46.36 59.77 60.25 50.26 51.70 46.53 47.71 48.13 49.50 51.61 49.06 49.20 47.64 46.43 47.03 45.64 44.92 44.71 46.79 50.15 50.01 47.35 48.11 47.14 42.27 43.86 46.52 47.81 47.17 45.73 45.13 38.86 36.28 39.16
47.29 47.63 48.36 48.67 48.66 48.06 49.19 50.99 51.32 50.82 52.14 54.18 50.00 52.42 56.35 54.69 45.96 46.51 48.04 47.72 50.78 48.48 49.45 49.47 48.21 49.47 49.88 47.67 44.24 46.67 47.51 48.05 49.03 48.96 48.41 48.37 45.16 39.95 40.90 44.13 46.44 44.73 46.11 45.07 42.88 42.38 37.96
47.07 47.62 47.95 48.42 47.97 49.09 48.87 49.87 50.80 50.65 52.19 56.83 51.92 47.60 53.00 52.21 51.36 49.13 46.67 46.58 47.21 50.34 49.89 50.39 49.48 50.69 49.14 47.32 48.30 46.29 46.82 47.20 47.81 48.20 43.82 47.78 45.93 43.53 39.20 41.76 45.03 42.38 44.00 44.59 43.84 38.38 38.92
47.04 47.52 47.69 48.03 47.99 49.39 49.79 51.25 50.52 50.80 51.83 56.23 53.34 49.55 52.64 45.91 46.30 48.79 48.98 47.81 46.98 46.90 50.19 51.44 48.89 49.91 48.90 45.50 46.06 45.80 47.49 45.47 47.22 44.92 47.96 48.51 43.20 43.42 42.33 41.95 41.93 42.18 42.64 43.42 41.90 42.72 38.93
47.50 47.27 47.45 47.24 47.98 48.23 50.06 50.59 50.36 50.85 51.90 56.91 50.89 50.05 50.67 50.32 49.09 47.65 45.69 46.73 47.53 47.76 49.18 48.19 48.90 49.84 50.22 47.51 48.09 46.18 47.80 47.09 46.49 47.45 47.47 46.24 42.65 41.84 39.71 41.06 40.74 39.63 42.69 42.90 43.61 43.47 42.93
47.44 46.92 46.09 47.45 48.04 48.43 50.63 49.89 49.94 50.39 51.59 55.69 56.76 53.31 52.90 44.15 47.14 46.65 46.59 47.99 48.45 50.94 48.83 49.71 51.51 49.83 48.60 48.62 50.47 51.72 50.55 50.13 49.10 47.83 46.09 45.21 42.87 39.96 36.10 37.51 37.82 35.91 41.16 42.91 43.22 44.93 44.39
47.10 46.66 46.91 47.78 48.64 50.40 49.96 49.42 49.51 50.04 51.68 59.32 58.64 54.75 52.01 44.58 46.00 45.44 47.26 49.62 49.72 50.25 49.39 48.81 51.00 50.46 48.73 52.35 52.05 51.19 49.85 48.34 47.89 45.72 46.42 42.39 41.90 39.14 36.88 33.87 31.76 40.74 43.30 43.36 43.86 45.04 46.16
47.44 48.07 48.77 48.94 50.16 49.55 49.02 48.90 49.36 49.95 51.40 60.54 58.42 55.41 51.36 41.24 47.30 46.34 48.42 49.45 49.92 50.39 49.09 49.36 48.83 50.37 52.47 49.58 47.09 43.25 43.39 43.07 43.18 43.59 43.39 44.22 41.56 35.24 36.79 34.36 38.20 40.57 40.42 39.92 39.88 41.13 45.88
48.27 48.92 49.33 49.65 48.91 48.56 48.69 48.88 49.52 50.42 51.95 59.87 57.92 56.96 55.23 48.03 45.65 49.26 48.94 50.65 48.84 49.09 48.44 46.44 48.63 50.65 48.62 47.36 45.28 40.81 38.77 41.56 39.34 41.01 43.23 41.81 42.37 41.93 35.04 35.54 33.78 39.85 42.44 45.63 45.15 38.56 45.10
48.33 49.32 49.01 48.73 48.38 48.23 48.66 49.31 49.73 50.65 51.52 59.38 57.52 57.02 56.96 51.57 49.83 52.03 49.37 49.32 51.76 50.83 48.80 46.85 46.79 47.10 48.26 45.87 43.61 42.85 40.98 40.61 38.01 36.43 35.20 39.03 39.13 37.57 36.13 36.62 38.88 42.90 43.08 45.87 36.31 39.19 46.64
48.63 48.25 48.06 48.27 48.74 49.32 49.48 49.37 49.89 50.66 51.74 58.58 56.65 57.88 58.14 52.53 51.96 53.05 51.90 50.81 50.22 52.49 49.07 48.39 47.92 47.40 47.08 45.27 45.02 42.65 42.00 40.72 39.93 40.70 39.49 39.38 38.21 37.03 35.33 35.00 33.11 43.79 44.56 40.86 45.78 48.24 47.08
48.00 48.84 48.98 48.78 48.92 48.92 49.32 49.41 50.03 50.86 51.81 54.85 56.29 57.34 58.25 55.02 52.38 54.68 53.80 54.37 53.34 52.76 52.46 50.59 51.00 49.25 50.75 47.51 44.85 42.69 38.94 37.09 40.31 39.57 41.79 38.64 42.85 42.04 41.07 42.16 44.71 46.23 47.61 48.94 48.63 47.79 48.29

GFSGBSN_sfc_wetblb_039.txt.gz
Wetbulb
58.12 58.35 59.73 60.98 60.50 59.90 60.01 59.56 58.78 57.91 57.51 57.26 57.27 57.31 57.13 57.06 57.34 57.03 55.26 55.00 54.71 54.91 55.15 55.57 54.49 54.54 56.16 54.73 53.56 63.67 63.28 63.32 59.96 58.00 55.93 53.81 51.61 51.14 48.37 49.10 50.27 49.20 50.85 50.40 51.43 53.36 54.06
57.50 57.94 57.91 59.81 60.11 60.01 60.05 59.54 58.74 57.98 57.30 57.06 56.83 56.67 56.57 56.79 56.89 57.07 55.41 55.14 54.46 55.10 55.54 54.51 54.13 54.52 56.00 49.68 57.78 61.06 61.47 60.13 57.31 57.28 55.80 55.77 53.02 53.02 51.77 50.79 50.59 51.60 51.13 49.45 52.25 53.39 54.97
56.69 57.51 57.74 57.43 59.54 59.48 59.41 58.63 58.35 57.98 57.36 57.02 56.75 56.25 56.06 56.49 56.88 56.74 56.42 55.17 54.82 55.54 54.59 53.50 53.90 56.45 54.40 53.96 59.17 62.03 61.32 59.03 59.64 57.68 55.56 56.77 56.29 53.40 53.89 51.53 51.43 49.88 46.87 48.83 48.69 52.20 52.55
56.45 56.58 57.34 56.93 58.13 58.41 58.22 58.12 57.90 57.96 57.38 56.85 56.76 56.15 55.68 55.96 56.00 55.98 55.88 55.61 55.65 55.19 53.47 53.13 54.43 57.60 52.38 59.58 61.04 59.76 61.28 59.82 60.37 60.11 58.16 58.47 58.05 55.21 54.17 53.84 49.44 47.44 47.37 44.44 49.55 52.02 52.88
55.40 56.07 56.67 56.35 56.13 57.90 57.87 57.65 57.59 57.62 57.32 56.71 56.37 55.90 55.41 55.41 55.23 55.27 55.13 55.07 54.91 53.96 53.29 54.30 56.01 56.37 52.80 59.33 55.77 58.52 59.65 56.99 57.82 58.57 58.58 57.34 56.93 53.79 53.21 48.78 44.84 46.37 42.62 44.63 47.25 52.00 51.07
54.25 55.05 55.85 56.17 55.82 56.20 57.99 57.53 56.91 56.79 56.69 56.18 56.00 55.54 55.29 55.51 55.21 54.99 54.66 54.66 54.05 52.92 54.61 57.72 58.11 54.75 57.78 53.37 56.32 57.96 59.03 57.58 56.67 56.75 55.51 54.19 53.24 50.30 49.98 46.67 40.17 42.52 43.56 45.31 44.60 48.16 49.26
53.54 53.57 55.04 55.65 56.00 56.04 58.01 58.11 56.95 56.16 55.96 55.90 55.82 55.54 55.68 55.35 55.27 54.54 54.46 57.09 54.55 54.00 55.76 52.58 53.54 52.88 53.56 57.01 58.17 56.46 57.03 55.93 56.45 55.10 50.84 52.92 48.36 45.73 47.10 48.47 47.94 46.35 44.79 43.96 46.20 47.90 46.93
53.30 53.65 54.10 55.10 55.69 56.03 56.94 58.47 57.01 56.02 55.72 55.68 55.30 55.32 55.66 55.35 55.05 54.24 56.50 54.33 55.64 58.56 52.55 54.55 53.89 54.67 56.15 56.56 52.36 54.48 56.58 52.69 51.99 49.10 50.55 48.82 45.78 48.93 49.57 48.21 47.21 46.16 45.50 44.78 47.56 47.94 47.84
52.59 52.80 53.44 54.35 55.15 55.76 55.76 57.75 57.05 55.71 55.59 55.47 55.07 55.46 55.17 54.76 54.08 54.42 56.10 56.06 61.41 61.01 53.93 52.84 53.34 53.09 54.28 55.11 52.05 52.57 54.64 53.24 50.71 48.74 48.78 46.25 48.48 50.49 48.37 47.43 45.95 46.36 45.07 45.82 45.72 47.63 48.26
52.08 52.16 52.99 53.80 54.34 55.04 55.02 56.16 57.39 56.04 55.25 54.91 54.52 54.87 54.16 53.62 52.07 57.16 55.26 59.25 60.41 60.77 49.05 48.06 50.32 52.29 53.83 54.55 50.98 55.09 55.45 53.16 50.77 47.00 48.24 48.20 51.07 49.17 47.91 46.19 47.54 44.76 49.08 47.64 46.51 45.84 42.08
51.42 51.82 52.27 52.92 53.42 53.67 53.17 54.17 56.78 56.18 55.37 54.84 54.21 54.36 53.64 53.51 57.89 55.17 58.67 59.56 61.51 60.91 36.75 48.42 49.54 56.46 53.96 51.25 51.43 51.87 56.07 53.29 48.60 47.94 49.22 47.02 48.48 47.92 46.50 47.70 49.52 46.88 49.69 48.34 47.32 46.11 45.73
51.11 51.25 51.81 52.15 52.61 53.07 52.96 53.11 55.53 55.43 55.03 54.48 54.09 53.87 53.46 54.11 56.45 59.45 62.02 61.41 60.07 47.21 36.78 45.14 50.19 49.41 49.60 50.75 50.20 52.23 52.14 54.18 53.95 49.36 48.73 47.47 53.08 50.89 50.08 50.28 50.11 51.07 48.81 48.61 48.20 46.35 40.72
49.85 50.87 51.17 51.94 52.01 52.57 52.40 52.67 54.75 54.83 54.34 53.93 53.79 53.62 54.28 58.14 54.83 61.22 61.86 60.67 46.21 39.76 47.78 44.51 46.54 49.13 48.39 47.66 48.22 49.09 48.33 48.13 45.94 43.39 44.29 48.28 48.71 51.27 51.76 48.46 50.51 49.73 47.23 40.59 38.77 39.38 38.11
48.13 49.86 50.64 51.32 51.68 52.18 52.10 51.85 54.27 54.14 53.87 53.50 52.99 52.94 54.23 57.90 60.39 63.13 60.55 52.69 40.09 44.75 45.79 48.51 48.04 48.04 45.68 47.90 47.61 47.63 47.14 45.42 48.50 48.18 44.86 42.65 41.74 48.75 51.27 49.83 47.42 47.99 46.83 41.18 33.21 35.19 38.89
47.40 49.27 49.92 50.93 51.31 51.81 51.75 51.59 53.65 53.65 53.04 52.96 52.49 54.91 55.07 57.26 60.16 60.84 54.73 44.30 43.88 45.98 48.11 46.55 47.08 44.69 45.12 46.99 46.81 46.85 46.85 45.98 47.89 49.52 43.03 43.63 42.58 50.00 50.15 51.07 49.99 47.21 43.80 48.74 42.43 42.44 38.67
46.72 48.14 49.33 50.04 50.77 51.05 51.30 50.72 53.17 53.56 52.69 52.27 54.04 52.59 53.86 60.20 60.46 56.64 50.53 44.39 48.17 49.99 49.45 48.60 43.64 46.16 43.42 45.40 44.63 45.36 45.83 48.40 48.13 50.78 52.64 48.00 42.45 47.96 48.86 50.97 50.85 48.96 50.10 42.45 43.22 33.78 32.98
46.39 46.89 49.17 49.43 49.67 50.48 51.02 51.08 51.02 53.00 52.43 52.52 54.78 49.92 57.98 60.87 58.77 51.83 45.78 47.44 50.02 51.36 52.07 47.85 46.35 45.37 45.80 45.25 45.87 44.94 45.57 48.93 50.92 50.77 52.47 49.81 46.93 45.89 48.07 46.69 45.59 47.17 45.35 45.61 45.12 43.47 36.17
46.46 46.07 48.75 49.08 49.67 50.11 50.34 50.70 50.15 52.34 52.04 51.70 53.77 46.24 59.41 61.44 46.63 49.83 47.68 50.32 49.90 50.93 53.60 50.41 49.94 48.32 47.02 47.65 46.26 45.76 45.21 48.24 52.55 52.24 48.06 50.53 47.68 42.91 45.00 49.58 50.46 49.62 47.31 47.15 40.86 38.68 41.25
44.49 45.52 47.67 48.54 49.04 49.43 49.78 50.41 48.99 51.66 52.01 54.23 50.33 52.14 58.67 57.21 43.70 48.26 50.70 50.49 51.16 49.88 51.42 49.76 47.96 49.65 50.36 48.21 45.14 47.24 47.42 51.57 52.16 51.86 49.41 50.86 45.36 40.16 42.48 46.53 48.88 46.37 47.45 47.22 46.65 44.58 40.13
45.00 45.94 46.85 47.72 48.26 49.27 49.49 49.10 49.42 51.31 52.05 55.65 51.99 47.36 50.34 54.40 51.66 50.32 48.81 48.42 47.50 52.77 51.28 51.06 49.37 50.55 49.01 47.34 49.50 47.14 47.77 49.77 51.61 51.65 45.52 50.10 46.52 43.76 39.84 43.10 47.12 44.89 46.43 47.52 45.69 40.70 40.33
45.77 46.48 46.95 47.53 48.06 48.95 49.07 48.79 49.17 50.85 51.77 53.87 51.74 49.20 51.59 46.23 49.03 48.68 51.21 49.17 47.10 47.43 52.06 52.58 50.02 49.93 48.74 46.22 47.24 47.58 49.96 48.99 50.18 46.04 49.51 50.61 44.73 46.16 46.24 46.22 45.96 45.51 45.09 45.58 44.46 44.72 41.71
45.56 46.60 46.92 47.44 47.85 48.43 48.87 48.98 48.79 49.26 51.47 50.71 50.43 50.67 53.02 49.63 51.03 49.31 48.12 48.37 47.26 49.22 50.58 49.30 47.93 50.33 50.85 48.46 49.28 47.36 50.20 49.68 48.50 50.46 50.26 50.45 44.87 45.59 42.92 46.18 45.34 43.45 45.22 45.43 44.92 45.33 44.83
46.28 46.60 46.83 47.39 47.75 48.47 48.77 48.77 48.49 48.68 50.94 49.69 56.12 57.39 55.28 49.73 50.40 48.53 48.93 48.63 48.33 52.14 51.63 52.80 51.37 50.52 50.32 51.37 54.40 54.82 54.59 53.66 52.78 50.57 49.41 48.55 45.96 42.47 38.20 41.71 41.44 37.16 42.94 44.35 45.16 46.47 45.96
46.03 46.83 47.22 47.42 47.79 47.98 48.10 48.35 47.43 49.95 50.84 55.64 57.62 56.46 53.59 47.82 50.71 48.46 49.74 50.02 49.28 51.93 50.53 52.54 54.31 52.58 53.17 56.36 55.59 54.41 52.87 51.40 51.07 49.99 51.93 47.31 46.03 43.41 38.81 36.04 30.91 43.02 45.79 45.06 44.49 46.07 47.28
46.01 46.83 47.19 47.44 47.46 47.57 47.62 47.73 48.00 50.06 50.56 53.83 58.51 56.97 53.83 45.83 50.83 49.30 49.95 49.82 51.28 53.14 52.26 52.39 51.97 54.82 56.60 54.38 49.13 45.17 45.76 44.63 45.50 46.97 46.61 48.65 45.35 38.87 37.70 36.66 40.84 42.51 43.63 42.66 41.82 42.27 46.86
46.56 46.86 47.12 46.75 46.54 47.43 47.75 48.17 49.32 49.81 50.55 51.79 55.41 61.04 57.65 52.40 50.53 51.27 49.49 51.00 50.39 50.93 50.80 49.13 54.31 55.08 53.20 52.45 48.34 41.68 39.65 42.89 42.11 44.06 46.34 45.02 46.48 42.60 37.88 34.82 32.61 42.52 45.00 47.38 46.66 39.35 46.89
46.59 46.68 46.84 47.09 47.31 47.32 48.99 49.37 49.20 49.45 50.36 52.90 57.29 61.01 57.77 52.26 52.81 53.33 49.67 50.23 53.16 52.94 51.24 49.96 50.17 50.02 52.59 49.57 44.20 44.17 42.83 45.59 40.76 40.09 37.36 41.17 41.65 39.02 39.01 38.30 41.56 46.09 45.96 47.71 38.01 41.11 48.31
46.22 46.15 46.76 48.28 48.62 48.89 48.88 48.85 48.97 49.29 50.13 52.27 58.89 61.87 59.73 54.91 54.52 55.69 54.74 52.89 54.30 54.03 50.48 51.91 50.38 50.57 50.40 45.90 47.18 46.24 44.34 44.82 43.51 44.71 42.35 40.91 40.70 38.22 41.17 35.97 33.40 46.77 46.53 41.71 47.70 49.22 49.52
46.13 47.92 48.57 48.55 48.32 48.26 48.54 48.59 49.00 49.40 50.65 51.96 57.89 60.95 62.29 57.39 54.61 57.94 56.86 57.22 56.42 56.82 55.76 53.54 53.02 52.20 52.85 50.08 49.54 49.68 41.77 40.28 44.96 40.39 46.39 41.33 45.69 44.58 43.66 43.79 47.69 48.38 47.61 49.63 50.17 48.97 49.32

GFSGBSN_sfc_wetblb_042.txt.gz
Wetbulb
57.18 58.38 58.42 58.21 58.30 60.83 60.71 60.23 59.53 58.64 58.06 57.64 57.55 57.45 57.36 57.26 57.16 57.47 56.97 55.44 54.87 54.53 55.12 55.81 55.30 54.79 55.57 54.10 53.91 62.70 63.59 62.18 59.18 56.19 54.79 53.77 50.94 49.92 47.38 48.85 49.40 48.00 49.23 50.93 51.35 52.06 54.54
56.30 57.07 57.75 58.18 57.72 58.83 60.94 60.24 59.45 58.41 57.89 57.57 57.25 57.06 56.86 57.01 56.97 57.18 56.99 56.04 54.92 54.72 55.04 55.87 54.67 54.27 54.57 48.78 58.07 61.39 61.60 61.14 56.72 55.32 55.54 54.85 52.05 52.62 50.03 50.10 48.12 50.28 49.84 50.17 51.47 52.54 53.56
55.11 56.22 56.79 57.65 57.36 57.51 59.79 59.41 59.08 58.53 58.05 57.75 57.25 56.82 56.54 56.62 56.70 56.83 56.67 56.38 55.19 54.76 56.24 54.83 54.21 55.40 53.60 52.29 59.19 60.61 61.26 59.16 57.79 56.59 54.65 55.64 55.57 52.76 52.67 50.82 53.20 50.82 47.57 48.67 50.48 52.09 52.23
54.94 55.49 56.38 56.31 56.54 56.47 57.48 58.66 58.54 58.41 58.11 57.79 57.41 56.58 55.91 55.75 55.68 55.90 55.98 55.74 55.98 55.48 55.42 54.11 54.15 56.16 51.41 59.20 60.20 58.64 60.09 59.85 60.28 59.65 57.73 58.00 57.97 54.27 52.64 54.33 50.81 46.71 47.61 44.11 49.47 50.20 51.97
54.39 54.74 55.49 56.05 56.39 55.87 55.67 57.55 58.07 58.30 58.17 57.69 57.08 56.52 55.69 55.32 55.40 55.42 55.44 55.62 55.56 55.56 54.90 54.29 55.14 55.75 51.43 60.59 56.33 58.35 59.06 56.56 57.92 58.46 58.72 58.10 56.43 53.48 52.69 48.39 45.54 46.33 40.90 43.62 46.29 50.84 50.86
53.94 54.28 54.85 55.17 55.73 56.12 55.93 56.27 57.63 57.61 57.42 57.22 56.90 56.30 55.73 55.18 55.44 55.24 55.05 55.30 55.89 53.77 54.04 57.03 57.02 52.66 56.70 53.36 55.71 56.75 58.96 57.92 56.16 56.28 55.04 53.97 52.72 49.68 49.41 46.68 38.56 40.86 41.52 44.28 44.70 48.37 49.34
53.89 53.75 53.85 53.99 54.70 55.80 56.56 56.36 57.06 57.13 56.93 56.87 56.66 56.24 55.75 55.57 55.56 55.01 53.73 54.84 53.06 52.46 54.45 51.17 52.33 51.18 53.49 56.63 57.88 55.75 57.61 55.53 55.99 54.68 49.91 52.25 47.60 44.98 47.23 48.31 47.59 46.52 44.86 44.07 46.04 48.29 46.86
53.47 53.69 53.64 53.60 53.96 55.16 55.72 56.22 56.10 56.76 56.69 56.51 56.21 55.95 55.63 55.87 55.28 54.81 55.07 54.53 55.54 57.85 51.79 56.26 52.97 54.06 55.76 56.95 52.44 54.02 57.11 51.86 52.44 48.50 50.09 48.93 44.27 48.79 49.57 49.02 47.67 46.10 44.69 44.59 45.85 47.04 46.18
52.71 53.14 53.31 53.58 53.78 54.41 55.28 56.09 55.27 56.56 56.34 56.04 55.81 55.65 55.57 54.79 54.45 53.91 54.35 54.39 59.62 60.17 52.32 53.52 55.41 50.40 53.19 55.26 51.82 51.86 54.31 52.30 50.31 47.98 48.21 45.57 46.82 50.35 48.67 46.89 45.03 45.68 44.82 45.09 44.51 46.48 46.23
51.42 52.14 52.74 53.11 53.27 53.80 54.47 55.20 55.14 55.65 56.04 55.64 55.28 54.96 54.52 53.83 51.35 56.14 54.63 58.38 59.15 60.63 47.14 48.47 50.47 50.92 53.39 54.37 50.47 54.89 55.31 52.36 50.67 47.07 48.55 47.12 49.95 48.94 48.17 45.72 47.02 43.50 48.96 47.21 46.50 44.53 39.45
49.96 50.96 51.68 52.30 52.48 52.97 53.50 54.16 54.32 54.29 56.22 55.44 54.65 54.52 53.60 53.51 56.00 55.44 58.32 60.14 60.71 58.17 36.22 49.00 50.24 55.78 54.54 51.07 51.75 51.54 55.58 52.70 48.31 48.08 48.54 45.18 46.13 47.18 46.91 47.09 49.03 45.23 49.55 48.01 46.98 44.50 44.12
49.80 50.11 51.19 51.76 51.91 52.38 52.88 53.34 53.09 53.17 55.54 55.08 54.28 54.20 53.52 53.77 54.63 56.88 61.08 63.46 59.93 46.32 35.37 44.99 49.36 48.65 49.04 50.21 50.40 51.88 51.42 53.83 52.80 48.76 49.56 47.56 51.95 50.20 48.99 49.87 49.63 51.01 48.23 48.06 47.21 45.42 37.88
49.35 49.56 50.38 51.26 51.38 51.78 52.20 53.09 52.79 52.70 54.74 54.67 53.92 53.82 53.83 57.40 53.77 60.47 61.39 58.14 44.77 38.24 47.86 44.74 45.63 48.37 47.75 47.31 48.03 48.57 47.81 47.11 45.08 42.83 43.32 46.92 46.93 50.85 51.78 47.42 50.08 48.45 45.26 39.45 33.26 34.58 37.23
47.40 48.72 49.20 50.35 51.20 51.45 51.91 52.78 52.27 52.12 53.72 54.45 53.26 53.04 53.61 56.17 59.49 61.89 59.59 50.89 38.40 43.85 45.62 48.38 47.43 47.63 45.26 47.66 47.21 47.21 46.83 44.08 47.65 46.70 43.81 41.72 40.55 47.78 50.57 48.13 45.09 46.15 45.35 37.97 31.87 31.59 38.30
47.27 48.17 48.72 49.37 50.36 51.09 51.77 52.19 52.11 51.96 53.29 53.73 52.77 53.74 53.41 56.38 58.50 60.69 53.56 41.88 41.56 45.87 47.94 47.32 46.92 44.42 44.66 46.67 46.70 46.22 45.37 44.94 46.82 47.63 42.64 41.54 41.48 49.24 50.43 50.30 49.73 45.95 43.37 47.98 41.92 43.19 39.34
46.11 47.50 47.88 48.52 49.30 50.21 50.89 51.76 51.64 51.68 53.44 52.71 51.47 51.47 51.56 58.50 60.07 56.48 49.08 42.35 46.48 50.59 50.24 48.84 43.28 45.67 42.51 44.57 44.35 45.10 44.74 47.68 46.41 48.88 51.64 46.41 39.08 47.21 49.50 50.52 50.09 47.24 48.86 42.40 43.15 33.79 32.01
45.99 46.75 47.26 47.78 47.31 49.42 50.11 51.46 51.37 51.73 52.94 52.59 50.70 47.05 54.70 59.55 58.62 50.89 43.66 45.14 48.44 52.41 51.96 48.08 45.67 44.87 45.36 44.59 45.41 44.27 44.39 47.23 48.84 49.56 51.19 47.12 43.09 43.46 48.20 45.84 44.01 46.33 44.61 44.53 43.72 43.45 36.18
46.10 46.29 46.56 47.09 46.42 49.11 49.71 50.90 50.86 51.86 52.49 51.25 49.15 42.97 57.34 59.50 46.71 46.16 45.14 47.93 48.94 51.12 52.49 50.48 49.77 47.90 46.20 47.19 45.31 44.35 44.19 47.23 51.06 51.17 47.20 49.78 47.46 43.18 44.55 49.42 50.44 48.43 46.26 46.35 41.63 38.38 41.75
45.66 45.76 46.13 46.88 46.58 48.36 49.24 50.12 50.78 51.28 52.18 50.60 46.46 49.00 57.81 57.07 41.69 43.30 46.92 48.02 50.16 49.90 50.48 49.66 48.58 49.25 49.54 47.08 44.35 46.57 47.38 52.59 53.59 50.67 48.49 50.45 46.00 39.71 41.45 45.92 48.74 45.56 46.16 46.25 46.47 46.31 40.21
44.83 45.36 45.82 46.21 46.72 46.79 49.09 49.63 50.26 50.15 52.26 51.54 47.98 44.15 49.70 52.99 50.65 45.44 45.31 46.21 46.94 52.60 50.24 51.27 49.98 49.97 48.48 47.26 49.30 46.75 47.07 50.62 52.54 51.88 47.04 50.93 46.98 42.64 38.38 41.47 45.90 44.24 45.46 46.11 45.56 40.75 40.09
44.64 44.97 45.31 45.40 45.14 47.07 48.85 49.41 50.25 49.71 51.46 51.10 50.08 46.49 49.19 43.13 46.58 47.06 49.55 47.85 46.79 46.98 50.66 51.63 49.15 48.19 47.64 45.07 46.41 45.89 48.37 49.55 50.74 46.79 49.64 50.07 42.69 44.32 44.38 45.57 45.86 45.21 45.14 45.45 43.76 44.58 40.27
44.15 44.92 45.02 44.57 45.11 47.38 48.73 49.38 48.97 49.31 51.08 48.38 47.68 46.99 51.21 49.03 49.10 47.00 46.07 47.76 47.65 48.70 49.02 48.42 47.89 48.77 49.45 46.68 46.92 45.58 48.58 49.65 47.50 50.12 49.48 50.50 44.08 45.61 43.37 46.13 45.50 42.95 44.40 44.66 44.72 44.69 44.11
44.17 44.56 45.33 45.26 45.35 46.82 48.26 49.02 48.64 48.85 49.15 47.73 50.53 54.45 51.44 46.98 48.27 45.54 47.12 48.74 49.01 51.09 51.39 51.56 50.81 49.81 48.85 50.61 53.59 54.49 54.88 54.30 52.24 50.14 48.61 48.38 46.65 43.57 39.47 42.58 40.90 35.36 42.25 43.59 44.21 45.91 45.57
44.95 45.07 45.84 46.14 46.26 47.48 48.40 48.66 48.55 48.85 48.37 47.76 51.65 54.46 49.51 45.71 47.05 46.62 49.04 50.31 49.58 50.75 49.67 52.27 53.52 51.12 53.63 57.20 56.24 55.03 53.64 52.75 52.87 51.82 52.60 48.44 47.08 45.08 39.57 35.82 31.32 42.36 46.64 44.98 43.28 44.18 45.45
44.97 45.44 46.29 46.45 47.26 47.84 47.94 48.06 48.21 48.13 48.87 46.22 49.86 52.69 52.47 44.01 48.42 48.39 48.74 50.62 52.46 51.91 48.75 52.37 53.33 55.82 57.36 55.18 49.33 45.05 44.94 43.09 46.48 48.53 48.38 50.80 46.61 40.12 36.84 36.20 40.39 42.62 44.19 43.34 42.34 42.02 45.82
45.06 45.87 46.25 46.51 47.18 47.41 47.54 47.76 47.94 47.66 48.05 48.35 46.58 49.06 51.34 49.20 47.92 51.87 50.75 52.17 49.62 49.54 48.11 50.71 55.24 58.57 57.07 53.14 49.44 41.98 39.96 42.72 41.85 43.27 46.90 46.38 48.89 43.61 38.78 35.57 30.95 42.96 45.11 47.39 46.42 38.82 46.86
45.40 45.81 46.26 46.93 47.05 47.21 47.12 47.39 47.50 47.92 47.78 46.85 47.56 50.01 49.28 50.78 54.46 53.45 50.02 50.51 53.47 49.05 47.85 50.05 50.04 50.70 54.45 49.67 41.27 45.53 43.21 46.08 41.15 40.00 36.59 40.78 42.08 37.78 37.97 37.79 40.99 46.21 46.67 47.56 38.24 40.63 48.09
45.37 45.85 46.37 46.80 46.77 46.81 47.11 47.24 47.13 47.36 47.78 47.53 48.79 52.42 50.26 51.93 55.10 56.24 55.72 53.54 53.21 47.07 45.60 51.68 50.71 51.69 52.32 46.90 48.09 47.67 43.86 46.47 44.93 45.22 41.98 39.94 40.31 37.56 41.87 35.17 32.93 47.33 45.94 41.51 47.08 49.76 48.95
45.91 46.22 46.51 46.51 46.42 46.35 46.68 47.16 47.47 47.82 48.34 49.72 48.23 53.32 55.03 54.24 55.10 58.40 57.42 57.90 57.56 56.53 54.68 53.87 53.67 52.00 52.68 50.25 49.74 50.85 40.39 40.29 44.30 41.15 47.59 41.81 45.76 43.87 43.06 42.41 48.53 49.13 47.90 49.91 50.55 49.02 49.43

GFSGBSN_sfc_wetblb_045.txt.gz
Wetbulb
56.50 56.94 57.78 58.52 58.24 58.13 60.13 60.88 59.67 58.99 58.48 57.94 57.46 57.33 57.56 57.45 57.53 57.11 56.51 56.39 56.33 56.04 55.60 55.07 56.10 55.87 52.56 50.18 52.12 58.80 63.06 61.79 57.39 54.93 51.43 50.88 49.64 47.40 43.76 44.34 44.95 43.82 46.18 47.56 54.39 52.58 52.04
55.80 56.16 56.78 57.43 58.13 58.07 58.40 60.07 60.04 58.88 58.34 57.82 57.35 57.03 57.09 57.05 56.89 56.70 56.41 56.30 55.92 55.44 55.23 55.94 56.04 55.26 50.82 46.34 56.11 62.29 60.87 57.72 55.67 51.83 51.89 51.77 50.36 49.30 46.99 46.41 45.77 47.47 46.57 46.49 48.48 50.14 52.19
55.08 55.56 55.64 56.54 57.15 57.45 57.16 57.42 59.45 59.15 58.51 57.99 57.33 56.92 56.72 56.64 56.32 56.13 56.19 55.94 55.74 55.52 55.57 56.27 55.23 53.12 50.95 48.67 55.40 54.41 57.65 57.26 55.63 52.67 51.10 53.52 52.42 48.91 49.00 47.20 51.42 48.47 43.69 45.99 47.18 48.92 49.00
55.16 55.22 55.26 55.59 56.25 56.11 56.07 55.83 57.61 59.05 58.75 58.15 57.81 56.94 56.15 55.71 55.22 55.16 55.48 55.24 55.18 55.80 56.03 56.04 54.51 51.64 48.12 58.14 55.65 56.08 55.63 56.43 57.07 54.76 54.10 54.98 55.12 51.86 48.65 50.00 49.13 45.27 42.93 39.48 45.72 48.94 50.95
54.52 54.86 55.04 54.89 55.66 55.94 55.69 55.32 55.41 57.78 58.76 58.24 57.56 56.80 56.11 55.30 54.77 54.65 54.93 54.95 55.12 55.94 55.97 55.13 50.66 50.37 49.34 59.98 56.06 56.71 55.57 54.49 56.93 56.62 55.62 57.35 53.48 49.50 49.23 43.64 40.87 41.55 37.20 41.27 43.72 48.78 49.49
54.52 54.31 54.60 54.72 55.11 55.63 55.97 55.81 55.39 56.12 57.73 57.99 57.44 56.82 56.05 55.36 54.65 54.53 54.39 54.73 55.43 54.40 53.78 54.25 53.49 47.50 52.18 52.50 56.05 55.62 55.65 56.10 54.14 53.99 53.73 51.10 48.00 44.52 43.90 41.08 35.53 38.95 39.63 37.44 41.08 45.55 48.12
54.32 54.37 54.14 54.11 54.40 54.89 55.73 56.34 55.69 55.55 56.77 57.43 57.41 56.66 55.97 55.14 54.85 54.79 52.91 52.14 49.29 48.99 50.05 48.59 49.23 49.42 50.26 54.29 55.65 52.51 55.11 53.87 52.74 51.67 45.78 49.43 42.72 39.65 42.97 45.55 45.98 43.96 42.40 40.48 43.31 46.24 44.10
53.00 54.13 53.81 54.09 53.72 53.87 54.32 55.25 55.43 54.75 56.01 57.11 57.07 56.35 55.69 55.08 55.04 54.37 51.13 49.69 52.72 52.47 48.05 53.22 52.83 52.64 53.64 54.23 51.25 53.31 53.99 49.21 48.10 45.30 49.48 45.66 40.59 47.36 48.69 48.06 45.77 44.59 42.90 42.48 44.87 45.10 42.69
51.36 52.67 53.58 53.72 53.93 53.87 54.08 54.60 54.58 54.85 55.04 56.48 56.57 56.11 55.37 54.63 54.25 51.93 50.87 50.68 54.49 53.78 47.53 51.48 54.01 53.32 52.38 52.82 50.31 50.66 51.32 49.59 46.69 45.35 45.82 43.02 44.99 49.54 48.25 46.57 44.95 44.52 42.24 42.07 42.09 44.83 43.48
51.30 50.84 52.22 51.98 52.36 52.46 53.43 53.62 54.66 54.98 54.27 55.86 56.02 55.48 54.32 53.63 49.74 51.62 50.38 55.35 54.71 52.75 42.55 46.64 49.53 52.80 51.17 50.23 48.93 53.86 53.40 49.55 47.34 45.61 46.04 45.81 49.08 47.73 46.50 45.40 46.43 41.70 47.78 46.50 44.70 41.66 35.07
51.13 50.66 50.20 51.82 52.57 52.15 52.16 52.66 53.94 54.77 53.81 55.34 55.32 54.91 53.60 53.30 50.19 50.43 55.32 57.05 54.77 52.94 29.80 49.17 49.82 54.44 50.36 48.58 50.06 50.16 53.32 50.16 45.71 45.81 46.32 44.20 45.54 45.67 44.55 45.65 47.90 43.31 47.36 46.45 45.51 43.12 41.42
50.32 50.82 50.37 50.50 50.63 51.57 52.09 51.91 53.19 53.83 53.15 54.12 54.98 54.51 53.37 52.26 50.99 51.95 54.25 54.59 54.78 42.60 31.46 45.86 48.91 46.78 47.09 48.85 49.18 49.67 49.27 50.90 50.12 47.25 46.62 45.47 49.37 47.71 46.49 49.02 48.49 48.92 46.30 45.78 43.76 41.39 32.75
49.65 49.60 49.25 50.15 50.07 51.14 51.78 51.93 52.47 53.04 52.66 53.30 54.52 53.91 53.14 54.46 49.43 55.49 53.82 52.30 40.03 35.50 46.66 43.39 43.52 46.26 45.55 45.13 46.33 46.79 45.54 43.57 40.80 38.27 39.86 44.10 45.60 49.24 50.09 44.27 47.86 46.26 41.71 33.55 30.96 30.58 30.47
48.37 48.43 48.60 48.93 50.15 50.50 51.43 51.61 51.79 52.47 52.40 52.75 53.70 53.09 53.19 53.59 54.36 55.30 54.32 46.58 36.33 41.75 42.76 47.90 45.61 45.56 42.95 45.21 44.96 45.60 43.44 40.43 44.05 42.64 39.47 38.32 36.96 44.98 48.73 45.66 43.70 43.53 42.50 32.87 28.17 29.44 31.23
47.89 48.00 47.73 48.16 47.63 50.62 50.99 51.35 51.26 52.14 51.64 52.21 53.13 52.53 51.82 52.02 53.37 53.50 50.14 40.19 36.63 43.19 45.88 46.03 45.12 41.79 41.68 44.58 45.42 43.49 41.46 41.31 43.77 44.30 37.65 39.48 39.73 48.52 49.27 49.78 47.05 43.86 39.18 45.33 37.65 35.68 29.38
47.57 47.27 46.93 47.06 47.21 49.13 50.06 50.81 51.10 51.83 51.64 52.47 50.06 50.49 50.09 53.59 54.79 51.97 46.70 39.29 43.00 48.47 49.07 47.87 41.61 43.15 39.33 42.05 42.20 41.64 41.47 44.56 44.14 45.99 46.60 44.11 38.33 45.52 47.88 49.27 47.97 45.29 46.49 36.64 36.36 27.72 25.80
46.77 46.70 46.73 46.97 47.41 48.17 49.23 50.34 50.93 51.82 51.56 52.82 50.14 46.77 51.18 54.50 54.44 48.69 38.94 41.77 44.96 49.75 50.02 47.47 44.37 42.56 43.03 41.98 42.61 40.80 42.38 44.94 46.35 46.87 48.26 44.99 41.49 41.12 45.28 44.17 41.75 42.45 40.74 41.69 40.23 36.25 28.58
46.06 45.84 46.00 46.06 46.85 47.43 48.60 49.97 50.38 51.32 51.68 50.96 48.85 41.35 51.76 55.36 43.52 43.14 40.07 43.29 46.05 47.61 50.55 49.35 48.14 46.62 43.59 43.50 43.70 41.42 41.75 44.32 47.62 49.15 44.60 46.55 41.70 36.93 41.26 46.62 48.22 45.13 42.85 42.50 30.92 32.89 33.78
45.27 45.48 45.51 45.05 46.08 47.10 47.59 49.02 49.94 50.55 51.21 48.28 45.13 46.10 52.81 52.50 35.48 37.82 42.51 43.64 46.18 46.86 47.10 48.26 46.71 47.86 47.41 43.62 42.47 43.66 44.13 50.14 49.92 47.75 45.28 46.39 39.90 32.69 37.39 42.35 45.55 41.98 43.54 43.22 42.30 38.31 33.62
44.57 44.74 44.70 44.53 45.68 46.70 47.63 48.25 49.40 50.28 50.98 49.88 46.22 40.34 47.39 48.25 43.03 40.06 40.18 40.92 41.93 48.61 47.73 49.10 48.63 48.36 45.66 43.25 45.31 43.45 45.12 49.98 50.37 48.01 45.89 48.08 43.84 38.23 31.99 36.70 41.02 39.73 42.38 42.93 40.49 30.35 32.57
43.88 44.25 44.06 43.02 45.58 46.78 47.00 46.52 49.36 49.80 50.54 49.45 46.23 41.81 47.12 41.55 41.28 41.38 42.55 42.31 41.92 42.81 48.03 49.39 47.73 46.57 44.51 40.96 42.74 42.65 46.48 47.35 49.19 46.69 47.03 45.81 38.85 40.52 40.90 43.07 43.31 42.26 41.82 42.34 41.58 40.51 34.37
43.90 43.76 43.83 42.74 45.94 46.28 46.46 46.84 47.36 49.37 50.24 45.89 43.88 43.33 47.92 44.76 45.84 43.47 41.64 41.27 42.38 44.99 46.46 45.94 45.50 46.67 45.76 42.93 43.66 42.24 46.20 45.75 44.27 45.72 44.52 45.78 38.25 39.20 37.49 43.43 41.89 38.13 40.72 41.00 40.76 41.13 39.94
43.85 44.08 43.63 44.14 45.47 46.08 45.94 46.47 46.76 49.28 48.97 44.32 47.70 48.81 47.68 43.49 43.91 42.43 41.16 42.73 43.61 47.15 48.65 49.93 47.52 46.55 43.99 46.26 47.60 48.83 48.49 49.29 48.18 45.20 42.57 43.09 39.85 34.65 31.74 37.27 36.64 29.23 37.50 39.56 40.81 41.46 40.36
44.20 44.71 44.90 45.11 45.16 44.92 44.41 45.14 47.79 48.74 48.52 47.44 46.92 48.73 46.30 40.01 43.66 42.75 43.28 44.46 45.23 46.69 46.50 49.37 48.86 46.84 49.19 52.55 51.22 49.98 48.29 48.85 49.21 47.84 48.22 42.39 40.38 34.36 29.51 29.57 21.48 38.07 43.17 42.25 40.20 40.72 40.83
44.26 44.52 45.09 45.44 45.53 45.20 45.98 47.64 48.17 48.44 48.96 46.69 47.44 47.87 47.35 35.39 44.55 44.78 43.50 44.43 47.05 48.53 47.35 49.49 50.41 51.71 52.50 50.71 43.13 39.53 37.69 36.96 41.43 46.58 45.15 46.95 38.56 32.32 27.40 27.33 34.87 39.02 41.21 40.57 38.44 37.28 42.13
44.42 44.82 44.85 45.09 44.90 45.70 46.15 47.93 47.84 48.29 48.95 46.42 45.40 47.06 43.46 43.69 42.93 47.94 43.86 45.88 44.56 44.86 44.32 47.54 52.59 52.00 51.29 47.55 39.48 33.67 32.08 37.42 37.27 39.80 44.76 44.29 42.06 32.04 29.58 25.53 21.15 36.51 41.92 44.87 42.99 31.77 43.32
44.59 44.57 43.89 45.32 45.50 45.38 46.08 47.01 48.00 48.25 48.75 46.54 43.89 47.06 43.82 43.02 47.93 47.60 43.70 45.16 48.87 46.02 43.66 46.03 48.93 48.33 50.01 35.14 35.26 31.46 32.25 42.66 33.94 33.33 31.63 31.15 32.11 28.20 25.33 24.47 32.03 43.34 44.20 45.13 30.28 32.93 43.45
44.68 44.94 44.95 45.82 45.70 46.33 46.93 47.46 47.96 47.85 47.83 45.80 44.00 48.53 45.45 44.22 47.18 50.39 50.39 47.03 48.42 46.30 40.93 46.86 46.31 47.27 44.89 37.85 36.36 33.02 32.54 35.98 36.71 41.65 36.59 33.36 31.51 26.49 31.14 30.05 27.58 44.31 42.87 36.41 41.10 43.24 44.05
44.78 45.07 45.49 45.65 46.35 47.00 47.21 47.48 47.64 47.94 47.90 47.35 43.34 48.66 51.18 46.19 47.04 52.45 54.36 54.16 53.10 51.10 49.28 47.59 48.73 47.90 48.54 43.12 40.55 37.71 36.71 34.43 34.69 30.33 43.25 34.24 39.40 34.78 36.08 34.62 43.45 44.05 43.90 45.68 45.60 44.05 44.35

GFSGBSN_sfc_wetblb_048.txt.gz
Wetbulb
56.72 56.86 57.17 57.46 58.20 58.29 58.76 59.54 60.12 58.98 58.28 58.17 57.75 57.37 57.45 57.58 57.76 57.00 56.13 55.90 56.12 56.50 56.15 55.64 55.78 56.09 51.47 48.50 49.63 56.93 62.30 62.32 56.80 53.35 50.24 48.78 47.83 46.30 42.64 43.40 44.26 42.30 44.62 46.09 50.77 50.96 50.11
55.58 55.94 56.36 56.73 57.05 57.84 58.19 58.38 58.52 59.33 58.43 57.74 57.44 57.04 56.84 57.06 57.10 56.40 55.91 55.62 55.56 55.66 55.90 55.67 56.07 54.91 50.40 44.89 54.37 60.39 57.73 55.04 54.07 51.07 49.69 49.44 48.60 48.98 45.51 44.28 44.27 48.01 47.83 47.53 49.83 50.91 51.21
55.72 55.45 55.50 55.97 56.57 56.82 57.70 56.76 56.61 58.60 58.93 58.27 57.32 56.88 56.76 56.70 56.39 55.85 55.64 55.36 55.27 55.19 55.70 55.97 55.28 52.68 49.03 46.21 52.87 53.69 55.33 55.81 53.82 51.22 49.93 52.08 51.41 47.61 47.51 45.42 49.51 48.30 42.59 44.74 48.54 49.32 49.25
55.13 55.29 55.48 55.10 55.62 55.89 56.13 56.08 55.81 56.55 58.67 58.77 57.95 56.97 56.16 55.90 55.48 54.95 54.75 54.57 54.65 55.23 55.82 55.90 54.58 50.46 45.73 56.16 54.50 54.53 53.22 53.63 55.58 52.73 52.17 52.99 52.52 50.57 47.48 47.98 47.35 44.27 41.40 37.98 43.96 48.03 49.21
54.66 54.98 55.12 55.00 55.00 55.39 55.65 55.73 55.43 55.32 56.45 58.35 58.15 57.15 56.24 55.25 54.65 54.12 54.06 54.36 54.63 55.44 55.84 55.42 49.29 48.86 47.32 58.32 55.10 57.04 55.24 52.91 54.44 53.46 51.96 54.18 52.01 47.79 47.58 41.96 39.55 40.60 35.06 39.53 41.97 47.70 49.02
54.60 54.07 54.54 54.68 54.62 54.91 55.32 55.63 55.40 55.20 55.37 56.76 58.04 57.31 56.30 55.31 54.44 53.75 53.68 54.04 54.40 54.14 53.93 54.01 52.67 43.84 49.46 49.24 55.10 54.85 54.36 54.28 52.37 52.47 51.37 50.18 45.97 42.80 41.94 39.18 33.70 36.29 38.13 37.28 39.46 44.29 46.12
53.88 54.21 54.25 53.73 54.16 54.49 55.22 55.39 55.68 55.17 55.09 55.92 57.44 57.45 56.41 55.36 54.38 54.12 51.87 50.48 48.13 48.49 49.37 46.36 46.56 46.56 47.84 52.84 54.73 52.32 53.85 52.25 51.42 50.47 43.98 48.13 41.98 38.86 42.45 43.58 44.77 43.89 41.35 39.95 41.87 45.08 44.52
52.98 53.43 53.71 54.45 54.26 54.00 54.45 54.66 54.59 55.17 55.01 55.06 56.82 56.92 56.43 55.14 54.44 54.08 50.39 46.73 49.64 49.69 43.97 51.24 51.44 51.63 53.05 53.21 48.88 50.80 53.05 48.02 46.96 43.98 47.25 43.91 39.43 46.26 47.50 47.37 45.70 43.67 41.10 40.48 42.86 45.27 43.83
52.74 52.58 52.89 53.68 54.51 54.02 53.67 53.95 53.47 54.54 54.61 54.50 55.98 56.66 55.96 54.42 53.76 51.68 49.25 49.29 53.30 52.93 44.39 49.53 52.53 51.62 52.61 54.11 48.59 49.00 50.37 48.19 45.96 44.60 44.61 41.09 43.91 48.07 47.17 44.54 43.50 42.01 41.02 41.02 41.35 42.97 41.30
51.84 51.80 51.88 52.60 53.77 53.82 53.23 53.55 53.70 54.12 54.30 53.93 55.05 56.10 54.83 53.45 49.19 50.04 48.95 54.21 53.14 51.78 40.15 44.50 48.85 51.76 52.35 49.72 45.34 52.10 52.13 48.65 45.48 43.89 44.46 43.85 47.40 46.44 45.07 43.79 44.42 39.66 45.58 44.77 43.30 38.77 33.64
51.04 51.07 51.30 51.57 51.99 52.32 52.28 52.62 53.04 53.81 54.42 53.87 54.32 55.64 53.62 53.05 49.76 48.99 53.22 52.90 52.30 51.15 23.67 45.33 48.51 55.81 50.62 45.66 48.08 48.90 52.29 48.51 42.92 44.62 44.94 42.15 43.44 43.63 43.05 44.27 46.68 41.84 44.97 44.85 44.11 39.55 37.43
50.66 50.47 50.75 51.13 50.90 51.01 51.59 51.99 52.07 52.72 53.79 53.48 53.57 54.92 53.33 52.08 50.56 50.08 52.53 52.61 52.92 39.67 27.66 44.71 49.07 44.95 43.25 44.75 46.40 48.69 48.22 49.10 48.17 45.32 44.70 43.38 47.03 45.97 45.31 48.24 47.63 47.27 43.57 43.33 41.80 39.32 32.01
48.36 50.10 50.02 50.41 50.63 50.15 50.75 51.45 51.63 51.48 53.20 52.95 52.70 54.56 53.17 53.24 47.48 52.55 53.85 51.06 40.38 33.78 44.62 42.53 42.28 43.94 43.37 42.68 44.54 45.79 44.12 41.97 39.60 36.96 37.60 42.03 43.03 46.79 49.07 44.75 46.01 44.29 38.78 30.58 28.31 28.70 29.19
47.20 48.46 49.63 49.66 49.94 50.27 49.89 50.57 51.28 51.13 52.48 52.42 52.01 53.05 53.22 52.81 51.04 52.43 51.89 45.78 33.98 39.43 40.79 46.65 43.81 43.18 40.99 43.62 43.44 43.73 41.60 39.08 41.58 41.31 37.93 36.26 34.35 44.89 48.40 44.22 41.82 42.90 39.56 31.04 26.84 27.22 30.44
47.17 47.36 49.42 48.98 49.54 49.58 49.83 49.54 50.45 50.79 51.61 51.64 52.24 52.88 52.29 52.99 52.82 51.69 48.34 38.17 34.04 40.83 44.58 43.28 42.96 39.72 39.65 42.86 42.93 41.80 40.08 39.33 42.07 42.04 36.50 36.51 38.14 46.10 47.46 47.83 46.17 42.25 38.38 42.85 35.10 32.86 28.63
47.16 47.26 47.56 48.80 48.75 48.90 49.17 49.68 49.92 50.71 51.24 51.49 48.02 49.66 50.37 52.86 53.10 50.71 45.26 38.78 40.81 46.52 47.77 46.42 39.22 41.09 37.30 40.34 39.89 39.73 39.53 42.64 42.40 44.32 43.76 41.50 36.31 44.58 47.57 48.37 46.72 43.26 44.64 36.47 36.13 27.74 26.46
46.49 46.95 46.69 48.49 47.52 48.07 48.37 48.33 49.52 50.69 51.00 51.63 46.03 45.09 51.23 54.55 52.94 45.70 38.11 39.04 43.41 47.53 48.06 46.04 43.59 41.02 41.19 39.90 40.75 39.12 40.44 43.04 44.40 44.01 45.42 43.17 39.62 39.01 44.14 43.07 41.23 40.47 38.63 39.29 37.94 33.70 28.30
45.89 46.80 46.08 47.83 47.48 47.43 47.52 46.88 49.05 50.20 50.65 49.37 44.65 38.62 50.75 54.29 41.87 40.85 39.88 42.48 44.30 45.47 48.29 47.06 47.53 45.66 42.32 41.84 40.48 40.12 40.08 42.90 46.23 46.98 42.85 44.30 40.57 34.71 39.25 45.91 46.75 43.58 40.15 40.72 30.31 31.24 31.73
45.58 46.28 46.59 47.36 46.97 46.73 47.29 47.20 48.33 49.33 50.28 46.07 40.58 43.10 50.72 50.85 36.65 35.56 41.07 42.78 44.09 44.31 45.81 45.60 45.67 46.75 45.67 41.34 38.79 41.65 41.87 47.60 48.27 45.99 43.18 44.37 38.49 32.08 36.27 41.47 44.23 41.08 42.15 41.78 40.00 35.07 31.48
45.31 46.27 46.93 46.79 46.62 46.88 47.06 47.04 47.83 48.96 50.06 46.56 42.59 37.59 45.25 47.52 44.14 38.82 37.63 39.72 40.40 45.50 44.25 45.66 45.28 47.00 44.76 42.35 43.77 41.18 43.61 47.67 48.17 47.17 46.18 46.35 40.16 36.30 31.18 35.86 39.24 37.19 41.16 40.93 38.31 29.06 31.29
45.68 45.98 46.43 45.89 46.08 46.20 46.84 47.15 47.72 48.67 49.85 45.80 42.68 38.78 42.39 38.61 40.82 40.28 40.11 40.05 39.63 39.28 44.75 47.04 44.97 44.71 43.41 39.57 40.66 40.47 44.77 45.36 46.95 45.90 45.63 43.72 37.46 38.87 39.57 41.00 41.25 40.02 39.71 39.62 37.87 37.99 32.77
45.31 46.05 45.82 45.23 45.59 46.16 46.36 47.10 47.19 47.97 49.50 43.39 39.00 40.15 43.43 41.76 42.51 41.02 39.77 37.96 38.99 40.67 42.70 42.23 43.15 45.08 44.87 41.70 41.88 40.24 44.60 43.21 42.35 44.06 42.59 44.02 36.70 37.52 36.39 40.44 39.84 37.09 38.16 37.86 38.85 38.91 38.42
45.02 45.10 44.99 44.58 44.81 45.38 46.07 45.86 46.90 47.50 48.73 42.25 44.19 46.08 44.11 40.86 41.18 39.40 38.44 38.90 39.87 42.20 43.75 44.85 45.82 45.00 43.78 45.02 46.05 45.61 47.89 47.24 46.33 43.00 41.34 40.93 37.91 32.38 30.86 34.66 35.03 29.39 36.38 38.07 38.47 38.60 39.30
44.87 44.42 44.17 44.35 44.82 44.24 44.90 45.54 46.56 47.38 48.50 45.36 44.51 45.14 43.86 37.59 41.40 40.29 41.27 41.74 41.35 42.22 40.72 46.18 45.95 44.36 47.47 50.33 48.45 47.12 45.79 47.69 46.98 45.16 45.53 39.34 37.10 31.61 27.84 28.20 21.90 37.44 42.06 41.06 38.13 38.35 38.68
44.14 44.18 44.51 44.39 44.07 43.63 44.73 45.79 46.58 46.92 46.42 45.76 46.39 45.72 43.60 35.77 42.32 42.88 42.77 41.86 43.71 44.39 43.82 44.84 48.53 50.01 50.73 47.45 41.03 37.78 35.38 37.39 40.17 43.54 44.03 44.40 36.13 30.55 26.37 26.77 33.12 37.73 39.27 38.08 36.49 35.39 39.91
43.95 44.08 44.20 44.12 43.89 44.72 45.45 45.77 46.14 46.17 45.63 46.10 46.23 47.39 43.15 40.98 39.77 46.11 43.70 43.56 40.72 41.04 41.30 45.90 51.11 51.00 50.37 42.98 35.43 32.00 30.71 36.58 36.25 38.59 43.00 41.41 38.60 32.90 28.16 24.43 21.97 34.78 39.81 42.66 41.63 30.54 41.52
43.84 43.87 44.33 44.64 44.78 44.75 45.23 45.25 45.56 45.70 45.40 46.58 45.38 47.74 44.13 39.75 44.43 46.74 43.78 42.36 44.40 42.30 41.16 44.85 46.79 45.40 47.58 33.83 32.76 30.35 31.30 40.50 32.86 32.18 31.00 31.05 30.99 27.78 23.22 23.39 29.15 39.24 42.37 42.91 30.06 31.32 41.80
44.19 44.40 44.50 44.61 44.90 44.97 45.21 45.44 45.88 45.40 47.85 46.79 43.56 47.71 43.63 40.24 43.59 47.84 48.22 43.39 45.10 44.98 40.67 44.13 44.26 43.80 40.44 34.77 35.54 33.23 29.08 35.10 34.63 38.29 34.39 32.73 29.59 25.41 28.17 23.50 25.72 43.37 41.39 35.97 37.89 41.44 42.23
44.24 44.35 44.50 44.59 44.76 44.78 45.16 45.96 47.39 47.83 48.22 45.84 41.03 47.90 48.82 43.59 44.37 47.72 48.18 47.98 47.69 49.18 46.97 45.45 44.48 45.28 45.91 41.31 38.27 36.97 34.88 32.49 33.41 30.96 41.03 33.54 35.55 32.32 34.15 32.70 41.11 42.89 42.29 43.30 43.79 42.78 42.70

GFSGBSN_sfc_wetblb_051.txt.gz
Wetbulb
56.21 56.50 57.03 57.31 57.35 57.57 57.96 58.65 58.23 59.30 58.85 58.30 58.08 57.89 57.79 57.90 57.80 57.34 56.27 55.52 55.64 56.08 56.02 55.99 55.78 55.94 50.79 45.11 45.90 55.19 61.80 62.21 57.40 51.48 48.38 46.90 46.17 44.82 41.09 42.01 41.92 39.28 44.47 46.43 47.30 49.74 48.81
55.16 55.81 55.91 56.03 56.46 56.41 56.26 57.58 57.81 57.18 58.64 58.31 57.77 57.30 57.06 57.25 57.23 56.96 56.23 55.34 55.05 55.50 55.66 55.92 55.88 55.23 48.70 40.61 51.36 56.95 55.56 53.42 52.38 49.32 48.04 47.99 47.55 47.56 44.84 43.18 42.71 45.73 45.55 46.96 49.07 49.05 50.02
55.56 55.26 55.54 55.31 55.46 56.06 56.49 56.71 57.04 56.53 56.86 58.50 58.11 57.39 56.89 56.88 56.78 56.23 55.84 55.11 54.63 54.93 55.54 55.78 55.45 52.43 48.20 43.61 51.24 52.12 52.49 52.62 52.83 50.47 47.69 50.02 49.75 47.05 46.30 44.67 47.79 46.92 41.04 45.63 47.41 48.17 48.43
54.94 54.62 55.27 55.10 54.92 55.15 55.43 55.65 56.37 56.16 56.07 57.69 58.50 57.33 56.65 56.26 55.82 55.30 54.91 54.34 54.30 54.99 55.46 55.56 54.51 49.32 43.05 53.27 53.24 54.53 52.15 52.65 53.69 52.90 50.04 51.33 50.88 48.41 46.32 47.11 46.26 43.16 39.91 37.55 44.63 47.73 48.30
54.33 54.55 54.78 54.83 54.47 54.52 54.82 55.28 55.42 55.89 55.66 55.38 57.68 57.58 56.58 55.68 55.07 54.45 54.14 54.04 54.38 55.15 55.38 55.24 48.18 46.83 45.37 56.11 52.29 55.95 54.33 51.69 52.80 52.75 50.72 53.23 50.26 45.91 45.81 40.65 38.94 39.48 32.92 36.65 39.60 47.09 46.40
54.31 54.15 54.10 54.18 54.28 54.41 54.56 54.68 55.10 55.22 55.20 54.93 55.42 57.44 56.74 55.90 55.01 53.86 53.31 53.96 54.30 53.72 53.77 53.88 51.88 43.13 45.80 46.87 52.96 53.73 53.65 53.20 50.98 50.94 49.74 48.59 44.67 41.39 40.32 38.25 32.02 35.24 37.15 35.91 38.07 44.15 46.04
53.97 54.24 53.96 54.21 53.94 54.39 54.47 54.16 54.61 54.67 54.83 54.95 55.26 56.19 56.98 56.20 55.13 53.79 51.75 49.41 45.64 47.11 48.59 45.48 44.04 43.52 46.29 50.87 54.17 50.71 52.49 51.13 50.29 48.85 42.29 46.42 40.11 37.55 40.54 41.88 42.68 40.64 39.10 37.72 39.68 43.58 43.65
53.10 53.71 53.91 53.82 53.93 54.31 54.40 54.09 53.82 54.36 54.71 54.99 54.75 55.72 56.46 56.16 54.81 53.75 50.60 45.66 47.17 48.42 42.77 48.97 49.70 49.23 51.87 52.39 48.79 50.93 51.84 46.89 45.72 41.93 45.32 41.65 37.92 43.82 46.15 45.59 43.98 41.74 40.34 39.48 42.08 44.58 43.20
51.26 52.41 53.29 53.48 53.38 53.87 54.33 53.89 53.35 53.32 53.89 54.40 54.12 54.63 56.00 55.42 53.65 51.75 48.43 47.94 52.35 50.95 41.34 46.67 49.91 49.52 50.46 52.10 48.34 48.94 49.25 47.04 44.10 43.05 43.49 39.67 42.29 46.79 45.54 42.77 42.77 40.33 38.47 39.21 39.90 41.59 39.57
50.09 50.91 51.88 52.95 52.95 52.94 53.47 53.82 52.98 53.05 53.05 53.65 53.61 53.83 55.16 53.59 49.74 49.65 48.66 53.18 52.10 50.69 36.87 40.89 47.78 49.79 51.61 51.53 45.05 50.73 50.44 47.24 45.23 42.50 43.46 41.51 45.25 44.24 42.66 41.83 42.99 37.34 43.25 43.05 41.24 37.57 32.58
49.19 50.11 51.35 51.76 52.14 51.97 52.11 53.26 52.89 52.75 52.95 53.42 53.44 53.38 54.59 53.52 48.32 47.78 51.66 51.95 51.18 49.51 22.81 41.71 47.34 54.08 51.07 45.82 46.24 46.41 50.70 46.59 42.14 43.32 43.09 40.87 42.20 42.09 41.30 42.75 44.42 40.62 43.91 42.21 41.76 38.29 35.74
48.71 49.19 49.70 50.59 51.09 51.38 51.27 52.08 52.36 52.15 52.49 53.01 53.41 53.15 54.25 52.29 50.20 49.10 51.03 52.28 50.87 35.84 24.92 41.08 47.08 45.70 42.84 43.27 43.78 46.23 47.31 47.92 46.79 44.27 43.00 41.63 45.20 43.43 43.05 45.88 45.69 45.70 42.12 41.25 39.90 37.31 30.31
48.14 48.21 48.57 48.87 50.23 50.97 51.07 51.03 51.52 51.82 51.95 52.20 52.84 52.70 53.31 53.59 47.79 51.66 52.59 49.72 38.69 29.04 41.31 40.43 42.36 42.73 40.74 39.64 41.25 43.36 42.32 40.68 38.58 35.90 36.05 40.19 41.06 44.72 46.68 41.99 44.02 42.56 37.27 29.42 27.82 27.86 28.59
48.02 47.64 48.20 48.26 47.76 50.51 50.87 50.65 50.73 51.57 51.35 51.60 52.06 51.67 53.52 53.71 51.61 50.60 52.59 45.29 32.81 37.51 38.84 45.61 42.19 41.05 38.06 41.09 41.01 42.23 40.36 37.79 39.60 39.27 36.08 35.00 33.33 42.17 45.84 42.63 40.14 39.81 37.68 29.58 26.09 25.70 28.61
48.49 47.79 47.71 47.88 48.15 47.99 50.36 50.42 50.16 50.62 51.01 51.22 51.47 49.91 51.46 53.69 52.93 49.97 48.45 38.30 33.28 38.20 43.93 41.11 41.20 37.37 37.36 41.13 40.91 40.43 38.64 38.18 40.39 40.97 36.00 34.94 36.02 44.22 45.46 45.94 44.20 40.75 36.61 40.23 33.22 31.96 28.08
48.80 47.99 47.48 47.30 47.65 47.39 49.61 49.67 49.68 49.94 50.58 50.85 46.82 45.96 47.60 53.71 53.80 48.76 43.20 38.35 39.64 44.68 46.41 44.94 37.14 39.15 35.17 37.91 38.53 38.36 37.72 41.17 40.80 42.54 43.21 40.29 34.13 42.82 44.95 45.76 45.34 42.43 43.42 33.89 33.11 27.02 25.71
48.42 47.91 47.45 47.12 47.10 47.00 49.04 49.30 49.56 49.61 50.16 50.54 44.39 41.67 47.44 53.15 52.67 44.85 36.55 38.23 42.29 46.33 46.12 43.95 41.95 39.36 39.14 37.99 38.89 37.07 38.75 41.41 42.94 42.19 42.79 41.48 38.09 36.87 42.64 40.71 38.92 38.88 37.14 37.09 36.37 31.49 26.82
48.20 47.71 47.15 46.81 46.87 46.85 47.59 49.02 49.11 49.00 49.33 48.52 41.00 35.37 49.67 52.32 42.57 40.76 37.11 41.06 43.87 44.62 46.13 45.11 44.96 44.39 42.38 39.96 38.59 38.44 38.80 41.66 43.94 44.47 40.45 42.37 37.90 32.44 37.96 42.82 44.13 41.06 39.51 38.73 29.76 30.36 29.84
48.03 47.42 46.85 46.67 46.52 46.58 48.14 48.68 48.55 48.50 49.33 45.69 37.89 39.65 51.23 49.71 36.96 37.31 39.54 40.73 43.16 43.35 43.59 43.27 43.13 45.08 44.52 39.75 36.51 39.85 40.70 44.90 46.56 43.79 42.12 42.88 36.49 30.62 34.32 38.38 41.65 39.62 41.28 40.71 37.73 33.14 30.11
47.82 47.12 46.58 46.19 46.36 46.28 47.88 47.77 47.72 47.87 49.10 45.63 40.11 33.96 43.93 46.17 44.18 39.93 37.97 38.62 39.22 44.99 43.03 44.04 43.08 44.57 42.98 40.80 41.66 39.86 40.73 46.10 46.32 45.19 45.44 44.73 38.84 35.53 30.94 35.17 38.24 36.82 39.31 39.34 37.56 29.12 30.54
47.70 46.85 46.17 45.89 46.58 46.07 47.93 47.57 47.46 47.52 48.65 45.14 40.66 34.68 40.06 36.69 38.99 41.49 40.55 39.11 38.46 39.05 42.92 43.89 40.86 41.76 41.87 38.31 39.12 38.66 43.14 43.96 44.96 44.24 43.96 42.63 36.30 37.15 37.77 38.68 38.94 38.54 37.84 38.15 36.93 36.23 32.10
47.48 46.47 45.79 45.60 46.14 46.50 47.35 47.17 47.15 46.17 47.33 42.92 37.25 37.40 40.78 38.62 40.18 40.08 39.91 38.10 38.02 40.43 40.91 39.60 39.79 43.81 42.56 40.12 41.36 38.36 42.71 41.76 41.66 42.55 41.80 41.97 35.15 35.20 33.96 37.97 38.39 36.19 38.44 38.05 37.82 37.44 37.04
47.21 46.05 45.47 45.57 45.90 46.49 46.41 46.53 46.60 46.28 46.33 41.88 40.52 43.20 40.75 38.82 37.97 36.97 37.80 37.91 38.48 42.09 42.86 43.57 42.41 41.80 40.64 43.82 46.01 45.47 46.08 45.39 44.51 42.42 39.50 39.05 36.65 32.52 30.33 33.93 33.94 29.23 35.27 37.88 37.94 37.67 37.80
46.31 45.57 45.33 45.59 45.96 46.26 46.17 45.93 46.13 46.42 46.29 45.49 41.16 43.05 40.25 32.67 37.61 37.49 38.63 40.72 39.01 40.85 39.75 42.83 43.81 40.96 44.85 48.89 47.39 45.78 44.69 44.84 44.93 43.57 43.46 37.59 34.71 30.42 27.12 28.18 21.30 36.08 40.26 39.92 37.33 36.10 36.60
45.24 45.14 45.43 45.70 46.12 45.92 45.50 45.74 46.14 46.28 47.21 44.38 42.53 43.16 42.36 30.12 39.46 39.16 39.14 39.66 41.22 41.83 41.25 41.97 43.73 46.32 47.28 47.14 40.97 37.80 34.66 36.08 38.46 42.24 42.66 41.75 34.43 29.08 26.83 26.61 31.32 35.77 36.99 36.75 35.62 34.05 38.15
44.63 45.40 45.57 45.73 45.42 45.14 45.28 45.61 46.04 46.29 46.66 44.39 43.99 45.08 43.38 39.43 38.70 43.35 40.19 41.11 38.04 38.09 38.82 41.33 45.54 48.55 49.83 41.75 34.56 32.95 31.89 35.74 35.55 36.93 41.36 39.57 37.53 32.79 25.87 24.24 22.65 34.86 39.31 40.93 39.96 29.69 40.16
45.13 45.35 45.10 44.67 44.27 44.66 44.56 44.90 45.50 45.73 46.87 44.77 45.36 47.09 44.42 38.71 43.35 45.02 41.30 40.44 42.59 40.62 37.95 39.04 45.12 45.82 47.21 34.52 31.83 30.67 30.66 39.21 32.78 31.99 31.51 31.37 30.98 29.93 24.54 24.70 29.71 37.68 40.73 40.91 30.46 31.69 40.35
44.21 44.23 44.10 44.21 44.26 44.32 43.92 44.18 45.16 44.97 45.73 44.64 43.37 47.90 44.29 39.68 41.10 46.19 45.62 42.69 43.19 42.39 37.68 40.91 43.76 43.01 39.56 35.58 33.68 31.09 27.90 34.82 33.44 36.50 34.04 34.18 30.40 25.95 26.88 22.93 26.53 40.79 39.44 34.42 36.78 39.52 40.95
43.78 43.94 44.01 43.85 43.70 43.75 44.16 44.69 45.16 45.66 46.49 45.22 42.11 47.74 47.77 41.41 42.15 45.99 45.99 46.45 45.47 44.81 43.35 43.47 42.32 43.33 43.64 39.65 35.97 34.37 32.10 29.04 32.71 30.34 38.93 32.84 36.47 33.41 34.17 32.44 39.32 41.29 39.88 40.85 41.45 41.57 41.00

GFSGBSN_sfc_wetblb_054.txt.gz
Wetbulb
55.90 55.84 56.31 56.14 56.26 56.74 56.58 57.01 57.58 57.61 57.53 58.74 58.59 58.46 58.53 58.48 58.33 57.45 56.46 55.81 55.61 55.59 55.65 55.83 56.26 56.20 50.95 42.57 43.99 50.33 60.78 61.94 56.06 51.70 47.09 45.93 45.00 43.58 40.05 40.88 40.31 37.92 41.88 45.20 46.04 48.62 48.11
54.79 55.57 55.72 55.96 55.63 55.47 55.40 56.22 56.48 57.06 56.77 56.64 58.17 58.05 57.88 57.71 57.57 57.15 56.44 55.77 55.22 54.92 55.58 55.81 56.04 55.31 47.52 38.74 48.43 54.45 52.88 52.60 51.71 48.47 47.23 46.72 46.17 46.49 43.86 42.55 40.36 43.51 43.89 45.43 48.13 48.14 48.76
54.23 54.62 54.68 55.16 55.07 55.18 55.27 55.17 55.60 56.10 56.44 56.26 56.74 57.81 57.79 57.56 57.18 56.78 56.31 55.54 54.87 54.53 55.22 55.43 55.63 52.26 46.92 43.37 50.13 50.75 52.65 50.58 51.18 49.80 46.29 48.07 47.97 45.48 45.15 43.39 45.99 44.75 40.03 45.16 46.97 47.14 47.12
54.98 54.57 54.47 54.31 54.72 54.62 54.53 54.65 54.97 55.31 55.97 55.79 55.86 57.17 57.07 56.87 56.35 56.03 55.36 54.71 54.41 54.67 55.26 55.50 54.31 49.06 41.82 50.97 51.42 53.31 52.00 52.17 52.00 51.54 48.84 49.13 49.28 46.55 44.50 45.66 44.68 40.86 38.15 37.53 43.15 46.75 46.87
54.38 54.63 54.49 53.95 53.97 54.39 54.22 54.24 54.34 54.96 55.43 55.50 55.33 55.14 56.51 56.19 55.46 55.22 54.69 54.29 54.24 55.04 55.08 54.96 48.18 46.86 42.48 53.65 49.16 52.07 53.55 51.28 51.46 51.41 49.40 51.95 48.60 44.50 44.40 38.97 36.60 38.38 33.02 35.78 40.34 45.94 44.94
52.80 54.49 54.42 54.09 53.51 53.55 54.06 54.14 52.75 53.87 54.69 55.02 54.96 54.98 55.12 56.25 55.91 54.64 53.40 53.82 53.79 53.29 53.53 53.99 51.65 43.70 45.06 44.88 50.59 51.94 53.07 52.21 49.82 49.47 48.46 47.10 43.70 40.37 39.71 37.22 31.09 33.29 35.74 34.90 36.35 42.17 43.96
52.35 53.08 54.27 53.96 53.97 53.76 53.94 54.18 53.93 53.29 53.77 54.51 54.77 55.10 55.12 55.46 56.23 54.53 51.52 48.18 43.04 45.28 48.89 45.95 44.88 42.85 43.76 50.20 52.92 49.36 51.13 50.16 49.01 47.40 41.18 45.18 39.73 35.97 39.69 40.91 41.09 39.16 37.74 36.24 39.16 41.89 42.08
51.00 51.73 52.02 53.63 53.56 53.70 53.74 54.07 53.51 53.32 53.32 54.26 54.35 54.47 54.32 55.34 56.05 53.76 51.31 44.81 46.88 47.86 42.49 48.10 48.64 47.37 49.13 51.42 47.79 49.98 50.54 45.59 44.44 40.43 43.75 40.81 37.59 42.35 43.98 43.48 41.79 39.94 38.16 37.03 40.48 42.60 40.55
50.08 50.20 51.14 51.28 52.80 53.54 53.48 53.49 53.49 53.22 53.05 53.15 53.74 53.96 53.90 54.65 54.15 52.29 49.32 47.28 51.58 50.94 41.02 44.32 47.48 47.03 48.32 50.69 46.79 47.22 48.22 45.72 42.15 40.54 41.57 38.55 40.90 44.89 44.28 41.57 40.51 38.96 37.94 37.59 38.30 40.84 38.78
50.28 49.86 49.73 51.01 51.76 52.85 53.15 52.67 52.98 53.22 52.70 52.49 52.73 53.00 52.84 54.34 50.92 50.16 46.57 52.32 52.45 50.45 34.31 39.20 45.10 48.36 50.15 50.13 45.31 51.53 48.91 47.09 43.83 41.07 42.35 40.51 43.77 42.33 41.32 40.58 41.42 35.86 41.74 40.93 39.84 37.47 32.19
50.26 49.99 49.69 49.75 50.69 51.27 52.00 51.94 52.06 52.95 52.78 52.51 52.18 52.86 52.63 53.74 49.28 47.09 50.20 51.40 51.91 48.47 22.30 40.08 46.22 53.14 50.68 45.05 44.89 45.31 49.45 45.86 42.23 42.25 41.94 39.19 40.30 40.61 39.62 41.07 43.02 39.77 42.79 41.11 39.55 36.72 34.49
50.46 50.05 49.78 49.48 49.30 50.07 51.31 51.72 51.47 51.70 52.62 52.06 51.97 52.69 52.59 52.98 51.38 48.43 51.89 51.75 50.42 36.55 25.15 38.28 46.04 44.08 43.46 42.16 42.58 44.64 45.71 46.61 45.48 43.08 41.42 40.33 43.56 41.93 41.45 43.86 43.51 44.23 41.54 39.78 38.21 35.58 29.55
50.37 50.00 49.67 49.44 49.05 49.35 50.10 51.39 51.22 51.11 52.04 51.74 51.70 52.31 52.32 53.96 49.73 50.60 52.92 48.72 37.77 30.00 39.77 38.26 40.69 41.75 39.64 38.75 39.88 41.92 41.08 39.65 37.63 35.10 34.64 38.57 39.36 42.76 45.00 40.44 42.94 40.47 36.01 29.17 28.04 27.58 27.77
50.38 50.12 49.43 49.12 48.95 48.86 49.55 50.75 50.89 50.88 51.30 51.53 51.17 51.08 51.40 52.49 52.88 50.66 51.88 43.23 31.41 35.58 36.97 43.38 40.90 39.68 36.99 38.46 38.86 40.10 38.60 37.12 38.03 38.17 34.30 33.46 32.47 40.86 44.15 41.32 38.68 38.12 36.87 29.30 25.58 24.89 28.01
50.22 50.20 49.78 49.01 48.85 48.49 48.84 49.13 50.54 50.54 50.83 50.91 50.88 46.87 48.06 50.57 53.22 51.03 47.61 36.94 31.84 37.07 41.95 40.35 39.70 36.43 35.65 38.79 38.19 38.85 37.16 36.39 38.81 40.30 34.99 33.25 34.34 42.08 43.98 44.25 42.13 38.85 35.03 38.70 31.95 30.65 27.06
50.12 50.19 49.78 48.79 48.35 48.00 48.15 48.43 50.12 50.37 50.47 50.80 46.97 44.74 43.90 52.12 54.33 49.47 42.17 36.65 38.53 42.65 45.06 44.20 36.13 37.73 33.56 36.28 36.79 36.53 36.18 39.58 39.62 41.49 41.74 38.83 32.46 40.75 43.09 43.72 42.99 40.09 42.07 33.40 31.95 26.68 25.45
49.64 49.78 49.67 48.97 48.21 47.76 47.58 48.06 49.39 50.13 49.99 49.92 45.64 39.69 42.86 52.54 52.85 45.41 35.82 37.22 41.38 45.50 45.00 42.10 40.73 38.57 37.25 36.36 37.36 35.40 36.61 39.59 41.82 40.54 41.38 39.46 36.19 34.52 40.62 39.16 38.10 38.05 35.91 35.53 34.95 30.39 26.27
49.51 49.30 49.49 49.19 48.20 47.86 47.58 47.68 47.98 49.86 49.60 47.66 42.85 33.01 46.13 51.80 41.88 42.15 38.56 39.07 43.12 43.90 45.19 43.31 43.47 42.97 41.15 38.34 36.66 36.54 37.17 40.26 42.53 42.29 39.12 40.88 35.98 30.86 36.72 41.04 42.01 39.19 38.09 36.71 29.43 29.59 29.12
49.43 49.13 49.16 49.04 48.20 47.68 47.38 47.52 47.43 49.27 49.16 44.14 38.52 36.16 50.01 47.94 34.11 36.74 40.95 40.82 42.04 42.47 42.27 41.78 41.46 43.52 43.99 38.71 34.61 38.07 38.78 43.04 43.03 42.02 40.31 41.52 34.52 29.03 32.46 36.49 39.42 38.32 39.39 38.91 36.01 32.35 29.37
48.90 49.04 48.95 48.84 48.07 47.58 47.17 47.01 46.77 49.04 49.09 45.14 38.74 30.51 42.12 43.74 42.11 38.03 38.10 38.27 37.45 43.89 42.53 42.62 41.47 42.93 41.70 39.99 40.74 36.94 38.85 43.57 44.44 43.10 44.84 43.82 36.77 33.38 30.11 33.23 36.61 35.48 38.01 38.26 36.60 28.82 30.35
48.27 48.81 48.73 48.38 47.93 47.32 46.98 47.19 46.61 48.35 48.55 44.87 39.23 33.06 38.92 34.72 35.86 38.90 39.08 38.68 36.70 37.30 42.42 42.81 39.99 40.33 40.24 37.40 37.86 36.49 41.09 42.88 43.39 43.98 42.31 41.48 35.24 35.59 35.81 36.84 37.46 36.87 36.59 36.39 35.42 35.14 31.76
47.84 48.09 48.60 47.98 47.55 47.06 46.80 46.69 46.48 48.44 48.47 42.62 35.89 33.59 40.72 36.16 37.35 37.67 39.02 37.24 36.79 38.64 39.93 38.76 38.52 41.18 40.81 38.25 39.71 37.80 41.99 40.10 39.83 40.80 40.29 40.02 34.72 34.27 33.28 36.10 36.02 34.37 35.66 36.13 36.19 35.59 34.95
47.10 46.80 48.41 47.61 47.15 46.99 46.60 46.44 47.30 47.96 47.50 41.50 41.10 40.03 40.06 37.58 37.36 34.20 35.75 37.72 37.62 41.03 42.11 42.58 41.45 40.07 38.36 41.74 44.63 44.98 44.63 44.48 43.80 40.48 38.20 37.84 34.95 31.00 30.26 32.67 34.01 29.47 34.94 35.98 35.99 36.59 37.14
46.98 45.24 48.09 47.31 46.75 46.59 46.14 46.37 47.30 47.47 46.87 43.56 41.57 40.48 38.10 31.44 36.72 34.84 36.58 39.56 38.65 39.88 39.03 42.85 43.51 40.22 42.93 48.58 47.24 45.14 43.30 42.94 42.90 42.01 41.91 35.91 34.05 30.14 26.58 27.89 21.16 36.23 38.77 38.66 37.31 36.80 36.53
46.97 47.24 47.73 46.95 46.47 46.14 45.73 46.00 47.02 47.11 47.15 44.76 42.29 40.48 39.27 32.51 36.75 36.77 37.23 37.60 39.54 41.23 40.54 41.70 43.75 45.01 45.89 44.26 37.40 36.11 34.68 36.50 37.96 41.06 40.80 39.74 32.91 28.51 27.44 26.77 30.84 33.91 36.54 36.17 35.09 34.54 37.32
47.18 47.25 46.79 46.22 45.92 45.21 45.86 46.30 46.48 46.55 47.19 45.01 44.22 42.96 42.59 37.55 34.95 40.06 37.66 38.61 36.90 35.94 36.29 39.29 44.59 46.23 46.72 39.95 33.38 29.98 29.88 35.08 34.92 36.39 40.21 38.32 35.91 31.66 25.49 23.69 22.12 33.01 37.95 39.27 38.34 29.90 38.50
46.56 46.36 45.80 45.76 44.86 45.57 45.83 45.48 45.84 46.41 46.75 45.31 43.77 44.53 42.09 36.79 40.82 41.28 37.76 37.47 40.65 38.41 34.72 37.48 40.17 40.84 44.80 29.63 28.16 29.34 31.56 37.93 32.05 32.80 32.39 31.29 29.35 27.19 22.09 23.64 29.73 37.96 38.86 39.87 29.91 32.17 38.57
45.55 45.18 45.11 44.79 45.47 45.40 45.33 45.28 45.59 46.03 46.54 45.03 42.75 45.50 42.92 39.41 40.72 44.48 43.25 40.42 40.26 40.47 34.01 37.83 39.76 40.37 36.71 33.75 32.57 33.07 28.23 34.74 33.26 36.06 35.08 34.86 31.53 26.14 26.21 23.04 27.20 40.13 38.85 34.81 36.94 37.61 39.10
44.56 44.54 45.09 45.12 45.14 45.10 45.17 45.12 45.71 46.09 46.47 45.01 40.41 47.11 47.57 41.16 41.45 44.67 44.20 44.61 43.59 43.42 41.83 40.32 39.35 40.35 41.01 37.51 34.71 31.50 29.90 29.07 32.91 31.31 37.47 34.51 37.17 34.03 34.65 34.11 39.25 40.06 38.96 39.89 40.05 39.54 39.89

GFSGBSN_sfc_wetblb_057.txt.gz
Wetbulb
54.76 54.74 55.32 55.56 55.78 55.46 54.51 54.67 56.18 56.17 56.76 56.96 57.08 57.90 59.26 59.42 59.02 57.93 57.00 56.27 56.19 56.05 55.57 55.80 56.34 56.48 52.43 45.41 45.86 52.36 61.81 61.83 56.98 54.48 50.01 48.68 48.61 47.97 45.50 45.66 45.10 42.79 44.78 47.24 47.67 49.20 50.69
55.05 54.83 54.75 55.11 55.08 55.23 55.02 55.33 54.00 55.26 55.79 56.29 56.29 56.29 57.65 58.61 58.40 57.74 56.92 56.21 55.72 55.34 55.24 55.59 56.04 55.65 49.62 41.06 50.75 54.09 55.82 54.32 53.37 51.64 50.48 49.65 49.29 49.57 47.65 46.57 45.60 46.63 46.26 48.53 50.41 49.78 50.92
55.00 55.01 54.65 54.32 54.20 54.67 55.28 54.39 54.58 54.53 54.86 55.36 55.89 55.69 56.31 57.85 58.17 57.59 56.89 56.15 55.32 55.07 55.22 55.29 55.69 52.41 47.46 44.94 53.80 52.85 53.57 53.17 53.43 52.39 49.50 50.33 50.94 49.57 49.11 47.12 48.67 47.98 45.25 47.55 50.13 50.32 50.10
53.70 54.28 54.92 54.49 53.98 53.89 54.05 54.31 54.29 54.33 54.30 54.90 55.68 55.32 54.75 55.64 56.80 56.64 56.14 55.48 54.95 55.07 55.14 55.30 54.90 50.95 43.47 52.03 53.32 52.91 54.10 53.61 54.19 53.54 51.70 52.36 52.53 50.41 49.07 49.67 47.45 45.18 42.91 42.13 47.26 50.43 49.30
52.60 52.93 53.27 54.57 53.94 53.52 53.33 53.53 54.10 53.92 54.03 54.19 55.12 54.97 54.42 54.12 55.22 55.73 55.50 54.89 54.57 55.03 55.01 55.14 50.02 48.11 43.65 54.18 49.06 52.82 54.46 50.63 52.61 52.90 52.62 52.44 52.10 48.64 48.32 44.84 42.81 43.35 39.33 40.24 43.98 49.64 49.15
50.89 51.54 52.68 53.53 54.20 53.50 53.61 53.19 53.46 53.56 53.30 53.23 54.00 54.53 54.38 54.20 54.40 55.20 54.06 54.08 54.30 53.75 53.91 54.25 51.80 44.70 48.28 46.84 50.99 53.53 54.91 53.94 52.14 51.61 51.56 50.35 48.16 46.07 45.14 43.92 37.19 39.73 40.01 41.17 41.06 45.80 47.87
51.71 51.51 51.63 52.47 53.32 53.08 53.78 53.63 52.90 53.12 53.15 52.76 53.55 54.14 54.20 54.36 54.53 55.32 52.83 51.09 44.81 45.79 49.89 46.61 45.62 45.51 45.10 51.04 53.95 52.04 53.57 52.10 52.28 50.46 46.13 48.44 45.35 42.54 44.45 44.57 44.13 42.91 41.56 40.59 42.53 45.45 46.67
52.26 52.09 51.88 51.35 52.05 52.78 53.49 53.67 52.89 52.67 53.14 53.14 52.32 53.54 53.85 53.90 54.12 54.34 52.35 48.29 46.23 48.53 42.88 48.69 48.90 48.21 49.71 52.33 48.44 50.90 52.62 48.92 47.75 43.91 46.98 45.10 42.69 46.30 45.24 45.24 43.94 43.39 41.72 41.72 43.72 45.25 44.65
51.87 51.66 51.58 51.58 50.70 51.80 52.47 53.28 52.57 52.48 52.70 52.83 52.47 52.78 53.24 52.75 54.10 52.78 50.93 49.30 52.21 52.47 43.74 45.74 47.86 47.08 48.47 50.46 47.09 47.80 49.94 47.78 45.32 42.97 44.60 42.88 44.80 45.55 45.61 44.35 42.95 43.08 41.86 41.50 41.86 43.82 43.32
51.40 51.25 51.32 51.42 51.22 50.88 51.64 52.49 53.17 52.40 52.35 52.49 52.26 51.99 51.83 52.03 51.30 51.19 48.72 52.22 52.66 52.72 38.70 39.27 43.63 47.15 49.71 50.15 45.48 52.02 50.13 49.45 46.33 43.25 43.61 43.82 46.01 44.58 43.78 43.29 44.24 40.08 44.70 43.85 42.81 42.03 38.17
50.50 50.71 50.92 50.90 50.92 50.37 49.77 50.85 52.20 52.51 52.06 52.43 52.01 51.80 51.71 52.58 49.40 47.55 50.16 52.60 52.19 49.51 25.61 41.25 45.87 53.18 50.54 46.53 47.14 48.11 50.31 48.89 44.74 43.95 45.17 42.65 43.45 43.03 42.43 43.54 45.10 43.11 45.22 44.44 43.37 41.08 40.41
50.52 50.52 50.61 50.77 50.23 50.14 49.73 49.85 51.04 51.76 51.74 51.89 52.01 51.74 51.58 51.06 51.85 50.87 52.44 53.93 51.95 38.10 26.78 38.47 46.03 44.58 44.61 46.04 45.12 46.57 47.84 49.43 48.72 45.29 45.02 43.62 47.02 45.70 45.36 46.19 45.70 46.01 44.17 42.49 41.76 40.01 35.31
50.53 50.49 50.63 50.61 50.19 50.12 49.88 49.54 50.10 50.85 51.33 51.38 51.69 51.60 51.02 52.97 47.50 53.11 54.13 50.12 38.57 31.17 41.29 38.26 42.08 43.37 42.34 41.40 41.83 43.73 42.85 42.89 41.63 38.55 39.00 42.15 43.29 46.12 47.51 44.39 45.80 43.97 41.43 35.89 33.93 34.17 33.40
50.56 50.45 50.45 50.51 50.45 50.08 49.89 49.50 49.27 50.35 50.75 50.82 51.17 50.72 50.62 50.93 54.29 52.12 52.41 43.26 30.93 35.60 37.04 43.11 42.12 41.80 38.68 40.18 40.86 42.04 41.07 40.34 41.84 41.84 38.52 37.46 35.88 43.58 46.75 45.24 43.36 42.50 41.93 36.64 29.16 30.63 33.79
50.57 50.49 50.14 50.37 50.28 50.13 49.76 49.30 49.06 49.63 50.54 50.42 50.89 48.99 47.82 49.37 52.01 51.92 46.82 35.54 33.12 36.91 41.43 40.58 40.49 38.06 37.86 39.14 40.45 41.04 40.65 41.25 42.05 43.03 39.32 36.70 37.25 45.09 46.37 47.11 46.09 42.32 39.75 42.48 35.86 34.20 33.66
50.95 50.47 50.30 49.83 50.00 50.04 49.64 49.20 48.97 49.46 50.36 50.05 45.81 45.55 44.95 49.65 52.58 49.44 41.38 35.87 38.78 42.62 44.46 44.20 37.80 39.32 35.87 37.23 38.03 39.48 38.29 41.73 41.45 43.68 46.05 42.19 36.88 43.27 45.43 47.07 45.93 44.49 44.75 38.20 37.56 30.41 28.61
49.69 50.37 50.23 49.76 49.57 49.66 49.44 48.92 48.65 48.98 50.14 49.78 44.46 39.70 44.79 50.27 51.43 44.10 35.23 36.53 40.11 45.03 45.38 41.84 40.97 40.40 38.26 37.39 38.83 37.42 38.53 41.67 43.75 42.04 44.68 42.54 41.06 39.29 43.99 42.67 41.85 41.71 40.39 39.02 39.39 36.45 32.02
49.09 49.40 50.01 49.69 49.50 49.49 49.33 48.73 48.46 48.67 49.76 47.84 42.12 33.50 43.67 49.32 38.26 39.92 36.19 39.57 42.30 42.74 46.03 44.07 44.25 42.96 41.99 39.74 38.30 38.35 38.37 42.17 43.57 44.28 41.65 44.31 40.95 36.10 40.02 44.10 44.79 43.76 42.56 41.58 37.18 33.89 33.89
48.58 48.84 49.21 49.91 49.63 49.28 49.10 48.57 47.99 48.29 49.45 44.75 38.52 38.37 45.76 45.54 31.68 34.35 39.25 40.04 41.79 41.96 43.02 42.87 41.78 43.88 45.34 42.22 37.40 39.85 40.34 44.26 43.41 43.88 43.15 43.76 38.62 34.18 36.06 40.38 43.50 42.22 42.28 41.06 39.25 37.47 33.87
48.02 48.18 48.64 49.33 49.71 49.53 49.03 48.23 47.89 48.06 49.30 45.02 38.59 32.23 39.62 41.26 40.56 36.67 36.18 36.82 38.27 43.40 42.86 43.74 42.91 43.39 43.53 41.90 42.63 39.93 40.16 44.36 44.03 44.80 44.66 45.66 39.73 38.06 34.29 37.80 40.64 38.89 40.58 41.03 41.21 35.85 36.75
47.63 47.78 47.92 48.65 49.16 49.39 49.02 48.11 47.57 47.77 48.68 44.41 38.34 34.74 38.16 32.71 33.76 36.29 38.02 37.94 36.57 37.50 42.31 43.72 41.24 41.46 41.41 38.59 40.22 38.94 43.21 44.78 45.35 45.00 44.89 45.48 38.91 38.79 38.87 39.13 40.14 40.66 40.64 39.85 39.45 40.81 37.71
47.65 47.51 47.63 47.97 48.26 49.34 48.49 47.75 47.23 47.62 48.68 41.52 35.14 35.10 37.42 37.80 36.78 35.21 37.61 36.30 36.76 38.67 40.20 39.10 39.87 41.40 42.11 39.44 41.07 38.66 41.41 43.51 42.91 43.54 42.91 43.22 38.64 38.77 37.43 38.74 39.17 37.98 39.85 40.24 40.41 39.58 39.40
47.41 47.44 47.46 48.03 48.55 48.90 48.13 47.33 46.94 47.12 47.86 40.47 41.78 40.45 38.76 36.89 36.09 33.01 34.45 36.52 37.84 40.24 41.55 42.93 42.11 40.82 39.74 42.13 45.20 46.05 46.43 46.56 46.17 44.74 41.65 40.70 38.36 36.23 34.33 36.70 37.48 33.59 38.36 38.99 39.70 40.92 41.78
46.92 47.30 47.57 48.01 48.25 48.67 47.61 46.80 46.70 47.07 47.05 44.08 41.88 40.96 36.91 31.76 35.06 33.89 35.27 38.91 38.38 39.87 39.06 41.73 43.68 40.83 43.82 47.99 47.85 47.02 45.57 44.15 44.32 43.64 44.95 39.42 37.92 35.19 32.59 31.95 29.11 40.89 41.72 42.08 41.23 41.61 41.69
46.77 47.34 47.44 48.06 48.38 48.03 47.05 46.52 46.39 46.86 47.41 44.27 43.07 41.53 39.08 30.13 36.56 36.41 35.51 37.52 40.62 41.88 40.58 41.68 43.78 45.68 47.44 45.82 39.08 36.75 36.54 38.23 39.99 42.45 41.75 42.11 36.95 32.20 32.23 32.55 35.61 38.12 39.87 40.29 40.21 41.33 42.22
47.12 46.94 47.01 47.49 47.96 47.05 46.34 46.38 46.07 46.41 47.69 45.06 43.60 44.15 41.46 36.17 35.21 39.37 36.89 37.53 36.84 37.44 38.25 40.98 45.93 47.79 46.61 39.77 35.11 31.74 32.58 36.73 36.71 37.97 40.86 38.12 38.59 37.82 30.70 30.37 29.12 38.54 41.87 42.55 43.17 35.86 42.80
46.02 45.86 47.04 47.72 47.28 46.48 46.13 45.95 45.94 46.78 47.79 45.15 43.18 45.26 42.13 37.63 40.79 41.45 37.46 36.79 40.42 38.83 37.03 39.58 41.88 42.41 45.77 34.84 33.62 32.86 33.10 40.27 35.90 34.00 34.19 34.61 33.76 33.83 29.94 33.40 34.90 39.82 42.18 43.23 36.24 39.53 43.05
46.16 46.50 47.23 46.91 46.34 46.10 45.69 45.92 46.22 46.91 47.33 45.10 43.19 45.51 43.02 39.62 40.38 43.60 42.87 40.47 40.77 40.61 35.57 39.01 40.15 40.76 38.78 34.62 34.38 34.54 33.03 36.87 37.57 38.35 36.59 36.39 33.76 32.77 31.72 31.74 32.11 42.53 40.41 38.97 44.15 42.55 43.62
46.48 46.47 46.15 45.99 45.72 45.59 45.55 45.76 46.42 46.90 47.05 46.15 41.56 45.55 46.39 41.39 41.32 44.81 44.93 45.26 44.01 45.69 41.88 41.48 40.48 40.84 41.27 38.26 37.08 36.50 34.59 33.29 36.77 34.45 39.78 36.51 39.22 37.38 37.89 39.23 44.15 43.22 45.42 44.68 43.55 44.77 43.14

GFSGBSN_sfc_wetblb_060.txt.gz
Wetbulb
55.97 54.88 55.35 55.04 55.32 55.73 55.22 56.07 55.09 54.38 54.74 55.49 56.11 56.53 57.04 57.48 59.48 59.05 57.91 57.03 56.81 56.87 56.45 56.00 56.11 56.92 55.70 50.61 50.37 56.79 62.75 62.95 59.49 57.63 53.92 51.55 49.73 50.84 48.21 49.17 50.07 48.45 49.51 50.73 52.50 53.78 51.93
54.37 54.92 55.60 54.88 54.71 54.80 54.76 55.52 55.16 54.57 54.08 54.60 54.89 55.43 56.22 56.69 57.75 58.38 57.98 57.06 56.46 56.20 56.16 55.91 55.77 56.08 52.61 45.78 54.06 58.72 59.20 57.98 56.64 56.08 53.84 52.38 52.37 53.25 51.08 50.30 49.77 50.67 50.66 51.29 53.39 52.57 53.14
52.40 53.67 54.22 55.23 54.94 54.48 54.42 54.23 54.40 54.48 54.25 54.05 54.61 55.11 55.47 55.68 55.80 57.14 57.77 56.86 56.15 55.87 56.06 55.81 55.52 54.69 50.16 49.59 55.78 57.51 56.41 56.93 57.42 56.22 52.75 54.07 54.06 52.93 53.01 50.01 52.44 51.72 48.71 50.40 53.15 53.54 53.27
51.62 51.69 52.47 53.49 54.08 54.68 54.09 53.89 53.84 54.08 54.21 54.13 54.19 54.99 54.78 54.64 54.72 55.15 56.31 56.17 55.93 56.01 55.81 55.72 55.56 53.81 47.32 55.52 56.71 54.84 57.10 57.02 57.40 57.08 55.28 55.28 55.19 54.18 52.73 53.71 51.41 48.52 48.43 45.26 52.02 53.68 53.68
52.31 52.32 51.66 52.25 52.73 53.77 54.36 53.69 53.43 53.47 54.03 53.68 53.41 53.81 54.03 53.93 54.03 54.13 55.29 55.67 55.73 55.57 55.01 55.21 53.51 52.01 47.17 55.81 52.86 55.01 55.29 55.56 56.61 56.13 56.61 54.62 54.89 53.16 52.57 48.76 46.23 47.17 43.51 44.02 47.82 53.87 52.72
52.88 52.55 52.62 52.44 52.17 52.71 53.35 54.19 53.28 53.13 53.14 53.33 53.14 53.42 53.53 53.86 53.97 53.85 54.59 54.95 56.01 54.32 55.26 55.08 54.31 48.97 51.59 49.58 52.83 56.15 56.64 55.47 54.52 54.92 53.50 53.10 53.08 50.28 50.02 47.35 40.38 42.13 43.33 44.97 44.27 50.42 51.87
52.83 53.51 52.90 52.81 52.37 52.22 52.64 53.61 53.84 53.14 52.83 52.95 53.18 52.93 53.04 53.58 53.93 53.69 55.10 56.33 52.75 50.23 52.01 49.01 49.20 49.42 49.54 53.59 56.66 55.12 56.85 54.37 53.79 53.73 49.39 52.40 48.60 46.01 46.86 48.12 48.22 46.73 45.11 43.81 46.59 49.11 49.60
51.63 52.16 52.95 53.18 52.84 52.39 51.45 51.97 52.56 53.33 52.97 52.87 52.85 52.74 52.65 53.47 53.19 54.36 54.41 52.53 52.18 51.90 46.22 51.29 50.93 51.40 53.40 54.07 49.85 54.16 56.83 51.35 50.72 48.13 50.39 49.02 46.12 49.30 49.79 48.86 47.78 47.21 45.02 44.32 46.88 48.62 47.86
51.20 51.29 51.80 52.57 52.89 52.66 52.22 51.59 51.59 52.62 52.83 52.53 52.55 52.47 52.37 52.62 53.11 53.65 52.96 54.66 56.72 54.96 46.71 47.80 51.16 49.81 50.29 52.66 49.16 51.10 54.11 51.79 49.33 48.22 48.35 46.40 47.76 49.59 48.90 48.03 46.43 46.73 45.26 44.66 44.33 47.48 48.92
51.16 50.97 51.37 51.82 52.36 52.48 52.22 51.82 51.42 52.11 52.67 52.42 52.10 52.06 51.54 51.73 50.24 53.63 52.87 56.72 57.03 56.34 42.34 42.92 46.06 49.63 50.63 51.35 47.36 53.74 55.49 51.54 49.04 47.20 48.26 47.92 50.61 47.83 47.73 46.64 47.70 44.07 48.20 46.89 45.70 44.85 41.05
51.16 51.08 50.93 51.20 51.18 51.24 51.33 51.18 51.03 51.50 52.27 52.36 52.02 52.02 51.40 51.52 51.63 49.95 54.59 57.93 57.20 54.17 29.34 43.72 46.03 54.23 51.89 47.75 48.79 49.88 55.08 51.49 47.12 47.26 48.17 45.58 47.27 46.89 45.73 46.64 48.54 45.36 48.58 47.34 47.15 45.42 44.36
51.17 51.13 51.10 51.10 51.02 50.85 50.81 50.70 50.68 50.53 50.86 52.03 51.67 51.83 51.34 50.94 50.70 54.57 56.83 57.67 54.99 41.06 29.57 40.37 47.91 46.54 45.95 47.38 47.83 50.50 50.01 52.36 51.83 48.54 48.80 48.01 50.79 49.53 48.42 48.93 49.05 49.69 47.83 47.13 47.44 45.62 38.93
50.82 50.95 50.96 50.77 50.68 50.68 50.73 50.64 50.39 50.00 50.23 50.94 51.28 51.59 50.84 51.82 48.39 56.27 57.13 53.15 40.41 33.33 42.22 39.53 43.29 45.69 45.55 43.55 45.43 47.02 46.27 45.78 44.48 41.67 42.41 46.30 46.82 49.53 50.10 47.54 49.23 48.54 45.99 39.23 37.39 37.80 37.14
50.82 50.80 50.80 50.92 50.78 50.67 50.65 50.48 50.27 49.80 49.90 50.46 50.80 50.44 50.78 51.79 52.99 56.30 52.99 44.69 33.14 37.36 39.33 44.75 44.36 44.45 42.22 44.36 44.67 45.97 45.39 43.48 47.22 46.21 43.54 41.35 39.30 46.54 50.07 48.29 46.36 46.81 46.09 40.31 31.88 34.36 37.65
51.16 50.87 50.74 50.74 50.64 50.69 50.65 50.57 50.25 49.72 49.63 50.01 50.43 49.74 48.30 50.38 52.82 53.45 47.03 35.36 35.48 38.85 42.65 41.15 43.22 41.39 39.96 43.47 44.22 45.06 44.82 43.92 46.39 47.70 42.32 41.74 41.23 48.11 49.53 50.04 49.58 46.17 43.32 47.19 40.94 40.32 39.42
51.01 51.05 50.70 50.42 50.40 50.45 50.24 50.30 50.25 49.82 49.44 50.03 47.58 45.86 45.11 50.78 53.23 47.53 40.85 36.14 39.65 44.20 44.73 45.53 39.19 43.62 38.95 38.98 41.30 43.27 43.09 46.67 46.02 48.45 49.80 45.88 40.39 46.57 48.44 50.47 49.72 48.14 49.34 41.77 43.56 33.56 32.09
50.57 50.81 50.69 50.51 50.16 50.13 50.08 50.10 49.91 49.61 49.21 49.92 45.78 39.73 47.51 50.36 50.30 41.26 34.35 37.83 41.92 46.58 47.31 43.48 42.92 42.12 42.00 40.94 41.20 42.42 42.82 45.01 48.20 47.38 49.58 47.89 45.23 43.64 47.29 45.94 45.37 45.64 44.66 44.84 44.86 42.46 36.11
48.78 49.30 49.89 50.36 50.24 50.29 50.04 49.92 49.91 49.32 49.14 48.27 41.92 33.70 49.91 49.14 35.56 37.83 35.41 41.12 43.05 44.09 48.07 45.89 45.71 44.88 43.88 42.84 41.39 41.68 42.53 45.01 48.85 49.02 45.21 48.64 45.55 41.03 43.17 47.87 49.12 48.42 46.59 46.32 40.44 38.01 40.91
48.45 48.71 49.11 49.90 49.63 49.79 50.03 49.72 49.72 49.08 49.18 46.64 37.96 38.73 48.96 47.70 30.04 32.32 39.46 40.66 42.87 43.18 44.33 44.63 43.28 45.18 47.24 44.78 40.12 43.08 43.90 48.32 48.67 48.74 46.74 48.12 43.76 38.65 40.26 44.00 47.15 45.32 46.72 46.83 45.83 44.25 40.05
47.48 47.86 48.40 48.78 49.17 49.28 49.27 49.64 49.41 48.87 48.94 48.02 38.99 32.72 39.20 41.38 42.63 36.22 36.09 37.82 38.45 44.21 44.31 45.84 44.67 45.62 43.67 43.02 46.08 42.70 43.22 45.63 48.25 49.34 47.02 48.70 45.50 42.03 37.92 41.19 44.74 42.78 44.71 46.19 45.01 40.37 40.69
47.22 47.36 47.45 48.23 48.59 48.99 49.40 49.79 49.54 48.75 48.62 45.66 39.22 37.26 38.80 30.81 35.14 37.89 38.98 39.15 37.73 38.35 43.95 46.29 44.05 44.11 42.87 40.12 42.64 42.54 44.45 46.10 46.14 45.91 48.37 48.84 42.39 44.16 44.45 44.81 44.72 43.96 43.45 44.54 43.21 43.95 40.74
47.95 47.68 47.11 47.42 48.02 48.43 48.83 49.42 49.10 48.52 48.48 42.02 36.58 38.62 41.44 38.67 39.08 37.72 37.64 37.09 37.79 39.55 41.29 41.46 42.04 43.79 44.13 41.66 43.06 40.84 43.68 45.82 45.42 47.28 47.26 48.17 42.63 44.53 42.12 44.77 44.01 42.25 44.17 44.62 44.97 44.73 45.21
47.91 47.84 47.47 47.37 47.72 48.33 48.88 49.10 48.67 48.13 47.62 40.56 42.18 45.82 42.73 38.53 37.28 35.26 37.50 36.89 38.97 42.00 43.82 44.53 44.57 43.03 41.94 43.48 46.60 47.53 47.52 47.42 47.06 46.37 46.43 45.75 44.05 41.89 38.49 42.94 42.16 36.95 42.86 44.26 45.08 46.80 46.47
47.15 47.63 47.66 47.45 47.55 48.15 48.48 48.15 48.09 47.89 47.32 46.97 43.41 44.49 40.07 35.29 36.79 34.65 36.92 38.82 39.05 41.11 40.70 44.30 46.09 43.40 45.78 48.95 48.34 48.27 47.49 46.61 47.39 48.30 49.69 45.33 44.45 43.66 38.72 37.52 32.77 43.60 47.54 48.37 46.30 47.11 48.59
46.35 47.13 47.36 47.55 47.60 47.79 47.90 47.54 47.78 47.44 47.65 45.84 44.54 44.63 40.93 36.94 38.72 37.77 36.81 37.81 41.13 42.90 42.25 43.31 45.96 48.06 49.89 46.01 41.18 37.73 39.69 41.29 43.98 46.77 47.45 48.64 45.14 39.91 38.20 37.00 41.63 42.20 43.69 45.03 44.89 45.34 49.70
47.58 46.77 46.95 47.13 47.40 47.46 47.42 47.55 47.40 47.02 47.35 45.93 45.30 49.77 45.48 39.47 37.76 41.19 37.28 38.67 38.17 40.11 41.63 43.56 48.44 50.99 49.06 43.80 40.73 33.90 32.44 37.33 39.26 41.58 45.01 44.89 45.30 43.67 37.55 36.29 34.45 43.34 48.10 50.03 49.07 41.73 50.06
47.26 46.83 46.78 47.11 47.31 47.20 47.41 47.47 46.97 46.88 47.40 45.91 46.57 50.17 46.49 39.44 43.05 43.32 38.92 38.22 42.91 42.53 41.26 43.39 45.10 45.65 48.04 41.25 38.45 36.77 35.26 41.79 37.72 38.39 37.24 39.30 39.25 38.79 38.59 38.26 42.07 47.20 47.12 48.71 39.85 43.64 50.69
46.45 46.56 46.79 47.25 47.25 47.14 47.22 46.78 46.48 46.63 47.40 47.25 45.91 49.74 47.68 42.05 43.32 44.33 45.37 42.30 43.25 44.00 40.60 44.55 43.72 44.03 43.32 39.18 38.80 39.17 39.64 40.69 41.01 43.21 41.24 40.05 38.75 37.95 40.17 37.97 35.93 46.89 45.59 44.30 49.95 50.84 51.91
46.09 46.55 46.61 46.98 47.00 46.87 46.44 46.28 46.14 46.70 46.90 46.87 42.54 48.18 50.25 45.68 43.69 46.98 46.76 48.77 47.85 47.86 45.83 47.03 44.18 44.13 44.77 41.73 42.48 42.67 40.81 40.98 41.15 37.19 45.50 40.55 44.01 43.02 42.34 44.07 49.59 48.96 51.30 51.88 51.62 52.04 50.58

GFSGBSN_sfc_wetblb_066.txt.gz
Wetbulb
53.11 53.16 53.42 53.79 54.17 54.51 55.50 55.70 55.45 55.06 54.91 54.86 54.33 54.77 54.59 54.62 54.52 56.01 56.22 56.25 57.47 58.39 58.56 58.16 58.11 57.83 56.84 53.53 53.28 59.43 62.91 61.64 57.60 55.78 54.72 54.11 51.39 50.10 47.15 49.06 50.43 48.75 49.25 49.88 50.97 50.77 50.81
53.28 52.89 52.97 53.01 52.83 53.01 53.80 54.28 55.57 54.74 54.29 54.50 54.38 54.18 54.24 54.50 54.38 55.39 55.59 55.38 55.79 57.11 58.07 57.96 57.97 57.05 55.81 48.13 58.64 58.85 58.96 60.64 57.38 55.80 55.04 54.76 52.04 51.89 49.37 49.42 49.65 50.74 50.64 50.21 50.83 50.49 51.26
53.32 53.96 53.76 53.62 53.34 52.80 52.46 53.80 54.38 54.95 54.45 54.04 54.02 54.07 53.95 54.24 54.50 54.51 54.85 54.83 54.95 55.62 57.38 57.91 57.91 57.06 53.55 50.70 58.74 59.19 58.47 57.53 59.07 57.75 54.35 55.38 54.83 50.96 52.50 50.03 52.85 51.45 47.83 49.15 49.59 50.58 50.27
53.18 54.22 53.88 53.65 53.36 52.91 52.84 52.95 53.48 54.22 54.75 54.52 54.04 53.43 53.68 53.42 53.31 53.75 53.85 54.14 54.36 55.24 57.09 57.57 57.14 56.11 49.63 57.59 59.30 58.03 58.38 56.57 57.95 59.06 57.02 56.55 55.09 53.30 52.21 53.65 51.40 48.40 48.50 43.60 48.89 50.59 51.78
53.23 53.33 53.27 53.83 53.71 53.33 53.11 52.79 52.92 53.56 54.07 54.52 54.10 53.46 53.16 52.93 52.63 52.96 53.30 53.58 53.95 55.14 56.60 57.30 54.95 54.48 48.52 57.75 55.18 57.15 57.10 54.20 55.62 57.62 56.97 56.34 54.78 51.35 51.99 47.92 45.80 46.56 41.56 43.63 46.11 51.57 50.86
51.88 52.75 53.00 52.94 52.93 53.42 53.42 53.15 52.87 52.76 53.03 53.61 54.06 53.62 52.97 52.92 52.58 52.55 52.75 52.87 53.88 55.49 56.15 57.64 56.44 49.89 52.35 49.88 54.78 56.01 56.60 55.44 53.32 54.97 53.13 52.08 50.89 47.69 48.32 46.11 39.75 43.13 43.42 45.05 44.27 49.07 50.46
51.12 51.40 52.28 52.50 52.60 53.06 53.20 53.75 53.11 52.79 52.57 53.20 53.71 53.92 53.41 52.70 52.81 52.39 51.59 52.93 51.02 51.32 53.17 50.92 50.14 49.00 49.91 55.41 55.55 53.62 55.56 53.40 52.87 52.84 47.25 49.91 45.51 43.58 46.64 48.79 48.81 47.60 45.32 44.66 47.29 50.13 48.99
52.06 52.08 51.77 51.68 52.36 52.53 51.76 52.40 52.73 52.72 52.62 52.43 52.88 53.42 53.44 53.06 52.69 52.61 51.46 48.34 50.71 54.75 46.97 53.39 53.82 53.10 54.29 54.68 50.79 52.69 56.03 49.19 49.30 46.91 49.23 47.20 43.84 48.45 49.94 50.03 48.10 47.01 45.04 44.48 47.51 49.79 48.08
51.76 52.13 52.26 51.99 52.04 52.31 52.03 52.53 51.94 52.35 52.45 52.16 52.34 52.88 53.30 52.72 52.45 50.60 48.96 49.29 55.74 57.44 46.70 47.20 49.52 48.21 50.85 52.67 49.36 50.77 53.41 49.68 47.83 46.88 47.11 45.04 48.03 50.99 49.11 48.29 45.97 46.14 44.36 44.81 45.38 47.97 48.64
51.55 51.58 51.95 52.36 52.53 52.55 52.59 52.55 52.30 52.24 52.53 52.16 51.72 52.55 52.43 52.26 47.49 50.20 47.93 53.84 55.07 57.84 41.20 40.80 45.65 49.26 49.91 50.90 46.36 53.23 55.00 50.04 48.36 45.42 46.79 47.16 50.33 49.38 48.09 46.65 47.51 43.65 48.09 47.79 46.34 44.77 40.29
51.27 51.29 51.62 52.03 52.20 51.93 51.76 51.89 52.22 52.11 51.88 52.11 51.76 52.23 52.09 51.45 50.17 49.18 53.40 56.46 58.41 55.54 27.27 43.77 46.47 54.83 52.34 47.65 47.66 48.64 54.14 51.55 45.43 46.52 47.13 45.48 47.43 47.29 46.26 46.55 48.91 46.39 49.97 48.47 46.96 44.53 44.32
51.02 51.29 51.76 51.91 51.85 51.68 51.64 51.64 51.56 51.70 51.74 51.80 51.66 52.04 52.09 50.11 50.01 51.10 54.42 52.88 54.64 39.03 27.78 41.41 48.92 47.07 47.08 47.12 46.72 49.38 50.09 53.25 51.13 47.40 48.76 47.47 51.53 49.57 48.67 49.65 49.99 50.29 47.98 47.53 47.19 44.65 38.27
50.97 51.25 51.45 51.54 51.37 51.70 51.69 51.64 51.40 51.27 51.26 51.39 51.28 51.56 51.04 51.24 46.12 53.50 54.52 48.84 37.31 30.17 41.05 39.48 44.17 46.98 45.67 45.28 45.21 46.43 45.74 46.22 43.44 39.97 41.61 45.34 46.35 49.72 50.23 46.99 49.50 48.19 44.91 38.08 36.63 36.94 36.84
50.78 50.94 50.94 51.08 51.27 51.27 51.48 51.57 51.36 50.99 51.21 51.08 50.60 50.72 50.28 50.88 52.62 52.60 51.49 40.45 29.87 37.28 38.35 46.05 44.70 46.61 43.48 46.35 45.49 45.59 45.01 42.83 46.76 44.63 42.12 39.74 38.69 46.76 49.72 47.77 45.74 45.98 44.76 39.28 31.98 31.68 36.92
50.65 50.67 50.77 50.90 51.13 51.17 51.34 51.40 51.36 51.09 50.87 50.78 50.38 49.68 48.37 50.43 52.90 53.12 42.75 32.23 32.61 38.25 42.33 41.04 44.64 42.75 43.34 45.75 45.44 45.02 44.20 43.74 45.59 46.34 41.26 40.14 40.63 48.23 49.59 49.76 48.68 46.44 43.49 47.88 40.96 41.51 37.83
50.36 50.46 50.67 50.57 50.69 50.80 50.93 51.12 51.28 51.01 50.76 50.48 47.11 46.43 45.63 52.59 53.79 48.33 37.39 32.33 36.73 42.80 43.12 43.66 38.39 43.51 41.11 43.53 43.01 43.25 43.29 46.60 45.07 47.28 48.87 44.70 40.72 47.08 48.33 50.00 49.24 47.17 49.89 42.14 43.40 32.79 32.77
49.74 49.78 50.12 50.14 50.30 50.26 50.64 50.81 50.92 50.81 50.60 50.17 45.33 39.49 46.94 52.27 51.78 41.81 31.91 33.70 38.81 44.01 44.53 41.64 40.36 40.30 40.99 42.98 44.02 42.41 42.80 45.70 47.31 47.34 48.51 46.87 44.80 44.77 47.99 45.13 44.18 45.06 44.71 46.53 45.70 43.01 36.94
48.82 49.13 49.13 49.79 49.99 50.12 50.27 50.38 50.61 50.77 50.35 48.65 42.78 34.62 47.25 50.91 36.94 37.47 32.99 37.81 41.04 40.98 44.74 43.62 44.07 42.82 42.38 43.60 43.70 42.74 42.24 45.19 48.40 47.60 44.51 47.44 46.05 41.32 43.51 48.25 49.61 47.90 45.87 47.03 41.09 39.54 42.11
48.67 48.80 49.18 49.40 49.50 49.59 49.96 50.26 50.44 50.64 50.25 46.08 38.43 38.85 47.19 48.16 31.68 32.03 37.73 37.47 40.37 40.03 42.31 43.03 41.69 44.50 47.03 45.02 41.38 44.88 44.71 49.14 50.51 47.04 44.90 47.30 42.99 38.92 40.26 45.38 47.92 44.59 46.80 47.26 47.32 46.19 41.18
49.03 48.89 49.03 48.84 48.80 49.24 49.74 50.03 50.22 50.51 50.34 46.63 38.74 32.15 39.95 42.10 42.19 37.28 35.37 35.55 35.90 41.72 41.62 44.15 43.16 44.87 44.72 43.42 46.93 44.12 44.32 47.04 49.97 49.50 47.82 48.28 45.85 42.70 38.19 41.97 45.23 42.96 44.86 47.34 46.48 40.57 41.80
47.62 47.66 47.74 48.03 48.26 48.38 48.62 49.20 49.89 50.32 50.03 46.10 38.56 35.88 40.47 32.76 34.97 38.17 38.06 38.03 36.24 35.55 41.37 43.86 42.17 42.13 42.38 40.66 42.71 43.16 46.28 45.37 47.98 48.23 48.86 49.27 42.79 44.88 44.59 45.59 45.56 44.93 44.11 44.29 42.92 44.90 41.71
46.91 46.96 47.03 47.11 47.59 47.78 47.83 48.14 48.94 49.81 50.07 43.64 33.06 37.99 41.60 39.14 38.05 36.59 37.32 36.63 36.88 37.69 39.14 38.30 40.19 42.79 42.99 42.28 43.47 41.39 44.93 44.80 43.65 46.84 46.20 48.01 42.83 44.62 42.51 45.16 44.92 43.35 45.14 45.03 44.69 44.82 44.73
46.93 47.00 46.90 47.00 46.97 47.15 47.19 47.31 47.71 48.51 49.38 42.33 41.65 44.64 41.78 37.38 37.52 34.72 35.93 38.23 37.77 40.58 41.38 42.64 42.31 43.07 41.38 42.95 46.89 48.89 48.09 48.46 47.67 46.61 45.26 44.93 42.96 41.34 37.33 43.56 43.09 37.50 43.73 44.60 45.32 46.65 45.92
46.83 47.29 47.52 47.50 47.55 47.03 46.96 46.79 46.99 47.78 48.32 44.77 43.65 44.62 40.28 35.18 37.19 36.66 37.83 38.76 38.90 40.22 39.69 41.90 43.44 43.96 47.02 50.20 49.78 48.31 47.68 46.51 46.48 46.83 47.97 45.15 44.03 42.05 37.65 37.89 31.34 43.48 48.66 47.52 45.90 46.75 47.50
47.23 47.53 47.86 47.90 47.78 47.20 46.72 46.65 46.97 47.47 47.95 44.75 46.65 44.45 40.87 36.26 39.28 38.24 38.45 39.65 40.45 42.51 40.91 41.89 44.47 46.88 50.32 46.78 41.59 39.27 39.13 40.27 42.78 45.22 45.50 46.81 45.31 38.22 35.90 36.10 40.84 43.42 46.32 46.15 45.00 44.62 48.87
47.31 47.27 47.34 47.21 47.18 47.05 46.38 46.76 46.99 47.42 47.97 46.28 45.94 47.66 45.48 40.11 37.67 41.24 39.35 40.82 38.62 39.64 40.18 42.47 45.99 51.40 49.65 44.10 37.89 34.52 32.31 37.51 37.12 39.41 45.62 45.33 47.51 42.19 39.92 34.00 31.44 43.15 48.26 50.55 49.95 40.06 49.62
46.61 46.40 46.57 47.11 47.04 46.87 46.61 46.78 46.91 47.33 48.04 45.00 45.66 49.13 46.33 40.03 43.37 42.96 39.17 39.27 43.15 41.74 40.23 42.19 43.17 45.09 49.51 41.18 35.51 35.38 35.10 41.04 34.77 35.81 35.77 38.96 40.75 37.96 37.18 36.12 41.05 47.49 49.11 50.30 39.52 42.05 51.61
46.63 46.89 46.95 47.12 47.02 46.62 46.78 46.83 47.04 47.50 47.53 45.49 45.79 48.88 47.39 41.84 42.80 44.18 45.07 42.59 43.57 43.49 39.05 43.47 42.26 42.54 43.19 39.17 38.40 37.72 37.68 38.84 37.57 40.33 40.12 38.38 37.80 37.44 38.71 35.21 33.87 50.51 48.95 43.21 48.31 52.57 53.76
46.59 47.37 47.23 46.63 46.24 46.77 47.12 46.80 47.00 47.65 47.56 46.82 43.72 48.35 51.29 45.55 43.47 48.04 47.89 49.07 49.28 47.89 45.91 44.93 42.95 43.12 44.40 41.39 41.99 42.52 42.31 42.49 39.29 32.33 44.32 37.59 42.81 40.86 42.35 42.06 51.08 50.37 50.48 52.17 54.15 54.29 53.93

GFSGBSN_sfc_wetblb_069.txt.gz
Wetbulb
53.28 53.30 53.29 53.22 53.28 53.57 53.70 54.39 55.01 55.39 54.93 54.44 54.37 53.71 53.77 54.37 54.51 55.12 54.88 55.02 55.45 55.91 56.28 57.64 58.71 58.52 54.67 50.25 51.11 57.96 62.69 60.54 56.15 53.33 50.27 49.49 49.08 47.58 44.24 45.55 45.72 44.98 46.29 47.33 47.67 46.87 46.42
54.14 54.00 54.11 53.49 53.27 52.66 52.81 53.03 54.10 54.30 54.56 54.79 53.94 53.87 53.99 52.89 53.65 54.33 54.44 54.14 54.31 54.88 55.55 57.00 58.30 57.45 52.86 44.99 56.19 57.13 57.84 57.73 54.78 51.46 51.06 51.42 50.29 50.60 47.53 45.98 44.59 48.25 47.78 46.70 47.38 47.09 47.56
52.97 53.96 54.55 54.37 54.31 53.93 53.39 53.08 53.28 53.87 53.89 54.32 54.47 54.20 52.47 53.22 52.89 52.82 53.61 53.75 53.42 54.00 55.00 56.09 57.85 57.11 50.89 47.73 55.86 55.69 55.61 54.06 57.21 55.24 51.32 53.00 53.09 49.84 47.92 45.59 50.35 49.26 45.25 46.10 46.56 46.90 45.91
52.76 52.78 53.22 53.44 53.64 53.88 53.55 53.43 53.33 53.30 53.60 53.74 54.16 53.89 53.55 51.86 51.63 51.91 52.84 52.91 53.07 53.44 54.39 55.85 57.40 54.55 46.62 56.00 55.95 55.37 55.09 53.49 55.88 55.97 55.58 55.01 54.19 51.05 47.60 49.48 48.45 45.19 44.01 38.69 45.34 46.82 47.60
53.05 52.58 52.52 53.24 53.21 52.97 53.21 53.64 53.37 53.32 53.27 53.23 53.76 53.63 53.53 53.04 51.48 51.27 51.75 52.37 52.68 53.29 54.15 55.09 53.27 51.17 46.67 57.53 52.88 54.99 54.44 52.58 54.23 53.88 54.41 56.40 52.36 48.21 47.45 42.78 39.95 41.43 37.18 39.25 42.22 47.44 47.12
51.71 52.00 52.75 52.87 52.73 52.74 52.89 52.90 53.27 53.20 53.02 52.93 53.22 53.49 53.53 53.26 52.64 52.03 51.31 52.14 52.24 52.55 53.04 55.12 54.54 47.24 50.97 49.18 53.55 54.28 55.05 54.23 51.75 51.49 51.50 49.71 46.04 42.68 41.48 38.74 33.79 37.49 40.80 40.77 39.47 44.52 47.03
51.14 51.29 51.74 52.36 52.62 52.78 52.57 52.86 52.66 52.60 53.03 53.14 52.93 53.14 53.51 53.30 52.89 52.41 49.47 46.34 45.30 46.29 48.90 48.12 48.06 47.01 48.17 52.99 55.18 52.03 53.74 51.79 50.69 48.66 43.97 46.32 39.89 38.86 40.69 42.89 44.30 43.79 42.89 40.54 43.05 47.68 46.07
50.47 50.35 50.96 51.76 52.47 52.39 52.33 52.46 52.05 51.85 52.06 52.99 52.76 52.72 53.05 52.99 53.07 52.35 47.88 42.54 45.61 47.44 41.62 51.11 51.75 51.41 52.27 53.73 48.73 51.13 52.63 47.59 46.09 41.55 46.56 43.62 39.54 44.84 46.43 46.45 45.58 45.31 42.26 40.59 45.46 47.97 44.83
50.84 51.01 51.05 51.39 51.96 52.42 52.36 52.63 52.44 52.29 52.18 51.91 52.62 52.29 52.70 52.64 52.56 48.43 44.64 44.96 49.53 48.17 41.23 45.97 49.35 49.51 51.27 52.37 47.91 48.17 50.50 48.08 44.33 42.03 44.45 41.30 44.56 47.59 46.36 44.80 44.09 43.86 41.49 40.83 42.27 45.43 45.06
50.65 50.86 51.28 51.39 51.74 52.22 52.43 52.51 52.43 52.31 52.20 52.10 52.02 52.00 51.80 52.09 46.67 45.80 43.18 49.00 50.52 48.91 37.26 39.13 43.76 45.89 48.31 47.52 45.60 51.62 51.74 48.64 44.62 41.52 44.49 43.59 47.78 46.49 45.40 44.12 45.29 40.19 45.77 45.43 44.97 41.39 35.07
50.61 50.87 51.04 51.37 51.73 51.73 51.81 52.06 52.37 52.56 52.37 52.16 52.06 51.92 51.57 51.75 45.36 44.74 49.23 51.53 51.38 50.53 22.43 40.27 42.32 51.66 48.71 44.05 45.77 46.42 51.68 48.36 42.55 42.89 44.53 42.55 45.16 44.57 43.73 45.29 47.01 43.45 49.16 46.51 45.40 40.35 37.84
50.34 50.68 50.81 51.11 51.34 51.46 51.73 51.94 51.98 51.98 52.04 52.00 51.66 51.83 51.49 48.64 46.97 47.18 49.62 49.64 48.59 35.26 23.81 38.15 46.61 45.38 44.62 43.75 44.59 46.70 46.02 48.64 47.92 43.51 44.39 44.08 47.70 46.92 46.35 48.06 47.63 48.41 46.49 45.11 43.24 39.66 31.70
49.94 50.32 50.82 51.07 51.35 51.55 51.75 51.90 52.01 51.89 51.86 51.65 51.40 51.84 50.52 48.35 43.61 47.99 50.68 46.77 34.83 25.90 39.12 35.93 42.55 44.94 43.71 41.54 42.23 43.42 41.91 41.07 38.84 36.31 36.56 42.08 43.45 46.93 48.78 44.21 46.90 45.14 39.99 32.19 29.67 29.17 28.99
49.78 49.99 50.42 50.93 51.30 51.37 51.51 51.59 51.57 51.59 51.59 51.54 51.06 50.81 50.10 48.34 48.20 49.06 48.06 38.19 27.72 34.39 34.43 42.07 42.60 44.16 40.42 43.04 41.61 42.12 40.16 38.40 43.00 41.41 38.43 36.02 34.53 44.02 47.55 45.47 42.63 42.26 40.70 32.96 27.96 27.39 32.57
49.64 49.95 50.47 50.72 50.93 51.08 51.26 51.22 51.41 51.38 51.45 51.26 50.83 48.47 46.90 47.62 47.55 48.68 42.43 30.13 28.24 33.59 38.86 37.38 38.72 37.72 39.61 42.52 42.78 40.84 39.61 39.47 42.93 44.24 36.87 36.65 37.24 46.73 46.99 47.73 46.55 43.28 38.54 43.90 38.28 37.94 34.28
49.81 49.73 49.97 49.99 50.18 50.50 50.73 50.79 51.04 51.29 51.27 51.13 47.34 45.36 43.97 48.83 47.95 44.86 36.72 31.43 33.12 38.96 40.69 40.32 33.80 37.92 37.71 40.48 40.05 39.86 39.52 43.31 42.48 45.82 46.55 41.89 37.34 44.86 46.30 47.74 47.17 44.54 46.97 38.44 40.46 30.56 29.91
48.89 49.33 49.74 49.80 49.79 50.02 50.41 50.74 50.82 51.09 51.12 51.01 46.04 39.42 44.90 48.26 47.60 39.16 29.62 31.37 35.39 40.86 41.30 38.21 36.29 35.72 37.60 36.41 41.91 39.46 40.19 43.68 44.89 44.62 46.39 43.75 40.98 40.54 44.88 42.64 42.39 42.11 40.77 43.23 43.36 38.61 30.20
48.40 48.67 48.87 49.09 49.36 49.65 49.90 50.31 50.60 50.80 50.75 49.38 43.71 33.88 45.50 47.56 35.60 35.38 30.69 34.06 38.53 37.80 41.21 39.11 39.82 38.41 37.37 38.21 37.29 40.44 40.07 42.49 46.60 46.11 41.53 44.21 42.05 36.53 39.12 45.60 47.98 45.22 42.40 43.40 35.18 35.68 37.67
48.15 48.48 48.62 48.79 48.95 49.12 49.33 49.49 50.10 50.37 50.51 47.20 39.25 38.30 45.87 44.78 30.20 30.27 34.97 34.84 36.83 36.49 37.60 37.58 36.66 39.52 41.00 38.20 34.94 42.26 43.03 46.92 47.03 44.67 42.10 44.31 39.57 33.25 36.33 42.65 45.49 42.37 43.75 44.42 44.82 41.70 35.99
48.43 48.52 48.67 48.89 49.08 49.24 49.46 49.61 49.60 49.94 50.59 47.74 37.57 31.65 38.86 40.79 38.21 32.18 31.51 32.29 33.27 38.54 38.36 39.77 38.21 39.26 38.50 37.98 40.28 41.06 42.15 46.41 46.52 46.25 46.52 46.11 41.47 38.07 32.56 37.75 42.96 39.78 42.65 43.64 42.27 33.24 35.49
48.07 48.39 48.47 48.64 48.93 48.91 49.43 49.46 49.61 50.04 50.05 47.49 37.08 34.25 36.74 32.50 33.58 34.31 34.60 34.62 32.01 32.76 37.47 39.61 36.94 37.01 36.49 35.13 37.32 38.83 43.22 44.60 45.81 46.57 45.03 43.96 37.17 39.89 40.53 43.74 44.39 43.24 42.24 42.21 41.67 42.44 36.73
46.92 46.78 46.80 47.20 47.65 47.96 48.58 48.69 49.00 49.38 50.00 44.83 32.24 35.02 37.23 34.19 37.17 34.59 34.63 33.35 33.38 34.79 36.34 34.29 34.10 36.81 38.77 36.53 38.45 38.04 41.89 42.57 40.73 44.76 42.71 43.99 37.32 40.41 38.47 42.96 43.64 41.65 43.14 42.70 42.81 41.93 40.85
46.65 46.60 46.67 46.68 46.89 47.41 47.75 48.07 48.54 48.95 49.14 44.17 40.07 41.08 38.52 35.08 34.98 33.20 32.33 33.39 35.06 37.26 38.02 39.51 37.77 36.60 36.28 38.46 44.62 45.85 45.47 45.11 44.51 42.38 40.61 41.32 39.68 38.13 33.53 40.42 40.69 33.56 40.47 41.82 43.46 43.52 42.24
46.87 46.76 46.78 47.06 47.09 47.24 47.38 47.35 47.68 48.21 48.32 43.13 40.19 40.71 36.97 31.63 34.26 33.53 34.99 35.72 35.32 37.10 35.29 39.50 39.65 37.33 40.49 48.78 48.41 47.17 45.77 44.47 43.84 44.11 44.84 41.51 40.48 38.19 33.53 34.54 28.67 39.32 46.02 46.08 43.79 44.73 44.34
46.96 47.32 47.26 47.17 47.29 47.17 46.99 46.95 47.12 47.39 48.19 45.54 42.77 41.23 38.11 32.31 34.62 35.81 35.39 35.67 36.87 38.04 38.01 38.32 40.64 41.77 42.93 46.68 40.21 37.71 37.10 38.27 39.10 43.31 43.87 43.83 41.43 33.57 32.66 32.74 37.46 41.10 43.63 43.42 42.22 41.25 44.93
46.64 47.01 47.55 47.28 47.14 46.80 46.43 46.94 46.91 47.18 47.91 45.59 43.20 44.61 41.91 35.67 34.13 38.90 36.41 37.00 33.85 33.84 35.18 37.89 43.08 43.08 42.55 39.41 36.53 31.21 30.35 35.01 35.27 38.17 43.79 43.23 42.09 37.14 33.12 30.06 28.05 38.75 45.33 48.09 46.56 35.02 46.25
46.65 46.36 46.56 47.32 47.48 47.26 47.35 47.01 46.99 46.68 47.08 45.45 42.33 44.67 43.03 37.09 39.53 40.74 36.86 36.47 39.49 37.18 34.58 37.16 38.37 39.23 43.64 32.83 31.58 29.05 29.27 37.82 32.03 32.03 32.27 32.34 33.85 31.35 30.77 31.85 35.92 44.74 46.87 48.29 35.72 35.44 47.20
46.86 46.61 46.45 46.77 47.01 47.10 47.30 47.26 47.08 46.55 46.79 45.35 43.08 45.60 43.49 39.71 40.62 43.64 43.46 39.86 39.96 39.20 34.08 36.97 36.97 37.18 35.79 34.18 32.67 30.94 26.88 35.63 33.97 38.18 35.95 34.15 32.93 31.88 32.64 32.01 30.44 47.29 45.72 40.82 43.14 46.73 48.00
46.56 46.90 47.18 46.66 46.31 46.38 46.80 46.80 46.78 46.63 46.83 46.01 40.66 46.38 49.19 43.24 41.82 46.26 45.67 46.42 45.09 43.98 41.22 39.70 37.85 39.12 38.79 36.32 37.95 35.26 30.99 29.77 33.74 26.36 41.35 34.03 38.70 36.38 38.09 35.89 44.95 47.62 46.58 48.44 49.90 48.84 48.72

GFSGBSN_sfc_wetblb_072.txt.gz
Wetbulb
54.37 53.97 53.46 53.74 53.69 53.51 52.94 53.03 54.01 54.26 54.57 54.17 54.54 54.34 54.36 54.52 54.19 53.63 53.79 53.93 54.22 54.04 53.90 54.56 55.94 56.92 54.99 49.17 49.67 56.01 62.03 60.53 55.33 52.03 48.39 47.15 46.84 45.95 42.82 43.31 43.70 41.91 44.18 46.11 46.54 46.07 44.50
53.60 54.18 54.18 54.04 54.00 53.89 53.56 53.67 53.49 53.46 53.83 53.98 53.94 53.95 54.08 53.48 52.66 52.55 52.62 53.25 53.48 53.74 53.89 53.89 55.32 57.44 51.90 42.41 52.87 55.77 58.22 56.07 53.32 49.66 49.16 48.16 47.84 49.01 45.94 44.83 41.91 45.01 45.63 45.90 46.54 45.74 45.59
52.65 53.56 53.79 53.85 53.72 53.85 53.81 54.08 53.66 53.44 53.49 53.69 53.81 53.79 53.68 54.06 52.45 52.23 52.64 52.84 52.96 53.09 53.52 53.60 54.07 54.55 49.37 45.51 52.98 52.76 53.53 51.78 54.08 51.75 49.01 50.70 50.90 47.49 46.88 44.58 47.69 47.17 43.75 44.88 45.44 45.15 45.10
52.29 52.30 52.42 53.09 53.09 53.08 53.33 53.31 53.96 53.74 53.60 53.39 53.57 53.75 53.46 53.00 53.11 52.07 52.17 52.08 52.31 52.93 53.37 53.99 54.10 52.67 45.13 54.59 53.72 53.57 53.34 52.70 54.33 53.45 53.56 53.02 52.16 48.88 46.39 47.15 45.69 43.15 41.81 36.88 42.78 44.43 46.77
52.01 51.91 51.87 52.72 52.69 52.84 52.79 52.76 52.99 53.57 53.89 53.52 53.23 53.19 53.46 53.03 52.73 52.82 52.05 51.77 52.12 52.60 53.30 53.69 50.55 49.67 43.61 56.15 52.72 54.78 54.09 50.44 52.32 53.33 52.55 55.57 51.71 47.38 45.93 40.01 37.32 38.47 33.90 37.28 40.96 47.39 44.84
51.39 51.59 51.80 52.34 52.49 52.38 52.62 52.60 52.57 52.88 53.01 53.62 53.21 52.98 53.06 53.23 52.76 52.18 52.07 52.03 51.62 51.90 51.08 51.70 52.87 46.25 48.23 46.21 52.21 53.04 52.81 52.21 50.11 49.84 49.05 48.80 45.33 41.68 39.38 37.16 31.38 34.30 36.36 35.89 38.11 43.37 41.62
50.64 50.75 50.75 50.75 51.63 51.65 52.08 52.78 52.49 52.46 52.32 52.76 53.11 53.23 52.80 53.19 52.76 52.16 49.13 44.94 41.32 44.65 46.83 45.91 46.68 45.53 46.70 51.32 54.43 51.50 52.48 50.98 49.32 46.23 41.65 44.88 39.51 38.09 39.67 40.32 41.53 40.83 39.33 37.94 41.65 46.04 45.02
49.98 49.86 49.99 50.16 50.69 51.21 52.13 53.03 52.90 52.46 52.61 52.46 52.21 52.90 52.59 52.46 52.62 52.45 46.64 42.06 42.89 43.21 36.19 44.86 47.51 49.28 51.89 52.64 47.78 50.87 51.48 45.88 44.41 40.30 44.01 41.87 38.73 44.31 44.27 43.68 42.10 41.27 39.30 38.98 43.14 46.25 43.86
49.98 49.47 49.58 49.99 50.54 51.10 51.63 52.36 52.51 52.38 52.34 52.53 52.38 52.42 52.65 51.91 51.82 48.30 44.59 44.41 48.72 46.80 36.87 41.53 46.95 47.59 48.82 51.23 47.09 47.57 49.07 46.04 43.10 40.34 41.34 39.67 43.11 46.55 44.11 42.08 40.94 41.08 39.44 39.91 40.25 43.09 42.68
49.83 49.77 50.04 49.89 50.49 50.94 51.46 51.69 52.09 52.30 52.24 52.28 52.38 52.14 52.04 51.05 45.74 45.46 43.50 48.88 50.03 48.67 32.43 35.69 42.40 44.50 47.62 48.94 44.13 50.41 49.39 46.76 43.10 40.48 41.20 40.86 46.18 44.64 42.62 41.39 42.65 38.16 44.18 43.61 41.99 39.69 34.36
49.10 49.38 49.92 50.37 50.56 51.14 51.04 51.35 51.91 52.22 52.06 51.89 51.71 52.03 51.83 50.55 42.64 42.41 46.84 49.07 50.05 45.53 16.92 36.84 41.22 50.30 47.91 43.38 43.79 46.21 50.37 46.74 41.06 40.89 41.16 39.40 42.60 42.47 41.61 42.96 45.65 41.71 45.85 44.80 43.74 39.42 35.86
49.04 49.27 49.87 50.25 50.34 50.60 50.83 51.31 51.69 51.83 52.12 52.00 51.80 52.02 51.69 49.72 44.78 44.34 48.32 47.72 48.58 33.54 19.45 35.12 42.52 41.45 41.21 43.00 42.41 44.81 45.42 47.11 46.42 42.16 41.50 41.38 46.35 45.08 44.54 46.72 46.36 47.40 44.45 43.34 40.69 37.65 30.81
48.61 48.89 49.48 49.82 50.14 50.41 50.79 51.23 51.47 51.64 51.68 51.86 51.79 51.88 50.92 49.29 40.52 45.42 47.34 45.73 33.06 24.82 36.93 33.73 39.61 43.23 39.98 38.60 39.84 41.20 39.93 39.66 37.94 33.77 35.00 39.29 40.51 44.77 45.68 42.06 45.23 44.72 38.53 31.20 29.50 28.67 28.20
48.31 48.53 49.03 49.57 49.75 50.20 50.61 51.20 51.11 51.35 51.27 51.58 51.45 50.86 50.63 49.85 47.06 44.92 47.05 38.33 26.40 31.83 32.38 39.19 38.56 38.82 38.46 39.54 38.39 39.58 38.07 35.31 40.22 38.42 35.69 33.11 31.38 40.73 45.39 42.90 41.49 41.29 39.59 32.21 27.23 26.35 30.24
48.06 48.34 48.70 49.00 49.47 50.01 50.54 50.72 51.09 51.32 51.30 51.33 51.32 49.19 47.77 48.56 47.20 46.21 39.72 27.29 27.87 32.10 37.88 36.10 36.69 33.39 34.84 40.53 39.38 38.26 36.68 35.87 39.19 40.92 34.75 33.56 34.19 43.79 45.62 46.35 45.69 41.20 36.84 42.78 36.34 36.52 30.84
48.17 48.37 48.65 48.84 49.28 49.92 50.17 50.66 50.91 51.11 51.15 51.19 47.59 45.98 44.87 48.59 47.80 43.32 34.72 29.81 31.84 37.32 38.45 37.54 31.64 36.05 32.20 35.84 35.85 36.02 36.27 40.51 39.58 42.88 43.73 39.31 33.59 42.36 44.06 46.64 45.87 43.47 45.49 37.12 38.46 29.46 27.42
47.60 47.93 48.52 48.79 49.21 49.44 49.80 50.32 50.44 50.81 50.96 51.04 46.45 40.19 45.92 48.17 47.00 37.80 28.36 30.39 34.51 38.34 38.63 35.85 33.43 33.84 34.49 34.21 36.34 35.51 37.62 41.63 42.52 42.52 44.70 42.29 37.51 37.44 43.19 41.35 39.70 40.53 39.81 40.92 41.94 37.69 30.07
47.34 47.80 48.19 48.40 48.75 49.18 49.56 49.95 50.29 50.58 50.72 48.95 44.33 34.29 45.74 47.18 34.77 34.47 28.97 33.75 38.01 36.44 39.42 36.71 38.01 36.34 34.81 35.41 34.88 36.08 36.26 40.20 44.48 44.05 40.18 42.91 38.75 33.58 37.43 44.58 45.94 42.99 41.84 40.86 34.29 34.94 36.87
47.34 47.57 47.97 48.19 48.42 48.65 48.91 49.33 49.77 50.08 50.65 46.62 39.84 37.61 45.54 43.62 29.66 30.33 33.13 32.99 35.55 35.35 35.64 35.54 35.42 37.28 38.58 35.64 31.92 38.12 38.64 45.38 46.20 43.39 40.89 41.72 36.80 31.23 33.76 40.62 43.40 40.40 42.27 42.87 42.46 39.77 35.38
47.23 47.43 47.78 48.10 48.56 48.76 48.86 49.11 49.37 49.68 50.33 46.99 35.69 30.97 38.18 39.81 37.07 33.42 31.43 30.92 31.61 37.28 35.62 36.66 36.08 37.63 34.97 33.40 37.10 36.88 38.33 44.88 46.57 45.96 45.66 44.86 38.60 36.09 31.42 35.11 40.49 38.02 41.53 42.94 41.38 33.33 35.40
47.54 47.85 47.87 48.44 48.71 48.90 49.06 49.13 49.23 49.44 49.71 47.01 35.00 32.64 36.14 31.86 32.75 34.23 33.95 32.96 30.68 31.50 36.93 37.67 33.84 34.85 34.44 31.27 33.52 35.65 41.40 42.35 45.65 45.55 45.13 42.71 35.60 38.04 39.10 41.31 41.59 40.45 40.48 42.02 40.07 39.55 36.47
47.14 47.23 47.09 47.23 47.44 47.92 48.34 48.57 48.82 48.98 49.23 44.25 31.12 33.95 36.82 35.24 36.18 33.74 33.96 31.04 31.38 32.91 34.67 32.93 32.34 35.57 36.11 32.47 33.62 32.89 40.21 40.63 41.53 43.11 41.73 42.58 35.17 38.04 35.91 40.66 41.05 38.63 41.26 42.62 42.50 40.69 41.35
46.83 46.92 46.54 46.61 46.69 47.16 47.26 47.84 47.96 48.88 48.80 43.01 42.05 40.58 38.39 35.56 34.80 32.60 30.95 32.53 32.61 35.60 36.10 37.04 36.08 33.99 32.75 35.33 39.11 43.60 43.80 44.43 44.27 41.17 39.56 39.47 37.37 34.49 30.80 39.04 38.86 33.32 38.49 41.00 41.58 42.70 41.55
46.28 46.51 46.61 46.84 46.87 47.08 47.03 47.15 47.34 48.22 48.34 45.29 41.71 41.55 36.47 31.86 32.95 33.07 34.39 34.59 33.87 35.35 33.56 37.70 37.84 35.34 38.18 45.93 45.55 45.59 44.82 44.02 43.74 43.14 43.75 39.59 37.70 35.18 29.14 33.80 27.61 37.57 45.05 45.01 42.56 43.84 44.53
46.34 46.49 46.76 47.02 47.14 47.31 46.82 46.84 46.92 47.54 48.10 45.50 42.37 41.54 37.76 31.99 33.61 34.67 34.80 34.25 35.38 36.27 36.12 35.82 38.50 40.43 40.90 40.65 37.66 34.23 33.62 35.18 37.30 41.46 42.03 42.63 39.73 31.44 29.92 30.40 35.12 38.79 42.44 42.77 41.61 40.61 45.27
46.83 46.92 47.10 47.03 46.72 46.92 46.85 46.72 46.74 47.19 47.82 45.99 42.25 44.38 41.55 35.04 32.68 36.71 34.64 35.71 32.61 32.63 33.28 35.62 40.78 41.81 39.60 36.95 33.65 29.34 27.33 32.37 33.07 36.50 42.37 42.26 40.83 35.13 29.54 28.10 24.81 36.10 44.15 47.12 46.16 35.60 45.61
46.60 47.05 47.10 47.12 47.06 46.57 46.88 46.73 46.83 46.90 47.45 45.71 42.15 44.36 40.18 34.79 37.17 38.13 34.63 34.21 37.34 35.34 32.33 34.59 36.64 36.61 39.53 30.73 27.05 26.47 27.52 36.32 30.21 30.65 33.30 31.73 32.47 29.49 27.87 27.42 32.76 41.84 45.42 47.30 35.84 35.93 46.06
46.89 46.96 46.78 47.10 46.87 46.46 46.96 46.57 46.56 46.66 47.17 45.65 43.02 44.28 40.26 34.62 39.60 41.08 41.44 37.67 37.93 37.80 31.58 34.69 35.08 34.84 33.90 28.34 28.66 27.68 25.93 31.90 32.75 36.50 35.18 34.50 32.04 30.43 29.93 26.84 27.31 44.92 44.99 39.73 42.17 45.24 46.53
46.71 46.73 46.11 46.71 46.78 46.44 46.74 46.71 46.49 46.95 47.16 46.69 40.96 44.57 44.91 40.22 40.29 44.03 43.32 45.05 44.00 43.27 39.23 37.48 35.80 35.84 36.38 32.60 33.07 31.84 26.50 26.78 31.12 28.67 39.73 32.16 35.66 33.25 34.46 33.61 42.47 46.03 46.47 47.51 47.48 45.89 46.76

GFSGBSN_sfc_wetblb_075.txt.gz
Wetbulb
53.38 53.59 54.02 54.39 54.13 53.97 53.95 53.73 53.68 53.53 53.72 53.80 53.90 54.28 53.79 54.79 54.26 53.59 53.32 53.04 53.48 53.71 53.25 53.33 53.73 54.89 54.01 46.81 47.64 54.24 61.45 59.97 54.47 50.16 47.04 46.34 45.50 44.85 42.00 42.03 41.95 40.04 42.61 43.87 44.82 44.90 44.21
53.15 53.30 53.12 53.20 53.03 52.96 53.09 53.67 54.21 53.69 53.45 53.55 53.71 53.76 54.00 53.92 54.22 53.35 52.78 53.02 53.05 53.06 53.52 53.12 53.32 54.08 51.29 40.45 50.72 53.29 53.01 54.87 51.31 48.28 47.21 46.35 45.57 47.16 44.64 43.44 41.38 43.50 43.35 44.06 44.93 45.50 44.37
52.36 52.45 52.51 53.28 53.17 52.72 52.75 53.40 53.60 54.01 53.72 53.74 53.67 53.65 53.86 53.72 53.62 53.25 53.43 53.02 52.67 52.64 53.15 52.85 53.19 51.85 47.14 43.60 50.24 51.44 52.01 49.92 50.21 49.95 47.09 48.67 48.15 46.23 45.66 43.28 46.43 44.43 41.87 42.47 43.24 43.72 43.30
52.04 52.13 52.18 52.81 52.99 52.96 53.06 53.06 53.02 52.85 53.19 53.76 53.82 53.30 53.11 53.07 53.12 53.05 52.74 52.55 52.70 52.77 53.02 53.27 52.95 50.94 42.74 52.91 52.19 51.62 51.02 51.22 52.98 52.16 50.32 51.08 50.20 47.23 45.16 46.20 44.38 40.34 39.51 35.21 40.61 42.97 44.62
51.64 51.88 51.71 52.40 52.52 52.51 52.56 52.44 52.71 52.24 52.42 53.04 53.65 53.46 52.78 52.79 52.79 52.63 52.33 52.04 52.29 53.08 53.12 52.99 49.00 47.20 41.46 54.05 50.66 54.00 52.96 49.71 51.06 51.99 51.01 53.91 49.90 46.01 45.01 39.03 35.79 36.29 31.45 35.20 38.92 43.60 43.16
51.12 51.23 51.12 51.30 52.06 52.01 51.93 52.33 52.56 52.79 52.80 53.01 53.11 53.32 53.24 52.79 52.71 52.08 51.81 52.00 51.79 51.68 50.35 50.69 51.26 43.69 45.21 44.24 49.85 52.52 52.57 51.66 47.58 49.02 48.10 46.74 44.48 40.16 38.33 36.30 30.61 31.89 34.21 33.60 35.95 41.23 42.09
50.94 50.99 50.47 50.47 50.73 50.63 51.05 51.46 52.71 52.64 52.82 52.91 52.83 53.01 53.22 53.00 52.25 52.09 49.98 45.38 39.19 41.25 42.53 41.59 43.81 43.05 45.58 50.00 54.03 50.48 51.32 48.97 47.88 45.43 40.85 43.49 38.59 37.17 39.73 40.16 39.52 38.64 36.90 35.46 38.71 43.20 41.25
50.25 50.41 50.49 49.71 49.70 50.08 50.45 50.98 52.12 52.53 52.87 52.87 52.70 52.54 52.43 52.77 51.95 51.82 47.36 41.82 42.67 43.17 36.63 43.10 42.69 43.42 48.19 50.38 45.45 48.08 51.34 45.11 43.29 39.03 41.70 39.99 36.98 43.08 42.92 41.75 40.58 38.99 36.53 36.35 40.19 43.70 41.25
49.62 49.73 49.38 49.12 49.56 49.54 50.38 50.83 51.87 52.10 52.18 52.54 52.74 52.83 52.37 52.17 51.34 47.69 44.19 44.20 49.17 47.69 38.24 39.91 42.41 41.45 42.41 46.71 43.80 44.84 48.61 44.62 41.62 38.68 40.01 37.94 40.94 45.14 43.00 40.39 39.21 38.48 36.60 36.95 37.89 40.85 40.87
48.96 49.39 48.78 48.87 48.90 49.20 50.10 50.86 51.47 51.79 52.00 52.29 52.31 52.42 51.71 51.41 44.67 44.78 42.68 48.68 48.47 48.44 28.91 32.05 38.72 42.10 45.69 46.94 42.21 48.83 49.25 45.43 42.12 39.36 39.84 38.84 43.65 42.63 40.92 39.64 40.16 35.07 41.54 41.35 39.79 36.72 32.44
48.35 47.74 48.44 48.15 48.32 49.70 50.45 50.70 50.51 51.22 51.92 52.11 51.65 51.82 51.52 50.51 41.07 42.14 45.43 46.73 46.79 43.60 17.03 34.86 39.43 48.45 47.09 41.57 42.18 44.46 48.46 44.75 40.07 39.91 40.00 37.37 40.03 39.98 39.25 41.01 42.24 39.03 43.62 41.61 40.53 36.80 34.43
48.40 48.26 47.74 48.01 48.71 49.44 49.93 50.28 50.39 51.08 51.62 51.82 51.62 51.62 51.39 49.55 44.43 43.51 46.81 46.28 47.54 30.03 17.77 31.91 39.75 40.68 40.62 42.87 41.45 44.04 43.88 45.29 44.67 40.63 39.70 39.12 43.48 43.05 42.07 44.52 44.42 45.63 42.15 41.00 38.87 36.25 29.42
47.77 48.15 47.64 48.06 48.73 49.09 49.70 49.97 50.41 50.69 51.42 51.33 51.39 51.33 50.31 49.55 40.97 44.73 44.73 43.46 31.02 24.10 35.74 32.32 36.36 38.61 38.32 37.95 39.23 39.40 39.36 37.95 35.72 33.14 34.07 37.32 38.81 41.47 44.51 40.47 43.15 41.79 36.70 29.40 27.56 27.86 27.65
46.97 47.84 47.98 47.93 48.43 48.78 49.35 49.53 49.76 50.26 50.93 50.96 50.80 50.60 50.26 49.19 45.78 44.33 42.95 35.05 24.38 29.91 30.37 37.17 36.38 36.58 33.06 37.64 36.90 37.37 36.49 34.06 38.00 36.84 33.43 32.35 29.40 39.04 42.41 41.49 38.19 38.65 37.75 29.97 26.78 25.63 28.56
47.50 47.61 47.77 47.95 48.29 48.68 49.12 49.30 49.77 50.24 50.50 50.81 50.63 48.82 48.01 48.85 47.36 46.70 37.62 27.23 26.37 30.85 35.90 34.67 36.25 32.06 31.85 36.70 36.64 35.46 34.40 33.38 37.12 38.20 33.55 31.43 32.29 40.82 42.53 43.83 43.90 38.43 34.88 41.35 34.15 33.92 30.09
46.54 47.41 47.49 47.70 47.90 48.29 48.62 49.02 49.62 50.18 50.38 50.48 46.91 45.85 45.64 49.01 48.10 43.95 33.01 26.71 30.41 36.31 36.55 36.01 30.32 34.21 29.89 33.37 35.21 34.13 33.72 38.15 37.22 40.28 40.79 37.41 31.18 39.95 42.09 43.77 43.76 41.62 44.02 36.03 34.83 28.20 26.65
47.00 47.23 47.45 47.54 47.75 47.83 48.37 48.87 49.45 50.01 50.45 50.49 45.88 39.94 46.45 49.15 47.36 38.31 26.53 28.38 32.47 36.89 37.56 34.01 32.05 31.61 33.10 32.56 35.18 33.62 34.32 38.42 40.08 39.39 41.22 39.15 35.86 35.47 40.96 38.55 37.39 38.59 38.21 39.62 38.91 34.36 27.87
46.48 46.72 47.05 47.37 47.61 47.85 48.26 48.79 49.31 49.75 50.14 48.54 43.84 34.46 46.50 47.36 33.72 34.11 29.97 30.87 36.69 35.76 38.31 35.79 35.78 34.12 33.10 34.20 33.02 34.17 34.09 37.20 41.84 43.05 37.65 39.80 36.53 32.39 35.77 41.85 43.77 41.75 39.13 40.98 32.37 33.05 33.63
46.53 46.78 47.22 47.33 47.47 47.83 48.11 48.59 48.94 49.52 49.94 46.59 39.15 37.45 46.21 44.55 29.82 30.14 33.77 33.14 33.62 34.08 34.68 34.65 34.20 35.29 36.30 33.28 30.17 34.93 37.32 41.98 44.11 43.51 38.38 40.14 34.73 28.86 32.58 37.92 41.34 38.78 39.75 40.44 40.31 38.60 33.12
46.85 46.66 46.77 47.22 47.50 47.85 48.24 48.47 48.65 48.98 49.83 46.64 34.06 30.58 38.02 40.42 37.24 33.00 31.34 31.20 29.70 35.30 34.21 36.13 34.70 35.56 34.03 31.88 35.17 32.67 35.82 41.47 45.66 44.56 45.86 44.04 36.36 34.67 30.46 32.96 39.01 36.36 39.48 41.41 39.96 33.03 33.83
46.70 47.05 47.18 47.40 47.74 48.04 48.15 48.42 48.73 49.00 49.28 46.39 34.61 32.21 36.02 30.40 33.11 34.20 34.14 33.26 30.44 29.43 34.35 34.96 32.04 32.38 31.30 28.95 31.83 32.02 36.65 39.50 42.23 44.91 43.40 41.80 34.47 36.08 38.07 39.59 40.95 39.93 39.38 40.06 36.98 38.53 35.73
47.50 47.53 47.34 47.05 47.67 48.32 48.45 48.62 48.68 48.95 49.15 43.20 30.92 33.88 37.40 33.61 36.22 33.92 34.04 31.58 31.33 32.24 33.50 30.95 31.46 34.10 33.16 29.57 30.98 30.46 35.72 38.20 39.19 43.43 41.69 42.17 35.22 37.25 35.02 39.01 40.71 38.61 40.34 39.05 38.25 39.42 39.08
46.65 46.79 46.74 46.81 47.07 47.49 47.59 47.52 47.81 48.36 48.44 41.58 41.07 40.05 38.77 35.91 34.84 32.32 31.25 32.63 32.81 34.69 34.84 35.64 34.76 33.29 32.04 33.74 36.67 37.99 39.09 41.98 43.58 41.38 40.21 39.55 35.70 33.40 30.45 37.78 37.98 31.59 36.26 39.58 39.18 40.32 39.89
46.24 46.53 46.60 46.67 46.79 46.93 47.00 46.96 47.24 47.53 47.70 45.37 43.15 41.00 36.06 31.61 33.67 32.78 34.12 34.06 33.77 34.04 32.18 36.46 35.97 33.29 36.82 40.63 40.43 38.79 37.24 39.86 42.47 42.64 44.08 38.43 37.23 32.84 30.16 33.51 25.72 35.99 43.01 43.29 41.11 42.42 44.18
46.15 46.48 46.57 46.69 46.85 46.72 46.69 46.72 46.90 47.21 47.66 43.94 44.56 41.52 37.29 31.74 34.87 34.58 35.03 33.93 34.76 35.70 34.26 35.13 37.28 39.30 40.02 37.03 31.69 30.13 30.45 32.89 36.40 40.11 41.04 42.15 39.00 33.41 29.47 28.89 33.14 36.66 40.81 41.42 39.47 39.28 44.28
46.47 46.71 46.86 46.80 46.82 46.62 46.55 46.66 46.92 46.86 47.35 44.86 44.16 44.95 41.39 34.81 33.58 36.69 34.71 35.59 31.66 31.27 32.35 35.27 40.75 40.93 39.11 32.88 29.94 25.02 24.10 29.39 30.71 34.47 40.41 40.36 40.62 35.44 31.81 27.18 22.78 34.31 42.55 45.94 44.56 33.84 45.01
46.35 46.61 46.77 46.91 46.98 47.04 46.80 46.66 46.94 47.13 47.21 44.74 43.24 45.15 40.12 34.57 37.07 37.99 34.51 34.14 36.31 33.82 30.75 34.11 35.88 35.33 37.88 29.84 27.32 25.96 26.16 34.30 28.79 28.66 31.24 31.92 31.55 31.19 31.39 30.67 32.28 39.89 43.70 46.40 34.81 34.24 45.35
46.66 46.59 46.88 47.07 46.80 46.95 46.91 46.86 46.79 47.21 47.02 45.19 42.44 45.39 38.62 34.91 36.31 40.14 40.76 36.47 36.31 35.98 30.25 34.08 35.18 33.87 32.65 28.11 29.41 26.61 23.43 30.00 29.30 33.18 32.20 31.74 30.34 26.15 29.90 28.32 28.04 43.48 43.52 38.64 41.41 44.43 46.55
46.70 46.57 46.72 46.81 46.77 47.00 47.07 47.11 46.98 47.14 46.97 46.36 40.50 44.09 44.69 39.65 39.34 43.14 43.09 43.69 42.56 41.49 38.35 37.58 35.77 35.41 35.13 31.14 30.55 28.83 25.69 24.34 29.24 25.48 36.30 30.37 34.78 31.66 35.58 33.09 42.12 44.66 44.84 46.81 47.14 45.76 45.82

GFSGBSN_sfc_wetblb_078.txt.gz
Wetbulb
53.05 53.17 53.16 53.32 53.37 53.11 53.21 53.74 54.26 53.94 53.57 53.34 53.23 52.81 52.59 52.90 53.19 53.93 53.72 53.50 53.46 53.40 53.46 52.88 52.97 53.58 51.33 43.87 44.09 51.74 58.86 59.52 53.10 49.41 46.45 45.30 43.76 42.90 40.64 41.02 40.65 38.53 41.05 42.67 43.16 43.07 42.75
52.53 52.45 52.99 52.71 52.81 52.74 52.79 52.76 52.67 53.34 53.58 53.58 53.54 53.35 53.13 52.52 52.42 52.48 53.25 53.07 52.90 53.32 53.18 53.02 52.67 53.17 48.72 38.52 47.93 51.46 51.39 52.36 49.86 46.57 46.05 45.29 44.42 45.76 43.20 42.01 40.89 42.45 41.12 42.38 42.96 43.68 43.54
52.02 52.15 52.14 52.45 52.42 52.31 52.33 52.36 52.21 52.77 53.03 53.43 53.50 53.68 53.56 52.88 52.41 52.26 52.67 52.88 52.67 52.73 53.11 52.82 52.72 50.44 46.10 41.30 48.38 49.23 50.45 48.59 48.61 48.31 44.84 46.40 46.06 45.03 44.22 41.75 44.77 43.35 40.38 40.97 41.06 41.81 42.06
51.68 51.79 52.19 52.76 52.65 52.73 52.68 52.59 52.10 51.78 52.50 52.80 52.37 53.21 53.46 52.94 52.76 52.78 52.47 52.30 51.99 52.34 52.46 52.70 52.63 48.91 40.88 51.47 50.82 50.60 48.95 49.30 50.57 49.76 48.78 49.79 48.89 45.31 43.77 44.97 43.26 38.69 37.67 33.71 37.75 41.46 42.32
51.80 51.66 51.58 51.36 51.79 52.16 51.99 52.23 52.36 51.85 51.96 52.94 53.00 52.94 53.00 52.83 52.58 52.45 52.12 52.02 51.82 52.52 52.89 52.93 47.94 46.00 39.34 52.24 48.87 51.67 51.67 49.19 49.54 50.24 49.17 52.45 48.09 44.26 43.31 38.75 35.18 34.78 30.94 32.75 36.72 41.54 41.20
51.85 51.01 51.21 51.40 51.10 51.09 51.50 51.66 51.65 52.07 52.77 52.90 52.92 53.02 52.80 52.86 52.87 52.25 51.70 51.34 51.29 50.56 49.72 50.23 49.79 41.11 42.73 41.13 48.82 51.34 51.86 51.32 47.24 47.27 46.48 45.58 43.49 39.35 38.08 35.52 30.44 32.15 32.38 31.39 33.96 36.85 38.79
51.50 51.09 50.83 50.78 50.41 50.51 50.54 50.43 51.23 51.54 52.29 52.88 53.04 53.14 52.69 52.55 52.45 52.38 49.54 44.21 39.43 37.35 40.74 40.13 41.60 41.69 43.53 49.27 52.53 49.82 50.25 48.49 46.67 43.84 39.03 41.39 36.74 34.69 38.45 39.07 38.62 36.78 34.78 33.92 36.08 40.01 39.37
50.72 50.66 50.04 49.66 50.10 49.84 49.96 49.81 50.75 51.08 51.96 52.61 52.63 52.51 52.55 52.30 52.31 52.19 46.10 41.46 42.46 42.10 35.92 42.49 41.40 41.25 45.23 47.39 41.48 45.34 50.07 43.98 42.19 37.94 40.48 37.75 35.67 41.69 41.88 41.01 39.43 37.87 35.07 35.30 38.12 41.25 39.72
49.59 49.63 49.64 49.76 49.61 49.39 49.65 49.28 50.36 51.23 51.73 52.05 52.38 52.47 52.24 51.81 51.67 46.49 43.37 42.43 47.53 47.41 37.87 39.02 42.37 41.09 41.89 44.16 39.38 40.66 45.73 44.02 40.97 37.94 38.32 36.69 38.81 43.32 41.32 38.70 37.75 37.73 35.98 36.01 35.64 38.12 38.84
49.22 49.20 48.99 49.10 48.67 48.71 48.78 48.80 49.63 50.87 51.26 51.56 51.75 51.95 51.88 51.06 44.50 43.49 40.87 47.05 46.09 46.33 30.62 31.63 36.92 40.21 43.01 43.95 38.68 45.66 46.81 43.73 40.79 37.88 38.77 37.46 42.32 40.85 40.04 38.64 39.37 33.66 39.92 39.77 37.59 34.93 30.13
48.63 48.58 48.45 48.27 48.19 48.41 48.59 48.39 49.15 49.66 50.46 51.23 51.44 51.92 51.47 50.95 41.18 41.05 45.41 47.21 46.25 42.63 17.80 33.90 38.17 47.13 45.21 38.36 40.07 42.83 47.76 43.13 36.79 38.45 38.92 35.94 38.25 38.65 37.62 39.03 40.78 37.79 41.16 39.10 37.87 34.42 31.97
48.55 48.37 48.25 48.12 47.86 48.02 48.26 48.49 48.95 49.36 50.33 50.99 51.26 51.39 51.17 48.94 44.58 44.01 45.54 46.43 46.45 29.63 17.92 30.75 38.86 39.51 39.83 41.09 40.95 43.24 42.78 44.66 42.88 39.74 38.19 37.70 41.17 40.58 40.30 42.62 42.08 44.19 39.56 38.38 37.15 34.37 27.65
47.74 47.81 47.69 47.68 47.63 47.46 47.34 47.75 48.79 49.07 49.93 50.50 50.77 51.07 49.76 49.34 40.72 45.79 44.76 44.08 30.61 22.68 33.76 31.18 33.45 36.36 35.48 36.86 38.89 38.79 38.54 37.24 33.66 31.19 32.20 36.16 37.10 39.44 43.26 37.92 41.32 39.61 35.19 27.91 26.27 26.65 27.34
47.30 47.34 47.26 47.02 47.04 47.48 47.55 47.88 48.52 48.84 49.47 50.15 50.29 50.26 49.93 49.11 45.91 44.87 42.13 35.69 24.10 29.30 29.56 35.41 35.38 35.60 32.08 35.98 36.32 36.90 36.03 32.53 36.85 35.30 30.31 30.39 28.23 37.61 41.36 40.34 37.76 37.76 36.17 28.56 25.58 24.99 28.20
46.46 46.60 46.69 46.57 47.15 47.48 47.73 48.14 48.38 48.71 49.04 49.72 50.09 47.78 47.11 48.76 46.57 45.04 36.84 25.30 25.35 29.36 33.72 33.25 34.62 30.33 30.49 35.36 35.83 35.42 33.32 33.20 35.48 36.81 31.99 30.31 30.43 39.53 41.13 42.21 42.69 37.25 34.81 39.20 32.21 31.79 29.14
46.09 46.53 46.14 46.94 47.07 47.48 47.67 47.89 48.30 48.43 48.90 49.46 45.40 44.77 44.77 49.79 48.30 44.09 33.60 24.96 28.52 34.60 35.45 34.98 29.00 32.57 28.42 30.78 32.49 33.50 32.80 37.09 36.05 38.50 39.61 36.06 29.73 37.88 40.16 41.51 42.25 39.57 41.77 33.68 32.81 27.24 26.12
45.48 45.69 46.49 46.85 46.77 47.10 47.43 47.71 48.03 48.34 48.91 49.36 44.33 39.20 45.90 49.47 47.74 38.39 27.80 26.64 30.12 34.75 35.19 32.69 30.80 30.23 31.43 30.53 31.97 32.20 33.09 37.06 38.32 39.87 40.36 36.41 34.14 34.03 38.39 36.08 35.35 36.37 36.82 37.37 37.59 33.16 28.01
45.95 46.17 46.57 46.74 46.90 47.14 47.17 47.69 47.89 48.08 48.78 47.15 42.15 33.25 46.86 47.79 35.65 33.58 30.10 31.81 35.47 33.82 36.54 33.84 34.79 32.85 31.39 32.03 30.73 32.27 32.82 37.27 40.98 41.41 37.64 38.18 33.70 29.42 34.08 39.79 40.81 39.91 37.34 38.63 31.89 30.82 31.14
46.24 46.31 46.54 46.75 46.80 46.87 47.15 47.38 47.74 48.01 48.63 44.69 38.31 37.90 46.64 44.87 30.33 30.20 33.41 33.20 33.65 32.50 33.25 33.62 32.84 34.48 34.71 31.00 28.15 32.75 34.59 41.88 43.65 42.11 39.39 41.71 33.34 26.57 30.84 36.59 38.37 37.13 38.00 39.80 39.82 36.55 31.24
46.09 46.28 46.37 46.58 46.80 46.96 47.15 47.25 47.51 47.69 48.49 45.40 34.20 30.32 37.75 41.06 38.53 34.08 31.26 30.93 31.02 34.44 32.98 35.05 34.65 34.64 32.46 30.97 33.09 30.79 32.35 37.64 41.74 42.10 45.22 43.57 37.91 31.22 27.47 30.56 34.90 33.98 37.46 39.15 39.39 30.73 31.18
46.33 46.59 46.27 46.41 46.63 46.95 47.46 47.47 47.60 47.65 48.02 45.31 34.72 31.37 34.85 29.67 33.52 33.66 33.66 32.30 30.67 29.64 33.60 34.88 31.27 32.23 30.72 27.67 28.81 28.65 32.93 34.81 39.94 43.02 43.10 41.30 33.55 34.13 35.98 36.60 37.56 37.71 37.62 38.96 36.70 35.35 32.95
46.57 46.50 46.49 46.77 47.07 47.46 47.52 47.73 47.92 48.16 48.29 42.37 30.88 33.04 37.30 32.65 35.74 34.12 33.70 31.41 31.27 32.05 32.34 30.14 29.65 32.48 32.29 28.89 30.09 28.43 32.36 33.55 33.55 41.24 40.65 41.56 33.96 34.57 32.70 36.41 36.91 35.28 37.34 37.53 37.18 37.28 36.81
46.91 46.64 46.55 46.85 46.93 46.94 46.87 47.38 47.98 48.21 47.76 41.06 39.61 39.41 38.24 34.64 32.67 32.73 31.93 32.47 32.67 34.95 35.01 35.89 33.67 32.31 31.09 32.87 35.03 35.42 35.94 35.72 35.68 33.89 36.97 38.62 34.40 31.64 28.59 35.26 35.59 30.39 35.35 36.59 37.44 39.07 38.35
46.17 46.25 46.50 46.52 46.68 46.58 46.94 46.95 47.11 47.97 47.74 43.52 41.53 40.05 36.06 31.12 32.72 32.80 34.16 34.55 33.78 34.57 32.63 35.45 36.21 33.24 36.09 39.24 39.03 37.27 35.98 35.69 36.28 35.93 37.72 36.44 34.62 32.84 28.46 30.73 23.05 34.59 41.23 42.11 39.92 40.64 40.98
46.17 46.22 46.26 46.31 46.38 46.50 46.45 46.55 46.76 47.11 46.66 44.58 44.32 40.34 36.43 31.19 34.58 33.94 34.53 33.96 35.01 36.44 34.85 35.05 37.13 38.69 40.46 35.38 32.03 29.20 28.13 31.09 33.59 36.66 38.21 39.90 37.20 31.79 29.86 28.63 31.54 34.79 39.35 39.97 37.84 37.20 42.10
45.91 45.92 46.40 46.31 46.26 46.29 46.28 46.24 46.48 46.62 46.81 44.05 42.16 44.26 40.78 33.78 32.89 37.03 34.66 35.62 32.27 32.10 33.34 35.04 39.90 41.34 38.74 33.58 30.73 25.90 23.38 27.75 29.25 34.40 39.50 38.35 39.20 34.81 31.20 28.43 24.84 33.09 40.09 44.14 42.94 32.30 43.57
45.94 46.31 46.63 46.66 46.43 46.35 46.52 46.50 46.50 46.55 47.11 44.38 41.92 42.71 39.79 34.72 37.64 38.54 35.06 34.73 36.06 34.26 31.65 34.03 35.48 35.46 37.85 31.34 28.44 26.57 25.24 31.47 27.28 29.61 31.12 33.87 33.24 32.74 31.17 28.73 32.73 39.68 42.05 44.13 32.22 34.35 44.51
46.45 46.52 46.63 46.51 46.67 46.61 46.67 46.61 46.77 46.68 46.85 45.01 42.28 43.83 39.41 34.72 38.47 40.77 39.84 36.39 35.94 35.42 30.81 34.38 34.36 33.21 32.29 29.32 29.37 28.33 23.67 28.32 28.90 31.42 31.73 30.85 28.99 29.16 31.91 29.59 27.44 42.62 43.56 37.80 40.27 43.53 44.93
46.49 46.86 46.93 46.76 46.76 46.72 46.70 46.79 46.86 46.91 46.94 46.54 40.07 44.90 43.98 39.64 38.94 43.56 43.09 42.94 41.87 40.85 37.54 37.50 35.32 33.63 33.63 29.52 29.03 28.09 24.76 22.98 28.11 24.08 34.40 28.80 32.98 30.68 32.59 32.45 40.24 42.76 44.06 45.89 46.66 45.11 45.31

GFSGBSN_sfc_wetblb_081.txt.gz
Wetbulb
52.94 52.69 52.77 53.05 52.84 52.68 52.92 52.99 53.24 53.39 53.18 53.48 53.46 52.89 52.90 53.01 52.88 52.68 53.22 53.15 53.22 52.67 52.72 53.04 53.25 53.56 51.00 43.46 42.60 52.63 57.06 60.15 57.05 53.09 49.38 48.24 47.34 47.02 45.29 45.17 44.84 43.20 44.89 46.13 46.49 45.64 45.54
52.42 52.32 52.23 52.53 52.14 51.80 52.20 52.60 52.55 52.85 52.99 53.17 53.42 53.48 53.05 52.85 53.14 52.89 52.90 53.01 52.70 52.32 51.91 52.34 53.05 52.95 48.34 36.89 47.65 52.78 51.44 52.14 52.25 49.91 48.77 48.11 47.46 48.37 46.41 45.94 44.93 46.35 45.00 45.72 46.49 46.89 46.89
51.82 52.18 52.12 52.73 53.23 52.23 51.85 52.52 51.88 52.30 52.63 52.66 52.70 52.86 53.30 52.60 52.80 52.94 52.88 53.01 52.55 52.41 51.86 51.77 52.29 50.32 44.44 40.72 49.48 50.49 50.27 50.16 51.34 50.66 47.47 48.49 48.85 48.44 47.67 45.40 47.48 46.46 43.80 45.45 45.89 47.12 46.06
51.95 52.27 51.78 52.45 52.27 52.21 52.11 52.07 51.64 51.73 52.06 52.16 52.44 52.70 52.78 53.01 52.95 52.78 52.82 52.66 52.56 52.41 52.47 51.89 52.14 48.83 39.36 50.33 52.45 50.47 51.00 49.83 51.03 50.77 49.44 50.41 51.30 48.72 47.23 48.20 45.97 43.58 42.72 39.70 43.76 44.43 45.82
52.46 52.55 52.02 51.64 51.95 51.74 51.66 51.66 51.28 51.35 51.27 52.05 52.99 53.03 52.91 52.73 52.67 52.59 52.44 52.38 52.12 52.30 52.45 52.23 48.09 45.14 38.16 51.53 48.26 51.51 51.03 48.36 50.67 50.28 49.64 52.15 50.42 47.67 46.88 43.02 40.52 40.45 37.37 37.91 40.70 44.75 45.04
51.15 51.56 51.70 51.56 51.16 50.89 50.99 50.97 51.34 51.36 51.57 52.01 52.59 52.94 52.91 52.79 52.54 52.08 51.97 51.35 50.96 50.41 50.83 50.40 48.43 39.89 42.67 40.69 48.99 51.56 52.53 52.29 48.63 48.40 46.95 46.91 47.20 44.36 43.62 40.73 34.55 37.09 37.31 38.23 38.86 42.74 43.82
49.90 50.55 51.18 51.15 50.49 50.46 50.53 50.84 50.77 50.85 50.92 51.59 52.45 52.76 52.88 52.70 52.58 52.03 48.97 44.86 42.06 39.93 42.26 39.77 40.23 39.92 42.86 48.26 51.05 50.46 52.29 50.09 48.64 45.95 40.83 44.21 41.02 38.30 41.68 42.95 41.71 41.35 39.14 38.50 41.14 43.58 42.54
49.65 49.74 50.11 50.51 50.29 49.93 50.16 49.74 49.98 50.30 50.77 51.51 52.07 52.37 52.52 52.54 52.27 51.85 46.75 41.04 42.57 43.23 36.41 42.16 41.04 42.22 45.59 46.88 40.43 45.30 50.46 45.00 43.65 40.16 42.60 40.58 38.17 42.67 43.72 43.44 42.42 41.09 38.89 38.90 41.52 43.60 42.54
48.78 48.85 49.77 49.71 49.32 49.34 49.64 49.18 49.60 49.72 50.09 51.07 51.37 51.94 52.17 51.89 51.53 46.66 43.87 42.65 47.18 45.32 37.97 38.85 42.19 41.23 41.74 43.48 38.99 40.40 46.04 46.01 42.07 39.38 40.11 38.36 41.05 44.32 42.66 40.88 40.00 40.61 39.37 39.66 39.06 41.23 43.50
49.13 49.21 48.99 49.15 48.76 49.06 48.91 48.41 48.78 48.63 49.88 50.34 50.96 51.43 51.26 51.18 46.05 44.35 41.93 47.30 47.16 46.38 31.35 33.09 36.74 40.46 42.38 43.62 38.01 44.68 45.54 44.25 42.40 39.72 40.37 39.91 43.50 41.47 40.98 39.79 41.34 36.94 42.51 41.50 40.18 38.51 34.83
48.35 49.25 49.30 48.79 48.52 48.37 48.41 48.67 48.19 48.30 48.52 49.64 50.23 51.04 51.34 50.76 42.76 41.64 45.71 48.06 47.89 44.66 20.09 34.66 38.48 46.37 44.20 38.98 40.29 42.79 46.64 43.24 36.77 39.78 40.57 38.35 39.50 39.34 38.79 40.05 42.17 39.43 43.43 41.55 41.26 38.75 37.45
48.23 47.73 48.13 48.47 48.16 48.26 48.46 47.78 47.69 47.84 48.05 48.89 50.01 50.54 50.36 49.14 45.89 46.03 46.32 47.22 46.91 30.97 19.08 31.91 40.44 40.07 38.34 40.24 40.75 44.38 43.22 45.62 43.83 38.23 39.81 39.62 43.45 42.57 41.64 43.25 43.55 44.47 41.79 40.77 40.06 38.27 31.63
47.37 47.45 47.43 47.78 47.76 47.85 47.85 47.61 47.51 47.32 48.23 48.65 49.54 50.09 49.08 49.54 43.16 47.21 47.11 43.97 30.05 22.97 34.37 31.49 33.72 37.26 36.56 37.49 39.04 40.23 38.86 36.93 35.26 31.37 31.77 37.01 39.00 42.42 43.99 40.11 42.86 42.19 39.11 32.21 31.00 31.08 29.92
46.82 47.27 47.36 47.48 47.53 47.31 47.19 47.09 47.78 47.99 48.13 48.65 49.11 49.23 48.25 49.40 46.66 46.55 44.48 34.60 23.37 29.62 30.17 36.37 36.10 36.36 33.40 36.89 37.79 37.98 36.98 34.70 38.77 37.10 32.57 31.08 29.83 39.51 43.10 41.82 39.20 39.96 39.29 32.57 26.52 29.00 32.81
45.20 46.28 46.62 46.62 46.69 47.12 46.92 46.90 47.59 47.53 48.05 48.34 48.39 45.95 45.63 48.06 47.76 46.31 38.54 25.35 26.44 30.36 34.26 33.39 34.91 32.07 32.23 35.64 36.72 37.20 35.43 35.19 37.44 38.63 32.86 31.23 31.13 40.12 42.08 44.22 43.95 38.92 35.55 41.46 34.96 35.79 33.72
45.55 45.89 46.41 46.79 46.99 46.56 46.16 46.98 46.82 47.28 48.07 48.24 44.35 42.94 42.23 48.84 48.45 43.99 34.16 27.24 29.25 34.91 35.75 35.25 29.42 33.39 29.65 32.09 33.64 34.89 34.95 38.56 37.55 41.46 40.89 37.67 31.84 39.69 41.37 43.00 44.11 42.33 43.65 34.78 36.45 28.24 27.71
45.15 45.35 45.34 45.75 46.02 46.20 46.45 46.53 47.07 47.03 47.69 47.96 42.83 37.54 44.13 49.18 47.25 38.66 28.05 29.39 31.11 35.14 34.74 33.01 31.36 30.62 31.56 31.23 32.97 33.76 34.39 38.26 40.31 40.98 42.47 39.10 36.32 36.52 40.14 37.88 37.29 38.23 38.11 39.67 39.37 36.72 31.32
44.69 45.11 45.21 45.64 46.17 46.30 46.70 46.62 47.17 47.08 47.69 45.69 40.46 31.81 45.82 48.04 34.78 33.32 31.02 32.59 36.07 33.81 36.70 33.78 35.05 33.18 31.39 32.75 31.56 32.75 33.12 36.47 43.10 42.68 38.06 40.80 36.38 31.70 35.15 41.68 42.47 41.87 39.27 39.92 35.57 33.70 36.01
45.06 45.86 45.58 45.86 46.31 46.48 46.62 46.97 47.28 47.37 47.81 43.16 36.01 36.12 45.72 44.78 28.82 29.67 34.76 33.63 34.47 32.68 33.49 33.74 32.83 34.95 35.63 31.95 28.61 32.66 35.51 40.86 42.77 41.34 37.62 38.89 36.33 30.03 31.97 37.21 40.23 38.31 40.63 41.03 40.57 39.18 36.23
45.40 45.64 45.84 46.23 46.45 46.52 46.75 46.84 46.89 46.99 47.55 43.71 36.50 29.97 36.57 40.27 37.80 33.64 31.07 32.41 31.77 36.30 33.70 34.96 34.29 35.82 33.51 31.90 34.51 31.42 32.65 37.22 39.63 38.87 44.09 42.01 35.92 33.91 29.55 32.51 37.12 35.79 39.19 40.71 40.19 35.11 35.96
45.69 46.20 46.31 46.31 46.66 46.74 46.33 47.05 47.21 47.16 47.48 43.65 35.86 31.00 35.78 30.05 32.14 33.95 34.49 33.43 30.59 30.10 34.59 34.72 31.89 32.73 32.09 28.77 29.91 30.30 33.75 35.18 38.25 40.93 43.27 40.69 31.55 34.15 36.09 37.12 38.10 37.73 37.56 39.57 38.97 39.75 36.37
46.22 46.61 46.52 46.49 46.68 46.52 46.36 46.71 46.93 46.95 47.32 41.37 31.69 33.29 35.93 33.78 35.65 33.96 33.79 31.78 31.44 32.10 31.80 30.37 30.34 32.51 33.22 30.04 31.19 29.59 32.86 33.55 32.77 37.09 35.41 39.56 32.62 34.85 33.26 37.34 37.86 35.68 38.76 38.66 39.99 40.18 39.76
46.31 46.41 46.71 46.59 46.32 46.11 46.43 46.65 47.47 47.45 46.70 39.83 40.63 39.74 38.12 34.80 34.29 32.70 32.24 32.84 32.74 34.80 35.35 35.75 33.99 32.41 30.94 33.30 36.65 37.38 37.75 36.93 35.94 33.49 32.85 33.18 34.38 33.50 29.59 35.49 34.61 31.94 36.75 38.52 39.83 41.40 41.58
46.27 46.43 46.55 46.44 46.18 46.10 46.46 46.51 45.54 46.21 46.90 43.57 40.61 40.23 35.79 31.42 32.32 32.75 34.45 34.52 34.06 34.74 33.27 35.88 36.71 33.48 36.57 40.90 40.13 38.78 37.16 36.48 36.39 35.74 36.54 33.52 33.85 33.92 29.97 32.85 26.58 37.65 42.47 42.79 40.71 42.32 43.73
46.26 46.01 46.01 46.20 46.53 46.45 46.13 46.25 46.22 45.71 45.91 44.28 43.12 39.79 35.92 30.73 33.94 33.60 34.84 34.65 35.74 37.18 35.59 35.52 37.09 39.18 41.26 37.57 32.16 29.12 30.12 30.97 33.13 35.02 35.39 36.78 33.21 31.63 29.35 29.67 31.87 37.33 40.98 41.20 40.09 40.28 44.67
45.89 45.98 46.29 46.31 46.22 45.99 46.01 46.05 46.15 46.36 45.89 42.75 42.76 44.05 40.33 33.65 32.30 36.66 34.78 36.13 33.11 33.46 34.50 35.99 40.50 42.42 40.18 35.34 32.07 25.95 24.46 28.76 29.22 32.98 37.04 35.69 35.86 34.08 32.22 27.86 24.67 35.20 41.77 45.63 45.31 36.76 44.81
45.75 46.17 46.36 46.19 46.28 45.99 46.20 46.10 46.22 46.29 46.44 42.72 41.12 42.59 37.97 33.85 37.36 38.36 34.68 35.13 37.51 35.40 33.30 35.48 36.78 36.52 39.30 33.41 28.42 25.98 25.83 31.68 26.77 29.04 31.22 32.12 33.60 30.44 30.67 29.61 34.27 41.06 43.35 45.98 34.97 38.15 45.65
45.85 46.31 46.45 46.63 46.81 46.52 46.47 46.43 46.47 46.45 46.46 44.05 40.85 43.58 37.77 34.03 36.48 40.76 40.80 37.70 37.18 36.66 32.23 35.37 34.52 35.14 34.45 30.56 30.16 30.32 28.86 31.26 30.00 32.08 33.17 32.89 31.34 30.86 31.91 29.80 28.12 43.62 44.45 39.43 44.05 46.23 47.22
46.13 46.17 46.45 46.75 46.79 46.86 46.72 46.61 46.77 46.59 46.61 45.61 39.82 43.55 43.33 37.53 37.91 43.48 42.82 43.23 42.76 41.73 37.93 37.68 36.19 34.91 35.86 32.74 32.99 33.29 30.30 30.36 31.21 26.87 35.32 30.08 35.80 34.00 35.60 35.36 42.42 44.06 45.34 47.61 48.12 47.10 48.77

GFSGBSN_sfc_wetblb_084.txt.gz
Wetbulb
53.14 52.53 52.79 52.70 52.77 52.57 52.37 52.69 53.22 53.39 53.01 52.99 52.76 52.46 52.38 52.62 52.77 53.13 53.80 53.53 53.18 52.67 52.57 52.52 52.48 53.42 52.33 46.94 45.00 54.50 59.29 60.30 60.48 57.44 53.40 52.75 51.25 49.98 47.22 48.45 48.96 47.43 48.03 49.78 50.42 50.52 50.43
52.53 52.38 52.99 52.56 52.47 52.32 51.92 52.12 52.71 52.65 52.74 52.24 52.19 52.63 52.44 52.35 52.37 52.39 53.06 53.10 52.87 52.97 52.67 52.61 52.22 52.82 48.95 41.40 49.37 53.55 54.73 55.88 55.41 56.54 55.28 53.09 51.66 53.05 49.88 49.27 48.50 49.61 49.59 49.71 50.61 50.28 50.17
52.67 52.08 52.87 52.93 52.73 51.88 51.82 51.91 51.99 52.01 52.54 52.74 52.59 52.92 53.18 52.63 52.54 52.37 52.52 52.83 52.65 52.92 52.89 52.88 52.47 51.40 46.20 45.10 50.81 53.96 53.05 53.67 55.27 54.08 51.82 53.64 53.29 50.31 50.59 48.23 51.14 50.02 46.82 48.87 49.55 50.04 49.35
51.84 52.86 52.59 52.94 52.68 52.29 52.08 52.08 51.44 51.42 51.45 51.66 51.72 52.79 53.00 53.35 53.29 53.10 52.94 52.69 52.45 52.65 52.69 52.57 52.50 50.50 42.92 51.30 53.96 51.68 52.11 50.54 51.66 52.70 51.61 53.64 53.35 51.25 50.02 51.38 49.13 46.57 47.57 44.09 48.73 48.39 48.71
50.96 52.11 52.09 52.36 52.58 51.80 51.99 51.63 51.76 50.82 50.81 51.47 51.56 52.66 52.73 52.90 53.03 52.88 52.70 52.35 52.18 52.37 52.41 52.29 49.96 48.20 41.93 52.46 48.86 52.10 51.63 47.55 50.84 50.53 49.91 50.64 52.38 49.03 48.97 45.19 43.78 45.37 41.56 44.59 46.08 49.45 48.25
51.40 51.28 50.23 51.11 51.93 51.56 51.27 51.19 51.67 51.48 50.94 50.93 51.48 52.14 52.75 52.86 52.78 52.48 52.04 51.96 51.27 50.96 52.38 51.92 50.56 43.00 46.42 42.64 49.75 53.26 55.46 54.68 51.29 49.36 46.40 46.24 48.83 46.13 46.23 44.01 37.16 40.67 42.75 44.68 44.33 47.44 47.07
49.72 50.15 50.22 50.28 50.65 51.40 50.39 50.05 51.20 50.88 50.78 50.76 50.68 51.73 52.31 52.61 52.45 52.25 51.22 49.81 46.95 45.36 46.68 44.23 43.98 43.15 44.57 50.18 52.05 51.20 55.07 53.67 51.03 47.59 40.08 44.80 42.99 40.57 43.52 44.69 45.60 45.53 44.08 43.89 46.84 47.12 45.59
49.35 49.81 50.04 49.56 49.93 50.46 49.92 49.69 50.33 50.21 49.95 49.52 50.35 51.20 51.88 52.28 52.25 52.02 51.25 44.20 44.48 45.28 38.42 45.65 44.97 45.09 47.55 49.01 42.84 46.73 53.74 48.32 47.26 43.26 43.38 42.71 40.00 44.83 45.50 45.90 44.89 44.85 42.93 43.22 46.19 46.62 45.84
48.79 48.85 48.72 48.78 49.01 49.87 49.22 48.92 49.80 49.63 49.03 49.33 50.04 50.49 51.17 51.78 51.78 50.88 47.87 45.03 50.80 50.13 38.41 42.23 45.27 44.15 44.89 46.12 41.57 42.79 48.97 48.52 45.49 43.02 42.07 39.73 42.77 45.43 44.94 44.00 42.62 43.37 42.57 42.96 43.01 45.94 47.26
48.08 47.94 48.93 49.01 49.24 49.48 49.27 48.79 48.53 48.86 48.77 48.97 49.64 49.93 50.91 50.84 48.11 49.70 47.16 49.58 51.13 49.19 34.87 38.23 39.81 43.94 45.19 45.07 40.28 46.24 46.79 47.53 45.56 41.83 42.59 41.31 44.13 43.82 43.23 42.16 43.58 39.70 45.26 44.37 43.31 42.28 39.18
47.81 47.78 47.76 47.87 48.40 48.77 48.58 48.73 47.92 47.98 47.90 48.21 49.20 49.34 50.31 49.99 49.05 46.22 48.27 50.41 49.65 48.11 24.79 37.26 41.02 49.08 46.17 41.72 41.84 44.26 46.71 43.66 40.35 42.65 42.75 41.25 41.70 40.72 41.00 42.75 44.66 41.72 45.81 43.93 43.94 42.76 42.68
47.36 46.88 46.93 47.06 47.89 48.31 48.25 48.36 48.15 48.01 47.43 47.67 48.47 48.69 49.50 49.61 49.83 49.34 51.48 51.67 47.87 33.25 23.96 35.03 42.61 41.54 40.02 40.94 41.58 45.45 43.49 45.63 43.97 38.21 40.13 41.62 45.91 44.04 43.08 44.97 45.65 46.33 44.40 44.30 44.00 42.55 36.24
46.55 46.59 47.24 47.29 47.48 47.74 47.82 47.55 47.36 47.39 47.28 47.56 48.35 48.55 48.70 50.45 44.52 51.91 52.34 46.66 33.36 27.05 37.06 34.39 37.48 39.71 38.81 39.34 41.14 41.77 39.26 38.13 37.49 32.61 31.97 36.17 39.20 43.75 45.31 42.30 45.22 44.52 41.75 36.58 34.90 35.13 34.60
45.26 45.79 45.92 46.44 47.60 47.64 47.47 47.38 47.54 47.40 47.93 47.76 48.27 48.30 48.64 49.67 51.85 49.56 48.23 37.88 25.51 32.31 33.84 38.62 38.03 38.64 35.86 38.95 40.44 40.80 39.96 37.39 40.99 39.18 36.65 32.54 30.94 37.37 41.61 41.35 40.30 41.66 42.23 37.83 30.99 33.62 37.28
44.91 44.75 45.58 45.81 46.26 47.00 46.99 47.05 47.02 47.19 47.67 47.62 48.01 46.92 46.20 49.20 51.08 50.02 38.96 29.36 29.83 33.73 36.76 35.89 37.43 34.82 35.37 37.94 39.63 40.16 39.00 39.02 41.02 41.13 35.63 34.92 34.28 41.94 42.81 43.52 43.08 41.89 39.48 45.23 39.44 39.81 36.01
44.82 44.97 45.84 45.88 46.59 46.69 46.98 47.06 46.44 46.33 46.90 47.73 44.42 43.47 43.96 50.11 52.07 44.96 34.70 29.19 33.78 37.76 38.30 37.61 32.24 35.77 32.45 34.87 35.52 37.60 38.39 40.92 39.97 44.09 45.37 39.58 33.95 40.89 42.15 44.79 45.03 42.98 45.25 37.81 39.55 30.59 30.42
44.35 45.05 45.41 45.73 45.73 45.99 45.72 46.02 45.51 45.57 46.54 47.04 43.26 37.05 45.38 50.55 49.73 38.84 29.68 31.05 34.71 38.71 37.95 35.73 34.39 33.36 34.52 33.75 35.55 35.09 36.17 39.94 42.32 42.63 45.32 42.17 38.90 38.83 42.31 39.76 38.77 40.22 39.61 41.23 41.98 39.57 33.94
44.55 44.90 44.64 44.81 44.80 45.36 45.17 45.42 45.96 46.44 47.27 45.14 40.47 31.89 46.94 50.11 34.23 33.83 31.74 34.84 37.38 36.68 39.35 36.62 37.24 36.02 34.80 35.29 34.19 34.02 34.02 38.20 43.59 43.40 38.89 42.82 40.52 34.62 37.82 43.90 44.91 43.77 41.89 42.05 36.77 35.98 39.49
44.38 44.49 44.66 44.90 45.36 45.82 46.18 46.06 46.37 46.67 46.76 44.82 36.27 35.95 46.71 46.03 30.55 30.53 34.51 35.32 37.61 35.79 36.38 36.32 34.80 36.71 37.93 34.87 31.65 35.49 36.70 41.85 42.79 41.48 39.23 41.36 37.70 33.79 35.22 40.09 43.26 40.27 42.18 42.74 42.79 42.13 38.23
44.96 45.25 45.41 45.63 45.72 46.31 46.63 46.78 46.84 46.96 47.25 45.18 36.68 30.87 38.33 40.29 38.65 35.17 33.29 32.07 34.11 38.08 36.89 38.04 36.63 38.13 36.31 34.61 37.42 33.99 35.35 39.18 42.03 41.38 43.14 42.20 37.20 34.25 31.99 35.45 40.09 37.63 40.22 42.32 41.86 37.39 37.44
45.54 45.57 45.80 45.96 46.22 46.34 46.43 46.76 46.85 46.98 46.98 43.82 36.30 32.25 37.49 31.34 32.52 33.18 35.82 34.68 32.07 32.22 36.80 38.10 35.00 35.90 34.82 32.17 34.17 34.16 37.21 38.40 40.55 41.88 42.35 41.17 33.84 36.10 36.99 38.76 39.38 39.12 39.67 40.95 40.07 41.49 38.80
46.06 45.91 45.99 46.22 46.35 46.42 46.42 46.54 46.88 46.63 47.26 40.71 32.36 33.63 38.00 35.87 37.03 33.65 33.64 32.45 33.11 34.77 35.23 33.92 33.81 36.01 36.83 33.90 35.17 32.87 35.49 36.75 35.43 38.94 37.74 39.23 34.45 36.36 34.28 38.58 39.34 38.03 40.14 41.43 42.06 42.05 42.48
45.87 46.22 46.35 46.35 46.32 46.54 46.69 46.98 46.95 46.86 46.62 39.56 39.59 40.84 38.47 35.08 35.27 32.90 33.06 35.10 35.05 37.31 37.62 38.91 37.64 36.26 34.91 36.83 39.31 40.09 40.00 39.52 38.95 36.92 36.44 35.56 34.94 32.02 30.13 37.45 37.13 33.73 39.31 41.33 42.60 44.04 43.26
46.29 46.39 46.57 46.52 46.58 46.31 46.68 46.39 45.95 46.70 46.69 42.96 41.28 40.39 34.92 30.81 34.05 33.67 34.86 35.96 35.33 36.48 35.42 38.43 39.37 36.88 38.86 42.59 42.26 41.45 40.72 39.64 39.71 39.35 40.15 34.48 35.00 34.45 30.42 33.89 26.30 38.34 42.72 44.59 43.54 44.77 45.85
46.22 46.48 46.36 46.36 46.38 46.26 46.36 46.29 46.45 46.38 45.88 43.88 43.37 40.70 36.78 32.21 34.44 35.35 35.57 35.80 37.65 38.68 36.77 37.13 40.00 41.28 43.05 38.69 35.08 32.43 33.55 33.91 35.74 38.35 38.72 39.50 35.87 31.68 28.42 31.41 35.40 35.81 37.62 40.41 41.84 42.66 47.29
46.00 46.22 46.31 46.28 46.17 46.03 46.19 46.17 46.35 46.40 45.94 43.60 43.49 44.81 41.07 36.14 34.77 38.23 36.56 36.86 34.93 35.18 35.99 37.36 41.03 43.07 40.70 36.26 33.73 27.89 27.23 30.98 31.08 34.87 40.25 38.83 38.44 34.35 31.70 28.44 26.52 36.12 40.88 45.01 45.54 38.66 48.15
45.60 45.88 46.17 46.12 46.23 46.12 46.16 46.21 46.15 46.29 46.36 44.13 40.40 44.12 40.57 35.26 39.13 39.69 36.01 36.59 39.56 37.72 35.29 36.71 38.04 37.14 39.81 33.90 31.12 29.40 29.15 33.82 29.12 30.04 30.30 32.77 32.31 30.07 30.56 29.37 35.12 42.78 44.77 46.35 34.95 37.71 47.48
45.21 45.70 45.98 46.10 46.30 46.26 46.40 46.24 46.33 46.49 46.36 44.44 41.22 44.15 38.66 36.39 39.79 42.09 42.27 39.28 39.55 39.39 34.70 38.23 36.26 35.42 33.75 32.54 32.31 31.87 30.68 33.37 32.50 34.89 35.16 31.36 30.57 30.81 31.12 30.38 28.61 45.14 44.44 38.67 42.61 48.60 49.13
45.73 45.89 46.21 46.28 46.24 46.56 46.49 46.88 46.40 46.58 46.52 45.95 40.26 44.96 43.25 37.75 38.33 43.36 42.88 45.42 45.43 44.60 40.63 40.27 37.67 37.28 38.28 35.03 35.90 36.25 33.00 35.92 33.86 30.23 38.38 31.76 37.53 34.74 36.87 36.47 43.42 44.21 44.25 47.36 47.86 46.88 47.46

GFSGBSN_sfc_wetblb_087.txt.gz
Wetbulb
52.80 53.33 53.07 53.18 52.90 52.79 53.00 52.19 53.24 53.15 52.93 52.67 52.88 52.63 52.12 52.52 52.54 52.60 53.30 53.40 52.78 52.52 52.40 53.04 53.46 53.06 52.60 48.83 49.31 55.93 57.77 60.93 60.13 59.02 55.38 53.83 52.70 52.06 49.74 50.57 51.15 49.73 50.36 51.13 51.39 51.65 51.16
53.18 53.30 52.92 52.52 52.67 52.16 52.16 52.74 52.32 52.75 52.59 52.81 52.78 52.80 52.63 52.45 52.75 53.02 53.38 53.42 53.19 52.78 52.47 52.57 53.15 52.50 49.66 43.42 52.61 52.06 53.59 54.10 54.91 57.65 55.76 55.20 53.62 54.27 51.58 50.78 50.06 51.43 50.43 50.61 51.71 51.54 52.05
51.98 52.66 53.36 53.59 53.54 52.27 51.64 51.76 51.81 52.28 52.21 52.40 52.52 52.54 52.74 52.43 52.87 53.38 53.34 53.54 53.25 53.09 52.61 52.56 52.75 52.46 47.13 46.03 52.89 53.49 54.37 52.45 55.48 54.61 54.08 57.22 56.21 52.94 52.92 50.32 52.45 51.01 48.21 50.03 50.60 51.49 50.90
52.49 52.09 51.99 53.31 53.29 53.15 52.60 51.61 51.13 51.12 51.40 51.37 51.29 52.01 52.63 52.86 53.13 53.28 53.44 53.14 53.01 53.07 53.01 52.44 53.05 52.22 44.72 52.81 54.02 52.57 53.39 51.48 54.04 55.92 54.86 56.16 56.04 53.66 52.21 53.03 50.75 47.77 48.66 44.44 50.04 51.86 52.09
51.66 51.83 52.16 51.86 52.38 52.35 52.50 52.36 51.61 51.21 50.93 51.19 50.84 51.28 52.17 52.55 52.87 52.70 52.65 52.69 52.62 53.19 52.79 52.84 51.72 49.82 44.24 53.26 49.46 51.80 52.35 48.97 50.01 50.95 51.96 50.97 51.21 50.51 51.08 47.30 45.35 46.74 41.95 44.50 47.10 52.43 50.41
50.15 50.74 50.81 51.28 51.45 51.62 51.89 51.69 51.72 51.25 50.67 50.74 50.55 51.11 51.88 52.41 52.44 52.36 52.18 52.00 52.56 51.24 52.53 53.93 52.83 45.78 49.22 44.67 49.27 53.49 57.22 50.62 48.27 50.11 47.83 46.40 45.33 44.63 44.83 44.37 38.95 41.08 42.44 44.40 45.16 50.31 50.95
49.86 50.29 49.80 50.31 50.71 50.78 50.69 51.37 51.20 51.24 49.97 49.91 49.93 50.07 51.10 52.12 52.31 52.28 51.39 52.43 48.39 48.55 49.93 46.63 47.21 46.86 46.94 49.81 52.12 49.36 56.45 54.57 54.18 51.12 43.31 44.97 40.11 40.23 43.61 44.57 45.02 45.22 44.57 44.85 48.08 51.11 48.26
49.07 49.39 50.33 49.78 49.93 49.94 50.03 50.63 50.64 50.83 49.63 49.49 49.42 49.79 50.48 51.13 51.71 51.99 52.21 48.04 47.21 47.20 40.98 47.55 47.14 47.06 49.25 50.12 44.63 48.14 53.59 49.40 49.00 45.11 47.39 43.78 38.92 44.57 46.98 45.65 44.55 44.18 43.50 43.87 46.94 49.65 48.73
49.25 49.60 48.84 48.94 49.62 49.31 49.39 49.87 50.32 49.86 49.06 49.08 48.93 49.40 50.19 50.60 51.35 50.70 50.90 48.32 52.41 51.29 42.06 43.88 47.35 47.09 47.82 48.73 44.30 45.35 49.27 50.23 47.41 44.94 44.69 42.85 44.65 46.53 44.79 43.22 41.79 42.95 43.25 43.99 43.96 48.09 49.22
47.86 47.94 47.69 47.68 48.99 49.32 49.42 49.72 49.53 49.12 49.79 49.12 48.78 48.82 49.93 50.08 47.32 51.26 49.17 51.33 53.21 52.00 37.45 40.14 42.77 45.38 47.06 46.89 42.88 49.07 48.93 48.13 46.18 43.02 43.51 44.42 46.83 45.35 44.35 42.87 43.42 40.11 46.55 45.11 44.23 44.19 40.47
46.98 47.16 47.42 47.36 48.17 48.21 48.54 48.69 48.88 48.78 48.41 48.34 48.17 48.44 49.09 49.08 47.46 47.65 48.89 53.27 52.99 48.85 26.88 41.33 42.37 51.14 48.74 44.05 44.69 45.57 50.11 45.64 41.84 42.90 43.48 42.17 43.62 43.25 41.94 43.35 44.33 42.75 46.63 44.82 45.11 43.90 43.09
46.52 46.44 46.95 46.91 47.51 47.95 48.10 48.61 48.74 48.23 48.39 47.88 47.71 47.76 48.46 48.51 49.83 50.81 52.21 53.39 50.43 34.32 26.13 37.36 43.93 42.96 42.85 44.49 43.56 46.99 44.51 46.16 45.01 40.93 43.65 43.99 48.36 45.72 44.96 45.66 46.08 46.83 44.49 44.66 44.82 43.22 37.09
46.12 46.60 46.55 46.63 46.84 47.43 47.76 48.22 48.11 47.91 47.71 47.58 47.66 47.69 47.29 48.39 45.83 53.45 53.61 48.71 33.94 28.50 38.85 36.80 39.89 43.05 41.87 42.09 42.91 44.00 40.90 39.63 38.28 32.94 34.27 39.10 40.84 45.69 46.43 42.37 45.66 43.64 41.40 36.03 35.40 35.96 35.69
46.02 45.79 45.65 45.77 46.00 46.36 47.50 47.83 48.03 47.75 47.48 47.43 47.97 47.78 48.29 49.13 50.74 52.75 50.20 38.64 26.43 34.73 36.62 40.98 39.88 41.49 38.42 41.09 42.38 42.90 41.99 40.07 43.28 41.14 38.14 33.80 32.80 38.93 44.72 43.17 41.80 42.09 41.14 35.66 30.81 34.76 38.80
45.16 45.43 45.56 45.53 45.49 45.80 46.46 47.61 47.27 47.60 47.21 47.10 47.13 47.06 46.79 49.74 52.32 51.76 41.22 29.01 31.60 35.35 39.19 37.64 39.61 37.16 37.67 40.25 40.85 41.73 41.68 41.85 42.85 43.99 37.75 37.02 36.74 43.33 41.36 42.80 43.25 41.97 39.11 43.76 39.45 41.67 37.66
45.26 45.20 44.98 45.56 45.40 45.80 46.42 46.88 46.76 47.16 46.65 46.39 44.81 43.91 44.37 51.23 52.24 46.87 34.69 29.84 35.53 40.03 40.35 39.54 35.22 38.32 36.28 38.13 38.33 39.16 40.55 42.78 41.78 45.31 46.72 41.62 35.90 42.22 42.29 44.16 42.63 40.25 43.25 37.00 39.51 31.75 31.31
44.23 44.47 44.71 45.01 45.53 45.90 46.06 46.40 46.58 46.45 45.83 45.57 43.03 36.91 45.86 51.41 50.75 39.28 30.15 32.85 36.32 40.70 40.56 37.40 37.20 36.06 37.33 36.14 37.55 36.89 37.76 42.25 43.75 43.42 46.97 44.32 40.43 39.56 42.53 40.33 39.72 39.47 38.92 40.93 41.02 39.43 33.71
44.06 44.28 44.87 44.93 45.55 45.36 45.77 45.86 46.02 46.09 46.50 44.25 40.83 32.59 47.69 51.15 35.80 36.64 30.58 35.86 38.13 39.36 41.48 39.20 38.83 38.26 37.12 37.09 36.04 36.06 36.18 39.79 44.25 44.18 40.41 44.42 41.91 36.37 38.67 44.32 45.80 44.40 42.14 41.62 36.26 36.21 40.03
44.52 44.93 45.20 45.09 45.03 45.44 45.90 45.93 46.01 46.62 46.69 44.08 36.04 37.78 47.47 47.88 31.30 32.18 36.25 34.24 37.81 36.76 37.90 37.58 36.87 38.43 39.18 36.60 33.31 37.24 38.46 42.83 43.21 41.83 39.75 41.45 38.96 33.98 36.47 40.61 43.67 41.43 42.99 43.67 43.27 42.33 38.22
44.45 44.82 44.99 44.96 45.27 45.79 46.11 46.62 46.71 46.19 46.50 45.16 37.73 32.39 39.09 41.70 40.54 35.35 33.80 33.95 33.60 39.58 38.41 39.40 38.43 39.56 37.50 35.85 38.73 36.01 37.30 40.75 42.84 42.37 41.96 41.87 37.69 35.38 31.85 35.59 41.25 38.93 41.02 42.72 42.07 38.32 38.45
45.40 45.68 45.61 45.83 45.97 46.02 46.16 46.47 46.78 46.91 46.65 45.03 37.22 33.69 38.63 31.93 34.87 36.13 36.21 34.86 33.76 33.44 38.33 39.80 36.53 37.42 36.46 33.08 35.18 35.54 38.80 39.52 42.07 43.72 42.18 40.75 33.83 36.72 37.84 39.01 39.42 40.21 40.13 41.27 40.09 41.10 37.99
46.07 46.08 45.98 46.05 46.22 46.05 46.36 46.50 46.57 46.69 46.64 41.39 32.56 33.00 38.17 36.59 37.53 35.56 35.07 33.64 33.25 34.53 36.45 35.31 35.56 37.66 37.80 34.93 36.17 33.80 36.93 38.26 37.31 41.29 40.21 41.30 35.23 37.52 35.57 38.94 39.44 37.43 40.42 41.24 41.82 42.02 42.18
45.77 45.96 46.24 46.12 45.82 45.93 46.20 46.65 47.01 46.93 45.86 39.09 40.67 42.08 38.87 35.66 35.70 34.02 34.32 35.28 35.15 37.85 38.64 39.55 38.59 37.49 36.28 38.19 40.91 42.25 41.97 41.84 40.96 38.41 37.84 37.67 35.77 33.53 30.55 37.25 38.30 34.34 38.97 40.77 42.26 44.33 43.73
45.98 46.17 46.59 46.63 46.52 46.50 46.59 46.77 46.93 46.97 46.31 41.81 40.36 40.65 35.17 31.80 34.15 34.93 36.23 37.05 36.41 37.89 36.57 39.47 41.14 38.41 40.99 45.00 44.19 43.48 42.12 40.79 40.46 39.91 40.11 36.35 35.33 34.00 31.13 33.37 24.58 38.05 45.15 43.28 41.73 43.23 46.76
46.47 46.52 46.43 46.90 46.90 46.92 47.04 46.78 46.63 46.80 47.04 43.13 43.14 40.43 37.08 32.53 35.72 35.42 36.55 36.99 38.47 39.80 38.44 39.45 41.88 42.57 44.77 41.46 35.23 33.01 34.27 34.81 37.59 40.40 39.90 39.31 36.12 32.34 29.41 30.19 34.59 37.75 42.06 40.28 38.84 38.45 47.42
46.03 46.21 46.61 46.50 46.42 46.45 46.47 46.38 46.49 46.61 46.52 45.08 43.03 44.53 41.90 35.81 35.10 38.90 36.30 37.92 35.78 35.86 37.71 39.88 43.62 44.50 43.04 37.33 35.07 28.77 28.84 33.37 33.07 36.41 41.57 40.34 39.25 34.05 32.44 27.34 26.65 38.53 43.71 46.26 45.40 37.54 45.17
45.68 45.72 46.00 46.14 46.16 46.00 45.91 46.19 46.37 46.45 46.57 46.07 42.57 44.42 41.47 36.44 40.67 40.85 36.95 36.89 40.77 38.96 37.22 39.51 38.79 38.08 41.57 35.30 31.75 30.39 31.02 36.43 30.87 31.75 33.67 34.88 34.61 30.65 31.29 29.40 34.41 42.98 46.11 47.51 34.56 36.90 44.42
46.62 45.74 45.67 45.63 45.89 46.17 46.05 46.12 46.33 46.36 46.40 46.70 42.66 45.26 39.77 36.51 41.30 43.60 43.59 39.44 40.61 40.45 35.97 39.57 37.20 36.68 34.60 32.59 32.69 33.48 33.35 35.76 34.33 36.70 35.41 33.47 31.59 31.27 32.47 29.55 27.76 45.34 45.09 39.21 41.98 46.14 45.93
46.92 46.81 46.24 45.91 46.16 46.17 46.35 46.44 46.51 46.49 46.49 46.30 41.20 45.57 43.90 37.74 38.97 45.95 47.07 47.76 46.81 44.77 41.41 40.45 38.51 37.89 39.35 36.63 37.37 37.65 34.90 37.41 35.07 30.54 41.15 33.27 36.96 35.70 35.75 36.04 43.24 45.96 45.89 46.00 46.12 45.34 46.73

GFSGBSN_sfc_wetblb_090.txt.gz
Wetbulb
54.04 53.41 53.13 53.03 52.92 53.18 52.86 52.80 53.16 53.30 53.05 52.73 52.48 52.12 51.89 52.19 52.47 52.96 53.83 53.78 53.33 53.13 52.92 53.07 52.88 53.10 50.54 46.82 47.63 54.63 61.13 60.96 58.02 56.77 54.62 53.44 51.62 51.34 48.77 50.78 51.44 49.39 50.16 51.34 51.94 51.72 51.13
53.04 52.78 53.24 53.55 52.98 52.64 52.50 52.15 51.96 52.28 52.66 52.63 52.64 52.64 51.90 51.78 51.99 52.58 53.56 53.78 53.76 53.72 53.25 53.11 53.10 52.55 47.71 39.46 51.83 53.83 52.17 52.63 53.27 55.49 55.53 54.69 52.20 53.21 51.08 50.19 49.83 51.52 50.93 50.77 51.54 50.95 51.09
52.67 52.82 53.07 53.31 53.03 53.28 52.91 52.83 51.88 51.58 51.55 51.72 52.15 52.20 51.66 51.24 51.83 52.57 53.02 53.33 53.42 53.35 53.35 53.40 53.22 50.96 45.46 43.35 51.66 52.46 52.86 52.55 52.38 53.18 51.91 55.47 55.35 52.98 52.84 49.90 52.75 51.54 48.27 49.60 50.09 50.29 49.82
51.72 51.70 52.11 52.90 52.93 52.42 52.69 52.88 51.98 51.39 51.65 51.62 51.51 51.78 51.61 51.79 52.30 52.92 52.82 52.65 52.61 52.90 53.27 53.33 53.19 50.06 42.53 52.06 53.31 51.90 52.07 50.93 52.17 52.94 54.40 54.42 55.63 53.77 52.09 52.97 50.46 47.99 47.97 43.40 48.56 49.83 50.98
51.22 51.00 51.04 51.48 52.01 52.19 52.18 52.35 51.93 51.62 51.41 50.94 50.81 51.40 51.46 51.86 52.05 52.37 52.25 52.29 52.32 52.81 53.40 53.94 50.24 48.33 42.93 54.80 49.90 52.35 52.15 48.33 50.56 50.84 52.22 54.02 51.91 49.99 50.44 46.01 43.90 45.71 41.28 43.60 46.00 50.51 50.29
50.55 50.62 50.45 50.67 51.44 51.06 51.91 51.92 52.44 51.90 51.51 50.49 50.14 50.39 51.04 51.38 51.89 51.86 51.67 51.57 51.83 52.61 52.90 53.67 51.32 46.17 48.96 46.96 48.91 51.25 55.17 54.71 48.76 48.02 46.89 46.68 45.29 42.04 43.16 42.87 37.34 40.39 41.84 43.98 43.73 47.91 49.18
49.80 49.63 49.91 50.20 50.74 50.60 51.03 50.93 51.26 51.58 51.13 50.32 49.88 49.89 49.97 50.98 51.49 51.42 50.27 49.62 48.40 46.81 49.43 46.17 47.30 45.91 48.42 50.57 52.04 49.88 51.31 53.00 48.39 45.63 41.12 44.03 39.33 36.86 40.03 43.25 43.76 43.99 42.78 42.60 45.52 49.19 47.97
48.94 49.25 49.62 49.96 50.21 50.18 49.90 49.96 50.57 51.01 50.43 50.03 49.59 49.20 49.40 50.28 50.57 51.29 49.62 46.46 47.68 47.50 40.23 47.00 47.06 47.46 49.78 50.14 44.84 48.00 50.93 49.11 48.51 44.27 46.85 43.04 37.71 41.70 42.46 43.42 43.57 43.05 41.32 41.14 44.74 47.92 46.88
48.39 48.90 48.99 49.30 49.18 48.99 49.56 49.81 50.19 50.42 50.00 49.67 49.12 48.88 48.95 49.63 50.36 48.47 47.63 49.34 51.77 51.64 40.81 42.80 46.09 45.37 46.06 47.78 43.63 44.54 48.29 46.15 45.30 44.02 44.24 41.98 43.81 44.75 42.79 40.75 40.71 42.90 41.43 41.48 41.25 45.85 47.65
48.10 47.71 47.66 47.79 48.40 47.99 48.88 48.93 49.07 49.66 49.42 49.70 49.42 48.55 48.53 48.86 45.62 49.22 48.16 51.28 53.08 52.23 35.20 38.66 43.07 45.58 47.89 48.03 43.33 49.67 49.79 46.24 43.96 42.24 44.63 44.14 46.40 44.42 44.13 42.31 41.74 39.33 44.91 43.74 42.30 40.60 37.07
46.88 47.31 47.41 47.42 47.48 47.72 48.27 48.09 48.53 48.90 48.81 48.81 49.31 48.06 47.98 47.79 45.34 45.45 48.26 51.76 52.34 48.93 23.24 42.69 42.86 50.62 48.76 43.76 45.33 45.66 49.88 46.12 41.17 43.46 43.61 41.08 42.62 42.07 41.64 42.37 44.98 41.52 45.64 43.48 42.68 40.30 40.68
46.31 46.51 46.76 46.92 47.18 47.43 47.72 47.94 48.15 48.54 48.49 48.09 48.14 47.75 47.89 46.19 46.30 48.04 50.79 52.14 48.85 32.50 23.44 37.47 44.04 42.21 42.70 44.13 43.92 47.41 46.58 47.92 45.63 40.91 42.24 42.58 46.76 45.16 44.35 45.62 45.69 46.69 43.78 43.33 42.93 40.32 32.96
45.44 45.66 46.24 46.59 46.58 46.59 46.76 47.22 47.93 47.99 48.28 47.97 47.97 47.57 46.62 46.89 43.05 52.56 53.09 47.40 32.24 25.91 38.75 36.54 39.24 42.39 42.06 41.94 42.16 42.81 42.22 39.85 37.16 33.15 33.86 38.38 40.32 44.18 46.48 42.19 44.98 43.98 40.72 33.26 30.47 30.90 31.36
45.53 43.74 45.22 45.88 46.11 46.07 46.19 46.53 47.28 47.99 47.66 47.72 48.05 47.87 47.07 46.76 48.53 50.07 48.52 37.63 26.32 34.47 35.66 40.71 40.64 42.09 39.41 41.34 42.53 42.09 41.37 38.32 41.00 39.62 36.46 34.57 31.85 40.42 44.78 42.61 40.71 41.08 40.31 34.09 26.21 29.79 33.46
45.15 45.31 45.56 45.92 45.85 45.91 45.86 46.18 46.67 47.22 47.62 47.29 46.95 45.32 44.89 47.44 50.66 50.02 40.46 27.17 29.16 34.40 38.64 37.85 39.50 36.53 37.90 40.33 40.60 41.75 40.94 40.78 42.62 42.72 36.83 36.44 36.09 43.13 42.45 43.25 43.96 41.01 37.20 42.72 36.72 37.65 33.66
45.19 45.22 45.14 45.06 45.27 45.25 45.84 46.01 46.32 45.91 46.66 46.40 42.88 42.67 43.17 50.79 52.31 46.38 34.29 28.45 33.31 38.64 38.88 39.13 33.69 38.16 34.68 37.83 38.01 39.85 39.69 43.30 42.55 44.88 46.47 40.92 35.02 42.70 42.25 42.06 42.82 41.62 44.65 35.87 37.45 28.09 27.16
44.68 44.58 44.55 44.54 44.88 45.11 45.62 46.05 46.41 46.67 46.58 45.81 41.42 37.06 44.45 50.05 50.51 39.73 28.53 30.58 35.28 39.55 40.04 36.71 36.63 34.26 37.38 35.49 38.62 38.87 39.12 39.95 44.25 43.85 45.47 44.42 40.22 38.58 42.45 37.85 37.15 37.50 36.16 37.56 37.71 36.90 31.01
44.09 44.41 44.81 44.85 45.00 45.20 45.16 45.77 46.10 46.23 46.29 43.09 39.94 32.32 46.75 50.16 35.69 36.96 31.95 34.32 37.75 37.46 40.06 36.81 38.68 37.53 35.55 36.48 36.27 37.01 36.77 40.79 44.55 43.95 39.53 42.57 40.33 35.09 37.93 43.52 44.45 42.60 38.24 37.86 32.44 33.44 38.07
44.41 44.72 44.91 45.26 45.30 45.51 45.36 45.54 45.87 45.92 46.06 42.48 35.97 36.45 46.73 47.45 30.47 31.21 35.10 34.67 36.70 35.79 36.91 36.74 36.15 38.33 38.55 35.53 32.99 36.79 38.36 43.47 43.43 41.85 38.25 39.44 37.33 31.88 34.92 39.75 42.97 40.67 42.22 41.71 40.80 39.75 35.33
44.47 44.55 44.64 44.81 44.87 45.05 45.31 45.43 45.71 45.91 46.03 43.85 37.27 31.23 37.30 41.42 39.53 34.81 33.01 32.80 32.71 38.19 37.01 37.75 37.73 39.86 37.24 35.15 37.67 35.37 37.44 41.35 43.43 42.24 42.08 41.42 36.33 33.57 29.65 33.70 38.38 36.46 40.51 41.70 41.00 35.98 36.83
44.95 45.28 45.51 45.19 45.21 45.22 45.36 45.68 45.65 46.07 46.00 44.03 37.69 33.46 37.12 31.55 34.02 34.58 35.40 34.52 32.43 32.68 37.62 38.60 36.17 36.87 36.26 32.51 34.32 34.35 37.83 39.37 41.62 42.59 41.94 39.93 32.61 35.27 36.18 37.18 37.73 37.11 37.55 40.09 39.44 40.14 36.46
45.58 45.77 45.98 45.90 46.09 46.01 45.90 46.37 46.46 46.23 46.27 40.04 32.89 33.05 36.55 34.37 36.01 34.79 34.36 32.90 32.73 34.02 35.26 34.50 34.27 37.32 37.55 33.94 35.75 34.12 37.07 38.04 37.47 40.74 40.00 41.35 34.44 36.49 34.16 37.73 37.95 36.00 37.77 38.67 39.72 40.42 40.26
45.49 45.91 46.14 46.21 46.10 46.39 46.22 46.71 46.66 46.52 45.18 38.70 40.05 40.10 36.59 33.45 33.70 32.82 33.20 34.43 34.56 36.35 37.19 37.41 37.15 36.98 35.98 38.26 40.92 41.79 41.23 41.32 40.57 38.27 37.29 37.11 35.57 33.59 29.18 35.87 35.73 31.62 37.28 38.29 38.81 41.35 41.23
45.70 45.91 46.57 46.68 46.49 46.74 46.58 46.44 46.46 46.65 45.39 41.79 41.18 38.63 33.82 29.04 32.23 32.30 34.63 36.11 35.60 36.94 35.05 38.35 38.26 36.94 40.76 45.17 44.63 43.11 41.69 40.66 40.28 39.67 40.65 35.89 35.01 34.41 29.88 32.45 23.55 36.40 42.28 44.03 41.49 42.95 44.22
46.54 46.63 46.70 46.73 46.96 46.94 46.93 46.79 46.53 46.58 46.69 42.05 42.46 39.09 36.34 30.34 32.53 33.81 35.09 36.02 37.86 38.66 37.57 38.07 40.45 42.47 45.09 42.08 36.15 32.68 33.34 34.68 36.49 39.26 38.98 39.82 35.68 31.37 28.18 28.60 32.98 36.48 39.69 40.72 39.76 39.30 43.80
46.32 46.46 46.35 46.47 46.31 46.68 46.74 46.90 46.66 46.69 46.59 44.58 41.30 43.05 39.93 33.58 31.30 36.00 35.04 36.74 34.20 35.49 36.61 39.04 43.33 45.17 43.84 36.97 33.75 27.19 26.67 31.68 32.34 35.43 40.34 39.48 38.68 33.51 31.49 25.88 24.14 37.47 42.91 46.37 45.06 35.69 44.49
46.12 46.56 46.80 46.39 46.17 46.28 46.51 46.46 46.60 46.79 46.55 45.15 42.77 43.64 39.47 33.88 37.70 38.41 35.28 35.42 39.67 37.95 35.80 38.62 39.38 39.41 42.21 35.26 30.51 28.70 28.69 36.00 30.59 31.77 32.34 33.59 33.93 30.37 30.60 28.07 32.89 41.25 42.87 44.02 34.18 35.46 44.51
46.10 46.62 46.87 46.90 46.07 45.93 46.31 46.33 46.26 46.40 46.52 45.87 42.99 44.34 39.17 33.88 37.99 40.82 41.69 38.99 39.98 39.45 35.48 38.59 37.30 36.52 34.80 32.03 31.46 31.64 31.95 34.21 34.38 36.34 34.46 32.09 31.12 30.49 32.00 28.51 25.95 44.87 43.83 37.72 41.27 45.45 45.47
46.40 46.72 46.87 47.15 46.49 45.98 45.98 46.14 46.30 46.37 46.35 46.40 40.98 44.77 45.31 36.95 37.31 42.36 44.86 46.46 44.89 43.77 40.66 40.31 39.25 37.63 38.69 34.66 35.89 36.61 33.90 37.35 35.09 29.89 40.06 32.63 36.71 34.45 34.48 34.50 43.31 42.49 43.46 44.78 45.30 43.49 43.19

GFSGBSN_sfc_wetblb_096.txt.gz
Wetbulb
52.64 52.72 52.90 53.56 53.57 53.58 53.38 53.69 54.24 53.87 53.39 53.31 53.19 52.55 51.93 51.79 51.61 51.41 52.17 52.51 52.16 52.18 52.56 52.63 52.84 53.40 48.95 40.67 41.36 50.42 61.33 61.16 59.08 56.48 51.27 48.94 45.08 42.67 40.15 42.24 44.13 43.23 45.81 47.76 48.41 47.80 46.96
52.16 52.14 52.17 52.47 52.26 52.75 53.43 53.12 53.78 53.93 53.46 53.24 53.03 53.22 52.56 51.66 51.36 51.12 51.85 51.87 52.05 52.14 52.10 52.18 52.43 52.98 44.69 34.87 46.54 48.75 48.06 48.07 54.09 53.11 51.89 50.82 48.48 47.50 45.24 44.63 43.53 47.09 46.80 46.59 47.40 47.55 47.16
51.52 51.85 51.80 51.94 52.04 51.73 51.84 52.40 52.69 52.93 53.55 53.08 52.87 52.89 52.80 51.67 51.15 51.06 51.18 51.53 51.74 51.99 51.70 52.06 52.34 50.64 43.56 39.24 45.80 46.51 47.20 46.38 47.52 47.58 45.67 48.86 50.91 48.19 47.68 44.32 48.12 46.68 42.72 44.99 45.30 45.54 45.05
51.44 51.10 51.21 51.03 51.13 51.79 51.89 52.10 51.77 51.85 52.48 52.87 52.81 52.47 52.24 52.03 51.43 51.51 51.35 51.34 51.24 51.57 51.36 51.55 51.88 49.10 39.43 48.52 47.12 47.15 46.47 47.00 48.56 48.06 47.18 47.63 47.47 46.37 46.23 47.56 46.77 42.88 41.67 37.13 43.62 45.12 46.14
50.53 50.88 51.20 51.09 50.79 51.23 51.41 51.60 51.51 51.67 51.61 52.27 52.14 51.93 51.70 51.47 51.41 51.23 51.12 50.91 50.85 51.42 51.01 51.22 47.72 44.65 37.42 51.31 47.82 49.47 48.48 46.19 47.31 48.04 46.35 49.18 46.25 43.95 44.55 40.44 37.13 38.71 35.97 37.16 39.58 45.17 43.96
50.12 50.22 50.08 50.33 49.86 49.71 50.14 50.58 51.07 51.24 51.23 51.26 51.21 51.45 51.11 50.95 50.79 50.54 50.40 50.59 49.47 50.20 49.56 50.84 49.29 41.88 43.90 44.58 49.12 49.70 48.61 48.41 46.01 44.79 44.02 42.55 39.46 36.97 36.25 36.24 31.42 34.03 34.53 33.59 35.66 39.80 43.43
49.18 49.08 49.40 49.51 49.77 49.81 49.62 50.28 50.05 50.23 50.25 50.28 50.56 50.77 50.27 50.46 50.21 50.04 48.14 42.71 42.77 40.86 44.75 42.31 42.39 41.03 43.65 48.50 51.25 47.73 49.62 46.92 45.52 41.25 36.01 39.84 33.22 29.73 34.63 38.72 39.32 37.95 36.32 34.82 35.82 41.87 40.33
48.33 48.37 48.52 48.78 48.76 48.98 49.23 49.28 49.07 49.31 49.46 49.69 50.07 50.18 49.50 49.54 49.64 49.55 45.58 38.82 43.71 44.26 36.82 43.34 43.59 44.75 47.11 48.09 42.70 46.22 49.02 41.57 43.33 36.76 38.15 35.21 31.70 36.51 38.34 37.53 36.46 35.73 34.03 34.47 38.28 40.75 39.90
47.25 47.53 47.54 47.96 48.68 48.46 48.83 48.61 48.32 47.64 48.59 48.94 49.32 49.29 48.95 49.45 49.36 44.07 39.88 41.80 47.84 47.36 34.90 38.52 42.01 41.34 42.28 44.41 40.18 40.97 44.72 40.94 37.98 38.05 36.44 33.17 37.47 40.11 37.71 35.97 34.51 34.10 32.69 33.38 34.08 38.17 39.78
46.34 46.45 46.84 47.09 47.44 47.74 47.87 48.03 48.09 48.13 48.24 48.33 48.46 48.67 48.84 48.80 40.01 40.77 38.94 45.61 46.90 44.83 27.14 31.96 37.89 40.46 43.41 43.46 38.37 44.24 44.99 40.61 38.18 35.38 39.54 38.24 41.42 38.37 38.45 35.53 36.15 31.28 37.53 36.30 34.97 32.65 29.40
46.22 45.64 45.86 46.57 46.72 46.75 47.00 47.13 47.07 47.22 47.46 48.30 48.33 48.49 48.44 47.09 38.00 38.58 42.55 45.34 47.21 41.39 15.86 36.23 39.70 46.99 44.11 39.53 41.79 41.84 44.50 40.48 35.51 36.33 35.90 34.67 38.13 38.96 38.02 39.29 38.83 34.89 39.05 36.89 35.47 33.87 33.69
46.00 45.69 46.00 46.25 46.45 46.07 46.48 46.56 46.57 46.74 47.03 47.38 47.84 47.89 47.46 42.70 38.44 42.96 44.68 44.76 41.81 25.75 16.63 33.73 41.31 39.77 37.95 39.78 40.99 42.72 41.58 42.55 40.97 35.74 37.18 35.72 39.90 37.27 37.91 40.75 40.96 41.97 38.65 39.10 37.16 34.73 27.24
45.19 45.57 45.97 45.87 46.15 46.40 46.50 46.53 46.61 46.48 46.69 47.15 47.40 47.34 45.42 43.97 35.16 42.42 43.77 39.80 25.88 21.51 34.80 32.94 34.00 37.12 37.40 36.98 38.35 39.19 38.96 36.24 31.59 28.05 29.12 33.42 35.47 38.52 39.64 35.15 38.94 38.16 33.63 26.79 24.77 25.95 25.83
44.96 45.33 45.36 45.61 45.76 45.98 46.02 46.26 46.05 46.13 46.08 46.83 46.71 46.78 44.51 43.51 40.71 40.99 42.38 33.03 21.28 29.57 30.63 36.61 35.61 36.64 34.89 38.02 37.79 37.45 36.69 33.40 36.79 32.90 28.62 26.70 25.48 34.82 38.33 36.50 34.02 34.94 34.40 27.22 22.90 24.15 27.29
45.01 45.16 45.19 45.23 45.39 45.47 45.44 45.61 45.83 45.86 46.18 46.32 45.92 39.64 39.12 40.09 41.89 42.46 35.96 25.88 25.36 29.32 33.17 32.03 33.82 32.66 33.64 37.23 37.37 36.43 34.89 35.05 37.37 37.03 29.26 28.00 28.48 37.45 38.22 40.04 38.63 34.81 32.62 37.63 31.48 32.04 27.54
44.77 45.24 44.93 44.95 44.95 45.01 45.07 45.18 45.48 45.64 45.49 45.20 40.92 36.16 36.11 41.02 41.10 39.53 32.57 26.13 28.45 33.51 33.72 33.54 27.06 32.99 29.08 31.67 32.24 34.77 34.45 38.71 38.10 39.46 39.21 35.95 30.02 39.11 40.99 37.98 38.18 38.14 40.05 31.03 31.54 24.43 23.19
44.82 44.79 44.35 44.53 44.76 45.08 45.44 45.12 45.39 45.69 45.60 45.54 39.95 29.99 36.37 39.90 42.71 35.63 23.04 25.61 29.47 34.50 35.23 32.12 30.96 30.00 30.71 30.84 32.32 32.57 33.94 38.78 40.44 40.88 41.09 39.13 35.26 34.50 39.37 33.47 32.79 33.87 32.40 36.31 35.36 31.58 25.26
44.09 44.23 44.28 44.62 45.02 45.26 45.48 45.45 45.34 45.12 44.84 43.15 34.78 21.00 36.57 41.23 29.48 32.13 22.14 30.53 34.80 32.82 35.59 33.87 34.89 33.14 32.35 34.65 31.56 31.60 32.23 35.56 40.25 39.66 35.77 37.52 36.17 31.78 34.51 41.09 42.15 37.97 35.08 35.53 28.94 28.70 30.72
44.51 44.68 44.78 44.94 45.18 45.32 45.31 45.11 45.11 44.79 44.69 40.24 32.07 28.61 37.21 42.32 24.86 25.03 29.98 31.70 32.95 32.02 32.70 32.70 32.75 35.20 35.56 32.19 30.24 32.49 34.58 38.50 39.73 38.64 36.69 37.28 32.82 28.74 30.85 36.96 38.70 35.84 37.43 37.20 38.00 33.16 28.69
43.99 44.56 44.94 45.23 45.37 45.52 45.45 45.38 45.18 45.07 44.73 40.55 33.63 23.70 28.34 33.97 35.81 31.35 28.02 27.87 28.38 35.43 33.42 34.14 33.01 35.18 33.81 31.13 34.22 31.15 32.46 36.49 39.55 38.83 42.68 40.05 32.79 29.13 26.00 28.41 33.46 32.28 34.26 35.68 34.21 29.28 29.30
44.20 44.77 45.15 45.21 45.30 45.56 45.58 45.68 45.52 45.45 45.17 40.96 31.65 23.53 29.40 27.48 27.38 31.61 30.91 31.32 28.76 28.75 34.65 34.88 31.82 32.87 31.77 28.83 30.20 30.83 33.78 35.37 38.42 40.32 40.78 37.68 28.83 32.85 33.94 34.72 34.61 34.29 33.23 34.45 33.31 33.55 30.59
44.02 44.91 45.64 45.71 46.25 46.37 46.61 46.36 46.31 45.95 45.24 38.36 27.65 24.07 30.22 29.75 32.19 31.11 30.49 29.56 28.20 29.83 31.83 30.80 30.59 33.21 33.16 30.01 31.70 29.70 33.61 34.20 35.08 38.04 36.38 38.89 31.14 33.16 31.19 34.89 34.73 33.04 35.16 35.26 36.01 36.23 35.75
44.18 44.86 45.69 45.85 46.28 46.68 46.59 46.63 46.59 46.40 43.84 36.83 35.65 35.30 32.08 29.66 29.24 27.31 28.32 30.47 30.57 32.37 33.52 35.06 33.93 32.85 32.38 33.71 37.34 38.40 38.68 38.47 38.12 35.59 32.76 33.31 31.59 28.27 26.80 32.30 32.21 27.95 33.30 35.15 36.22 38.89 38.33
44.08 44.82 45.38 45.83 46.28 46.45 46.86 46.88 46.76 46.57 44.86 37.79 36.50 33.64 28.67 24.08 26.78 26.98 29.14 30.45 29.56 30.95 31.30 35.03 35.74 33.78 37.57 42.05 40.78 39.21 38.66 38.30 37.97 37.24 37.32 31.96 31.29 29.41 27.11 27.38 18.10 33.70 40.90 41.48 38.76 39.51 40.17
44.01 44.45 45.41 45.72 46.11 46.53 46.75 46.81 46.92 46.92 46.52 40.13 37.77 34.85 31.17 22.98 27.49 28.33 29.59 30.36 31.95 33.54 32.16 33.14 35.86 38.66 40.92 38.13 32.48 29.47 28.68 29.87 32.65 35.86 35.59 35.87 31.67 26.81 23.84 22.62 28.86 33.86 37.85 38.28 37.01 36.32 41.84
43.90 44.35 45.19 45.87 46.41 46.57 46.50 46.59 46.96 47.01 46.89 43.14 40.40 39.15 35.01 29.20 27.28 32.11 29.70 31.66 27.48 27.55 29.91 33.08 39.48 41.30 40.06 32.27 30.19 24.83 22.73 27.58 28.16 31.85 36.24 35.12 33.90 28.77 26.07 23.68 20.39 34.06 40.25 42.46 42.03 33.56 39.96
43.51 44.48 44.88 45.92 46.64 46.77 46.98 46.91 46.78 47.03 46.99 44.54 40.58 41.68 37.83 31.41 33.44 33.79 28.85 29.41 32.82 31.75 29.48 31.98 33.30 34.35 37.27 30.06 27.39 24.17 23.53 31.31 24.94 28.15 28.49 28.51 28.58 26.45 26.16 24.34 28.96 38.65 41.07 42.47 28.44 31.62 39.34
43.36 44.28 45.22 46.18 46.32 46.54 47.05 47.28 46.64 46.87 46.88 43.95 40.71 42.50 37.18 32.90 34.19 37.02 36.64 32.92 33.28 32.94 29.20 32.68 31.83 33.16 33.79 30.31 27.30 25.05 22.83 28.27 29.91 33.35 32.18 29.37 27.38 26.40 27.43 24.57 22.57 40.17 40.08 33.71 36.68 40.43 40.02
43.57 44.55 45.14 45.95 45.95 46.27 46.91 47.08 46.98 46.73 46.71 44.61 39.21 42.43 43.03 36.67 35.90 38.73 38.61 39.34 38.95 38.58 35.78 37.97 35.03 35.29 35.11 29.86 28.67 28.49 24.83 28.01 31.68 26.79 36.16 29.81 32.68 29.18 30.59 29.15 39.87 40.01 38.59 40.83 40.39 38.03 37.70

GFSGBSN_sfc_wetblb_099.txt.gz
Wetbulb
51.98 52.23 52.16 52.13 52.43 52.47 52.54 52.62 53.10 53.56 53.88 53.72 53.35 52.49 52.05 52.19 52.06 52.09 52.39 52.12 51.97 51.36 51.07 51.34 52.15 52.64 48.68 39.64 38.83 48.13 59.04 57.91 57.51 53.23 48.63 46.92 42.77 40.92 37.86 39.55 41.00 41.72 42.88 45.46 46.69 46.07 45.14
51.60 51.53 52.06 51.99 51.99 52.15 52.05 51.80 51.59 52.81 53.07 53.30 53.36 53.13 52.89 52.14 52.01 51.80 52.10 52.07 51.97 51.99 51.34 51.17 51.90 52.23 45.01 35.80 45.20 46.43 46.13 45.66 49.53 52.97 50.75 48.61 45.90 45.59 41.70 40.86 40.38 43.76 44.01 44.84 45.70 46.28 46.24
51.51 51.63 51.36 51.19 51.14 51.03 50.94 50.74 50.95 51.23 52.10 52.64 52.74 52.91 52.74 51.93 51.43 51.01 51.43 51.70 51.30 51.63 50.71 50.89 51.77 49.39 43.15 39.69 46.65 47.03 47.08 44.10 44.87 49.58 47.70 47.72 49.98 46.59 45.72 43.30 47.10 45.50 41.51 42.54 43.06 44.10 44.36
50.34 50.35 50.57 50.65 51.18 50.91 50.34 50.19 50.43 50.72 51.22 52.29 52.60 52.30 52.22 52.30 51.43 51.43 51.47 51.03 50.84 51.02 50.37 50.54 51.21 48.16 38.61 49.45 48.32 46.36 45.44 44.35 46.40 46.82 45.98 46.36 45.71 42.64 43.26 45.71 44.37 41.49 40.59 35.55 42.36 44.26 45.32
49.98 49.90 49.89 49.97 50.16 50.18 50.25 50.37 50.20 50.48 50.77 50.86 51.11 51.49 51.41 51.43 50.95 50.96 50.75 50.49 50.34 50.65 50.39 50.19 46.24 45.14 37.58 50.86 46.13 49.41 47.48 44.26 45.36 45.48 44.82 48.03 44.18 40.81 42.06 38.28 34.87 36.49 31.55 35.54 38.88 44.87 43.58
49.01 49.16 49.11 48.96 49.28 49.62 49.79 49.70 49.90 50.16 50.08 49.84 50.09 50.52 50.94 51.41 50.51 50.41 49.90 49.54 48.66 49.17 48.93 49.09 47.89 40.67 43.20 42.80 49.09 50.18 47.44 47.12 44.62 43.48 41.62 40.86 38.26 35.21 35.11 34.20 29.61 32.04 32.93 31.58 34.52 39.09 41.67
47.65 48.40 47.99 47.88 48.27 48.80 49.04 49.30 49.26 49.08 49.04 49.00 49.34 49.38 50.41 50.06 50.23 50.11 47.04 41.12 39.74 38.43 44.19 40.94 41.34 40.91 42.81 48.02 51.15 48.33 49.50 45.98 44.51 40.07 34.01 37.04 32.16 30.27 33.15 37.48 38.44 37.33 35.22 33.42 33.90 40.33 38.14
46.87 47.07 47.14 47.58 47.74 48.26 49.02 48.93 48.91 49.41 48.74 48.36 48.35 48.82 49.86 49.22 49.38 49.63 43.18 37.23 39.56 42.38 35.99 42.87 42.67 43.43 46.20 47.30 41.45 44.83 48.49 42.12 40.38 35.06 36.36 33.59 30.17 34.89 37.44 37.98 36.04 34.98 33.11 31.97 35.62 39.60 38.15
46.40 46.32 46.18 46.71 47.29 47.62 47.91 48.13 48.02 47.89 48.02 48.48 48.61 48.50 48.63 48.53 48.61 42.89 38.06 39.95 45.88 44.49 37.05 37.98 41.70 41.05 41.79 44.18 40.17 40.63 44.80 41.08 37.64 36.97 34.85 32.01 34.48 38.20 36.37 34.17 33.18 32.29 31.50 31.01 32.96 34.30 35.23
45.82 46.17 45.73 46.00 46.89 47.08 46.98 47.29 47.71 47.66 47.55 47.40 47.63 47.54 47.98 47.21 42.24 37.67 37.48 44.54 44.86 44.91 29.27 31.14 35.39 39.07 42.09 42.64 36.86 43.80 44.31 40.91 36.71 34.12 35.41 34.99 38.33 36.66 34.70 33.43 33.95 29.41 35.80 35.20 33.28 29.95 25.09
45.32 45.76 45.70 45.89 46.46 46.74 46.63 46.87 47.03 47.23 47.13 47.12 46.91 46.92 47.72 46.45 37.80 36.40 40.71 44.04 44.43 40.81 14.09 33.73 37.22 44.87 42.81 38.81 40.02 39.84 43.91 39.46 33.53 34.65 35.87 34.23 36.04 34.99 33.16 34.57 35.71 32.30 37.25 35.05 34.14 30.00 28.21
44.98 45.00 45.46 46.10 46.13 46.22 46.58 46.68 46.91 47.06 46.96 46.82 47.18 47.13 47.04 44.36 37.52 39.75 42.56 43.82 42.83 25.11 15.94 32.50 39.04 37.05 36.27 38.06 39.08 39.58 38.87 40.61 38.79 34.10 34.42 34.10 37.07 35.69 37.01 39.12 39.60 39.88 35.75 35.25 33.06 30.13 24.56
44.49 44.45 45.36 45.49 45.80 45.95 46.22 46.23 46.41 46.41 46.44 46.36 46.82 47.01 45.27 43.80 34.52 39.62 42.74 40.78 26.80 19.17 32.51 30.49 31.47 35.89 35.44 35.36 36.44 37.52 35.59 34.11 30.25 25.92 25.44 30.41 33.08 35.25 38.05 32.93 36.10 35.50 31.50 25.38 24.08 25.67 24.49
44.42 44.66 45.16 45.26 45.40 45.64 45.72 45.81 45.84 46.01 45.99 46.18 46.47 46.86 43.15 43.00 40.12 39.71 41.19 32.00 18.71 27.64 28.36 34.32 33.12 35.61 33.40 35.78 35.98 36.16 34.71 30.87 34.66 31.45 27.04 24.50 24.72 32.56 36.46 35.04 31.80 32.28 32.03 25.75 21.94 22.59 26.30
44.32 44.25 45.03 45.49 45.03 45.27 45.33 45.36 45.39 45.65 45.86 45.75 45.75 38.02 37.49 39.23 41.30 39.36 35.64 20.71 24.40 27.82 30.99 29.86 32.38 31.11 31.42 33.17 33.90 35.30 33.01 32.82 34.68 33.96 28.19 26.12 26.67 35.32 36.43 37.25 36.99 32.77 30.55 35.73 29.70 29.04 26.49
45.29 45.26 45.07 44.86 44.63 44.85 45.18 45.43 45.54 45.55 45.91 44.97 37.24 36.47 34.86 39.30 40.77 37.28 29.70 26.06 27.98 32.28 31.98 32.82 27.57 31.18 26.80 29.32 30.94 31.55 33.12 37.98 36.01 38.96 37.92 32.48 27.04 37.07 39.38 37.02 36.81 35.92 37.83 28.96 29.35 23.38 22.47
43.87 44.16 44.37 44.47 44.61 44.94 45.42 45.54 45.62 45.42 45.70 45.38 35.40 30.29 37.49 38.88 39.97 30.37 17.78 23.06 28.71 33.72 33.33 30.63 28.83 28.32 29.45 30.63 32.59 30.79 33.80 36.60 37.30 37.17 38.96 34.85 33.18 32.13 38.28 32.99 30.84 32.38 31.68 34.00 33.33 29.41 25.90
43.63 44.52 45.09 44.87 44.74 45.09 45.35 45.60 45.47 45.20 45.04 41.16 33.35 21.19 37.11 40.07 25.84 26.69 17.78 28.78 33.64 31.77 33.85 32.37 33.25 32.14 32.11 31.66 29.77 30.92 33.46 36.05 39.06 39.29 34.86 36.25 33.95 27.43 31.47 39.07 40.24 34.29 32.83 34.09 27.62 26.71 28.43
44.52 44.21 44.17 44.68 45.10 45.37 45.36 45.65 45.22 44.86 44.14 39.27 32.31 30.57 36.13 38.53 25.66 24.93 29.02 30.39 31.66 30.52 31.43 31.47 30.95 33.83 34.91 31.04 26.54 32.48 32.95 38.10 38.73 37.21 35.69 35.98 31.53 26.65 28.56 34.46 37.01 35.41 36.23 34.76 34.95 30.89 27.15
44.38 43.80 44.33 45.07 45.52 45.76 45.74 45.81 45.63 45.19 44.89 39.88 31.84 24.15 27.66 31.93 34.29 29.97 27.85 26.83 26.74 33.78 32.92 32.95 32.05 32.77 30.60 30.51 32.71 29.66 32.21 36.54 38.64 38.69 40.57 39.14 32.94 29.37 25.74 27.28 34.32 30.28 34.61 34.81 32.57 27.97 27.42
43.75 43.49 44.13 44.68 45.26 45.77 46.15 46.07 45.91 45.56 44.94 39.11 33.27 22.86 27.09 24.36 29.24 30.22 30.58 29.12 27.22 27.12 33.32 34.89 30.57 30.53 29.27 26.68 30.11 28.97 33.93 35.74 37.79 39.51 39.87 38.41 29.39 32.56 34.16 34.64 33.85 33.20 33.33 34.32 31.43 32.32 28.18
43.11 43.24 43.93 44.75 45.51 46.16 46.57 46.71 46.28 46.15 45.18 36.36 25.49 23.45 28.08 26.80 29.27 28.36 29.44 28.55 28.15 30.71 30.43 29.96 29.75 32.01 32.43 29.63 30.87 27.98 32.73 33.26 32.79 38.04 35.96 38.91 31.23 32.96 30.30 32.54 32.18 30.77 33.81 33.81 33.74 35.08 34.56
42.75 43.03 43.82 44.89 45.37 46.26 46.61 46.91 46.98 46.63 43.38 36.32 35.18 31.88 29.28 27.18 26.76 25.59 27.88 29.51 29.74 30.72 31.18 33.97 32.93 32.19 30.73 32.70 35.45 36.65 37.66 37.53 37.25 34.27 33.55 33.50 31.94 27.99 25.65 30.53 29.58 26.89 31.55 33.32 36.60 37.63 37.91
42.47 42.88 43.78 44.91 45.46 45.95 46.45 47.02 46.85 46.93 44.92 35.63 37.40 31.20 26.31 22.34 26.40 26.45 28.60 29.83 28.97 30.18 28.45 32.18 34.11 32.97 36.35 41.00 39.47 38.85 37.51 37.25 37.53 36.47 37.55 32.06 30.96 28.26 25.15 26.49 16.26 32.12 41.34 39.47 38.07 38.80 39.65
42.15 42.70 43.77 44.69 45.25 45.74 46.51 46.65 46.83 46.74 46.83 40.20 37.44 33.02 28.81 20.62 26.39 27.29 28.37 28.50 30.16 31.68 30.41 31.66 34.43 37.16 41.01 38.77 32.07 29.08 28.14 29.52 31.88 35.35 35.27 36.16 31.29 25.31 21.35 22.27 26.52 34.08 36.87 37.36 36.31 34.77 38.85
41.66 42.35 43.65 44.12 45.38 45.67 46.25 46.46 46.73 46.80 46.95 42.55 39.89 38.80 33.70 27.58 25.03 30.95 27.66 29.42 27.11 27.58 28.70 31.48 36.49 40.20 39.31 32.47 27.22 25.03 22.74 26.96 27.28 31.17 35.92 34.38 32.78 27.09 24.14 22.06 16.97 31.90 39.26 41.23 41.00 32.50 38.39
41.37 42.46 43.34 43.95 45.15 45.64 46.27 46.55 46.76 47.05 46.72 44.69 41.14 41.29 37.08 30.10 32.22 32.09 27.62 28.76 31.91 29.92 28.10 30.20 34.02 33.60 37.40 30.26 24.74 24.47 25.13 30.01 24.61 26.85 28.27 27.81 27.60 25.58 24.18 21.81 27.05 36.83 39.60 41.24 28.60 29.77 38.44
40.99 42.09 43.10 43.69 44.80 45.46 46.30 46.60 46.84 47.35 46.88 44.11 40.68 41.73 37.27 32.50 32.98 35.35 35.13 30.78 32.20 31.37 26.17 29.53 28.09 29.77 31.19 28.51 26.84 26.07 24.97 27.08 27.94 31.59 30.85 29.15 27.04 26.09 27.33 22.46 21.39 38.80 38.91 31.34 34.75 39.21 38.56
40.73 41.72 42.81 43.75 44.74 45.44 46.27 46.43 46.96 47.43 46.87 44.93 38.92 42.33 42.18 36.29 35.53 38.83 37.93 38.61 36.93 36.51 33.32 33.42 32.88 33.19 35.31 31.30 29.43 28.87 26.07 24.78 29.58 25.25 35.16 29.92 32.57 27.65 29.42 28.50 37.96 37.99 37.00 38.83 38.79 36.28 37.06

GFSGBSN_sfc_wetblb_102.txt.gz
Wetbulb
51.25 51.08 51.51 51.62 51.35 51.44 51.39 51.56 51.31 51.23 51.44 51.75 52.21 52.24 52.41 52.40 52.49 52.15 52.67 52.27 51.79 51.27 50.94 51.02 51.20 51.53 47.40 39.64 38.65 45.23 53.46 50.07 55.02 52.12 46.93 44.63 41.37 39.88 36.65 37.77 38.56 39.40 41.61 43.56 44.74 44.56 43.50
50.82 51.38 51.31 51.27 51.06 50.84 50.52 50.44 50.45 50.43 51.37 51.69 52.37 52.48 52.00 51.80 51.68 51.76 52.15 51.89 51.73 51.45 50.61 50.64 50.86 51.25 44.22 34.08 45.95 45.40 45.88 45.45 46.47 50.62 48.15 45.96 43.37 42.88 39.76 38.91 38.33 40.75 41.37 43.09 43.90 44.86 44.02
50.01 49.97 50.18 50.40 50.56 50.89 50.76 50.21 50.11 50.23 50.45 50.57 51.45 52.10 51.96 51.45 51.08 51.06 51.20 51.54 51.24 51.14 50.14 50.32 50.54 47.79 41.29 38.01 46.77 46.40 46.70 44.93 44.15 45.91 47.54 48.70 47.25 44.59 42.46 39.73 43.76 42.46 38.86 40.87 41.01 42.14 42.21
49.59 49.65 49.58 49.53 49.80 49.84 50.10 50.03 50.23 50.31 50.54 50.50 50.69 50.61 51.58 51.31 51.16 51.33 51.02 50.91 50.69 50.68 50.07 50.00 50.16 46.30 36.79 47.34 48.67 46.85 47.21 44.45 45.91 45.34 44.48 46.69 46.14 43.83 41.56 42.71 41.97 39.00 38.24 33.75 40.27 42.26 43.93
48.26 48.83 48.80 48.80 48.73 48.92 49.46 49.67 49.78 49.90 50.12 50.04 50.03 50.03 50.53 50.71 50.60 50.62 50.77 50.33 50.37 50.21 50.40 49.70 45.07 43.32 35.50 49.18 45.38 47.96 47.60 43.53 44.59 44.02 44.62 47.67 43.30 39.56 39.97 35.09 32.98 34.03 29.65 33.16 36.55 42.76 42.61
47.26 48.08 48.00 47.57 47.65 48.19 48.73 49.05 49.13 49.30 49.33 49.18 49.02 49.02 50.02 50.23 50.30 49.99 50.01 49.56 48.66 47.85 48.14 47.94 45.68 37.16 39.92 38.55 47.82 49.25 47.78 45.95 44.29 42.45 41.65 40.35 37.56 33.94 34.18 32.69 27.72 30.48 31.69 31.72 32.42 36.73 39.37
47.10 47.03 47.00 46.83 46.93 47.44 48.00 48.25 48.39 48.24 48.59 48.81 48.96 49.00 49.01 49.79 49.96 49.91 46.04 39.31 35.46 37.51 43.40 39.09 38.68 38.01 40.46 46.76 49.57 46.96 47.49 45.44 44.72 40.53 34.41 37.60 33.22 28.50 31.42 36.01 36.88 34.46 33.17 32.46 32.62 38.65 37.26
46.42 46.29 46.41 46.45 46.57 46.84 46.98 47.10 47.70 47.95 48.07 47.97 48.05 48.18 48.53 48.45 48.58 48.44 41.87 35.16 36.87 40.10 32.79 39.66 40.05 40.71 44.10 45.23 40.59 43.76 47.23 41.99 40.14 34.99 36.43 33.81 30.08 34.56 36.23 36.10 35.76 34.66 32.60 31.32 34.46 38.08 37.17
45.42 45.76 45.53 45.74 45.94 46.65 47.15 47.00 47.07 47.34 47.56 47.45 47.52 47.51 47.43 47.68 47.31 41.66 37.31 38.06 44.00 43.21 35.08 37.25 40.42 40.00 40.91 42.94 38.73 39.70 43.73 41.82 38.73 35.94 34.79 32.22 34.96 37.53 35.33 33.51 33.24 31.83 31.60 29.99 32.25 32.85 31.43
44.81 44.89 45.64 45.40 46.16 46.44 46.74 46.84 47.14 47.30 47.24 47.17 47.33 47.38 47.81 47.35 41.62 39.22 38.20 41.70 44.26 44.05 27.71 30.14 34.48 38.39 41.19 41.46 36.03 43.85 43.82 41.49 37.35 35.88 36.93 34.74 39.00 35.79 33.53 32.57 33.38 29.14 33.86 34.01 31.74 28.38 23.50
44.50 44.96 44.59 45.23 46.19 46.11 46.32 46.48 46.79 46.98 47.11 47.11 47.04 46.88 47.62 46.60 41.01 37.49 39.56 41.65 45.30 41.94 14.82 31.73 35.25 43.38 41.23 36.43 37.69 38.83 42.92 38.70 34.37 34.48 36.09 34.32 36.60 34.27 33.62 32.76 34.33 30.95 35.21 32.80 31.71 27.63 25.35
44.38 44.16 44.30 45.48 45.46 45.66 45.97 46.05 46.29 46.47 46.59 46.62 46.56 46.67 47.05 43.07 40.21 41.58 40.50 40.81 41.36 27.37 14.56 30.82 36.58 35.27 34.48 36.85 37.43 37.48 38.70 39.19 38.07 34.16 34.29 34.25 36.71 36.99 36.22 36.88 35.46 37.39 33.97 32.94 30.92 27.93 21.36
43.79 44.06 44.30 45.15 45.35 45.25 45.55 45.84 45.91 46.02 46.03 46.19 46.16 46.43 44.86 44.94 35.84 40.64 39.32 38.60 25.17 18.27 30.51 27.83 30.32 33.95 33.79 33.76 35.35 36.63 34.20 32.58 27.89 25.57 26.02 30.22 32.49 35.16 37.88 32.71 34.81 33.26 29.76 24.47 23.22 23.33 23.02
43.84 43.96 44.09 44.81 45.55 45.05 45.22 45.36 45.33 45.45 45.55 46.27 46.11 46.62 42.91 41.92 41.15 38.73 38.03 31.26 18.36 26.15 25.96 33.02 32.47 35.34 31.06 33.36 34.25 34.78 32.88 30.79 34.18 30.93 27.10 25.43 24.63 31.87 35.91 34.48 31.40 31.17 30.50 24.81 21.01 21.93 23.66
44.62 45.31 44.97 44.98 44.80 44.70 44.81 45.24 45.61 45.99 45.55 45.99 45.01 37.32 36.07 38.53 39.79 38.08 32.76 21.78 22.81 27.59 29.53 28.12 31.41 29.20 28.74 32.08 32.71 33.01 33.25 34.38 35.04 35.38 26.97 25.36 25.81 33.94 35.08 35.70 36.14 31.07 27.31 33.70 27.45 27.56 25.27
44.46 44.04 44.21 44.24 44.34 44.43 44.80 45.37 45.57 45.71 45.51 45.92 36.87 36.15 33.85 38.33 39.35 35.00 21.89 22.95 26.47 31.39 31.27 30.94 24.85 29.24 25.00 29.40 29.54 30.47 33.37 35.64 34.67 37.66 38.01 31.40 26.04 35.08 37.77 35.95 35.21 33.89 35.81 27.62 27.62 22.37 21.20
43.71 43.38 43.94 44.73 44.78 44.50 44.71 45.25 45.61 45.53 45.18 45.23 34.33 28.64 34.54 38.91 38.72 29.35 11.23 22.86 27.33 32.58 33.50 29.12 27.35 26.87 28.85 28.13 30.33 30.07 33.31 36.11 36.35 36.42 38.19 34.75 30.86 30.39 34.81 31.96 29.86 30.41 29.58 31.62 30.91 27.76 23.35
43.31 43.29 44.88 44.05 44.42 44.84 45.04 45.39 45.44 45.44 44.84 39.99 32.93 20.85 33.92 41.86 27.88 26.89 17.77 26.34 32.02 30.09 32.74 31.39 31.69 31.13 30.50 30.30 28.14 30.35 30.46 33.61 38.15 37.35 34.72 35.62 32.08 27.49 29.31 36.57 39.25 33.60 31.59 31.49 25.72 25.28 27.59
43.66 43.17 44.23 43.89 44.70 45.04 45.40 45.57 45.52 45.13 44.12 39.05 29.68 29.83 35.08 36.48 18.56 24.79 28.49 29.25 31.06 29.72 30.29 30.08 29.24 32.60 33.31 29.55 23.87 30.19 32.22 37.46 38.57 36.43 34.54 36.02 30.71 26.73 27.96 32.46 34.71 33.19 34.68 33.84 33.19 29.46 26.68
43.88 43.03 43.88 43.81 44.54 45.05 45.50 45.69 45.95 45.32 44.79 37.83 30.03 22.66 25.50 31.53 33.81 29.19 27.22 27.47 26.62 32.68 32.28 32.33 30.67 31.48 29.02 28.33 31.10 27.53 30.61 36.25 38.19 38.02 40.99 38.73 31.70 27.56 24.37 26.57 30.55 29.36 32.54 33.91 31.50 26.90 26.55
43.34 42.83 43.28 43.36 44.19 45.04 45.85 46.22 46.28 45.77 45.01 35.97 32.98 23.28 26.24 19.79 28.89 29.32 30.04 28.38 27.02 27.10 31.75 32.75 29.60 30.62 29.02 26.15 26.91 27.82 32.27 33.36 36.42 38.16 38.22 37.76 27.63 30.11 32.04 33.26 33.21 32.94 31.89 32.37 30.12 30.37 27.10
42.74 42.18 42.91 43.11 43.94 45.22 45.82 46.40 46.57 46.00 44.88 34.78 29.00 22.79 27.05 26.89 28.07 27.54 28.37 27.07 28.06 28.19 30.23 29.68 27.92 29.94 30.73 27.20 28.70 27.05 30.31 31.46 32.05 36.68 35.50 37.28 30.39 31.81 28.61 33.45 32.55 30.76 33.51 33.31 33.58 33.95 33.31
42.73 41.61 42.22 42.88 43.97 45.18 45.59 46.24 46.69 46.19 44.12 36.55 33.42 31.97 29.39 25.68 25.10 23.53 24.44 28.58 28.94 29.83 30.87 33.09 29.68 29.14 28.50 32.43 34.24 34.53 34.43 35.81 35.82 33.92 33.35 33.08 31.64 27.88 24.67 31.15 29.56 26.09 29.97 32.29 35.08 36.23 36.03
41.57 42.12 42.34 42.75 43.67 44.99 45.55 45.93 46.34 46.33 43.94 37.59 35.13 32.80 28.07 21.19 24.93 25.34 27.68 28.82 27.70 28.94 27.49 30.66 31.89 29.60 33.89 39.45 38.27 37.23 36.82 36.04 35.51 35.83 36.27 31.74 30.48 27.76 26.21 26.98 15.88 31.96 39.09 38.19 36.48 37.65 39.44
41.58 42.47 42.11 42.60 43.55 44.60 45.10 45.62 46.11 46.27 46.34 39.79 38.51 33.73 29.93 18.87 26.46 26.54 27.37 27.38 28.63 29.83 28.50 29.63 32.41 34.88 38.91 37.34 31.48 28.87 28.15 28.39 31.10 34.73 34.68 35.55 30.79 25.62 23.79 22.70 25.59 33.43 36.48 36.40 35.85 34.76 38.42
41.58 42.34 41.54 42.12 43.57 44.09 45.07 45.34 45.90 46.59 46.69 42.91 39.74 39.64 35.05 26.34 24.99 29.93 27.26 28.28 25.68 26.39 28.14 30.48 35.50 37.09 36.87 32.59 29.29 24.73 22.35 26.40 26.59 30.32 34.63 34.02 33.03 28.05 25.77 22.34 16.20 29.28 38.44 40.25 39.63 31.40 38.59
41.40 41.89 41.42 41.90 43.08 44.00 44.39 45.03 45.88 46.43 46.86 43.54 40.84 40.70 36.55 30.01 30.74 31.36 26.83 27.58 30.81 29.34 28.00 29.93 32.15 31.31 35.88 28.16 27.53 23.76 24.24 28.98 24.07 26.21 26.57 27.88 28.64 25.86 25.17 23.48 26.75 34.04 38.31 40.41 26.15 27.41 37.14
41.43 41.64 40.89 41.41 42.67 43.49 43.96 44.84 45.79 46.16 46.73 45.13 41.36 41.57 37.21 32.57 31.98 34.16 34.15 30.36 30.74 30.84 26.57 29.85 26.95 31.58 30.60 27.65 27.38 26.70 24.25 26.68 27.59 30.47 26.06 27.22 25.82 24.77 26.29 23.64 20.54 36.22 37.04 29.83 33.05 36.21 36.85
40.89 41.24 40.61 41.10 42.45 43.30 43.84 44.82 45.79 46.15 46.78 45.98 39.01 42.15 41.78 35.65 34.89 38.26 37.23 37.57 36.81 35.54 31.67 32.48 29.88 32.97 31.36 31.81 31.67 30.94 26.87 26.52 26.76 23.00 33.96 28.70 32.14 28.79 28.96 27.89 35.52 35.84 35.32 36.56 36.90 34.31 34.47

GFSGBSN_sfc_wetblb_105.txt.gz
Wetbulb
51.23 51.33 51.41 51.32 51.38 50.99 50.77 50.47 50.29 50.22 50.38 50.46 50.71 51.28 51.77 52.13 52.04 51.70 52.25 52.43 51.97 51.60 51.18 50.92 51.08 51.04 46.80 40.26 40.18 48.06 53.42 50.26 55.28 54.47 48.56 46.23 45.36 44.61 41.65 41.98 44.32 43.43 45.09 46.05 47.50 47.67 47.28
50.54 50.07 50.15 50.48 50.65 51.08 51.00 50.62 50.43 50.19 50.27 50.40 50.52 50.92 50.98 51.41 51.37 51.30 51.39 51.87 51.99 51.38 50.65 50.47 50.56 50.65 43.74 32.58 46.90 48.07 46.84 47.06 45.73 51.41 48.79 47.54 46.18 46.69 43.77 42.31 41.59 43.10 43.80 45.04 46.65 47.18 47.12
49.33 49.33 49.87 49.58 49.67 49.77 50.01 49.90 50.11 50.09 50.45 50.32 50.30 50.54 50.56 50.54 50.41 50.41 50.35 51.21 51.45 51.11 50.56 50.55 50.61 47.47 40.50 37.47 47.57 48.15 46.54 45.54 46.42 45.51 47.88 50.19 48.97 45.70 44.75 42.15 45.23 44.10 41.03 43.06 43.54 44.86 45.03
47.51 48.21 48.56 48.72 48.53 48.54 48.98 49.43 49.60 49.88 49.71 49.86 49.75 49.56 49.90 49.80 50.07 50.10 50.48 50.48 51.04 50.52 50.88 50.48 50.33 45.47 36.01 46.59 48.33 46.24 47.08 45.79 47.56 47.36 44.95 45.42 46.42 47.44 45.66 46.62 43.41 42.77 42.65 38.34 43.83 44.93 46.02
46.79 47.38 47.59 47.50 47.33 47.79 48.17 48.68 48.96 49.19 49.30 49.40 49.34 49.17 49.49 49.81 50.03 50.08 50.61 50.25 49.58 50.31 51.07 50.63 45.89 41.94 34.68 47.91 44.11 47.92 47.39 43.64 45.84 45.49 45.03 45.85 46.08 42.64 42.48 39.70 38.37 39.14 36.42 37.00 40.26 44.92 45.78
46.50 46.61 46.66 46.90 46.89 47.35 47.46 47.73 47.91 48.35 48.41 48.45 48.52 48.37 48.50 49.25 49.64 49.34 49.49 48.65 48.47 49.00 48.19 48.05 45.07 37.22 38.93 37.41 45.84 48.18 49.24 46.58 44.22 42.43 41.38 40.83 40.56 39.26 38.93 36.89 30.34 33.46 34.55 37.25 38.68 43.30 43.71
46.32 46.13 46.06 46.27 46.37 47.03 46.99 47.00 47.12 47.58 47.91 48.00 48.04 48.05 47.96 47.86 48.01 48.21 46.21 41.30 36.94 35.97 40.00 36.69 36.63 36.02 39.52 45.23 48.49 47.24 47.38 45.23 44.65 40.84 34.30 38.66 34.45 32.65 36.21 38.31 38.47 38.11 36.82 36.91 39.43 42.62 41.89
45.30 45.64 45.62 45.71 45.72 46.26 46.94 46.81 46.92 47.17 47.37 47.63 47.53 47.70 47.77 47.58 47.47 47.27 42.27 37.24 37.60 39.77 30.31 37.89 38.32 38.69 41.91 44.11 38.47 42.79 47.57 41.95 40.54 34.32 37.38 35.08 31.42 37.74 38.38 38.51 37.62 37.38 35.89 36.15 38.87 41.38 41.03
44.55 44.89 45.25 45.24 45.79 45.90 46.02 46.49 46.70 46.99 47.44 47.38 47.41 47.47 47.36 47.32 47.20 41.34 38.79 38.38 43.97 41.94 31.82 33.15 37.75 38.13 39.43 41.70 36.93 38.20 43.43 42.36 39.36 36.07 34.60 32.76 36.40 39.36 36.57 35.63 34.62 35.87 35.00 35.60 35.59 38.26 38.48
44.22 44.77 44.45 44.66 45.18 45.95 46.16 46.28 46.46 46.70 46.94 47.07 47.00 46.96 46.97 47.87 41.39 39.90 37.58 42.17 43.48 42.12 25.40 28.77 34.98 38.93 41.35 41.69 35.78 43.30 44.06 40.94 39.38 36.29 35.55 34.44 38.80 36.26 34.55 33.76 35.41 31.13 37.15 36.94 36.13 34.49 30.56
44.04 44.12 44.17 44.19 45.11 45.40 45.77 45.84 46.18 46.52 46.58 46.62 46.49 46.57 46.79 46.73 40.65 37.92 40.49 42.61 43.61 39.60 14.07 32.66 35.45 44.12 41.83 37.17 38.18 38.80 44.34 40.95 35.72 37.21 38.31 35.29 37.13 35.83 33.95 34.25 36.19 33.26 37.21 36.60 36.25 33.59 32.19
43.57 43.64 44.05 44.17 45.43 45.24 45.34 45.65 45.85 45.97 46.04 45.98 46.31 46.38 46.35 43.15 40.72 41.78 41.65 41.55 41.02 22.97 15.56 29.90 36.61 35.23 34.68 37.02 37.53 38.91 39.50 41.60 40.63 37.17 36.62 37.24 39.16 39.16 38.58 38.26 37.95 38.56 35.89 35.37 34.15 32.92 27.28
43.33 43.00 43.89 44.70 45.18 45.36 45.04 45.08 45.40 45.68 45.96 45.72 46.35 46.24 44.67 44.69 38.15 42.07 41.57 38.38 22.06 17.67 31.11 27.57 29.48 34.49 34.87 33.84 36.05 36.54 34.19 33.45 31.08 28.58 29.59 32.69 34.52 37.73 39.33 35.28 37.26 37.93 35.04 27.97 26.45 25.95 26.71
43.08 43.99 43.84 44.01 45.01 44.85 44.56 44.91 45.28 45.87 45.79 45.79 46.35 45.18 41.99 42.08 41.48 41.48 39.34 29.86 17.87 26.60 25.11 31.78 31.49 34.32 30.82 34.14 34.73 36.06 33.11 31.96 37.11 33.90 29.17 26.67 25.28 33.73 37.87 37.16 34.08 34.48 35.31 29.84 22.45 24.71 28.35
43.51 44.50 44.43 44.51 44.37 44.20 44.59 45.11 45.50 45.76 45.51 45.81 44.03 39.00 37.46 39.33 40.65 39.71 32.65 20.20 21.31 27.10 29.38 27.93 30.24 27.43 29.03 31.98 33.54 35.27 34.24 33.93 35.62 37.10 29.74 28.20 28.70 35.45 36.38 38.39 38.64 33.58 30.73 36.93 31.17 31.56 28.28
43.27 43.83 43.63 43.73 44.22 44.26 44.48 45.04 45.38 45.77 45.48 45.48 38.72 35.43 34.87 39.42 41.07 35.93 25.20 22.45 26.49 31.85 31.58 30.58 23.97 28.39 25.52 28.10 30.26 33.20 33.54 35.96 35.12 37.68 38.85 34.02 28.81 36.12 37.46 38.23 37.87 36.64 38.67 30.83 31.51 23.64 22.43
42.98 42.79 43.13 44.35 44.81 44.70 44.73 45.05 45.33 45.49 45.26 44.19 34.48 31.04 36.86 40.86 40.89 29.88 19.54 23.05 27.35 32.33 32.54 28.74 27.07 26.91 29.11 27.77 29.58 31.43 31.04 34.43 36.62 35.97 38.85 35.90 33.29 32.93 37.15 34.55 32.52 33.23 32.18 34.25 34.36 32.08 26.13
42.73 43.27 43.52 43.99 43.80 44.15 44.84 45.30 45.44 45.44 44.75 39.74 33.09 24.32 36.05 41.24 28.27 28.12 24.23 27.07 32.00 29.54 33.14 32.01 31.96 31.19 29.45 30.09 28.46 29.49 30.13 33.22 38.31 37.84 34.16 36.71 33.84 29.75 31.92 37.88 40.91 37.34 34.78 34.52 29.23 27.81 31.47
43.07 43.80 42.89 43.99 43.54 44.52 45.03 45.67 45.64 45.28 43.90 38.00 30.12 29.28 36.64 37.82 21.35 25.01 29.22 28.74 31.20 30.40 30.79 31.30 29.71 31.78 32.60 29.59 26.08 30.54 31.88 37.69 38.74 37.17 35.36 36.37 32.15 28.36 30.00 35.38 37.41 35.22 36.26 35.65 35.27 33.76 30.44
42.91 44.04 42.77 43.71 43.47 44.15 44.95 45.64 45.85 45.57 44.75 38.09 29.24 21.77 27.57 34.38 33.24 27.92 26.74 26.72 27.38 32.76 31.87 33.51 31.72 32.84 30.91 28.96 32.04 29.08 30.61 35.89 38.14 38.31 40.47 38.67 32.54 29.26 26.64 28.85 32.96 31.16 34.08 35.68 35.25 30.95 30.98
42.80 43.84 42.66 43.01 43.01 43.66 44.88 45.83 46.43 45.99 45.22 36.50 32.89 25.43 28.16 21.13 28.64 28.50 28.90 28.23 27.24 27.59 32.78 33.60 30.54 29.52 29.25 26.92 28.29 28.55 32.29 33.29 35.78 38.69 38.30 36.83 29.57 31.31 32.35 33.66 33.98 33.17 33.35 34.09 33.05 33.38 31.20
42.88 43.36 42.07 42.10 42.73 43.58 44.78 45.75 46.22 46.00 44.15 34.76 26.39 26.64 28.83 28.25 28.62 27.31 27.88 26.26 27.07 27.68 28.91 29.46 27.27 28.93 30.05 27.61 29.61 28.11 30.75 31.36 31.12 36.22 35.75 36.11 29.69 30.97 30.19 33.75 33.45 30.65 33.61 35.07 35.16 35.05 35.22
42.86 42.16 42.12 41.72 42.43 43.43 44.53 45.45 46.19 46.19 43.29 36.83 33.71 33.11 31.43 27.12 26.35 25.73 26.24 27.93 28.20 29.85 30.72 32.34 30.29 28.84 28.59 31.54 35.24 36.35 36.69 35.85 35.29 33.08 33.07 34.18 32.08 29.79 25.49 31.76 30.73 26.90 31.65 34.09 35.01 37.64 36.93
42.68 42.12 42.15 42.28 42.37 43.16 44.32 45.55 45.83 46.07 43.99 39.09 35.65 34.76 29.85 23.42 25.59 25.76 27.14 28.48 27.49 28.33 26.67 30.29 31.78 29.77 34.34 39.76 39.43 37.88 36.55 35.95 35.84 35.72 36.73 32.29 30.99 30.63 26.80 29.03 19.22 33.77 40.08 39.37 37.21 37.64 38.57
42.15 42.23 41.74 42.56 42.00 42.68 44.09 44.86 45.48 45.69 46.30 40.27 39.25 35.54 31.09 24.01 27.06 26.90 27.60 27.66 29.02 30.37 28.44 29.13 32.58 35.53 38.67 38.28 31.83 29.16 29.45 30.54 32.16 34.51 34.73 35.82 32.40 28.05 24.66 25.02 28.43 33.26 37.27 36.93 36.03 34.42 39.20
41.77 41.89 41.86 42.53 41.69 42.38 43.76 44.42 45.25 45.58 46.26 41.87 39.48 40.38 35.56 28.75 26.38 30.38 27.89 28.83 26.54 27.23 28.90 31.07 36.78 38.71 39.07 33.39 30.91 25.00 23.00 26.64 26.63 30.59 36.05 35.15 35.02 30.29 27.17 22.24 20.02 31.52 38.95 41.03 41.07 30.82 38.89
41.61 41.46 41.82 42.03 41.59 42.08 43.19 44.28 44.70 45.55 46.35 43.80 40.25 40.82 36.78 30.64 31.35 32.38 28.46 28.81 31.66 30.48 28.82 30.90 32.70 33.45 36.33 31.01 27.92 26.13 25.19 30.14 24.79 26.12 27.97 29.05 30.64 27.52 26.33 24.31 28.10 35.12 37.66 41.14 29.57 30.60 38.90
41.05 41.12 41.51 41.60 41.20 41.24 42.52 43.77 44.29 45.22 46.09 44.86 41.20 41.39 37.00 32.65 33.15 35.01 34.62 31.21 31.75 32.27 28.58 31.78 30.33 32.55 32.16 28.64 28.10 28.83 27.41 29.06 28.63 30.99 29.34 28.56 27.11 26.80 27.49 24.08 21.13 36.08 37.60 33.23 35.33 36.82 36.72
40.81 40.91 41.16 41.53 40.94 40.93 42.30 43.31 43.96 44.94 45.79 46.14 39.35 41.69 42.05 36.04 35.21 38.76 38.06 38.33 36.65 36.28 33.25 33.14 31.80 32.82 33.15 29.41 30.62 32.11 29.13 29.77 28.84 25.55 34.28 28.72 32.35 30.51 30.04 29.72 35.13 36.18 34.84 35.82 37.58 34.71 34.21

GFSGBSN_sfc_wetblb_108.txt.gz
Wetbulb
51.38 51.62 51.49 51.24 51.55 51.64 51.17 50.80 50.36 50.41 50.53 50.79 50.92 51.02 51.21 51.49 51.50 51.45 51.50 52.06 51.38 51.30 51.47 51.56 51.53 51.19 48.98 43.21 43.68 49.72 55.20 53.68 50.45 53.24 50.04 48.57 46.93 46.95 44.80 46.66 48.25 47.39 48.67 50.15 50.63 50.29 50.18
50.25 49.66 50.05 50.01 50.12 50.10 50.15 49.95 50.13 50.13 50.44 50.53 50.61 50.53 50.38 50.47 50.54 50.53 50.27 50.82 51.10 50.55 50.91 51.38 51.50 50.90 46.28 36.70 49.95 50.53 50.00 48.92 48.64 53.20 49.26 49.58 47.71 49.04 46.68 46.07 45.70 48.63 48.61 49.03 49.82 49.86 50.13
49.63 49.40 49.22 49.08 48.99 49.25 49.64 49.64 49.66 49.77 49.83 49.83 49.87 49.83 49.78 49.82 49.74 49.93 49.76 50.04 50.70 50.74 50.72 51.10 51.46 49.78 42.39 40.47 50.10 50.97 49.79 48.42 48.65 49.14 49.33 50.93 50.02 48.46 47.85 45.20 48.58 47.18 44.31 46.37 47.02 47.68 47.29
47.91 48.06 48.53 47.77 47.73 48.26 48.44 48.78 49.11 49.21 49.14 49.22 49.40 49.33 49.53 49.61 49.48 49.66 49.55 49.77 49.60 49.70 50.14 50.80 50.96 48.64 39.02 49.00 50.76 49.09 49.74 48.23 49.06 49.07 48.16 50.50 49.40 48.25 48.10 49.26 46.59 43.95 44.74 40.87 46.86 48.22 48.04
47.24 47.70 47.31 46.82 46.88 47.34 47.55 47.63 47.90 48.45 48.57 48.64 48.62 48.49 48.62 49.21 49.24 49.67 49.70 49.34 49.57 49.18 49.90 51.21 48.52 45.01 38.31 49.16 45.01 48.36 48.89 45.47 47.17 47.97 48.20 47.52 47.37 46.70 47.30 43.19 41.46 43.66 39.86 42.13 44.31 48.80 48.05
47.54 47.24 46.96 46.44 46.52 46.70 46.90 47.09 47.09 47.57 47.94 48.22 48.14 48.23 48.27 48.32 48.85 48.89 48.90 49.14 49.27 48.62 49.44 49.69 47.08 38.86 42.92 40.72 46.30 49.91 53.00 49.32 46.75 45.99 43.79 42.92 42.71 40.81 42.74 41.26 35.34 38.61 39.86 41.69 41.79 46.48 47.04
47.13 46.53 46.08 45.89 46.14 46.48 46.68 46.98 46.67 47.04 47.35 47.68 47.90 48.07 48.14 47.97 47.95 48.48 47.22 46.37 41.83 40.88 41.40 37.00 37.84 38.04 41.31 44.38 47.46 46.55 51.05 48.57 47.61 44.16 37.67 40.30 36.87 35.61 39.44 42.16 42.33 41.73 40.02 38.63 41.89 45.48 45.15
46.11 45.83 45.57 45.35 45.53 46.11 46.27 46.32 46.19 46.42 47.13 47.81 47.77 47.77 47.69 47.60 47.71 47.20 46.94 40.79 38.52 40.33 32.49 39.89 39.67 39.54 41.82 43.04 37.50 42.28 49.07 44.43 43.09 38.73 40.28 37.75 34.75 40.28 41.73 41.63 39.62 37.63 35.65 38.04 40.27 44.04 43.94
45.38 45.22 45.06 45.18 45.14 45.46 45.66 45.79 46.15 46.59 47.04 47.33 47.17 47.30 47.33 47.23 47.72 45.61 43.77 41.60 46.39 45.19 34.19 36.57 40.39 40.17 40.67 41.63 37.14 39.00 44.90 45.32 42.02 39.52 38.39 35.87 38.22 40.19 39.20 38.17 37.32 37.96 35.90 34.93 35.95 40.79 42.56
45.15 44.64 44.14 44.17 44.67 44.85 45.63 45.94 46.13 46.40 46.74 46.79 46.78 46.76 46.77 46.94 43.98 45.18 42.70 46.24 47.48 46.15 28.37 33.09 37.57 41.33 42.30 41.64 37.27 44.85 45.02 44.57 43.21 39.14 38.78 38.33 41.75 38.96 37.88 36.46 37.90 34.92 40.72 39.04 37.33 36.05 33.89
44.92 43.88 43.86 43.60 45.32 44.93 45.22 45.68 45.93 46.03 46.23 46.19 46.29 46.82 46.70 46.11 45.07 42.46 44.25 47.33 47.28 42.46 18.78 35.85 35.69 46.39 41.97 38.24 40.67 41.59 45.71 42.84 38.89 40.51 40.30 37.21 37.92 37.80 37.20 38.02 38.94 36.59 40.25 37.93 37.96 37.03 35.72
44.12 43.50 43.18 43.48 44.68 44.69 44.93 45.14 45.28 45.53 46.34 46.09 46.12 46.89 46.55 46.17 46.19 46.15 47.37 46.96 44.00 29.40 18.97 31.23 35.14 33.99 36.32 39.64 39.88 41.90 41.34 43.82 43.09 40.44 41.59 40.66 44.45 41.82 40.38 40.36 40.13 40.74 37.84 37.86 37.79 36.30 30.00
44.00 42.99 43.36 43.92 44.32 44.98 44.98 44.71 45.17 45.79 46.18 45.90 46.33 46.77 45.91 47.01 42.15 47.65 47.12 42.24 29.92 23.79 33.91 29.18 29.75 32.60 34.27 36.07 37.19 38.41 37.37 36.72 34.98 31.63 33.22 37.91 39.23 42.14 43.91 38.48 39.78 38.48 36.26 31.08 28.89 29.04 29.79
43.59 43.76 44.00 43.58 44.26 43.99 44.26 44.87 45.19 45.83 46.26 45.96 46.46 44.94 44.77 46.46 47.07 46.84 44.05 36.09 21.77 28.02 28.09 34.60 32.42 31.52 31.49 34.65 36.69 37.40 36.58 35.13 38.75 37.24 34.55 31.96 30.03 38.34 41.95 40.84 37.31 36.14 36.52 31.59 23.80 28.23 31.26
43.02 43.98 44.36 43.93 43.71 43.71 44.07 44.87 45.41 45.95 46.23 46.07 45.48 46.98 45.82 46.03 46.80 46.15 37.76 29.65 25.99 28.39 31.47 29.80 32.02 27.25 29.82 32.73 33.71 36.05 34.88 34.21 36.99 39.68 33.49 32.37 32.21 39.08 40.76 42.05 41.54 37.23 34.27 40.40 34.33 35.02 32.34
43.60 44.31 43.31 43.13 43.82 44.29 44.22 44.53 45.33 45.73 45.80 45.58 43.69 43.56 42.54 47.42 47.73 42.59 34.32 23.99 29.05 33.50 33.31 32.59 26.91 29.81 26.37 28.52 30.08 33.45 34.00 35.95 36.07 39.24 42.18 36.94 31.23 37.05 38.30 40.02 40.73 39.19 40.99 32.66 35.39 26.20 25.39
43.09 43.30 42.60 43.51 44.45 44.20 44.20 44.93 45.46 45.64 45.50 44.45 43.06 38.09 42.72 47.03 46.45 38.98 27.53 27.06 29.38 34.72 35.49 31.51 30.10 28.96 29.72 28.36 30.78 31.37 31.96 35.44 37.79 38.72 42.21 39.95 37.24 35.62 38.72 36.31 34.24 34.92 35.23 36.59 36.93 35.28 29.41
42.85 43.13 43.06 43.92 43.50 43.45 44.34 45.35 45.87 45.82 45.44 43.36 40.98 33.76 43.18 46.33 36.44 36.53 30.69 31.09 32.98 33.60 36.69 34.90 35.07 32.97 31.12 31.47 30.42 30.74 30.11 33.52 38.66 38.09 36.25 39.24 36.93 32.90 35.20 41.15 41.71 38.68 35.96 37.24 31.52 30.67 34.05
42.65 43.28 43.63 42.73 43.35 43.67 44.46 45.44 45.56 45.79 44.27 43.91 37.76 37.63 44.64 43.51 30.31 30.06 32.97 31.95 33.20 32.96 33.70 33.96 33.10 35.14 36.12 31.95 28.60 32.55 33.72 38.78 39.51 39.10 37.08 37.81 35.03 29.81 31.86 37.15 40.64 38.48 39.73 39.23 38.95 38.50 34.02
43.81 43.22 44.05 43.36 43.08 43.30 44.07 45.05 45.96 45.96 44.49 44.69 38.29 31.76 37.73 40.82 38.02 31.33 29.53 30.23 30.60 36.07 34.43 35.43 34.09 35.79 33.52 32.51 35.01 31.50 33.46 37.37 39.34 40.01 40.47 40.63 35.50 32.12 29.13 32.60 37.24 35.07 38.16 39.75 38.91 34.46 34.88
43.90 43.22 43.67 43.27 42.54 42.65 43.77 45.08 46.19 46.24 45.37 43.37 38.32 32.76 33.75 30.86 33.37 31.84 31.60 30.52 29.57 29.39 34.30 36.17 33.10 32.94 30.88 27.60 31.55 31.01 34.28 35.67 38.26 39.56 39.19 38.20 32.40 34.81 35.66 36.25 36.55 36.57 36.59 38.04 37.05 38.13 34.13
43.65 43.02 43.91 42.77 41.96 42.57 43.42 44.96 46.02 46.22 44.68 41.69 34.11 35.04 35.69 34.34 31.96 30.86 30.59 29.87 28.13 30.77 31.02 30.95 31.91 33.01 33.18 29.77 31.76 30.51 33.56 34.42 33.76 37.47 36.49 37.97 32.79 32.86 31.93 35.82 36.09 34.40 37.11 38.22 38.32 38.29 38.12
43.60 43.42 43.12 42.17 41.88 42.57 43.36 44.64 45.75 46.41 44.78 39.66 41.22 40.03 36.93 32.01 30.76 30.41 31.03 30.05 30.14 32.17 33.08 34.15 33.07 31.87 31.77 34.62 37.91 38.57 39.49 39.41 38.63 36.16 33.50 34.12 33.65 31.42 28.37 33.79 33.54 29.97 35.16 37.19 38.53 39.61 39.10
43.30 43.05 42.79 42.43 41.83 42.53 43.14 44.34 45.47 46.28 44.58 42.23 40.70 41.03 34.67 30.71 31.60 31.46 30.52 31.19 30.62 31.56 30.20 33.26 34.91 33.00 36.74 41.60 41.63 41.86 40.83 39.39 39.11 38.62 39.09 33.57 33.02 33.20 29.75 31.27 22.00 36.14 42.43 41.64 38.97 39.87 41.17
42.81 42.52 42.81 42.46 42.53 42.66 42.97 43.85 45.13 45.56 45.67 42.38 41.59 40.05 35.62 30.17 33.24 32.02 31.89 31.88 33.03 33.75 32.25 32.97 35.78 38.89 41.88 39.97 35.26 32.12 32.71 33.53 35.13 38.05 37.84 38.31 33.85 30.09 27.49 28.02 31.46 34.35 37.64 38.00 37.26 35.97 40.57
42.74 42.48 42.41 42.17 42.35 42.64 42.53 43.51 44.63 45.27 45.68 42.96 40.85 41.67 38.00 31.80 33.30 34.30 32.32 32.79 31.59 32.00 32.71 34.04 39.50 41.83 41.19 37.03 33.49 26.40 25.39 27.56 28.21 32.28 38.01 36.98 36.47 31.90 30.84 24.52 21.72 34.72 38.16 43.20 43.40 31.87 40.33
42.97 42.22 42.35 42.13 42.33 42.26 42.18 43.09 44.04 45.04 45.39 44.35 41.10 42.71 37.19 33.05 36.18 36.41 33.63 33.32 35.71 34.14 32.41 34.81 35.25 36.05 40.09 31.78 30.38 28.55 28.36 33.01 27.52 27.52 28.81 31.61 32.49 29.40 28.87 27.32 31.37 37.34 38.23 41.92 31.97 32.16 38.10
42.72 42.36 41.74 41.79 42.00 42.17 41.84 42.42 43.60 44.44 44.96 44.49 41.70 42.91 39.19 34.51 36.94 38.48 38.36 35.65 36.29 35.53 31.89 35.58 34.50 35.75 35.84 31.03 30.97 31.07 30.47 32.94 31.60 32.82 31.54 30.53 29.43 30.28 30.64 26.63 24.01 37.62 40.40 35.16 36.31 38.55 38.33
42.51 42.25 41.28 41.30 41.89 41.90 41.24 41.57 42.93 44.09 44.73 45.61 40.47 42.42 42.69 36.09 38.08 41.40 42.25 42.80 41.35 40.40 36.08 36.38 34.76 34.26 36.53 32.91 34.34 33.77 31.60 34.46 32.15 28.98 36.67 30.41 33.62 30.89 32.71 32.30 35.77 36.08 34.56 37.32 39.77 38.66 37.64

GFSGBSN_sfc_wetblb_111.txt.gz
Wetbulb
51.96 52.10 51.96 51.87 51.76 51.54 51.00 50.12 50.17 50.39 50.74 50.60 50.62 50.72 50.56 50.76 50.84 50.84 50.64 50.63 50.72 50.77 51.09 51.31 51.76 52.00 50.32 45.08 45.66 52.68 57.07 57.10 52.05 51.53 51.63 51.32 49.10 49.38 46.84 49.00 50.71 49.45 50.70 52.19 52.87 52.63 52.74
51.44 50.88 50.88 50.39 50.07 49.77 49.84 49.82 49.69 49.85 49.87 49.96 49.83 49.98 50.14 50.32 50.27 50.29 50.25 50.50 50.70 50.44 50.55 50.96 51.33 51.39 47.68 39.76 51.32 52.74 51.82 50.54 50.21 48.92 47.43 49.73 49.07 50.53 48.60 49.25 49.24 51.18 51.35 51.30 52.14 52.08 52.10
50.66 50.64 50.20 49.65 49.55 48.93 48.98 48.67 48.77 49.17 49.18 49.16 49.55 49.35 49.44 49.48 49.61 49.54 49.58 49.72 50.57 50.27 49.86 50.24 50.54 50.49 45.03 43.20 51.54 52.37 51.70 50.26 50.64 49.95 49.00 51.79 50.24 49.36 49.54 47.08 50.59 49.53 46.74 48.71 49.79 50.69 50.63
50.06 49.58 49.46 48.72 48.26 48.15 48.00 48.44 48.39 48.38 48.71 48.90 48.94 48.81 48.98 49.11 49.09 49.14 49.16 49.60 50.08 49.53 49.88 50.12 50.64 49.15 41.66 51.16 52.64 50.16 50.98 49.61 50.89 50.53 49.10 51.38 52.25 49.51 48.71 50.67 48.63 46.07 46.57 42.46 48.02 49.26 49.72
48.98 49.26 48.66 47.91 47.36 47.25 47.23 47.27 47.42 47.81 48.20 48.33 48.38 48.44 48.66 48.75 49.08 49.52 49.65 49.63 49.65 49.95 50.53 50.61 49.58 47.35 41.30 52.02 47.21 50.20 50.20 46.66 48.36 49.03 49.34 48.98 48.97 47.52 47.26 44.11 43.17 45.14 40.55 42.69 45.07 49.99 49.03
48.55 48.54 48.00 47.35 47.03 46.78 46.80 46.99 46.82 47.21 47.39 47.85 48.11 48.31 48.40 48.44 49.00 48.93 49.05 49.10 50.06 50.72 50.34 49.77 49.23 43.04 45.05 42.03 46.48 48.26 50.57 51.03 46.94 46.11 45.52 44.79 43.79 41.65 42.17 42.13 36.68 40.45 41.56 43.36 44.25 48.68 49.06
48.58 48.07 47.42 46.96 46.86 46.62 46.50 46.32 46.38 46.55 47.02 48.00 48.09 48.11 48.10 48.06 48.34 48.67 48.61 48.97 44.16 43.46 44.83 39.19 39.65 39.37 41.16 45.89 48.14 45.62 46.86 46.03 47.90 43.48 38.85 42.16 37.52 36.12 39.78 42.48 44.49 44.03 42.22 42.04 45.35 48.31 47.57
47.65 47.26 46.86 46.33 46.01 46.06 45.88 45.80 46.08 46.50 46.99 47.65 47.49 47.66 47.77 47.93 47.91 48.02 48.97 43.71 42.46 42.23 34.19 42.01 42.68 43.10 47.05 48.11 42.71 44.27 45.44 37.72 40.21 39.44 41.64 39.43 34.99 40.59 43.01 43.20 42.85 43.26 41.12 41.16 45.00 46.46 45.13
46.92 46.50 46.36 45.93 45.60 45.70 45.78 45.80 46.03 46.52 46.93 46.97 47.02 47.25 47.39 47.31 47.43 47.78 46.74 44.53 48.93 45.72 35.80 39.02 43.76 43.85 42.79 44.91 40.47 41.26 42.67 39.49 35.55 39.14 39.99 36.84 38.48 41.65 41.75 41.12 40.24 41.59 40.64 40.40 40.04 42.55 42.97
46.14 45.62 45.35 45.09 45.04 44.99 45.28 45.51 45.85 46.23 46.28 46.47 46.52 46.83 47.17 47.86 44.88 47.50 46.11 48.51 49.61 47.40 32.17 36.71 40.00 41.79 43.66 42.01 39.16 46.23 44.46 41.68 38.14 36.91 40.95 39.22 41.61 40.21 39.85 39.51 41.17 37.85 43.07 41.00 39.13 37.32 32.62
45.69 45.17 44.55 44.60 45.35 45.43 44.90 45.06 45.36 45.61 45.87 46.59 46.35 46.55 47.17 46.84 46.31 44.62 46.23 49.54 49.31 42.89 23.30 38.25 39.24 45.59 43.09 39.90 42.29 40.71 46.48 43.48 37.30 38.21 38.66 38.73 39.51 39.62 38.34 39.54 41.99 39.26 42.87 40.55 39.70 37.67 37.45
45.42 44.92 44.48 44.27 45.23 44.77 44.77 44.68 45.04 45.54 46.36 46.33 46.28 46.93 47.41 48.24 48.76 48.52 49.87 49.22 46.65 30.38 23.12 34.50 39.03 37.56 37.29 39.80 42.15 43.27 42.88 44.82 44.34 39.17 38.87 40.68 44.37 42.63 41.73 42.47 42.86 42.87 39.62 39.09 39.09 37.78 31.52
44.76 44.19 44.56 45.21 44.84 44.63 44.41 44.34 44.77 45.56 46.28 46.53 46.28 46.93 46.52 48.44 44.62 49.95 49.68 45.46 32.52 26.96 36.64 31.93 32.98 36.91 36.20 34.52 36.83 40.58 38.39 37.18 36.03 33.34 31.91 39.09 40.26 43.21 44.19 40.84 42.97 41.04 37.47 27.86 26.02 27.91 29.17
44.57 44.34 44.26 44.07 44.91 44.16 44.07 44.45 45.08 45.84 46.39 46.67 46.47 46.33 46.42 48.76 50.32 50.11 46.54 37.98 25.59 31.57 32.25 36.27 35.36 35.30 32.13 33.67 35.44 37.20 37.62 34.80 38.50 37.43 34.71 32.51 30.52 40.35 44.46 41.17 38.32 38.88 37.81 31.22 23.94 26.11 29.49
44.50 44.95 45.92 45.40 44.54 43.75 43.98 44.36 45.30 45.92 46.18 46.34 45.90 48.45 48.30 49.04 50.43 48.54 41.38 31.07 30.03 31.46 34.13 33.14 35.14 31.12 32.29 33.76 32.11 34.45 36.57 36.24 38.93 41.15 33.79 32.63 33.43 42.58 44.11 43.88 43.13 38.60 35.53 40.98 34.45 36.73 33.32
44.11 44.99 44.54 43.97 43.94 44.16 44.00 44.40 45.44 45.90 46.07 45.81 45.91 45.57 45.19 49.24 50.70 46.10 38.66 28.17 31.67 35.04 35.89 36.02 29.75 32.92 28.44 30.70 30.47 31.45 34.27 36.21 35.56 39.83 43.75 39.30 32.20 39.35 41.33 44.10 43.41 41.13 42.47 34.66 35.92 26.70 26.56
44.33 44.84 43.56 43.88 44.60 44.93 44.42 44.70 45.54 46.08 46.13 45.92 45.34 40.99 45.66 49.59 49.35 43.07 32.82 31.66 33.58 37.23 37.38 34.27 32.64 31.79 32.30 30.45 32.38 31.21 32.08 36.75 38.25 39.24 43.03 41.29 38.25 35.91 39.51 36.91 36.80 38.07 37.55 38.42 37.95 35.66 29.44
43.92 44.32 43.65 43.82 44.05 43.70 44.21 45.05 46.00 46.21 46.34 44.51 44.18 38.14 46.46 48.72 39.28 40.10 34.70 33.94 35.48 36.14 38.64 36.82 37.11 34.94 33.67 33.82 31.79 32.04 31.64 33.88 38.67 39.89 35.75 40.24 37.91 33.39 36.28 42.22 43.07 40.19 38.39 39.11 33.40 31.91 35.17
43.72 43.71 43.80 43.88 44.15 43.73 44.31 44.87 45.61 45.99 45.75 45.95 41.46 40.94 47.38 46.50 34.59 36.57 36.05 34.95 36.09 35.88 36.01 35.34 34.42 36.18 36.93 34.18 30.49 33.47 34.94 39.48 40.21 39.04 36.62 38.50 36.36 29.25 32.29 38.89 41.04 37.62 38.81 39.90 39.75 38.83 33.17
43.75 43.67 44.35 43.40 44.39 43.73 43.75 44.60 45.90 46.48 45.92 44.98 40.66 35.16 41.28 43.97 40.70 34.91 32.83 32.69 33.50 38.02 36.88 37.26 36.03 37.75 35.58 33.42 36.44 32.96 34.26 37.91 40.67 40.50 40.81 40.84 36.07 32.79 29.61 32.37 38.18 36.56 38.16 38.98 38.53 33.89 34.88
44.05 44.05 43.93 43.83 43.83 43.11 43.15 44.14 45.77 46.40 46.21 44.16 41.31 36.13 37.55 34.69 36.67 34.85 34.95 33.94 32.52 32.34 36.97 38.45 35.70 35.85 33.90 30.55 32.86 33.01 36.09 36.99 39.57 41.33 40.62 39.24 33.40 35.71 35.94 37.02 38.64 36.80 37.52 39.30 37.47 38.36 34.31
44.00 43.93 43.78 43.87 43.57 42.87 42.87 44.14 45.52 46.24 46.17 42.28 33.36 37.32 39.38 38.76 34.79 33.54 32.55 33.17 32.05 33.95 34.70 33.54 33.59 35.03 35.58 32.74 33.87 32.30 35.22 36.02 35.05 39.56 38.49 38.72 33.39 36.15 34.04 37.70 37.94 36.11 38.31 38.94 39.37 39.11 38.97
44.21 43.68 43.77 43.81 42.68 42.55 42.87 43.93 45.16 46.41 45.44 40.77 44.02 44.05 39.40 34.76 34.38 34.08 34.39 32.85 32.89 35.13 35.86 36.55 35.50 34.19 34.00 36.33 38.95 39.66 40.23 40.15 39.41 36.83 35.78 35.29 33.92 33.52 29.71 35.61 35.41 31.78 36.97 38.40 39.20 40.62 40.15
43.68 44.12 44.03 43.20 42.88 42.40 42.92 43.57 44.63 46.03 45.44 46.13 43.40 42.58 35.88 31.69 35.50 34.10 34.12 34.92 33.75 34.77 32.79 35.72 37.29 35.26 39.02 43.35 42.92 42.85 42.29 41.60 41.04 39.97 39.68 35.66 34.12 34.02 30.71 32.42 23.87 37.09 43.25 42.24 39.91 41.36 42.53
44.57 43.99 43.56 43.36 42.84 42.62 42.86 43.31 44.24 45.40 46.00 45.61 47.41 41.06 38.25 31.83 34.55 34.70 34.67 34.84 36.23 37.36 35.10 35.79 38.22 40.99 43.38 40.66 35.35 33.55 34.44 34.59 36.57 39.37 38.89 38.84 35.38 31.87 29.02 29.41 33.64 36.49 39.77 38.83 38.22 36.70 41.94
44.65 43.59 43.17 43.21 42.94 42.79 42.89 43.06 43.83 44.89 45.96 43.36 42.49 47.64 42.57 34.56 35.01 37.24 35.25 36.40 34.11 33.95 35.46 36.85 41.35 43.80 42.34 37.22 34.08 28.23 26.93 30.46 29.89 32.82 39.68 38.68 39.25 33.18 31.93 26.22 23.44 32.90 38.77 41.61 41.56 33.63 40.04
44.42 43.78 42.91 42.93 42.61 42.96 42.76 42.84 43.34 44.41 45.08 45.96 42.68 43.71 39.17 34.97 39.44 39.64 35.91 35.15 38.46 36.43 33.79 37.37 38.19 38.34 41.96 33.39 30.89 30.36 29.82 35.29 29.04 28.02 29.40 32.65 33.42 30.46 30.80 28.94 33.13 38.08 41.42 41.05 31.62 31.36 39.29
44.08 43.93 43.28 42.88 42.44 42.89 42.64 42.56 42.99 43.79 44.63 45.35 43.25 43.93 39.84 36.72 39.65 40.69 41.51 38.32 38.18 37.19 32.63 37.28 36.57 37.28 36.26 31.84 31.93 31.91 31.60 34.18 33.20 34.19 32.02 31.25 30.28 30.56 32.81 28.74 25.60 39.14 39.97 33.32 34.58 38.83 39.10
43.70 43.52 43.41 43.12 42.82 42.64 42.61 42.08 42.51 43.11 44.13 45.16 41.21 43.22 43.93 37.30 37.54 43.95 44.62 45.37 43.84 41.56 38.41 38.41 35.45 35.20 36.66 34.01 35.54 34.27 31.21 34.82 33.13 28.95 38.21 31.37 34.03 30.22 33.60 30.88 35.59 36.93 35.19 37.19 39.29 38.34 38.70

GFSGBSN_sfc_wetblb_114.txt.gz
Wetbulb
53.78 53.11 52.67 52.10 51.76 51.77 51.61 50.31 50.06 50.13 49.98 50.11 50.13 50.15 50.28 50.59 50.52 50.56 50.47 50.31 50.49 50.57 50.55 50.80 51.11 51.34 49.02 43.73 44.24 51.89 57.38 57.25 52.87 50.48 48.23 49.77 49.31 48.05 44.75 46.63 47.97 47.43 49.05 51.45 52.93 52.61 52.73
52.81 52.43 52.39 52.04 51.64 51.36 50.73 49.94 49.71 49.73 49.41 49.51 49.72 49.76 49.66 49.55 49.81 49.83 49.85 49.80 49.71 49.57 49.95 50.42 50.80 50.55 45.11 37.32 50.22 51.46 50.82 50.50 49.86 48.76 47.14 46.53 45.91 49.30 47.73 47.54 46.93 48.72 49.23 50.45 51.78 52.01 52.58
52.44 51.69 51.32 50.75 50.34 50.37 50.23 49.47 48.75 48.78 48.58 48.64 48.79 48.90 49.00 49.18 49.31 49.44 49.46 49.26 49.80 49.50 49.95 50.36 50.76 49.10 43.14 40.96 50.35 51.50 51.11 49.49 49.91 49.18 46.27 48.02 47.18 45.59 47.46 45.82 49.57 49.06 46.14 49.10 50.02 51.22 50.69
51.53 51.25 50.65 49.97 49.56 49.02 48.75 48.72 48.58 48.12 48.20 48.46 48.53 48.68 48.88 49.03 49.27 49.03 48.86 49.56 49.69 49.54 50.01 50.74 50.82 47.73 40.54 50.88 52.44 49.85 50.60 49.21 50.20 49.99 48.63 49.23 49.97 46.58 46.25 47.53 47.05 44.74 45.29 41.56 47.85 49.32 50.25
50.73 50.24 50.01 49.18 48.74 48.24 47.98 47.42 47.22 47.32 47.50 47.89 48.31 48.53 48.83 48.82 49.02 49.28 49.50 49.43 50.08 50.16 50.72 51.88 47.94 47.51 41.71 53.16 46.65 47.48 47.92 46.42 48.62 49.54 48.71 48.83 47.48 45.38 46.47 41.39 40.15 42.90 39.00 41.27 43.50 48.80 48.23
49.86 50.10 49.36 48.59 48.11 47.94 47.74 47.21 46.59 46.62 46.77 47.83 48.26 48.33 48.42 48.53 49.20 49.08 49.00 49.34 50.61 51.48 51.27 49.78 48.46 42.20 44.95 41.90 45.89 49.05 49.70 47.93 44.95 44.87 45.53 44.62 42.45 39.36 40.69 40.27 32.95 37.10 38.89 41.21 41.98 46.45 47.74
49.31 49.63 48.81 48.22 47.86 47.83 47.52 46.99 45.88 45.77 46.60 47.67 47.77 47.87 48.09 47.95 48.01 48.67 48.26 49.20 43.57 43.86 44.59 38.89 39.50 39.39 41.46 46.14 50.20 47.13 49.32 47.47 45.53 41.95 35.43 41.27 36.62 33.60 35.89 40.99 42.50 41.55 41.01 41.23 44.41 47.47 46.52
49.31 48.97 48.27 47.64 47.43 47.40 46.99 46.19 45.90 46.10 46.77 47.28 47.52 47.57 47.66 47.91 47.87 48.11 48.63 43.95 43.15 43.03 35.50 42.71 42.88 42.88 45.44 47.46 41.63 45.26 49.16 42.48 41.39 34.51 37.22 35.93 33.50 38.16 39.73 40.20 39.79 40.55 39.55 40.79 45.17 47.50 45.52
48.42 47.88 47.48 47.11 47.06 46.68 46.20 45.65 45.83 46.03 46.30 46.62 46.88 47.09 47.47 47.85 47.88 48.20 47.52 45.45 48.87 47.91 36.31 40.09 44.27 43.89 44.59 45.20 41.22 43.25 45.65 43.50 38.41 34.34 33.53 31.12 36.59 40.03 38.33 37.31 37.42 38.87 38.60 40.68 41.33 42.86 42.74
47.88 47.15 46.92 46.69 46.60 46.48 45.91 45.76 45.65 45.83 45.95 46.42 46.81 46.74 47.11 47.62 45.53 47.59 45.64 48.45 49.57 48.51 31.83 37.63 40.06 42.24 43.72 44.45 41.12 47.41 46.59 41.76 35.58 31.26 34.12 35.35 40.51 37.88 36.92 35.65 38.13 36.47 41.90 41.99 41.98 39.51 32.53
46.77 46.15 45.73 45.53 45.83 45.63 45.40 45.11 44.90 45.38 46.07 46.81 46.35 46.84 47.33 47.43 46.21 45.24 46.76 49.58 49.66 45.26 22.85 38.65 39.55 45.79 44.15 41.58 41.73 43.62 48.24 40.24 34.49 34.52 35.30 34.05 37.06 37.61 35.92 36.53 39.34 38.38 42.97 41.94 41.45 38.14 36.00
46.31 45.84 45.34 44.92 46.12 45.36 45.16 44.84 44.65 45.53 46.20 46.69 46.62 46.69 47.23 48.22 47.35 49.53 49.80 49.56 46.31 31.91 23.69 34.93 39.25 37.39 38.17 40.61 40.32 43.20 43.46 46.21 42.32 36.39 37.13 36.35 42.30 41.75 39.78 40.90 40.82 42.80 40.89 40.80 39.98 37.22 28.94
45.91 45.62 44.91 45.11 45.72 45.51 45.12 44.49 44.71 45.25 46.35 46.74 46.95 46.91 46.14 47.99 45.04 49.98 49.85 45.31 32.19 26.82 37.36 33.00 33.12 36.69 37.04 35.21 36.63 38.60 38.40 38.18 33.45 30.42 30.28 35.56 39.36 43.06 43.89 39.16 41.25 40.94 37.37 28.72 26.36 27.05 26.74
45.32 44.91 44.79 45.22 45.26 44.81 44.48 44.53 44.71 45.48 46.30 46.72 46.83 46.99 48.57 48.34 50.42 50.06 46.74 38.10 26.24 32.87 32.28 36.02 35.42 36.38 33.32 35.15 34.81 36.13 36.40 35.93 38.07 36.21 32.63 29.17 27.66 37.69 43.61 40.47 37.78 38.09 37.02 29.47 22.39 23.87 28.17
45.40 44.87 44.92 44.68 45.15 44.73 44.20 44.15 44.93 45.75 46.13 46.49 46.52 47.07 47.68 50.13 50.67 49.08 41.09 30.65 28.86 30.84 34.14 33.02 35.00 31.97 32.31 34.94 34.29 34.22 33.30 34.53 37.87 39.35 32.45 31.40 31.79 40.75 42.56 43.49 42.14 37.80 34.27 40.26 33.80 35.43 31.96
45.24 45.20 46.11 45.84 44.65 44.35 44.17 44.23 45.06 45.83 46.17 46.42 44.28 45.57 45.88 48.69 50.18 46.07 38.12 30.03 32.35 35.78 36.39 36.11 29.99 33.47 29.08 31.78 31.59 33.72 32.41 35.62 35.43 39.55 42.03 37.11 31.73 39.59 39.73 43.76 42.97 40.47 42.14 32.96 34.54 26.14 25.25
44.50 45.16 45.10 44.28 44.49 45.35 44.85 44.57 45.25 46.09 46.52 46.76 44.35 41.12 46.72 49.24 49.12 41.64 33.13 32.76 34.96 38.03 37.92 34.69 32.82 31.57 32.45 31.39 33.06 32.31 32.85 35.91 37.94 38.17 41.57 39.52 35.95 35.72 40.75 37.69 37.06 38.02 36.45 37.49 37.24 35.17 28.07
44.42 45.01 44.09 44.22 44.90 44.25 44.38 44.65 45.89 46.37 46.79 44.69 44.84 38.00 46.98 48.47 38.70 39.41 34.99 34.72 36.37 36.67 39.53 37.40 37.29 35.25 33.29 34.04 32.92 32.52 32.27 34.94 40.07 40.12 35.49 39.39 36.02 30.93 35.20 40.91 42.18 41.01 38.23 38.46 32.45 30.74 34.08
44.45 44.86 44.04 44.35 44.59 44.19 44.61 44.64 45.55 46.42 46.50 44.80 41.12 40.88 47.32 46.99 34.26 34.97 37.21 35.96 37.27 35.76 37.03 36.08 35.14 36.72 37.60 34.06 29.96 33.97 35.28 39.54 40.45 39.81 36.48 38.09 34.17 28.01 31.80 37.81 40.10 36.59 38.06 39.10 39.22 38.19 32.09
44.78 44.04 44.29 44.54 44.53 44.18 44.32 44.27 45.48 46.63 46.99 44.03 41.21 36.18 41.13 42.40 40.31 35.44 34.08 33.90 33.56 39.04 36.88 37.71 36.96 38.39 35.82 33.33 36.08 32.35 34.41 38.05 40.75 40.82 42.59 41.65 35.53 31.78 27.52 31.68 36.33 35.60 36.53 37.84 37.18 32.87 33.15
44.39 43.77 44.28 44.64 44.11 44.08 43.72 43.69 45.40 46.39 46.67 43.79 41.35 37.37 38.48 34.82 36.06 35.46 35.71 34.80 33.08 32.75 37.63 38.50 35.85 35.74 33.52 30.26 32.47 32.34 34.99 36.05 38.49 41.20 40.57 38.92 31.89 33.73 35.14 36.30 33.75 36.58 36.28 38.38 35.52 36.97 33.60
44.55 44.71 44.58 44.43 44.27 43.54 43.05 43.43 44.92 46.15 46.33 43.46 33.65 38.71 40.48 38.17 36.02 34.34 32.54 33.70 32.78 34.33 34.89 33.47 33.20 34.73 34.85 31.87 33.01 30.63 33.84 34.16 33.43 37.54 36.53 38.82 32.04 34.37 33.14 36.60 37.00 33.65 36.35 36.59 36.49 37.54 38.15
44.52 44.71 44.53 44.51 44.02 43.34 42.61 43.18 44.57 45.90 46.16 41.95 42.89 43.69 39.68 36.39 36.28 34.40 34.40 33.30 33.23 35.04 35.88 37.28 35.81 33.96 33.37 35.75 38.13 38.75 39.46 39.32 38.28 35.93 35.10 35.31 33.20 31.82 29.25 35.57 35.35 30.96 36.37 37.81 38.59 40.13 39.43
44.92 44.60 44.20 44.48 43.77 42.89 42.83 43.18 44.11 45.47 45.99 44.48 43.36 41.43 36.18 32.46 35.20 34.91 35.61 35.94 35.01 35.80 33.60 36.22 37.47 35.43 38.75 42.64 42.13 42.08 41.80 41.20 40.64 39.51 39.94 35.07 34.00 33.41 29.80 33.03 23.64 36.64 41.33 41.44 39.89 40.86 42.15
45.12 44.50 44.15 44.11 43.46 43.11 42.73 43.27 43.42 45.21 46.09 45.22 46.22 41.36 37.73 32.78 35.63 35.46 35.83 35.48 37.16 38.18 36.85 37.04 38.92 40.73 42.89 39.85 34.70 32.46 34.67 34.67 36.54 38.73 38.85 39.66 35.70 30.85 28.08 28.32 33.10 33.75 36.56 36.72 36.15 36.31 40.40
45.10 44.76 44.40 44.25 43.76 43.59 43.20 43.20 43.35 44.57 45.26 45.77 45.02 46.08 41.53 34.36 34.96 38.50 35.76 36.60 34.36 34.81 35.50 37.61 42.62 43.95 42.17 36.76 33.21 26.79 25.68 30.73 29.80 32.70 38.47 39.10 38.79 32.94 30.85 25.62 23.29 31.78 38.55 41.98 41.49 30.72 34.25
45.02 44.74 44.37 43.76 43.84 43.20 43.49 43.05 43.22 44.01 44.93 45.61 43.20 44.92 41.53 35.98 39.08 39.54 35.31 35.00 38.51 36.42 34.16 37.33 38.09 38.14 41.80 34.64 29.66 29.13 28.82 35.19 28.20 27.60 29.20 32.27 32.98 30.01 29.82 27.81 30.87 34.92 39.37 41.88 30.48 29.73 36.92
44.88 44.69 44.25 43.78 43.71 43.19 43.20 42.72 43.20 43.59 44.44 45.04 44.70 46.33 41.11 35.80 38.02 40.65 41.30 37.56 38.26 37.65 33.12 36.98 35.84 36.06 36.19 31.47 31.32 31.08 30.40 32.57 32.04 34.16 32.27 29.94 28.91 27.24 30.04 27.59 24.97 35.93 37.97 31.75 34.81 37.68 38.13
44.38 44.26 44.09 43.82 43.65 43.45 43.23 42.75 42.99 43.05 43.86 44.32 42.05 45.57 45.40 36.76 37.49 41.87 42.82 44.06 43.30 42.42 38.88 38.61 35.74 35.30 36.60 33.57 34.27 33.69 30.48 33.63 32.33 28.20 37.25 29.77 33.35 29.87 31.53 29.27 33.98 35.18 35.32 37.04 37.80 36.83 37.37

GFSGBSN_sfc_wetblb_117.txt.gz
Wetbulb
56.25 55.16 54.16 53.52 52.56 51.94 51.89 51.22 50.30 50.30 49.96 49.94 49.96 50.12 50.36 50.37 50.35 50.17 50.10 50.16 50.25 50.33 50.21 50.34 50.63 50.95 46.39 40.65 41.54 49.36 58.05 55.86 53.08 49.94 46.88 44.77 41.97 42.62 41.75 42.92 42.99 41.00 43.99 46.42 48.23 49.10 49.15
55.42 54.22 53.67 53.03 52.43 52.24 52.36 51.03 50.42 50.23 49.68 49.61 49.67 49.59 49.54 49.69 49.93 49.84 50.01 49.93 49.80 49.80 49.91 50.21 50.46 50.32 42.86 33.16 46.85 48.86 48.96 48.63 47.64 46.12 44.55 44.56 42.65 42.95 39.80 40.67 42.50 44.95 44.74 45.23 47.00 47.69 48.91
54.24 53.30 52.97 52.61 52.17 51.84 51.14 50.34 49.99 49.32 48.86 49.01 49.24 49.24 49.32 49.45 49.54 49.71 49.45 49.24 49.47 49.09 49.76 50.50 50.64 47.95 40.79 37.52 46.71 47.65 48.81 47.22 47.76 46.97 44.03 45.76 45.27 41.88 40.69 38.26 43.79 45.32 41.66 44.47 45.84 46.21 46.47
53.68 53.20 52.56 51.66 50.80 50.65 50.34 49.45 49.15 48.58 48.33 48.59 48.92 48.79 48.96 49.15 49.16 49.11 49.09 49.79 49.68 49.73 50.56 51.10 50.63 45.14 37.14 48.83 47.45 48.23 45.69 44.60 46.29 47.80 46.63 46.73 46.61 42.76 40.22 42.07 39.55 36.69 38.67 35.99 43.09 45.87 46.93
52.90 52.30 51.52 50.72 50.12 49.44 49.05 48.95 48.01 47.85 47.87 47.94 48.30 48.52 48.77 48.97 48.93 49.43 49.59 49.72 49.69 50.39 51.39 51.29 46.12 42.88 38.66 51.89 45.97 45.79 46.85 45.74 46.64 46.39 45.44 47.01 45.77 40.32 39.79 35.15 33.67 34.49 30.50 34.08 38.94 44.95 45.35
52.29 51.70 50.96 50.14 49.43 49.03 48.56 48.22 47.50 47.12 47.19 47.76 48.33 48.40 48.33 48.46 48.70 49.10 49.06 49.69 50.16 50.75 50.06 49.40 46.85 37.74 42.03 40.29 43.99 46.12 47.91 47.75 44.87 44.48 42.28 40.29 38.22 35.87 35.28 31.61 24.69 29.56 30.96 32.96 35.44 41.11 43.92
51.73 50.97 50.56 49.67 48.91 48.41 48.35 47.97 47.18 46.64 46.64 47.65 47.82 48.02 48.07 48.14 48.41 49.08 46.62 42.95 38.22 39.02 39.23 36.45 37.31 37.51 39.48 43.42 46.63 44.75 47.04 45.29 44.15 41.42 34.56 37.85 30.65 28.38 32.42 33.92 34.49 34.20 33.80 33.60 38.03 42.89 42.15
49.82 50.18 49.94 49.37 48.70 48.70 48.52 47.84 46.64 46.47 46.94 47.16 47.43 47.39 47.54 47.79 48.24 49.13 45.30 38.30 39.82 39.08 31.67 40.84 41.27 41.17 43.72 44.14 39.08 43.05 46.06 40.44 38.93 33.49 37.18 34.95 28.66 33.67 36.19 37.22 35.04 33.24 31.30 33.44 39.16 43.09 42.77
48.52 49.65 49.50 48.89 48.52 48.22 47.70 46.98 46.28 46.30 46.66 46.88 46.82 47.08 47.11 47.64 48.18 45.94 41.91 41.52 45.39 43.26 32.30 37.88 42.96 41.70 42.50 43.62 39.03 40.26 44.31 40.69 35.34 33.84 33.87 31.36 32.81 37.01 34.65 33.47 32.89 32.23 31.30 32.48 34.47 38.82 42.09
48.53 49.29 48.54 47.98 47.83 47.59 47.27 46.78 46.20 46.05 46.21 46.66 47.07 46.83 47.23 48.46 44.64 42.70 40.10 45.01 45.44 43.28 24.85 36.32 38.47 41.61 42.24 42.01 39.49 45.35 46.62 39.10 35.91 31.07 32.77 31.05 35.06 32.55 31.85 31.20 33.71 28.55 35.07 35.31 35.61 34.87 32.63
48.66 48.00 47.70 47.54 47.25 46.83 46.28 46.10 45.85 45.44 45.99 46.85 46.68 47.01 47.29 47.48 42.02 40.76 43.06 45.00 44.36 40.68 18.44 37.61 38.22 44.71 41.37 39.06 39.78 41.19 46.40 40.28 33.04 32.94 32.54 30.64 34.26 34.07 32.22 33.00 36.67 32.12 36.22 34.80 36.26 34.99 34.26
47.64 47.27 46.81 46.30 46.30 46.08 45.33 45.28 45.04 44.96 45.92 46.69 46.92 47.02 47.40 46.06 42.39 44.44 45.87 45.20 42.23 29.53 19.73 33.44 36.58 35.38 35.00 38.55 38.62 41.01 41.70 44.23 42.06 35.02 35.24 34.03 39.33 37.65 35.85 38.69 38.24 38.16 34.91 35.69 37.94 35.11 27.39
46.59 46.34 45.81 45.53 46.47 45.68 45.46 45.12 44.70 45.20 45.90 46.90 47.13 47.08 45.41 45.53 39.81 45.37 44.55 40.18 27.92 22.15 35.19 29.96 30.55 34.62 34.74 33.59 35.27 36.97 35.72 35.38 32.07 27.69 28.71 34.05 35.37 39.55 41.00 37.17 39.47 36.05 31.76 26.71 25.36 26.00 22.96
46.22 45.96 45.55 45.23 46.08 45.52 44.92 44.72 44.68 45.17 46.14 46.61 47.16 47.18 45.24 45.51 45.18 44.36 41.36 33.40 22.48 29.26 29.21 34.29 33.96 34.35 30.52 33.94 33.51 35.20 34.32 31.29 36.74 34.87 31.23 27.84 26.88 35.92 40.30 37.78 34.09 34.20 34.15 25.29 20.58 20.79 23.87
45.99 45.43 44.94 45.21 45.63 45.32 44.34 44.66 44.64 45.34 46.19 46.74 46.92 42.65 42.67 44.78 45.96 44.31 36.74 21.77 23.29 28.39 32.80 31.85 33.19 29.37 29.43 33.04 30.41 32.51 31.92 32.00 34.75 36.27 30.57 29.32 29.54 38.57 40.49 40.98 39.22 34.60 31.36 36.03 31.03 32.39 27.07
45.96 45.05 44.97 45.10 45.22 44.93 44.34 44.22 44.74 45.40 46.06 46.70 40.31 41.16 41.57 45.07 44.78 41.59 30.57 28.88 30.67 35.39 35.49 34.80 28.06 31.46 25.34 28.77 28.82 24.51 31.27 34.07 33.85 37.35 39.81 35.21 28.40 36.58 38.61 41.34 40.55 37.08 38.67 29.20 32.70 24.90 24.24
45.71 45.56 46.23 45.95 44.95 44.60 44.60 44.23 45.17 45.82 46.28 46.81 39.47 36.64 42.29 44.71 44.43 37.14 22.03 28.29 34.16 36.92 37.48 33.66 31.16 29.84 30.46 28.91 30.17 29.94 29.63 34.12 35.72 37.05 38.65 36.71 34.20 32.84 36.94 36.04 35.10 35.13 33.63 35.85 34.18 32.60 25.41
44.89 45.24 45.43 44.60 44.29 45.39 45.33 44.59 45.73 46.20 46.85 44.39 38.69 32.69 42.77 43.14 31.63 32.98 26.29 33.80 37.58 35.99 38.84 36.73 35.80 33.63 32.00 31.71 29.88 30.98 30.67 33.53 37.42 37.94 33.09 37.83 33.10 29.15 31.78 38.76 41.30 39.58 35.82 35.79 28.29 28.58 30.92
44.69 45.49 44.51 44.50 44.89 44.50 44.52 44.72 45.29 46.40 46.94 40.03 36.43 35.66 42.20 41.88 27.24 27.83 35.07 35.48 37.07 35.60 35.13 35.13 33.79 35.91 35.70 31.06 27.88 32.02 33.82 38.59 37.69 36.95 35.16 36.69 31.71 25.24 28.78 33.83 38.39 35.45 37.04 38.21 36.97 35.97 29.93
45.13 45.08 44.41 44.51 44.99 44.19 44.58 44.25 45.05 46.42 46.86 40.85 36.31 28.76 34.78 36.29 35.10 30.35 30.29 33.01 32.34 38.31 36.39 36.53 35.91 36.90 33.32 30.55 33.01 30.93 32.55 36.03 37.82 36.92 41.77 39.81 34.61 30.26 23.55 27.57 33.21 31.28 35.64 38.23 36.43 29.77 30.68
45.09 44.48 44.55 44.76 44.36 44.44 44.31 43.76 45.00 46.17 46.78 40.15 35.59 31.47 32.56 26.84 30.12 30.85 31.80 33.00 31.32 31.91 36.90 36.42 33.88 33.28 30.54 26.14 29.10 29.28 32.05 33.30 36.08 38.93 36.76 34.96 29.39 33.05 33.74 35.29 33.85 34.16 35.19 35.91 34.23 35.18 31.31
44.97 44.33 45.21 45.33 44.60 44.40 43.61 43.16 44.60 45.98 46.33 38.70 27.17 31.50 34.52 32.98 34.05 31.11 31.94 31.44 31.70 32.75 32.76 31.59 31.17 32.45 31.69 27.99 31.22 27.62 30.99 31.04 30.59 34.99 33.86 35.37 29.42 32.57 30.65 35.87 34.75 33.83 35.84 35.90 36.33 36.43 36.63
44.98 44.59 45.11 44.70 44.68 43.79 43.12 42.81 44.21 45.64 45.16 38.47 38.57 39.10 33.99 33.41 31.13 28.52 30.88 32.66 32.95 34.71 35.38 36.02 33.20 30.83 30.23 33.50 35.03 35.40 35.80 35.68 34.76 32.70 31.64 32.02 30.86 29.27 27.07 34.06 33.65 30.57 34.21 35.25 35.20 37.95 38.37
45.35 44.88 44.70 44.75 44.44 43.74 43.04 42.96 43.74 45.14 45.35 42.45 39.95 36.66 30.25 25.83 30.08 32.31 35.07 35.12 34.22 34.83 31.70 35.47 35.87 32.65 36.53 39.73 38.45 37.92 37.18 37.36 37.55 36.71 36.91 32.01 30.90 30.19 26.79 29.74 22.58 32.75 38.44 39.03 34.92 34.77 36.43
45.53 45.18 44.72 44.36 44.52 43.68 43.22 43.22 43.65 44.93 46.07 43.16 42.28 38.24 33.16 26.15 32.11 33.45 35.27 35.31 34.63 35.49 34.71 35.43 38.10 39.19 39.18 36.13 30.76 28.45 28.95 32.14 35.60 37.14 36.44 36.97 32.23 26.36 24.14 24.81 31.32 31.69 33.05 33.21 34.12 32.16 35.35
45.62 45.32 44.77 45.03 44.98 44.20 43.86 43.79 43.52 44.67 45.39 42.65 42.51 41.29 36.84 28.13 29.72 36.57 33.03 34.99 30.14 29.18 30.80 36.23 39.03 39.94 37.95 32.22 25.73 23.43 23.34 29.20 28.54 32.20 37.67 37.45 35.64 28.94 25.70 23.16 21.48 28.71 33.19 37.77 37.33 26.08 35.91
45.19 45.15 45.00 45.00 44.54 44.16 44.06 43.94 43.57 44.08 45.46 43.25 39.73 40.99 36.90 31.43 34.75 35.51 32.51 32.35 35.48 32.39 28.87 33.22 34.35 33.93 37.03 26.25 24.34 24.00 24.91 33.02 26.18 26.31 26.62 28.31 28.47 25.85 25.37 24.29 28.81 32.26 35.13 37.62 26.45 27.54 35.79
45.26 44.91 44.97 44.81 44.52 44.21 44.04 43.64 43.69 43.92 44.74 42.52 40.72 43.44 36.75 33.59 34.07 38.05 39.47 35.22 34.78 33.13 28.05 32.06 29.77 30.53 28.68 24.75 27.52 25.46 24.94 28.27 28.68 32.81 31.25 27.31 24.01 20.79 25.77 23.13 20.98 35.06 34.10 28.86 33.46 37.10 37.04
44.88 44.83 44.57 44.37 44.33 44.02 44.06 43.72 43.55 43.75 44.33 43.43 39.07 44.43 43.18 36.03 34.78 38.37 38.54 39.86 38.86 37.97 34.68 34.01 31.62 31.73 31.86 26.19 26.99 27.79 24.75 27.67 27.84 26.96 35.11 28.48 30.94 27.82 27.58 26.62 33.39 34.46 33.74 35.59 36.50 33.93 34.37

GFSGBSN_sfc_wetblb_120.txt.gz
Wetbulb
58.26 58.25 56.89 55.64 54.25 53.74 52.99 51.82 50.88 50.49 50.32 50.01 49.89 49.97 50.23 50.18 50.03 50.36 50.38 50.33 50.46 50.53 50.34 50.49 50.57 50.95 46.04 38.96 38.21 47.75 55.70 52.75 48.06 47.11 43.94 42.47 39.94 38.31 34.44 40.54 40.07 39.88 41.04 42.17 43.51 45.38 46.32
57.58 57.24 56.28 55.21 53.93 53.00 52.66 52.26 51.12 50.46 50.16 49.61 49.52 49.37 49.52 49.82 50.06 50.14 50.18 50.18 50.12 49.90 49.65 49.93 50.22 50.33 42.16 31.76 45.14 47.36 47.28 47.51 46.48 44.67 43.75 42.77 41.01 41.59 38.06 37.32 36.35 39.93 40.16 42.02 43.90 43.29 44.47
57.39 56.67 55.36 54.79 54.14 53.04 53.05 51.99 51.00 50.51 49.71 48.85 49.03 49.20 49.24 49.43 49.75 49.86 49.86 49.78 50.33 49.50 49.86 50.44 50.73 47.76 40.73 36.00 44.19 44.80 46.10 44.71 45.67 44.94 42.43 44.69 43.66 39.85 39.38 36.07 40.21 39.25 34.83 37.35 40.28 43.56 43.53
56.71 55.89 54.51 54.26 53.81 53.40 52.67 51.23 50.78 49.91 49.22 48.74 48.77 48.66 48.94 49.16 49.42 49.52 49.46 49.73 49.81 49.69 50.48 51.27 50.82 45.10 36.26 47.36 45.87 46.96 46.57 44.07 46.18 44.91 44.82 45.03 44.56 40.39 38.55 39.84 38.07 34.67 34.73 29.74 37.29 40.78 43.64
56.20 55.07 54.43 54.01 53.00 52.37 51.56 50.55 49.97 49.31 48.78 47.94 47.80 48.37 48.81 48.77 48.90 49.21 49.55 50.02 50.27 50.74 51.09 51.21 44.68 41.72 37.32 50.67 46.31 47.33 45.52 44.29 45.59 46.25 45.17 48.12 42.84 38.50 38.62 32.81 30.15 31.66 25.82 29.16 32.54 39.10 40.46
55.43 54.76 54.14 52.92 51.64 50.91 50.23 49.91 48.91 48.39 47.78 47.41 47.80 48.13 48.31 48.47 48.84 49.42 49.74 49.86 49.75 50.67 49.82 49.53 46.40 36.83 41.15 40.20 43.32 44.22 45.74 45.20 42.68 42.80 42.00 39.43 35.67 31.25 31.07 28.50 22.35 25.94 26.67 29.12 29.31 33.80 38.12
55.15 54.50 53.02 51.85 50.78 50.27 49.58 49.20 48.41 47.71 47.36 46.81 47.48 47.67 47.96 48.18 48.19 49.27 47.61 41.69 37.09 36.26 38.23 34.76 36.89 37.19 39.02 41.96 44.78 42.84 45.04 43.17 42.30 39.88 33.14 36.51 29.13 26.30 30.28 31.98 32.98 31.87 29.44 27.72 31.65 36.16 35.00
53.90 53.01 51.98 50.49 50.08 49.69 49.20 49.07 48.04 47.23 46.88 47.41 47.10 46.99 47.30 47.59 48.17 48.82 45.55 39.48 39.95 39.24 31.36 39.75 39.70 40.04 42.34 42.63 37.83 41.01 43.93 38.60 37.62 32.59 34.96 31.86 28.49 34.51 36.31 34.88 32.05 30.58 28.72 28.79 32.63 35.66 35.16
52.98 51.63 50.51 50.14 49.57 49.00 49.20 48.87 47.50 47.21 47.15 46.75 46.51 46.82 46.94 47.53 48.30 45.19 42.19 41.83 44.97 42.72 31.27 36.77 41.84 40.67 41.33 41.76 37.48 38.53 42.46 39.72 34.26 31.26 32.22 29.87 32.75 36.99 35.06 32.74 30.45 29.46 27.41 27.98 29.12 33.16 34.74
50.89 50.43 50.11 49.86 49.19 49.11 48.68 47.94 47.16 46.92 46.51 46.15 46.84 46.36 46.96 47.86 44.55 42.31 40.52 44.42 44.06 41.84 26.14 35.99 37.88 41.13 41.37 40.01 37.37 43.34 44.69 40.54 34.46 30.85 32.12 30.22 35.14 33.41 32.10 31.24 33.08 25.58 32.51 31.71 30.81 29.07 23.61
50.16 49.94 49.50 48.85 48.47 48.07 47.93 47.34 46.88 46.37 45.83 46.52 46.62 46.84 46.90 46.93 41.05 41.04 43.94 45.09 43.58 39.56 17.78 36.93 36.41 42.65 40.17 37.10 38.54 39.37 44.68 38.51 33.66 33.04 31.08 29.48 32.75 32.76 31.29 33.24 36.55 29.83 33.73 31.30 31.85 29.85 27.87
48.99 48.96 48.51 48.31 47.95 47.62 46.99 46.36 45.72 45.49 45.77 46.02 46.59 46.94 47.24 44.96 42.03 43.43 45.31 44.45 41.53 26.78 19.33 31.79 35.27 34.11 33.72 36.44 37.34 39.56 40.65 43.16 40.06 34.09 32.99 32.46 37.68 35.29 34.41 37.19 37.98 37.83 32.59 32.92 32.39 29.82 21.57
48.42 47.88 47.93 47.43 46.91 46.36 45.74 45.69 45.35 45.50 45.71 46.24 46.66 46.81 45.42 45.12 39.99 44.23 43.97 40.56 27.38 20.59 33.53 28.62 29.12 33.33 32.70 32.20 34.12 36.34 35.78 33.55 30.35 27.81 27.35 33.28 35.62 38.98 40.38 35.82 38.06 35.22 29.97 21.33 19.46 20.49 23.17
47.67 47.04 46.52 46.69 47.16 46.13 45.99 45.55 45.01 45.39 45.49 45.94 46.87 47.12 44.28 44.72 43.72 43.72 40.64 31.60 22.25 28.73 28.12 32.98 32.60 32.92 28.36 32.10 31.98 34.20 33.69 30.72 34.25 32.71 30.05 26.96 24.58 35.33 39.15 35.59 34.24 33.72 30.42 21.61 17.00 21.59 23.42
47.08 46.56 45.71 46.01 46.42 45.76 45.12 45.25 45.33 45.18 45.72 46.36 46.64 41.28 40.99 44.31 44.49 42.64 34.89 23.52 23.64 27.59 31.70 30.67 31.77 27.51 27.61 31.24 28.11 30.58 28.88 30.75 33.60 34.71 29.34 28.48 28.51 37.98 38.73 39.22 38.88 32.29 26.41 33.21 30.08 31.28 25.12
46.53 45.58 45.43 46.02 45.96 45.34 44.75 44.91 44.85 45.32 45.72 46.43 39.48 40.10 40.93 45.90 43.92 40.77 29.32 28.90 29.75 34.25 34.26 33.24 26.57 29.96 24.38 27.05 26.52 20.41 28.49 32.25 32.52 35.44 38.17 33.77 27.46 36.42 37.75 40.22 40.65 35.84 36.67 28.76 30.94 22.84 20.82
45.39 44.84 45.29 45.48 45.55 44.92 44.59 44.78 45.02 45.36 45.78 46.05 39.55 36.19 41.60 43.13 43.26 35.25 23.35 27.90 32.92 35.92 36.27 32.66 29.72 27.99 28.92 28.10 28.19 23.80 27.95 32.51 34.06 34.19 37.08 35.55 32.83 32.14 37.30 34.60 32.61 34.08 31.22 32.87 33.54 30.24 24.89
45.88 45.80 46.26 46.05 45.23 45.03 45.31 44.99 45.65 46.12 46.68 43.53 38.09 31.54 41.90 42.80 30.87 29.43 24.98 33.10 37.35 34.83 37.27 35.53 34.01 32.75 30.91 30.46 27.73 28.64 29.09 32.67 35.84 34.40 30.26 35.88 34.59 28.51 31.10 38.28 39.91 38.42 35.09 34.44 27.08 28.13 30.35
45.59 45.80 45.36 44.88 44.91 45.75 45.16 45.38 45.85 46.43 46.21 39.53 36.02 34.69 41.38 40.80 24.97 27.01 33.70 34.68 35.64 34.44 33.70 33.55 32.21 35.18 33.99 29.71 25.36 29.72 31.47 36.78 36.16 33.81 30.33 34.56 31.11 25.00 26.57 32.29 36.00 32.81 34.86 35.75 35.24 33.99 29.14
45.10 45.60 44.86 44.92 45.30 44.83 44.88 45.02 45.75 46.24 46.53 40.13 35.43 27.72 33.94 34.99 33.79 28.83 28.33 31.01 30.98 37.11 35.20 35.05 34.88 35.47 30.72 28.57 30.81 27.58 30.43 34.49 36.13 35.29 40.77 37.40 32.32 29.75 24.13 27.15 32.60 30.76 32.81 35.24 34.13 28.98 30.16
45.32 45.09 44.96 44.94 45.00 44.69 44.61 44.27 45.30 46.01 46.34 40.00 32.78 29.67 32.80 23.09 26.55 29.02 29.87 31.43 30.15 31.19 35.12 34.46 32.00 31.30 28.52 24.85 26.73 27.47 30.71 31.64 34.11 37.48 35.05 33.06 27.57 30.26 32.02 34.37 34.74 34.15 33.79 34.22 33.69 34.96 30.37
45.20 45.19 45.40 45.40 44.81 44.47 44.21 43.66 44.84 46.00 45.98 38.22 27.93 30.66 32.56 30.80 31.96 29.13 31.02 29.75 30.15 31.36 31.31 30.02 29.01 30.93 29.74 25.87 28.57 26.77 29.38 29.58 28.90 33.52 31.81 33.35 27.13 30.78 29.60 34.72 34.08 32.17 35.33 33.79 33.92 34.06 36.30
45.21 44.80 44.65 45.25 44.54 44.33 43.39 43.53 44.48 45.83 44.67 36.89 37.21 37.04 32.35 30.59 29.28 26.89 28.10 31.07 32.15 33.42 34.16 34.77 32.36 29.75 28.41 31.22 33.91 34.36 34.27 33.95 33.24 31.67 29.79 29.79 28.61 27.52 25.81 31.96 33.47 26.65 29.97 31.98 31.84 32.83 36.36
45.38 44.66 44.49 44.97 44.92 43.91 43.23 43.26 44.33 45.48 44.66 40.56 38.49 35.43 28.36 24.27 28.33 29.94 34.36 33.94 32.78 33.74 30.67 34.30 35.48 32.03 35.66 38.46 36.76 35.93 34.90 34.58 34.63 34.08 34.43 30.04 29.50 28.77 25.87 28.63 22.24 31.58 34.06 35.17 31.90 32.43 33.27
45.74 45.56 44.70 45.06 44.44 43.98 43.37 43.64 44.36 45.53 46.02 41.16 40.20 36.40 31.26 24.21 30.74 32.47 33.31 33.49 33.17 33.42 32.33 34.44 35.95 37.56 37.89 34.77 29.25 27.58 27.93 31.05 33.81 36.55 35.25 34.65 30.34 25.25 23.86 24.21 30.71 30.05 31.06 31.57 31.22 29.87 34.55
45.83 45.72 45.41 45.41 45.22 44.42 43.99 43.94 44.36 44.88 45.76 41.08 39.33 39.35 34.77 26.84 29.12 35.18 32.24 33.21 28.01 27.51 29.28 33.48 37.47 37.94 36.44 30.24 24.56 23.23 23.11 27.27 27.55 31.30 35.95 35.95 34.78 27.41 25.76 23.30 19.69 27.56 31.25 35.33 35.36 25.39 34.92
45.50 45.58 45.46 45.46 44.98 44.53 43.84 44.13 44.33 44.95 46.16 41.40 38.51 39.45 34.58 24.98 33.21 34.12 29.95 30.10 33.54 30.70 27.70 30.88 32.75 32.46 33.79 23.96 23.85 22.83 23.85 30.94 24.81 25.96 27.02 28.12 27.79 23.85 24.41 23.84 26.93 30.67 32.61 34.90 24.08 26.44 35.29
45.33 45.29 45.19 45.27 44.89 44.40 43.99 44.01 44.06 44.84 45.62 41.34 39.25 40.10 35.15 28.64 32.52 36.46 38.35 32.96 33.57 31.74 26.75 30.35 27.26 29.66 26.96 23.53 25.08 23.96 23.51 27.02 27.49 31.08 29.59 26.74 23.80 24.21 24.13 21.21 18.32 32.39 31.56 27.09 31.50 33.22 34.49
44.93 44.88 44.98 45.03 44.53 44.33 44.00 44.17 43.88 44.62 44.84 42.22 38.14 42.53 40.75 33.18 30.93 37.28 37.70 38.73 38.00 37.33 33.10 32.30 30.30 29.85 31.13 24.28 24.09 26.11 23.91 25.57 26.41 21.26 34.33 27.46 30.07 25.63 27.16 25.75 31.92 32.65 32.64 34.40 35.63 33.52 32.35

GFSGBSN_sfc_wetblb_123.txt.gz
Wetbulb
59.43 58.82 58.08 58.05 57.25 56.40 55.21 53.75 51.85 51.12 51.11 50.79 50.30 49.75 49.86 49.93 49.89 50.02 50.14 50.24 50.28 50.16 49.88 49.91 50.51 51.23 45.31 35.69 35.79 45.14 53.34 51.22 46.35 46.13 43.20 41.41 38.76 36.95 32.53 34.61 36.03 34.15 37.43 40.95 41.70 41.85 41.34
58.69 58.18 57.78 57.52 56.88 56.10 54.97 53.45 51.93 51.41 51.05 50.60 50.11 49.51 49.23 49.49 49.60 49.71 49.90 49.94 50.00 49.64 49.58 49.92 50.46 50.51 41.49 30.64 41.93 44.74 45.49 46.04 45.05 42.98 41.77 41.60 39.74 40.26 36.95 35.58 33.97 36.52 36.84 36.81 38.44 38.37 39.52
58.88 57.78 57.84 56.69 55.88 55.28 54.97 53.62 52.19 51.53 51.11 50.37 49.45 49.13 48.99 49.28 49.36 49.43 49.79 49.66 49.24 49.17 49.51 50.18 50.76 47.95 40.65 36.46 43.33 44.51 45.70 43.63 44.74 43.59 40.41 43.02 42.18 38.39 37.59 34.29 39.03 37.28 33.55 35.79 36.82 37.26 36.63
58.74 57.81 57.57 56.03 55.07 54.42 53.57 53.50 52.48 51.58 50.84 49.96 49.28 48.80 48.58 48.70 49.07 49.20 49.09 48.86 49.23 49.82 50.05 50.54 51.12 44.49 35.91 46.20 45.05 47.75 45.32 45.37 45.26 43.69 43.36 44.76 43.38 39.45 36.66 38.06 36.60 32.91 32.17 27.43 34.32 36.11 37.08
58.49 57.57 57.21 55.60 54.68 53.88 53.35 52.97 52.22 51.12 50.27 49.36 48.74 48.17 48.31 48.70 48.54 48.65 48.88 49.71 49.85 50.67 50.69 51.13 43.75 39.89 34.36 48.88 44.20 46.58 46.79 43.07 43.52 43.83 43.66 47.06 42.39 36.93 36.00 30.51 26.81 29.06 23.25 26.13 29.84 35.48 35.18
58.36 57.43 56.58 55.43 54.38 53.93 53.19 52.20 51.59 50.48 49.60 48.82 48.11 48.06 48.22 48.42 48.42 48.97 49.56 49.83 49.62 50.34 49.88 49.23 46.02 35.50 39.47 38.73 42.37 43.09 43.45 43.72 41.17 40.81 40.45 38.98 34.74 30.52 28.65 26.64 20.28 23.68 23.47 25.58 26.18 31.87 33.63
58.42 57.09 56.02 55.10 54.26 53.03 52.34 51.38 50.30 49.27 48.69 48.28 48.15 47.93 47.73 47.87 47.90 48.83 47.06 40.22 35.65 34.38 38.01 33.77 35.23 36.61 37.87 41.47 43.22 41.48 42.97 41.62 40.31 37.96 31.76 34.92 28.39 25.40 28.41 30.17 31.67 29.98 27.70 26.09 29.82 34.26 32.42
57.30 56.41 55.46 54.53 52.76 52.22 51.53 50.41 49.18 48.46 47.95 47.42 47.59 47.21 47.13 47.32 47.80 48.72 44.59 37.70 38.96 38.69 29.84 38.56 38.74 38.94 41.54 41.35 36.82 39.94 42.91 37.87 36.52 31.85 33.14 29.83 26.45 32.72 34.45 33.83 31.62 30.05 27.01 26.26 30.51 33.40 32.57
56.35 55.01 54.53 53.77 52.62 50.86 50.03 49.98 48.63 47.93 47.51 47.76 46.99 46.53 46.93 46.99 47.95 44.46 40.28 40.85 44.01 42.52 31.40 36.03 40.41 39.57 40.29 40.63 36.50 37.06 41.55 38.35 34.93 31.26 30.43 27.23 31.14 36.21 33.88 31.72 30.15 30.11 28.10 27.92 28.17 32.20 32.20
54.75 53.74 53.07 52.28 50.34 49.72 49.79 49.62 48.55 47.82 47.35 46.91 46.42 46.17 46.44 47.20 43.59 41.66 40.30 44.72 44.08 42.83 28.96 34.90 37.37 39.79 41.08 40.17 35.78 41.38 43.20 38.87 33.67 29.92 31.16 29.43 33.96 32.38 30.98 29.44 30.99 25.56 33.04 33.13 31.95 27.70 20.74
53.32 52.14 51.14 50.46 50.06 49.23 49.62 49.05 47.90 47.49 46.98 46.20 46.36 46.13 46.43 47.06 39.21 39.35 43.05 44.66 43.80 40.67 20.44 36.52 36.21 42.00 39.76 36.75 37.02 37.47 42.96 38.51 32.44 32.41 30.77 29.20 31.79 31.70 29.73 31.04 34.62 30.52 35.62 33.77 30.23 26.09 24.48
51.59 50.67 50.30 49.90 49.69 49.37 48.63 48.09 47.41 46.90 46.16 46.50 46.04 46.28 46.53 43.85 40.19 41.95 44.15 44.52 41.92 29.23 21.50 31.40 34.50 33.36 33.15 35.10 35.67 37.75 39.29 41.38 38.65 33.71 32.75 32.33 36.27 33.52 33.10 36.07 36.43 38.33 34.65 31.72 30.12 26.65 19.04
50.36 50.14 49.92 49.30 48.55 48.15 47.91 47.26 46.61 45.89 45.99 46.26 46.39 46.37 44.47 43.91 38.38 43.04 42.72 39.91 27.46 22.47 32.90 28.65 28.89 33.04 32.02 30.99 32.96 34.66 34.45 32.82 28.43 26.03 26.22 32.05 33.42 35.24 36.89 34.07 37.69 34.40 27.75 19.24 17.07 17.72 17.65
48.39 48.12 48.13 48.34 48.08 47.32 46.68 45.88 45.51 45.90 45.88 46.18 46.21 46.47 43.27 43.20 41.94 43.13 40.26 31.01 23.01 28.64 28.13 32.81 32.12 32.37 27.52 30.80 30.60 31.82 31.65 28.89 33.03 30.87 28.14 25.33 22.79 33.23 38.78 34.83 32.78 33.16 27.93 21.56 12.34 18.73 22.06
47.48 47.72 47.44 47.15 46.79 45.83 45.84 45.74 45.46 45.74 45.96 45.89 46.16 40.65 39.20 41.30 43.01 42.65 35.26 24.71 25.55 27.13 30.95 30.00 30.96 26.22 26.18 29.53 26.54 28.72 26.58 29.57 32.15 32.42 26.88 27.00 27.14 36.17 37.20 38.54 37.55 31.84 29.16 33.88 26.54 28.27 24.57
46.89 46.52 46.29 47.20 46.54 46.37 45.60 45.28 45.60 45.86 45.98 46.19 38.24 38.96 40.04 44.51 44.70 40.16 31.00 28.30 29.37 33.77 33.57 32.34 25.25 28.50 23.76 25.21 25.91 18.00 26.62 30.94 30.18 32.75 34.33 32.51 26.28 34.65 37.22 39.53 38.48 35.49 36.22 27.68 29.08 21.70 21.11
46.01 45.68 45.95 46.58 45.88 44.86 45.13 44.93 45.32 45.81 46.23 46.37 39.09 35.18 40.83 43.78 43.08 35.04 25.50 28.60 32.14 35.08 35.38 31.49 28.76 26.54 27.39 26.42 26.34 20.96 25.94 31.54 32.21 31.71 32.89 32.80 30.96 30.25 35.32 33.54 31.73 33.23 32.92 33.73 33.36 30.88 24.96
44.89 45.51 46.13 45.93 45.15 44.49 44.83 44.71 45.73 46.25 46.46 43.42 37.50 29.38 40.67 43.00 32.66 30.97 28.42 33.38 36.90 33.96 36.23 34.49 32.83 31.36 29.52 28.58 26.03 26.55 27.70 30.89 34.90 32.75 27.16 32.15 30.96 26.70 29.65 37.28 39.32 37.13 33.84 34.13 27.87 27.03 30.57
45.36 45.65 45.48 45.77 44.96 44.70 44.94 45.63 46.19 46.58 46.52 39.02 34.37 33.93 40.57 40.82 28.05 29.62 33.76 33.92 34.89 33.42 32.84 32.45 30.99 33.77 31.76 27.70 24.54 27.81 29.55 35.15 35.09 32.23 29.16 31.95 28.31 22.36 24.14 30.70 34.20 32.16 34.40 35.02 35.55 34.41 29.55
46.14 45.91 45.39 45.17 45.63 45.75 45.17 45.64 46.25 46.35 46.45 39.33 33.20 27.73 34.14 35.89 34.34 29.32 28.55 30.08 30.30 35.63 33.76 33.43 32.80 32.17 29.14 26.55 29.37 26.08 27.78 33.41 35.05 34.07 38.52 35.63 30.14 23.71 18.04 25.46 31.59 30.66 32.87 35.27 34.33 29.22 29.76
45.98 45.40 45.70 45.37 45.31 45.16 44.98 45.26 45.62 46.01 46.19 38.71 32.29 30.46 33.64 27.50 27.81 28.19 29.03 30.36 29.14 29.10 32.78 32.71 30.08 29.60 27.16 24.12 25.65 25.56 29.27 30.50 32.97 35.65 33.50 31.58 25.70 29.09 30.12 32.50 32.52 33.03 33.29 33.48 31.47 33.23 30.31
45.50 44.77 45.88 45.88 44.81 44.50 44.38 44.45 45.23 45.98 45.51 37.72 31.40 32.06 32.23 30.46 30.52 28.27 29.97 28.36 28.71 29.49 29.94 28.59 27.70 29.67 28.46 25.41 26.92 25.24 28.49 28.69 27.80 31.52 30.07 31.22 25.62 28.74 27.52 33.72 32.56 27.65 30.58 31.26 31.02 31.78 35.18
45.67 45.05 45.24 45.24 44.98 44.60 43.97 44.23 45.04 46.01 43.97 36.04 36.61 36.59 32.95 29.91 28.15 26.27 27.23 29.67 30.67 31.94 32.64 33.42 30.91 28.51 28.14 30.20 31.93 32.82 33.48 33.36 32.35 30.01 28.69 28.16 27.76 26.86 24.39 31.16 33.33 25.36 27.55 29.91 30.30 31.28 33.06
45.48 45.08 44.88 44.89 44.91 43.99 43.47 44.22 44.83 45.82 44.14 39.64 38.40 34.82 29.99 25.80 28.22 28.83 32.82 32.18 32.00 32.51 29.74 33.80 33.97 30.69 34.52 37.20 35.52 34.63 33.27 33.03 32.80 32.25 32.76 28.48 28.48 27.92 25.40 28.32 19.80 29.64 33.14 34.22 31.19 31.09 32.03
45.47 45.31 44.79 45.04 44.74 43.74 43.34 44.22 44.97 45.84 45.87 40.52 39.64 35.84 30.73 25.29 29.57 31.14 32.85 31.80 31.63 32.22 30.47 32.57 34.34 35.89 36.38 33.39 29.01 27.36 27.85 29.29 31.99 34.97 33.25 32.00 29.13 25.26 22.56 24.81 28.11 29.98 29.50 29.25 29.52 28.78 32.75
45.54 45.50 45.07 45.54 45.04 43.91 43.53 44.18 44.89 45.23 45.77 40.66 38.19 38.46 34.12 28.85 28.49 34.09 31.48 31.61 27.58 27.28 28.61 31.37 36.16 36.22 34.08 29.21 24.30 23.29 22.78 26.57 26.59 29.05 33.66 33.92 31.39 28.50 25.44 22.73 18.15 26.20 30.24 33.58 34.41 24.32 33.51
45.40 45.44 45.49 45.46 45.02 43.98 43.56 44.03 44.77 45.86 45.56 40.76 38.77 38.78 34.22 27.88 32.33 33.33 29.40 29.60 32.13 29.30 27.27 29.58 31.76 31.05 31.78 23.53 23.73 22.54 23.46 29.05 24.51 24.57 25.13 26.79 26.09 23.75 23.56 24.74 25.96 29.57 31.54 33.64 23.56 23.58 33.05
45.40 45.49 45.49 45.53 44.89 44.22 43.66 44.05 44.76 45.79 45.58 41.08 38.88 39.77 34.41 28.12 31.19 35.10 37.17 32.85 32.10 30.01 26.02 29.22 26.29 27.46 26.74 22.26 24.01 23.07 22.96 26.65 26.85 29.76 26.98 26.34 24.60 22.80 23.51 20.40 16.23 31.24 30.81 26.03 30.63 32.59 31.77
44.85 45.04 45.18 44.97 44.75 44.47 43.98 43.96 44.73 45.25 44.73 42.18 38.32 41.26 39.41 32.35 30.86 36.13 37.14 37.63 36.88 35.76 31.75 30.74 28.93 29.37 29.90 22.85 22.01 25.21 23.71 24.30 25.67 20.60 31.41 20.95 29.75 26.00 27.05 24.87 31.16 32.38 32.18 34.14 34.19 32.45 32.46

GFSGBSN_sfc_wetblb_126.txt.gz
Wetbulb
59.87 59.69 59.26 58.96 58.02 57.54 57.41 56.36 55.09 53.28 52.07 51.23 51.25 50.82 50.12 49.80 49.10 49.20 49.65 49.77 49.88 49.97 49.69 50.18 51.12 51.46 43.48 33.98 33.83 42.63 52.06 49.79 45.08 44.57 41.46 39.93 37.30 34.75 31.09 32.66 34.63 32.48 33.37 36.14 37.18 37.28 36.31
59.39 59.00 58.91 58.64 58.07 57.72 57.62 56.38 55.06 53.12 51.54 51.35 50.94 50.48 49.84 49.28 48.85 49.15 49.35 49.45 49.37 49.31 49.43 50.16 50.93 50.59 39.09 30.32 40.42 43.05 44.80 44.75 43.70 41.66 40.25 40.68 38.04 38.24 34.93 33.97 32.16 35.06 35.67 35.94 36.60 36.38 36.96
59.85 59.06 58.54 57.96 57.75 57.54 56.91 55.86 54.60 53.06 51.77 51.28 50.63 50.09 49.30 48.93 48.63 49.00 49.11 49.03 48.94 49.01 49.65 50.10 50.78 47.20 38.27 34.83 41.79 43.73 45.73 42.34 42.92 42.43 39.68 42.25 41.20 38.17 36.48 33.14 36.96 35.89 31.94 34.74 34.73 34.05 34.00
59.88 59.09 58.60 57.74 57.13 56.69 55.98 55.44 54.09 52.67 51.81 51.09 50.54 49.52 49.07 48.51 48.41 48.73 48.71 48.90 49.40 49.96 50.27 49.99 50.59 43.43 34.42 44.33 43.73 46.43 43.33 43.65 43.87 42.84 41.40 42.78 42.04 38.45 35.93 36.99 35.40 31.81 30.31 24.26 31.08 33.82 34.98
58.84 59.39 58.70 57.75 56.97 56.28 55.33 54.80 53.69 52.85 51.87 51.03 50.16 49.28 48.60 48.45 47.94 48.16 48.35 48.92 50.18 51.24 50.53 50.52 42.69 38.47 33.52 47.24 42.13 43.99 44.92 41.74 41.92 42.13 41.68 46.13 41.25 35.87 34.24 28.92 24.92 26.78 21.45 23.87 28.52 33.22 32.81
57.17 59.11 58.68 57.80 56.91 55.92 54.94 54.23 53.40 52.78 51.99 50.48 49.58 48.74 48.29 47.95 47.93 48.32 49.08 49.05 50.64 49.90 49.04 48.63 45.56 34.13 38.35 37.06 41.26 42.38 41.81 42.61 39.91 39.38 39.35 38.05 33.11 29.36 27.90 25.16 18.72 21.08 21.94 21.79 24.20 28.76 32.48
56.45 58.02 58.82 57.80 56.91 55.81 54.82 54.23 52.80 51.99 50.88 50.05 49.00 48.46 47.85 47.69 47.44 48.11 45.91 37.73 34.42 34.09 39.85 34.05 33.95 34.78 37.10 40.42 41.46 39.74 41.95 40.48 39.20 37.34 30.86 33.97 28.68 24.84 27.00 29.11 30.26 28.59 26.56 24.91 28.67 32.92 31.10
55.53 56.69 58.58 57.81 56.72 55.59 54.65 53.80 52.35 51.20 50.20 49.00 48.46 48.01 47.42 47.18 47.21 48.14 42.87 34.86 34.53 35.19 27.02 36.91 37.58 37.73 40.38 39.78 36.19 38.56 41.20 36.38 35.75 30.94 32.30 28.88 25.76 31.80 32.38 31.31 29.25 28.18 25.60 25.55 29.96 33.17 31.81
56.18 55.83 58.37 57.59 56.15 55.02 54.51 53.08 51.26 49.74 48.86 48.20 48.08 47.38 46.52 46.41 47.39 42.85 37.90 39.23 41.41 39.70 28.16 34.94 39.39 38.39 38.73 39.99 36.51 35.80 40.06 37.11 33.39 30.66 29.36 27.04 30.43 34.53 32.57 29.97 28.89 28.77 26.78 27.26 27.29 31.35 32.77
55.93 55.58 57.20 56.45 55.28 54.25 53.47 52.19 49.73 48.46 48.04 48.19 47.61 46.96 46.20 46.42 42.95 39.43 37.25 41.68 41.66 40.25 26.98 33.52 36.17 38.80 40.01 39.50 34.80 40.13 41.41 37.64 32.98 29.59 30.52 28.55 32.89 31.58 29.25 28.34 29.46 24.16 31.72 32.03 29.45 28.02 24.62
55.49 56.68 56.11 54.68 53.66 52.37 51.48 50.16 48.70 48.40 48.26 47.74 47.14 46.53 46.68 46.23 39.56 37.19 40.81 42.17 41.33 38.59 19.72 35.26 35.49 42.01 38.85 35.98 35.69 36.38 41.14 37.39 32.19 31.92 30.34 27.99 30.92 29.87 27.95 29.79 32.59 27.94 33.65 32.72 32.39 29.91 25.57
55.86 55.69 54.03 53.16 52.10 50.64 49.90 49.29 48.34 48.25 47.74 46.99 46.98 46.90 47.03 44.55 39.93 41.71 42.14 42.83 39.36 25.06 18.98 29.81 33.76 33.45 33.74 35.43 35.05 37.59 38.51 40.53 38.27 32.74 32.12 31.74 35.06 32.81 32.14 34.55 34.40 35.60 33.49 32.91 30.37 25.83 18.76
55.63 53.93 52.88 51.17 50.08 50.01 49.85 49.17 48.11 47.34 46.55 46.72 46.41 46.81 44.60 43.55 39.25 42.02 41.74 38.30 24.56 19.59 31.53 26.71 28.34 32.73 31.99 31.05 32.79 34.41 33.85 31.08 27.84 24.56 24.15 29.86 31.56 34.13 35.41 31.72 35.16 32.96 27.14 18.87 15.98 16.27 18.52
53.15 51.69 50.72 50.14 49.87 49.90 49.20 48.00 47.12 46.40 46.41 46.54 46.73 46.25 44.14 43.06 41.85 42.41 40.34 32.02 21.07 27.35 27.26 31.52 31.18 31.80 27.80 30.47 30.04 30.32 31.00 27.46 31.51 29.18 25.12 22.02 18.88 31.04 37.09 33.40 31.87 32.04 30.51 22.09 11.74 18.04 20.30
47.48 49.50 49.48 49.35 49.06 48.18 47.23 46.31 45.82 45.80 46.10 46.48 46.48 40.91 39.12 39.23 42.50 42.06 34.57 22.96 25.10 26.58 30.58 30.33 31.19 26.48 26.30 29.09 26.88 27.88 26.06 28.05 30.47 30.91 23.31 24.60 22.95 32.98 35.15 36.33 36.27 32.85 29.44 32.17 26.13 27.23 22.15
46.50 46.20 46.45 46.82 46.74 46.43 45.78 45.13 45.24 46.00 46.28 46.59 39.49 38.63 39.34 42.65 42.90 39.12 29.60 26.99 28.48 33.28 33.09 32.19 25.55 28.44 23.84 24.59 25.22 18.74 25.93 30.15 28.89 31.10 32.40 28.41 22.55 31.79 35.03 38.69 39.31 35.28 36.25 27.20 26.91 18.31 20.53
45.20 45.39 45.25 44.97 45.34 44.83 45.31 45.51 45.59 46.04 46.53 45.58 39.54 35.70 40.66 43.79 42.51 33.59 23.91 28.54 31.17 34.75 35.33 31.49 28.20 26.60 27.14 26.16 25.80 21.05 24.99 29.99 31.07 30.61 30.68 28.39 28.21 27.86 32.83 33.12 31.78 32.27 31.65 32.56 34.01 29.70 24.41
45.53 46.89 46.34 46.02 45.71 45.17 45.31 45.20 45.67 45.80 46.72 42.21 37.86 31.57 40.36 42.49 30.92 29.91 27.47 32.23 36.27 33.64 35.84 33.82 32.63 30.91 28.70 28.04 25.85 25.61 27.04 29.46 32.87 30.99 26.54 29.62 28.72 24.98 27.00 34.57 37.15 35.19 33.64 33.46 28.51 26.89 29.19
45.29 46.51 45.88 44.89 44.67 44.96 44.81 45.34 46.01 46.32 46.13 39.04 34.29 34.74 40.37 40.07 27.29 29.09 33.10 33.41 34.60 33.00 32.35 31.42 30.66 32.64 31.22 27.29 23.93 27.01 27.79 32.79 33.77 30.95 27.99 30.66 26.69 20.44 22.17 28.82 33.47 30.53 32.80 34.29 35.20 34.18 29.67
45.59 45.69 45.75 44.90 44.44 44.76 45.04 45.83 46.22 46.76 46.30 40.01 33.95 27.13 33.21 34.37 34.14 30.46 29.03 29.84 30.56 35.03 32.59 32.80 31.19 31.12 28.06 25.90 27.29 25.41 26.27 31.58 33.81 32.41 36.88 35.39 28.66 21.10 15.39 21.48 31.32 28.54 32.53 35.07 34.03 28.70 29.73
45.88 45.81 45.45 45.27 45.74 45.02 45.68 45.86 46.10 46.33 46.24 38.24 32.33 27.62 31.65 25.72 28.61 29.35 29.95 30.90 29.23 28.87 31.89 32.12 28.93 28.53 26.58 23.52 24.82 24.65 27.30 29.29 31.87 35.34 32.88 32.18 24.99 27.30 28.77 30.83 32.83 29.34 29.29 29.77 29.58 31.72 29.92
45.57 45.23 45.91 45.72 45.35 44.94 44.92 45.25 45.77 46.11 45.41 35.13 31.33 30.00 31.58 30.13 31.62 29.03 30.69 28.85 28.53 29.18 29.56 27.95 27.39 28.58 27.33 25.00 26.41 24.69 26.41 27.33 27.13 30.26 28.34 29.97 25.04 27.66 26.81 32.69 34.30 27.96 28.96 29.07 28.49 29.81 33.37
45.41 45.16 45.41 45.13 44.60 44.54 44.27 44.74 45.50 45.71 43.74 35.26 35.32 35.35 32.77 30.39 28.07 28.33 28.09 29.42 29.71 31.23 31.79 32.40 30.19 28.23 27.65 29.24 30.61 30.74 31.41 31.97 31.41 28.65 27.33 27.63 26.75 26.86 23.87 30.28 31.89 24.53 27.12 29.86 28.95 29.69 31.09
45.09 44.90 45.11 45.01 44.63 44.20 43.87 44.36 45.31 45.64 43.54 38.37 36.16 33.32 31.09 26.74 28.76 29.28 32.14 32.01 30.71 31.02 29.24 32.81 32.38 29.56 32.75 35.50 34.55 32.84 31.93 31.88 31.76 31.05 31.44 27.79 27.80 28.05 24.61 28.66 19.66 29.19 32.03 33.33 30.50 30.20 30.86
45.39 45.11 44.97 44.92 44.34 43.48 43.87 44.31 45.55 45.95 45.22 38.95 37.50 35.17 31.75 27.16 30.37 31.50 31.84 31.21 30.79 31.52 30.61 31.46 32.89 34.23 34.57 32.31 28.66 27.12 27.52 28.84 30.84 33.46 31.80 30.58 28.50 26.47 22.39 24.25 27.13 28.75 28.36 27.60 27.34 27.93 32.09
44.57 44.91 44.82 44.86 44.33 43.60 44.04 44.41 45.03 46.12 44.91 39.05 37.55 37.66 34.45 31.09 29.22 34.14 30.73 30.90 27.52 27.22 28.15 30.57 34.65 35.07 32.66 28.93 24.37 23.27 22.10 25.62 25.94 27.98 32.64 31.34 29.82 28.37 24.44 22.36 17.07 25.22 28.81 32.57 34.02 23.85 31.39
44.05 44.91 45.44 44.91 43.89 43.63 44.09 44.53 45.67 46.00 45.07 40.47 37.85 37.66 34.36 29.82 32.42 33.28 29.58 29.59 31.53 29.08 26.61 29.27 30.75 29.90 30.56 22.80 23.47 22.09 23.22 27.62 24.02 23.80 25.10 25.96 25.86 23.16 22.36 23.37 25.37 28.48 30.17 32.64 22.75 21.58 30.78
44.98 45.20 45.24 45.06 44.00 43.58 43.83 44.46 45.88 45.64 44.86 40.98 39.19 38.79 33.76 29.34 31.55 35.15 36.99 32.85 32.04 29.56 25.25 28.47 25.91 26.69 26.10 21.82 23.65 22.68 22.64 26.10 25.70 28.09 28.73 25.27 24.37 22.32 23.71 19.50 14.75 30.16 29.57 24.76 29.49 32.65 31.42
44.80 45.06 45.10 45.01 44.31 43.86 43.74 44.46 45.38 45.06 44.51 42.61 36.81 39.87 38.60 32.53 31.42 36.22 37.04 37.20 36.38 34.82 31.45 30.31 27.99 28.60 29.58 22.62 21.07 24.94 23.84 23.65 25.12 20.38 29.62 20.05 27.97 25.36 26.48 24.98 30.53 31.24 30.50 32.66 33.07 31.62 31.16

GFSGBSN_sfc_wetblb_129.txt.gz
Wetbulb
61.13 60.72 60.14 59.49 59.48 58.56 58.26 57.65 56.79 55.67 54.43 53.40 52.46 51.62 51.26 50.71 50.29 49.96 49.76 49.63 49.97 49.97 49.69 50.38 51.40 51.88 44.97 38.12 38.32 45.78 51.46 49.81 48.04 46.68 44.43 42.65 40.78 39.20 36.28 37.31 38.13 36.46 37.24 38.85 39.86 40.03 39.95
57.71 60.26 59.86 59.37 59.08 58.90 58.38 57.74 56.79 55.29 53.82 53.04 52.10 51.54 50.97 50.40 49.64 49.72 49.61 49.48 49.56 49.28 49.48 50.46 51.60 50.53 41.63 36.34 44.03 45.84 47.10 46.96 46.46 45.61 44.43 44.59 41.79 41.99 38.17 37.31 36.37 37.74 38.04 38.15 39.35 39.39 39.76
56.91 57.88 59.50 59.11 58.53 58.63 57.99 57.30 56.45 55.39 53.68 52.79 51.81 51.37 50.71 49.71 49.46 49.22 49.20 49.15 49.05 49.37 49.80 50.40 51.16 46.97 40.84 38.53 45.57 47.13 47.79 46.46 46.84 45.57 43.20 45.03 44.61 42.11 40.50 37.13 39.48 38.23 34.86 36.67 37.38 37.57 37.42
55.27 56.16 57.79 58.88 58.23 57.72 57.35 56.84 56.37 55.19 53.53 52.58 51.83 50.99 50.12 49.58 48.98 48.72 48.88 48.75 49.45 50.04 50.27 50.12 50.69 44.97 38.84 46.14 47.08 47.88 48.01 46.54 46.67 45.89 44.94 45.57 45.34 42.23 39.84 40.46 37.91 35.11 34.21 30.93 35.90 38.02 38.07
54.71 55.45 56.23 57.31 58.30 57.62 57.03 56.69 56.18 55.06 53.30 52.79 51.91 50.90 49.93 49.14 48.52 48.11 48.46 49.15 51.15 51.35 51.14 50.73 44.66 41.90 37.65 48.38 44.46 46.45 47.95 44.06 44.64 44.89 45.55 46.54 44.40 39.93 38.90 34.56 32.14 32.01 29.29 29.49 32.48 37.47 36.94
54.44 54.90 55.55 56.13 58.15 57.59 57.26 56.68 55.71 54.35 53.57 52.62 51.62 50.44 49.72 48.99 48.24 48.36 49.23 49.58 51.24 49.96 49.33 48.49 45.58 38.51 41.78 39.48 43.30 43.88 45.34 45.04 42.61 42.77 42.35 41.32 38.33 36.00 34.41 33.39 27.16 28.12 28.24 30.29 29.69 34.62 35.71
53.10 55.02 55.22 55.68 56.03 58.31 57.69 57.05 55.36 53.58 52.98 52.50 51.03 50.04 49.33 48.62 47.88 47.89 45.52 45.22 38.53 38.49 43.16 36.87 37.24 37.20 38.88 42.38 43.46 42.53 44.09 43.21 42.94 40.98 35.44 37.41 34.12 31.23 33.36 33.37 33.85 31.57 29.90 29.24 32.74 36.30 33.93
52.64 53.49 54.91 55.78 55.68 57.75 58.14 57.12 54.80 53.25 52.71 51.44 50.51 49.46 49.08 48.14 47.55 47.70 43.70 37.41 37.88 39.62 33.69 37.84 38.18 38.57 40.74 42.17 38.67 41.01 44.58 40.34 38.67 33.92 35.70 34.06 30.86 35.08 35.35 34.12 31.91 31.22 29.07 29.39 33.42 36.94 35.78
51.56 52.89 54.17 55.19 55.92 57.09 57.80 56.64 54.21 52.69 52.11 51.09 50.24 49.31 48.33 47.59 47.29 45.36 41.14 41.09 43.71 42.39 33.81 35.79 39.26 38.80 40.17 41.15 38.36 38.74 42.67 40.65 36.78 33.60 32.99 31.58 34.24 35.93 33.95 33.35 31.11 31.59 29.45 30.46 30.20 34.47 36.55
50.92 52.13 53.43 55.80 55.87 56.25 57.15 56.05 53.48 52.22 51.39 50.25 49.70 48.85 47.97 47.39 43.98 42.43 41.10 44.16 43.92 43.97 31.25 33.74 36.67 39.99 41.00 40.72 37.32 42.17 43.37 41.20 36.73 32.98 33.08 32.23 34.87 33.19 31.84 30.95 32.23 28.11 34.35 33.42 31.62 30.44 26.78
49.85 51.14 53.43 56.12 55.31 55.11 56.37 54.23 52.59 51.47 50.45 49.83 48.40 47.43 47.17 47.52 41.52 40.67 43.05 43.39 44.85 41.92 22.39 35.15 36.76 43.93 40.63 37.50 38.30 38.63 44.30 40.95 35.21 34.68 33.79 32.35 33.00 32.73 31.06 32.23 34.09 31.50 34.89 33.76 33.47 30.81 29.39
49.31 53.50 55.18 55.97 55.20 55.23 53.97 52.31 50.85 49.89 49.17 48.42 47.29 46.97 47.26 43.92 42.09 44.24 44.75 44.38 42.64 30.45 21.80 30.93 35.03 34.96 34.90 36.51 36.93 39.69 40.42 42.27 40.57 35.00 34.18 34.09 37.99 35.95 34.81 36.31 36.07 37.53 34.65 35.00 33.65 29.79 21.04
49.80 55.49 55.81 55.04 55.02 53.83 51.93 50.68 49.32 48.95 48.61 47.38 46.50 46.55 45.67 44.76 40.66 44.13 44.98 41.73 29.70 23.66 32.07 27.96 30.30 33.90 33.23 32.12 33.84 35.75 34.88 33.26 30.57 26.86 26.70 31.00 32.70 36.58 36.99 33.54 37.41 35.92 32.36 25.37 22.82 21.63 23.10
46.93 54.95 54.98 54.46 52.95 51.16 50.08 49.17 48.84 48.41 47.68 46.92 47.21 47.15 45.61 43.69 43.73 44.23 41.89 34.85 23.37 28.20 28.48 32.50 32.39 32.36 29.78 32.21 31.69 31.77 32.96 30.02 33.68 31.93 27.41 23.86 24.26 33.63 37.64 35.11 32.78 33.17 31.62 25.98 18.92 20.97 24.75
47.62 46.54 53.32 51.91 50.37 49.54 49.20 48.84 48.15 47.84 47.19 47.35 46.06 41.47 40.67 41.60 44.28 44.05 37.01 27.67 27.01 28.87 31.55 30.84 31.78 27.81 28.15 30.44 31.10 30.10 29.43 30.17 32.65 32.77 25.37 24.57 24.23 34.78 35.25 38.67 37.36 34.74 30.46 35.25 27.68 28.87 24.24
47.55 46.38 44.24 48.51 49.48 49.04 48.24 47.53 47.31 47.24 46.74 45.52 39.43 39.20 38.72 43.02 44.41 41.18 33.01 29.16 29.26 33.60 33.84 33.17 26.77 29.41 25.59 27.81 28.17 26.94 28.22 32.45 31.33 33.89 34.27 29.64 23.37 31.75 35.35 39.37 40.08 36.66 38.48 29.85 30.16 20.91 20.07
46.28 46.49 45.96 44.90 44.40 46.21 46.29 46.73 46.40 45.45 45.75 45.28 40.86 37.27 41.69 43.99 43.77 35.91 28.28 29.07 31.78 35.43 36.25 32.36 29.30 28.20 28.73 28.04 28.70 25.65 28.15 31.93 33.71 32.83 33.35 31.29 28.83 29.17 33.80 32.84 30.72 33.85 31.67 32.77 32.10 30.31 24.78
44.17 43.98 44.24 44.71 44.74 44.10 44.08 44.75 45.06 45.18 45.09 43.81 39.10 31.87 41.17 43.38 34.15 32.27 29.77 32.35 36.14 34.00 36.49 34.31 34.29 32.33 30.28 29.43 27.83 27.67 28.50 31.42 34.95 33.67 29.16 32.82 30.19 25.36 27.91 34.80 37.78 35.19 32.68 32.76 27.61 27.41 30.49
45.98 45.75 45.10 44.38 44.26 44.46 45.45 45.66 45.14 44.73 45.75 40.08 36.15 35.61 41.73 41.87 29.45 29.77 33.45 33.59 34.77 33.46 33.67 32.95 32.56 33.43 33.17 29.39 26.06 29.15 30.29 34.43 35.10 33.06 31.18 33.43 29.33 22.68 25.03 32.31 35.20 31.50 32.45 33.22 34.61 33.41 29.15
45.52 45.02 44.69 45.07 45.04 45.16 45.33 44.95 45.54 46.67 46.42 40.44 35.56 30.17 34.97 37.13 35.36 33.06 30.72 30.52 30.64 35.44 33.52 33.98 31.81 32.78 30.38 28.31 30.13 27.83 28.25 32.78 35.14 34.04 36.66 36.71 30.95 26.65 22.20 25.45 30.87 28.49 29.91 31.41 30.57 29.80 29.27
45.44 45.28 44.25 44.73 44.63 45.00 45.48 45.69 45.98 46.51 46.33 39.29 34.12 30.21 34.00 28.91 30.96 30.79 32.51 32.30 30.39 29.04 33.24 33.84 30.68 30.58 29.38 25.55 26.60 26.17 29.52 30.97 33.42 35.96 35.00 33.32 26.61 29.15 30.28 31.22 31.98 30.64 29.35 29.04 27.06 30.23 26.75
45.37 44.88 45.05 45.36 44.79 45.61 45.87 46.22 46.06 46.49 45.49 36.93 32.82 32.24 33.36 32.44 33.31 31.14 32.53 30.38 29.92 30.02 31.43 29.26 29.66 30.10 29.97 27.54 28.66 26.60 29.56 30.21 29.96 32.76 31.75 32.40 27.43 29.24 28.21 32.78 32.76 28.76 29.55 29.55 28.13 28.65 30.64
45.16 45.45 45.58 45.50 44.93 45.17 45.23 45.63 45.85 46.17 43.25 36.59 36.72 36.94 34.89 30.89 29.93 30.08 29.80 30.53 30.84 32.70 33.74 33.73 32.17 30.47 28.77 30.60 33.14 34.21 34.45 34.98 34.25 31.63 29.92 29.59 29.12 28.19 24.61 30.83 32.06 25.08 27.15 29.43 28.94 29.43 29.36
45.26 45.63 45.41 44.95 44.76 44.67 44.61 45.04 45.70 45.80 43.73 39.70 37.97 35.40 32.54 27.67 29.82 30.17 32.20 32.88 31.47 32.16 31.69 33.91 34.22 32.78 34.17 37.12 36.51 35.45 33.71 33.31 33.42 33.23 33.74 29.87 29.30 29.50 25.93 28.98 20.03 28.89 31.64 33.14 30.00 30.41 31.27
45.42 45.26 45.02 44.74 44.54 43.98 44.18 44.97 45.63 45.70 44.75 39.78 38.74 36.22 33.22 28.77 31.69 31.92 33.02 31.96 32.65 33.57 32.52 33.01 34.31 35.56 36.73 35.26 31.55 29.42 30.05 30.71 31.97 34.11 32.74 32.63 31.13 28.21 24.96 24.63 28.23 29.10 28.63 27.03 27.36 26.64 30.35
45.26 45.38 45.14 44.83 43.84 43.91 44.03 44.88 45.59 45.37 44.19 39.59 37.64 38.29 37.07 32.78 30.63 34.55 31.79 32.45 29.78 29.61 30.51 32.62 35.95 36.83 35.93 31.96 29.64 25.12 23.63 27.17 26.89 28.99 34.20 31.95 31.97 29.24 26.34 22.00 18.98 25.93 29.56 32.29 33.51 24.05 30.78
44.92 45.23 45.35 44.32 43.72 43.89 44.01 44.85 46.00 45.45 44.54 40.40 38.44 38.35 37.40 32.23 33.79 34.87 31.72 31.47 32.79 30.78 29.08 31.58 32.68 32.55 34.42 29.62 27.75 26.17 25.24 29.51 25.16 24.77 25.22 27.18 27.91 23.88 23.50 23.73 25.20 28.39 30.70 32.53 24.87 23.79 30.84
44.57 44.66 45.19 44.56 43.74 43.67 44.26 45.70 45.59 45.30 44.73 41.22 39.36 39.83 36.73 32.61 32.79 36.93 37.76 34.06 33.03 31.83 29.25 31.46 30.71 31.07 30.13 26.99 26.84 26.78 26.73 28.40 27.99 29.47 27.76 25.46 24.30 23.48 24.14 21.27 18.37 30.18 30.62 25.28 28.15 32.69 31.21
44.21 44.13 44.91 44.35 44.43 43.84 44.60 45.49 45.05 45.00 44.95 42.15 37.46 39.85 39.48 34.79 33.37 37.48 38.39 38.46 37.87 36.95 33.62 32.09 30.71 30.92 32.06 28.12 27.89 29.02 27.70 28.91 27.77 24.40 31.79 25.95 28.94 25.96 26.27 25.62 30.68 31.43 30.31 31.77 31.89 30.04 29.41

GFSGBSN_sfc_wetblb_132.txt.gz
Wetbulb
57.84 57.90 60.97 60.44 59.95 59.66 59.46 58.70 57.86 56.99 56.49 55.56 54.33 53.60 52.52 52.10 51.44 50.54 50.16 49.81 50.16 50.18 50.24 50.82 51.98 52.64 50.16 43.42 44.26 49.81 52.92 54.81 51.30 50.23 48.06 45.87 44.25 43.34 41.01 41.77 42.37 41.23 42.18 42.81 43.99 43.67 43.61
55.99 56.31 57.36 58.85 59.75 59.62 59.72 58.98 57.78 56.77 55.91 54.82 53.72 53.08 52.42 51.74 51.07 50.24 49.90 49.83 49.66 49.68 49.73 50.92 52.02 51.77 47.49 39.63 47.68 50.12 51.38 49.82 49.67 49.01 47.88 47.89 45.19 45.40 42.18 41.33 40.82 42.23 42.09 42.64 43.50 43.49 43.97
55.86 55.86 55.69 55.72 56.95 59.24 59.30 58.40 57.62 56.82 55.87 54.49 53.55 53.05 52.32 51.39 50.57 50.05 49.58 49.70 49.40 49.58 50.39 51.17 51.66 50.60 46.06 42.19 49.37 52.27 51.29 49.60 50.01 48.91 46.44 47.90 47.95 45.58 44.79 42.24 43.75 42.65 39.94 42.37 42.12 41.87 42.21
54.09 54.63 55.00 55.16 55.63 56.78 58.35 58.11 57.58 56.98 55.67 54.37 53.55 53.03 52.28 51.28 50.41 49.62 49.17 49.08 49.26 49.90 50.79 51.07 51.34 49.60 43.38 49.28 52.57 50.50 51.43 49.18 49.66 49.81 48.46 48.91 48.73 46.10 44.08 44.91 42.86 40.11 40.44 37.85 40.36 41.58 42.19
53.19 53.73 54.18 54.87 54.93 55.68 56.79 57.80 57.22 57.00 55.85 54.34 53.38 52.84 51.95 51.18 50.20 49.26 48.61 48.83 50.91 51.80 51.84 51.07 48.67 46.91 41.51 50.57 47.35 49.18 50.71 46.79 47.91 48.93 49.45 48.44 47.81 44.61 43.75 40.35 39.26 39.02 36.00 36.92 38.07 41.41 41.11
53.14 53.15 53.63 54.03 54.23 55.05 55.76 57.04 57.15 56.53 55.48 53.89 53.24 52.60 51.62 50.78 49.81 49.30 48.69 50.15 51.32 51.79 50.53 50.19 48.76 43.68 44.75 42.84 46.48 46.97 49.11 48.04 46.47 46.58 45.98 45.48 45.28 42.01 41.83 39.53 34.24 35.28 34.99 37.01 36.77 40.35 41.62
53.46 53.60 54.14 53.72 53.51 54.17 55.59 56.20 57.40 56.17 54.97 53.92 53.37 52.54 51.49 50.44 49.27 48.70 48.35 50.25 45.64 44.36 46.30 41.88 42.15 41.15 42.91 46.12 47.26 46.01 47.55 46.72 46.69 44.78 40.76 42.96 39.86 38.03 39.00 38.79 38.20 36.75 36.03 35.97 39.36 41.97 39.72
52.41 52.62 51.83 52.85 52.97 53.75 54.77 55.73 56.53 56.08 54.69 53.81 52.85 51.75 50.62 49.36 48.85 48.73 49.12 44.47 43.09 45.35 39.94 43.60 42.08 42.17 43.82 45.83 41.80 44.52 48.04 43.59 42.34 39.42 41.19 39.97 37.52 39.75 39.97 38.98 37.22 37.04 36.14 36.40 39.39 40.97 40.39
52.57 51.63 51.32 51.86 52.34 53.09 54.12 55.35 55.53 56.08 54.39 53.16 52.05 51.37 49.24 48.98 48.48 47.24 46.09 45.37 48.66 47.09 39.70 38.72 42.48 41.75 43.33 45.14 41.18 42.53 46.01 43.88 40.67 38.43 38.70 36.84 39.15 39.95 38.05 37.79 36.29 37.51 35.92 36.10 35.88 39.63 42.04
52.29 51.58 50.68 51.18 51.99 52.61 53.32 54.62 55.32 55.92 53.64 52.49 51.17 50.02 49.39 48.40 44.25 46.13 43.04 48.57 48.17 48.71 36.98 37.07 39.39 42.92 44.10 44.38 39.98 45.83 46.97 44.00 41.02 37.67 37.93 37.63 39.73 37.27 37.34 36.63 37.52 33.56 38.98 37.78 37.17 36.46 32.72
51.35 50.81 49.55 49.97 51.18 51.33 51.99 53.38 54.80 55.73 53.39 51.72 50.29 50.02 48.90 48.12 44.55 42.90 45.45 49.13 49.82 48.12 25.78 38.69 39.61 47.50 44.32 40.82 42.12 41.99 47.46 44.02 38.70 37.62 37.93 36.28 36.24 35.85 34.61 36.11 38.18 36.06 40.15 38.40 38.31 36.62 33.76
50.63 50.31 49.40 49.81 52.80 52.50 51.95 52.56 54.19 54.59 52.72 50.80 49.97 49.02 48.43 46.08 44.81 45.78 46.81 48.89 47.86 34.64 24.46 33.96 38.95 38.31 38.34 39.77 40.01 42.87 42.65 45.19 43.93 38.34 39.02 37.89 41.09 39.09 38.88 40.01 40.29 41.12 38.78 39.95 38.41 35.15 27.37
50.06 50.01 48.39 48.70 53.82 53.92 53.06 53.32 54.55 52.95 50.90 49.60 48.56 47.77 45.36 46.13 42.61 47.15 47.78 44.79 32.20 27.92 37.12 31.22 33.83 37.57 37.51 36.10 37.51 39.41 37.95 37.51 36.60 32.02 32.29 35.22 36.67 40.22 40.51 37.81 41.01 39.23 37.59 32.30 29.95 29.30 29.04
49.05 49.04 47.37 49.77 54.94 54.53 54.26 54.61 52.53 50.77 49.53 48.12 47.38 47.23 45.81 47.12 46.34 48.31 46.56 37.77 26.04 33.49 33.00 36.54 36.74 37.06 34.10 36.58 36.00 36.67 36.73 34.95 37.14 35.31 33.85 30.66 29.09 37.17 40.12 37.00 36.61 37.32 35.71 30.85 22.59 26.59 29.70
48.12 48.21 47.23 48.85 55.04 54.54 54.20 52.41 50.37 48.88 47.81 47.40 46.66 43.58 43.06 45.00 48.11 49.09 40.59 29.82 31.62 33.74 35.30 34.61 35.72 32.70 32.16 34.77 35.33 34.99 35.28 35.01 35.82 36.09 30.40 30.17 29.11 37.01 38.10 40.75 41.30 35.78 35.42 38.44 31.59 34.09 28.49
47.51 47.39 46.47 45.65 52.91 53.33 50.57 49.57 48.62 47.69 47.44 46.15 40.85 40.04 40.99 46.45 48.30 45.86 37.59 31.93 34.52 37.08 37.86 36.67 31.25 33.98 30.04 32.18 32.52 34.16 33.51 36.99 35.16 36.84 37.61 33.20 28.11 35.05 36.93 41.89 42.17 39.17 41.28 32.86 34.12 24.98 23.40
46.32 46.29 46.34 44.94 46.89 49.15 48.93 48.46 47.82 47.25 45.89 45.08 40.04 34.84 43.28 47.06 48.13 39.22 31.05 33.89 35.19 38.85 39.40 35.78 33.52 31.68 32.97 31.77 33.48 31.85 32.94 35.99 37.53 35.81 37.37 36.06 32.42 33.04 36.51 35.51 34.84 37.37 35.54 34.87 34.56 33.01 27.26
44.45 45.21 45.38 45.32 45.18 45.06 47.43 47.58 46.22 45.50 46.01 44.63 40.96 32.58 44.22 46.22 35.85 37.62 34.08 36.04 38.31 37.54 39.54 37.00 38.10 35.89 34.09 33.75 32.18 31.87 32.27 35.14 38.79 37.03 33.26 37.09 34.45 30.33 31.74 38.15 40.26 38.48 34.79 35.18 29.59 27.26 32.83
44.69 44.29 44.50 43.85 44.27 45.58 44.89 44.67 44.62 45.73 46.24 44.24 37.07 35.37 43.66 44.54 32.11 33.36 37.12 35.64 37.35 36.67 36.75 36.21 34.90 36.29 37.48 33.85 30.01 33.50 34.65 37.90 37.90 35.92 35.71 37.29 33.34 28.48 30.31 35.42 38.98 34.03 35.25 34.62 34.90 33.66 30.16
45.41 44.50 44.46 44.78 43.38 42.98 43.86 44.27 44.99 46.34 46.32 44.73 39.36 31.58 36.42 38.64 38.86 34.97 33.67 33.65 32.65 37.50 35.63 37.08 35.56 37.26 35.05 32.68 34.51 32.13 32.33 35.26 37.56 37.20 36.61 38.17 34.66 29.65 26.77 29.55 33.15 31.05 32.32 34.17 33.40 30.22 29.48
45.03 44.84 44.40 44.68 44.44 45.31 44.29 43.00 44.56 45.67 46.13 43.12 39.22 33.98 35.81 31.09 33.65 35.53 36.35 34.73 31.79 31.26 36.27 36.65 34.41 34.81 34.04 30.15 31.15 30.27 33.07 34.02 36.36 37.78 38.16 37.31 30.32 33.06 34.29 35.10 33.27 30.46 31.37 31.31 29.49 31.69 29.34
44.76 44.25 43.90 43.64 44.74 45.29 44.95 45.12 45.54 46.55 45.36 41.97 35.29 35.43 37.72 35.81 37.15 35.35 35.70 34.79 33.39 32.57 34.22 32.96 33.60 35.02 35.02 31.61 32.10 30.47 33.32 34.81 34.45 36.58 35.96 36.79 32.23 33.55 31.88 35.30 33.96 30.21 32.20 32.43 30.46 30.08 30.69
44.67 44.63 45.15 45.25 45.12 45.38 45.50 45.59 46.25 46.56 44.69 41.90 41.17 40.53 39.69 36.61 36.46 35.25 35.01 35.03 34.41 35.46 35.85 37.84 36.60 34.59 32.84 34.28 37.56 38.72 38.88 38.08 37.84 35.98 35.70 34.33 33.75 31.99 28.33 33.56 32.12 28.26 28.83 30.54 30.33 30.85 30.22
45.29 45.20 45.22 44.78 45.35 45.20 45.41 45.40 45.88 46.30 44.67 43.74 42.76 41.36 39.16 32.87 35.81 35.19 35.76 36.17 35.18 36.87 34.83 36.97 38.11 35.25 37.40 41.56 40.85 39.67 38.32 37.39 37.45 37.49 38.51 34.14 32.54 32.40 29.96 32.25 23.19 28.88 32.99 33.83 30.53 30.25 31.82
45.14 45.08 45.47 45.01 44.82 44.74 44.84 45.21 45.71 45.83 44.74 45.28 43.81 42.98 40.42 34.57 36.86 34.98 36.26 36.43 37.71 38.50 36.82 36.52 37.24 39.42 41.67 39.71 35.37 32.84 33.79 35.14 35.71 37.99 37.79 38.09 34.31 30.11 28.44 29.34 28.97 29.19 30.88 29.01 29.10 27.18 31.11
45.36 45.32 45.13 45.05 44.42 44.42 44.88 45.45 45.64 45.00 43.83 43.98 42.98 43.23 44.02 37.13 35.64 38.82 36.79 37.45 34.51 34.38 34.85 35.40 39.31 40.91 40.46 37.73 34.21 29.06 27.09 31.53 30.50 32.36 37.72 36.92 36.69 32.57 30.52 24.95 21.97 29.77 32.58 33.35 33.56 26.70 31.27
45.47 45.52 45.19 44.38 44.18 44.01 44.72 45.62 45.92 45.21 44.38 45.01 43.39 44.26 44.66 38.05 38.72 40.22 36.64 35.77 38.49 36.87 34.52 36.37 36.42 37.00 39.43 35.95 32.27 30.79 29.74 34.49 29.27 28.43 28.64 30.68 31.53 28.82 29.63 27.86 27.69 31.98 34.24 34.61 26.34 25.69 32.13
45.31 45.33 45.07 44.52 44.14 44.06 45.29 45.64 45.52 45.15 44.50 45.18 43.52 44.70 44.65 40.25 39.03 41.18 40.46 38.04 37.45 38.41 34.09 36.09 35.02 35.70 36.24 33.06 33.03 33.19 32.29 33.56 32.04 32.40 30.17 29.85 29.15 29.47 28.60 26.01 23.08 34.36 34.25 29.94 29.59 32.95 32.18
44.77 45.01 44.82 44.60 43.71 44.53 45.76 45.47 45.36 45.35 44.37 44.07 42.50 44.58 45.85 42.47 39.49 42.22 41.52 42.49 42.18 41.30 38.75 37.05 35.87 35.76 37.78 35.65 36.85 36.41 32.75 33.94 32.92 27.41 35.68 28.22 32.86 31.54 30.27 29.18 32.90 35.02 32.74 33.69 32.85 30.38 30.93